DY7077 / LN-LNV 7700 Squawk Report (12th of October, 2019)

Aircraft B789 Reg No. LN-LNV Age 2 years old
Model 787 Jet engines 2 First flight 30-08-17
Registered 13-08-18 Rollout N/A Delivered 22-11-17
Construction No. 63312 Line No. 0608 Series 9
ADSHEX 47C9B5 Airline name Norwegian Long Haul Owner N/A
Airfield based Oslo-Gardermoen~Akershus~LN First tracked 2018-10-20 01:05:00

Flight history for LN-LNV

Time Lat Lon Altitude Heading Speed Vertical Rate
2019-10-13 04:14:28 GMT 37.712791 -122.215935 0 112 0 0
2019-10-13 04:14:24 GMT 37.712795 -122.215942 0 112 0 0
2019-10-13 04:14:17 GMT 37.712791 -122.215935 0 112 0 0
2019-10-13 04:14:13 GMT 37.712795 -122.215942 0 112 0 0
2019-10-13 04:14:07 GMT 37.712818 -122.215973 0 112 2 0
2019-10-13 04:14:03 GMT 37.712830 -122.216003 0 112 0 0
2019-10-13 04:13:55 GMT 37.712860 -122.216064 0 112 3 0
2019-10-13 04:13:51 GMT 37.712887 -122.216110 0 115 3 0
2019-10-13 04:13:46 GMT 37.712921 -122.216156 0 112 3 0
2019-10-13 04:13:41 GMT 37.712963 -122.216225 0 115 4 0
2019-10-13 04:13:35 GMT 37.713039 -122.216347 0 115 5 0
2019-10-13 04:13:31 GMT 37.713097 -122.216454 0 120 6 0
2019-10-13 04:13:23 GMT 37.713200 -122.216599 0 126 5 0
2019-10-13 04:13:19 GMT 37.713238 -122.216660 0 137 4 0
2019-10-13 04:13:12 GMT 37.713329 -122.216812 0 171 5 0
2019-10-13 04:13:09 GMT 37.713387 -122.216850 0 185 5 0
2019-10-13 04:13:02 GMT 37.713528 -122.216812 0 196 6 0
2019-10-13 04:12:58 GMT 37.713631 -122.216721 0 194 7 0
2019-10-13 04:12:52 GMT 37.713772 -122.216614 0 185 6 0
2019-10-13 04:12:47 GMT 37.713879 -122.216530 0 171 6 0
2019-10-13 04:12:42 GMT 37.713993 -122.216469 0 151 5 0
2019-10-13 04:12:37 GMT 37.714108 -122.216469 0 140 8 0
2019-10-13 04:12:30 GMT 37.714306 -122.216568 0 126 7 0
2019-10-13 04:12:27 GMT 37.714417 -122.216690 0 123 7 0
2019-10-13 04:12:21 GMT 37.714542 -122.216835 0 123 6 0
2019-10-13 04:12:15 GMT 37.714645 -122.216957 0 123 7 0
2019-10-13 04:12:10 GMT 37.714794 -122.217125 0 123 11 0
2019-10-13 04:12:05 GMT 37.714977 -122.217323 0 123 11 0
2019-10-13 04:12:00 GMT 37.715183 -122.217567 0 120 10 0
2019-10-13 04:11:55 GMT 37.715343 -122.217743 0 118 10 0
2019-10-13 04:11:50 GMT 37.715485 -122.217918 0 109 10 0
2019-10-13 04:11:43 GMT 37.715664 -122.218193 0 73 10 0
2019-10-13 04:11:39 GMT 37.715687 -122.218445 0 50 10 0
2019-10-13 04:11:34 GMT 37.715595 -122.218697 0 33 10 0
2019-10-13 04:11:30 GMT 37.715485 -122.218857 0 33 12 0
2019-10-13 04:11:27 GMT 37.715355 -122.219032 0 33 14 0
2019-10-13 04:11:23 GMT 37.715157 -122.219299 0 33 16 0
2019-10-13 04:11:20 GMT 37.714989 -122.219528 0 33 16 0
2019-10-13 04:11:16 GMT 37.714867 -122.219719 0 33 16 0
2019-10-13 04:11:12 GMT 37.714645 -122.220039 0 33 16 0
2019-10-13 04:11:07 GMT 37.714439 -122.220329 0 33 16 0
2019-10-13 04:10:55 GMT 37.713844 -122.221176 0 33 15 0
2019-10-13 04:10:47 GMT 37.713516 -122.221649 0 33 14 0
2019-10-13 04:10:43 GMT 37.713387 -122.221817 0 33 14 0
2019-10-13 04:10:35 GMT 37.712997 -122.222328 0 25 13 0
2019-10-13 04:10:29 GMT 37.712757 -122.222588 0 25 13 0
2019-10-13 04:10:24 GMT 37.712494 -122.222855 0 25 13 0
2019-10-13 04:10:19 GMT 37.712269 -122.223106 0 25 12 0
2019-10-13 04:10:16 GMT 37.712173 -122.223190 0 25 12 0
2019-10-13 04:10:12 GMT 37.712048 -122.223335 0 25 12 0
2019-10-13 04:10:08 GMT 37.711853 -122.223541 0 25 11 0
2019-10-13 04:10:01 GMT 37.711632 -122.223763 0 25 11 0
2019-10-13 04:09:54 GMT 37.711349 -122.224068 0 30 11 0
2019-10-13 04:09:51 GMT 37.711246 -122.224174 0 36 11 0
2019-10-13 04:09:45 GMT 37.711052 -122.224449 0 75 10 0
2019-10-13 04:09:41 GMT 37.711014 -122.224678 0 104 10 0
2019-10-13 04:09:36 GMT 37.711132 -122.224930 0 115 10 0
2019-10-13 04:09:29 GMT 37.711292 -122.225197 0 115 14 0
2019-10-13 04:09:25 GMT 37.711487 -122.225487 0 115 14 0
2019-10-13 04:09:20 GMT 37.711712 -122.225822 0 115 14 0
2019-10-13 04:09:14 GMT 37.711922 -122.226143 0 115 14 0
2019-10-13 04:09:08 GMT 37.712128 -122.226448 0 115 13 0
2019-10-13 04:09:04 GMT 37.712330 -122.226753 0 115 13 0
2019-10-13 04:08:58 GMT 37.712524 -122.227051 0 115 13 0
2019-10-13 04:08:52 GMT 37.712723 -122.227348 0 115 12 0
2019-10-13 04:08:48 GMT 37.712906 -122.227608 0 115 12 0
2019-10-13 04:08:40 GMT 37.713135 -122.227959 0 115 12 0
2019-10-13 04:08:37 GMT 37.713261 -122.228142 0 115 11 0
2019-10-13 04:08:32 GMT 37.713459 -122.228439 0 115 11 0
2019-10-13 04:08:27 GMT 37.713604 -122.228668 0 115 11 0
2019-10-13 04:08:20 GMT 37.713783 -122.228928 0 115 11 0
2019-10-13 04:08:16 GMT 37.713924 -122.229141 0 115 11 0
2019-10-13 04:08:09 GMT 37.714142 -122.229477 0 115 10 0
2019-10-13 04:08:05 GMT 37.714233 -122.229622 0 115 10 0
2019-10-13 04:07:58 GMT 37.714447 -122.229935 0 115 10 0
2019-10-13 04:07:54 GMT 37.714531 -122.230057 0 115 9 0
2019-10-13 04:07:48 GMT 37.714680 -122.230286 0 112 9 0
2019-10-13 04:07:44 GMT 37.714783 -122.230453 0 112 8 0
2019-10-13 04:07:37 GMT 37.714943 -122.230675 0 92 9 0
2019-10-13 04:07:34 GMT 37.715031 -122.230858 0 70 9 0
2019-10-13 04:07:28 GMT 37.715023 -122.231155 0 33 10 0
2019-10-13 04:07:22 GMT 37.714924 -122.231392 0 5 11 0
2019-10-13 04:07:17 GMT 37.714668 -122.231506 0 337 11 0
2019-10-13 04:07:13 GMT 37.714424 -122.231468 0 331 15 0
2019-10-13 04:07:06 GMT 37.714039 -122.231346 0 326 16 0
2019-10-13 04:07:02 GMT 37.713741 -122.231232 0 326 18 0
2019-10-13 04:06:55 GMT 37.713131 -122.230904 0 317 25 0
2019-10-13 04:06:51 GMT 37.712749 -122.230637 0 312 25 0
2019-10-13 04:06:44 GMT 37.711956 -122.229912 0 303 26 0
2019-10-13 04:06:41 GMT 37.711739 -122.229652 0 298 30 0
2019-10-13 04:06:34 GMT 37.710918 -122.228439 0 295 67 0
2019-10-13 04:06:30 GMT 37.710045 -122.227104 0 295 84 0
2019-10-13 04:06:23 GMT 37.707825 -122.223740 50 311 108 -64
2019-10-13 04:06:19 GMT 37.706818 -122.222313 25 311 122 -64
2019-10-13 04:06:12 GMT 37.704117 -122.218170 50 310 137 -128
2019-10-13 04:06:09 GMT 37.702751 -122.216156 50 310 140 -704
2019-10-13 04:06:02 GMT 37.699951 -122.211914 150 311 141 -704
2019-10-13 04:05:57 GMT 37.697865 -122.208809 200 311 141 -832
2019-10-13 04:05:51 GMT 37.695145 -122.204727 300 311 141 -768
2019-10-13 04:05:48 GMT 37.693768 -122.202660 325 311 141 -768
2019-10-13 04:05:40 GMT 37.690926 -122.198357 425 311 139 -768
2019-10-13 04:05:34 GMT 37.687855 -122.193764 500 310 137 -768
2019-10-13 04:05:29 GMT 37.686459 -122.191734 550 310 135 -768
2019-10-13 04:05:26 GMT 37.684891 -122.189354 600 310 134 -768
2019-10-13 04:05:20 GMT 37.682098 -122.185150 675 311 132 -768
2019-10-13 04:05:15 GMT 37.680176 -122.182228 725 311 132 -768
2019-10-13 04:05:08 GMT 37.678070 -122.179016 800 310 132 -832
2019-10-13 04:05:04 GMT 37.676468 -122.176620 850 311 133 -768
2019-10-13 04:04:58 GMT 37.673859 -122.172760 925 311 132 -640
2019-10-13 04:04:54 GMT 37.672306 -122.170479 950 311 132 -768
2019-10-13 04:04:48 GMT 37.669556 -122.166328 1,025 311 134 -768
2019-10-13 04:04:44 GMT 37.668118 -122.164207 1,075 311 136 -704
2019-10-13 04:04:37 GMT 37.665134 -122.159790 1,175 311 141 -768
2019-10-13 04:04:33 GMT 37.660526 -122.152863 1,250 311 149 -768
2019-10-13 04:04:26 GMT 37.660526 -122.152863 1,275 310 154 -768
2019-10-13 04:04:21 GMT 37.658615 -122.149971 1,325 311 158 -768
2019-10-13 04:04:18 GMT 37.656464 -122.146812 1,400 311 166 -832
2019-10-13 04:04:15 GMT 37.655502 -122.145294 1,425 310 168 -1024
2019-10-13 04:04:11 GMT 37.653351 -122.142136 1,800 311 188 -1088
2019-10-13 04:04:05 GMT 37.649826 -122.136818 1,625 310 176 -1024
2019-10-13 04:04:00 GMT 37.647678 -122.133575 1,675 311 178 -1024
2019-10-13 04:03:51 GMT 37.642235 -122.125458 1,850 311 185 -1088
2019-10-13 04:03:45 GMT 37.639755 -122.121689 1,925 311 188 -1088
2019-10-13 04:03:41 GMT 37.636787 -122.117218 2,025 310 190 -1024
2019-10-13 04:03:38 GMT 37.635132 -122.114731 2,075 310 191 -1024
2019-10-13 04:03:33 GMT 37.632225 -122.110352 2,150 310 192 -1088
2019-10-13 04:03:28 GMT 37.629246 -122.105873 2,200 310 193 -1088
2019-10-13 04:03:23 GMT 37.626499 -122.101753 2,350 310 194 -1152
2019-10-13 04:03:19 GMT 37.624405 -122.098587 2,400 311 195 -1088
2019-10-13 04:03:14 GMT 37.621471 -122.094292 2,475 311 195 -1088
2019-10-13 04:03:11 GMT 37.619793 -122.091843 2,525 312 196 -1280
2019-10-13 04:03:07 GMT 37.616581 -122.087242 2,650 313 194 -1536
2019-10-13 04:03:04 GMT 37.615036 -122.085159 2,725 314 193 -1536
2019-10-13 04:03:01 GMT 37.613342 -122.082886 2,775 314 192 -1536
2019-10-13 04:02:58 GMT 37.611416 -122.080376 2,850 315 190 -1472
2019-10-13 04:02:54 GMT 37.608902 -122.077271 2,925 317 188 -1088
2019-10-13 04:02:50 GMT 37.606480 -122.074463 3,175 319 189 -512
2019-10-13 04:02:47 GMT 37.604759 -122.072556 3,000 318 189 -448
2019-10-13 04:02:43 GMT 37.601761 -122.069031 3,025 313 191 -512
2019-10-13 04:02:38 GMT 37.599106 -122.064827 3,075 299 193 -448
2019-10-13 04:02:35 GMT 37.597733 -122.061378 3,100 289 193 -576
2019-10-13 04:02:29 GMT 37.596680 -122.055122 3,150 269 182 -640
2019-10-13 04:02:24 GMT 37.596844 -122.051414 3,175 259 179 -960
2019-10-13 04:02:21 GMT 37.597687 -122.047707 3,250 241 181 -1344
2019-10-13 04:02:16 GMT 37.599964 -122.042641 3,375 229 184 -704
2019-10-13 04:02:13 GMT 37.601395 -122.040398 3,375 226 185 -576
2019-10-13 04:02:10 GMT 37.602943 -122.038460 3,400 219 189 -128
2019-10-13 04:02:06 GMT 37.605316 -122.036194 3,425 212 190 -64
2019-10-13 04:02:03 GMT 37.608574 -122.033920 3,400 204 195 -192
2019-10-13 04:02:00 GMT 37.610764 -122.032791 3,425 199 200 -256
2019-10-13 04:01:56 GMT 37.614441 -122.031403 3,425 196 205 -448
2019-10-13 04:01:52 GMT 37.618675 -122.030045 3,475 194 211 -960
2019-10-13 04:01:49 GMT 37.620956 -122.029327 3,525 195 213 -832
2019-10-13 04:01:46 GMT 37.624146 -122.028305 3,575 195 218 -704
2019-10-13 04:01:42 GMT 37.628860 -122.026840 3,625 195 220 -768
2019-10-13 04:01:39 GMT 37.630829 -122.026199 3,625 195 221 -960
2019-10-13 04:01:35 GMT 37.635635 -122.024681 3,725 195 221 -1152
2019-10-13 04:01:32 GMT 37.637009 -122.024269 3,750 195 221 -1280
2019-10-13 04:01:29 GMT 37.641533 -122.022820 3,825 195 221 -1344
2019-10-13 04:01:23 GMT 37.647217 -122.021057 3,950 194 221 -1280
2019-10-13 04:01:17 GMT 37.652161 -122.019539 4,075 194 221 -1216
2019-10-13 04:01:14 GMT 37.656372 -122.018250 4,600 187 214 -1536
2019-10-13 04:01:11 GMT 37.658157 -122.017723 4,175 194 221 -1280
2019-10-13 04:01:07 GMT 37.663147 -122.016205 4,275 194 220 -1536
2019-10-13 04:01:04 GMT 37.668686 -122.014626 4,400 193 219 -1664
2019-10-13 04:00:58 GMT 37.671478 -122.013870 4,575 191 216 -1728
2019-10-13 04:00:51 GMT 37.679352 -122.012177 4,725 187 214 -1600
2019-10-13 04:00:47 GMT 37.683010 -122.011772 4,800 181 214 -1408
2019-10-13 04:00:43 GMT 37.687088 -122.011826 4,900 173 214 -1152
2019-10-13 04:00:40 GMT 37.689342 -122.012131 4,925 168 215 -960
2019-10-13 04:00:37 GMT 37.692947 -122.013222 4,975 162 216 -704
2019-10-13 04:00:32 GMT 37.697617 -122.015617 5,025 149 220 -128
2019-10-13 04:00:29 GMT 37.699905 -122.017319 5,025 145 221 -64
2019-10-13 04:00:25 GMT 37.703449 -122.020729 5,025 137 222 0
2019-10-13 04:00:21 GMT 37.706802 -122.024963 5,025 130 224 -64
2019-10-13 04:00:18 GMT 37.707733 -122.026398 5,025 129 225 -64
2019-10-13 04:00:15 GMT 37.710251 -122.030403 5,025 127 226 0
2019-10-13 04:00:11 GMT 37.712814 -122.034554 5,025 127 226 -64
2019-10-13 04:00:08 GMT 37.714157 -122.036789 5,025 127 226 -64
2019-10-13 04:00:05 GMT 37.716717 -122.040970 5,025 127 226 -64
2019-10-13 04:00:01 GMT 37.719742 -122.045982 5,025 127 225 -64
2019-10-13 03:59:58 GMT 37.721100 -122.048172 5,025 127 225 -64
2019-10-13 03:59:53 GMT 37.724030 -122.052963 5,025 127 224 -64
2019-10-13 03:59:49 GMT 37.726959 -122.057869 5,050 127 224 -128
2019-10-13 03:59:42 GMT 37.730869 -122.064377 5,050 127 223 64
2019-10-13 03:59:37 GMT 37.734501 -122.070404 5,050 126 222 64
2019-10-13 03:59:34 GMT 37.736221 -122.073334 5,025 127 225 0
2019-10-13 03:59:31 GMT 37.737671 -122.075691 5,025 127 225 0
2019-10-13 03:59:27 GMT 37.740829 -122.080917 5,025 127 232 0
2019-10-13 03:59:24 GMT 37.742786 -122.084198 5,025 127 232 0
2019-10-13 03:59:21 GMT 37.744675 -122.087379 5,025 127 237 64
2019-10-13 03:59:18 GMT 37.746742 -122.090828 5,025 127 241 64
2019-10-13 03:59:15 GMT 37.748337 -122.093399 5,025 127 243 64
2019-10-13 03:59:10 GMT 37.752235 -122.099899 5,025 127 246 64
2019-10-13 03:59:05 GMT 37.755524 -122.105385 5,025 127 252 -64
2019-10-13 03:59:01 GMT 37.758007 -122.109512 5,025 127 254 0
2019-10-13 03:58:56 GMT 37.762245 -122.116623 5,025 126 255 0
2019-10-13 03:58:50 GMT 37.766281 -122.123383 5,025 126 255 0
2019-10-13 03:58:46 GMT 37.769180 -122.128265 5,025 127 254 0
2019-10-13 03:58:42 GMT 37.772205 -122.133278 5,025 127 254 -64
2019-10-13 03:58:35 GMT 37.777142 -122.141220 5,025 129 253 64
2019-10-13 03:58:32 GMT 37.778351 -122.143013 5,025 130 253 64
2019-10-13 03:58:29 GMT 37.781021 -122.146935 5,025 133 251 -128
2019-10-13 03:58:24 GMT 37.785149 -122.152382 5,050 136 251 -512
2019-10-13 03:58:21 GMT 37.787888 -122.155754 5,050 137 251 -512
2019-10-13 03:58:15 GMT 37.793152 -122.161598 5,100 140 252 -512
2019-10-13 03:58:12 GMT 37.796265 -122.164696 5,125 141 251 -512
2019-10-13 03:58:08 GMT 37.799377 -122.167732 5,150 142 251 -512
2019-10-13 03:58:05 GMT 37.802719 -122.170891 5,200 142 250 -512
2019-10-13 03:58:01 GMT 37.805695 -122.173698 5,225 142 250 -512
2019-10-13 03:57:58 GMT 37.809036 -122.176910 5,250 142 250 -512
2019-10-13 03:57:53 GMT 37.813522 -122.181114 5,275 142 252 -512
2019-10-13 03:57:50 GMT 37.816383 -122.183914 5,300 142 252 -512
2019-10-13 03:57:46 GMT 37.819180 -122.186539 5,325 142 252 -512
2019-10-13 03:57:42 GMT 37.824253 -122.191376 5,375 142 252 -512
2019-10-13 03:57:39 GMT 37.825554 -122.192627 5,375 142 252 -512
2019-10-13 03:57:36 GMT 37.830093 -122.196953 5,425 142 252 -512
2019-10-13 03:57:32 GMT 37.833378 -122.200089 5,475 142 252 -512
2019-10-13 03:57:29 GMT 37.835724 -122.202332 5,475 142 252 -512
2019-10-13 03:57:24 GMT 37.840576 -122.206947 5,500 142 253 -512
2019-10-13 03:57:19 GMT 37.845428 -122.211624 5,550 142 253 -512
2019-10-13 03:57:14 GMT 37.853073 -122.218925 5,600 142 252 -576
2019-10-13 03:57:11 GMT 37.853073 -122.218925 5,625 142 252 -576
2019-10-13 03:57:02 GMT 37.860535 -122.225998 5,675 143 251 -512
2019-10-13 03:56:58 GMT 37.865124 -122.230362 5,725 143 251 -512
2019-10-13 03:56:53 GMT 37.870422 -122.235405 5,775 143 252 -512
2019-10-13 03:56:49 GMT 37.873692 -122.238487 5,800 143 252 -512
2019-10-13 03:56:43 GMT 37.879211 -122.243767 5,850 142 254 -512
2019-10-13 03:56:39 GMT 37.882534 -122.246841 5,875 142 254 -512
2019-10-13 03:56:36 GMT 37.885254 -122.249489 5,900 143 256 -512
2019-10-13 03:56:29 GMT 37.895012 -122.258728 5,975 143 256 -512
2019-10-13 03:56:26 GMT 37.895012 -122.258728 5,975 143 257 -512
2019-10-13 03:56:18 GMT 37.902458 -122.265770 6,050 143 257 -576
2019-10-13 03:56:14 GMT 37.905346 -122.268517 6,075 142 259 -640
2019-10-13 03:56:08 GMT 37.912170 -122.274971 6,150 142 259 -576
2019-10-13 03:56:05 GMT 37.915310 -122.278008 6,175 143 260 -512
2019-10-13 03:55:54 GMT 37.925858 -122.288002 6,250 143 262 -576
2019-10-13 03:55:46 GMT 37.933868 -122.295540 6,325 143 262 -576
2019-10-13 03:55:43 GMT 37.936302 -122.297836 6,350 143 262 -512
2019-10-13 03:55:33 GMT 37.946823 -122.307861 6,425 142 264 -512
2019-10-13 03:55:26 GMT 37.953667 -122.314430 6,475 143 265 -512
2019-10-13 03:55:22 GMT 37.957306 -122.317863 6,525 143 266 -576
2019-10-13 03:55:14 GMT 37.964748 -122.324883 6,600 143 266 -576
2019-10-13 03:55:11 GMT 37.967308 -122.327332 6,625 142 265 -512
2019-10-13 03:55:08 GMT 37.971638 -122.331451 6,650 142 264 -512
2019-10-13 03:55:05 GMT 37.974384 -122.334015 6,675 143 263 -512
2019-10-13 03:55:01 GMT 37.977997 -122.337440 6,700 143 263 -512
2019-10-13 03:54:57 GMT 37.981228 -122.340469 6,725 143 264 -512
2019-10-13 03:54:49 GMT 37.988388 -122.347260 6,775 143 265 -640
2019-10-13 03:54:46 GMT 37.992073 -122.350677 6,825 142 265 -640
2019-10-13 03:54:39 GMT 37.998917 -122.357307 6,875 141 264 -512
2019-10-13 03:54:36 GMT 38.002258 -122.360641 6,900 141 264 -512
2019-10-13 03:54:27 GMT 38.011688 -122.369286 6,975 149 270 -704
2019-10-13 03:54:24 GMT 38.013199 -122.370399 7,000 150 271 -704
2019-10-13 03:54:17 GMT 38.021679 -122.375694 7,100 158 274 -1088
2019-10-13 03:54:14 GMT 38.025146 -122.377296 7,150 161 274 -1408
2019-10-13 03:54:07 GMT 38.034576 -122.380157 7,975 171 276 -1536
2019-10-13 03:54:04 GMT 38.038998 -122.380890 7,400 172 276 -1536
2019-10-13 03:53:56 GMT 38.048264 -122.382317 7,575 173 275 -1536
2019-10-13 03:53:52 GMT 38.052963 -122.382980 7,825 173 276 -1536
2019-10-13 03:53:45 GMT 38.062271 -122.384361 7,825 173 276 -1536
2019-10-13 03:53:41 GMT 38.066574 -122.385010 7,925 173 276 -1536
2019-10-13 03:53:35 GMT 38.076233 -122.386467 8,100 173 275 -1536
2019-10-13 03:53:32 GMT 38.081219 -122.387215 8,200 173 275 -1536
2019-10-13 03:53:24 GMT 38.090111 -122.388588 8,375 173 275 -1536
2019-10-13 03:53:20 GMT 38.094952 -122.389305 8,600 173 275 -1536
2019-10-13 03:53:13 GMT 38.103565 -122.390617 8,625 172 276 -1536
2019-10-13 03:53:09 GMT 38.107895 -122.391335 8,725 173 275 -1536
2019-10-13 03:53:02 GMT 38.117661 -122.392838 8,900 173 275 -1536
2019-10-13 03:52:59 GMT 38.121349 -122.393372 8,975 173 275 -1536
2019-10-13 03:52:48 GMT 38.141556 -122.396461 9,225 173 275 -1536
2019-10-13 03:52:43 GMT 38.142159 -122.396530 9,350 173 275 -1536
2019-10-13 03:52:40 GMT 38.145462 -122.397072 9,425 173 275 -1536
2019-10-13 03:52:32 GMT 38.155609 -122.398621 9,600 172 276 -1536
2019-10-13 03:52:28 GMT 38.159195 -122.399162 9,675 172 276 -1472
2019-10-13 03:52:20 GMT 38.172272 -122.401192 9,850 173 275 -1408
2019-10-13 03:52:17 GMT 38.173050 -122.401314 9,925 173 275 -1280
2019-10-13 03:52:10 GMT 38.182796 -122.402802 10,075 173 275 -704
2019-10-13 03:52:07 GMT 38.186615 -122.403336 10,125 173 277 -512
2019-10-13 03:52:00 GMT 38.196167 -122.404816 10,150 173 277 -576
2019-10-13 03:51:56 GMT 38.200516 -122.405457 10,200 173 280 -512
2019-10-13 03:51:50 GMT 38.209030 -122.406746 10,225 173 282 -576
2019-10-13 03:51:47 GMT 38.213055 -122.407341 10,275 173 285 -512
2019-10-13 03:51:38 GMT 38.224045 -122.409027 10,325 172 293 -512
2019-10-13 03:51:35 GMT 38.229721 -122.409958 10,350 172 298 -512
2019-10-13 03:51:28 GMT 38.239033 -122.411400 10,400 172 307 -640
2019-10-13 03:51:24 GMT 38.244152 -122.412231 10,450 172 312 -832
2019-10-13 03:51:18 GMT 38.253464 -122.413666 10,550 173 324 -1280
2019-10-13 03:51:15 GMT 38.257736 -122.414345 10,600 173 323 -1280
2019-10-13 03:51:09 GMT 38.266544 -122.415695 10,700 173 329 -1984
2019-10-13 03:51:06 GMT 38.270325 -122.416267 10,775 173 328 -1792
2019-10-13 03:51:03 GMT 38.273808 -122.416771 10,925 173 329 -1984
2019-10-13 03:50:59 GMT 38.281071 -122.417908 11,000 173 329 -2048
2019-10-13 03:50:55 GMT 38.288658 -122.419044 11,175 173 330 -1984
2019-10-13 03:50:52 GMT 38.290329 -122.419250 11,200 173 330 -1984
2019-10-13 03:50:49 GMT 38.297012 -122.420303 11,325 173 332 -1984
2019-10-13 03:50:45 GMT 38.303322 -122.421249 11,450 173 333 -1984
2019-10-13 03:50:41 GMT 38.309601 -122.422173 11,600 173 333 -2048
2019-10-13 03:50:36 GMT 38.317101 -122.423340 11,750 173 334 -2048
2019-10-13 03:50:33 GMT 38.319569 -122.423698 11,800 173 334 -2048
2019-10-13 03:50:30 GMT 38.326492 -122.424744 11,950 173 335 -2048
2019-10-13 03:50:26 GMT 38.331577 -122.425491 12,050 173 336 -2048
2019-10-13 03:50:23 GMT 38.336838 -122.426270 12,175 173 337 -1984
2019-10-13 03:50:19 GMT 38.342880 -122.427200 12,275 173 337 -2048
2019-10-13 03:50:13 GMT 38.352859 -122.428658 12,500 173 339 -1984
2019-10-13 03:50:07 GMT 38.362720 -122.430031 12,700 173 340 -1984
2019-10-13 03:50:04 GMT 38.365841 -122.430504 12,750 173 340 -1984
2019-10-13 03:50:00 GMT 38.373825 -122.431641 12,925 173 341 -2048
2019-10-13 03:49:56 GMT 38.376984 -122.432106 12,975 173 341 -2048
2019-10-13 03:49:53 GMT 38.382462 -122.432953 13,100 173 342 -2048
2019-10-13 03:49:49 GMT 38.391129 -122.434212 13,175 173 342 -2048
2019-10-13 03:49:46 GMT 38.394928 -122.434799 13,350 173 344 -2048
2019-10-13 03:49:41 GMT 38.403168 -122.436020 13,450 173 345 -2112
2019-10-13 03:49:35 GMT 38.411774 -122.437309 13,725 173 347 -2112
2019-10-13 03:49:32 GMT 38.416260 -122.438026 13,850 173 348 -2112
2019-10-13 03:49:29 GMT 38.423309 -122.439102 13,950 173 350 -2112
2019-10-13 03:49:25 GMT 38.428268 -122.439819 14,075 173 350 -2112
2019-10-13 03:49:22 GMT 38.433109 -122.440552 14,150 173 350 -2112
2019-10-13 03:49:17 GMT 38.439579 -122.441589 14,250 172 351 -2112
2019-10-13 03:49:13 GMT 38.446518 -122.442688 14,550 172 353 -2112
2019-10-13 03:49:10 GMT 38.451218 -122.443420 14,550 172 353 -2112
2019-10-13 03:49:07 GMT 38.456757 -122.444336 14,650 173 354 -2112
2019-10-13 03:49:03 GMT 38.464252 -122.445496 14,825 173 355 -2048
2019-10-13 03:49:00 GMT 38.467712 -122.445969 14,875 173 355 -2048
2019-10-13 03:48:57 GMT 38.471794 -122.446594 14,950 173 355 -2112
2019-10-13 03:48:50 GMT 38.485851 -122.448792 15,250 172 355 -2176
2019-10-13 03:48:47 GMT 38.489113 -122.449341 15,300 172 355 -2176
2019-10-13 03:48:43 GMT 38.497467 -122.450630 15,500 173 357 -2240
2019-10-13 03:48:39 GMT 38.502239 -122.451355 15,600 173 358 -2240
2019-10-13 03:48:36 GMT 38.508362 -122.452301 15,725 173 359 -2240
2019-10-13 03:48:31 GMT 38.514999 -122.453316 15,875 172 360 -2176
2019-10-13 03:48:28 GMT 38.521465 -122.454346 16,000 173 361 -2240
2019-10-13 03:48:25 GMT 38.524815 -122.454834 16,075 172 362 -2240
2019-10-13 03:48:22 GMT 38.532303 -122.456062 16,250 172 363 -2240
2019-10-13 03:48:18 GMT 38.537151 -122.456787 16,350 172 363 -2304
2019-10-13 03:48:15 GMT 38.544880 -122.458008 16,450 172 364 -2304
2019-10-13 03:48:11 GMT 38.549423 -122.458748 16,600 172 365 -2240
2019-10-13 03:48:07 GMT 38.555145 -122.459641 16,725 172 366 -2304
2019-10-13 03:48:03 GMT 38.562710 -122.460815 16,900 173 366 -2240
2019-10-13 03:48:00 GMT 38.568810 -122.461792 17,025 173 367 -2112
2019-10-13 03:47:57 GMT 38.574207 -122.462585 17,125 173 367 -2048
2019-10-13 03:47:53 GMT 38.579773 -122.463463 17,225 173 368 -1856
2019-10-13 03:47:49 GMT 38.586227 -122.464417 17,325 173 369 -1920
2019-10-13 03:47:46 GMT 38.591202 -122.465149 17,425 173 370 -2176
2019-10-13 03:47:43 GMT 38.597488 -122.466095 17,550 173 370 -2240
2019-10-13 03:47:36 GMT 38.609070 -122.467766 17,800 173 371 -2240
2019-10-13 03:47:33 GMT 38.614384 -122.468567 17,900 173 371 -2240
2019-10-13 03:47:28 GMT 38.621925 -122.469666 18,050 173 371 -2176
2019-10-13 03:47:25 GMT 38.627197 -122.470512 18,175 173 371 -2240
2019-10-13 03:47:21 GMT 38.632866 -122.471375 18,325 172 371 -2240
2019-10-13 03:47:18 GMT 38.639191 -122.472359 18,425 173 372 -2176
2019-10-13 03:47:14 GMT 38.646057 -122.473259 18,550 175 372 -2240
2019-10-13 03:47:11 GMT 38.651020 -122.473633 18,775 179 372 -2112
2019-10-13 03:47:06 GMT 38.658607 -122.473389 18,925 188 372 -2112
2019-10-13 03:47:03 GMT 38.664963 -122.472603 18,950 189 372 -2112
2019-10-13 03:46:59 GMT 38.670898 -122.471252 19,025 192 371 -2112
2019-10-13 03:46:56 GMT 38.676579 -122.469543 19,175 197 370 -2304
2019-10-13 03:46:53 GMT 38.681625 -122.467468 19,325 202 370 -2240
2019-10-13 03:46:50 GMT 38.687565 -122.464539 19,425 204 370 -2176
2019-10-13 03:46:47 GMT 38.692383 -122.461678 19,525 209 370 -2240
2019-10-13 03:46:42 GMT 38.699619 -122.456238 19,725 214 369 -2240
2019-10-13 03:46:39 GMT 38.703094 -122.453079 19,800 218 369 -2240
2019-10-13 03:46:36 GMT 38.707024 -122.449158 19,925 221 368 -2240
2019-10-13 03:46:32 GMT 38.711864 -122.443726 20,125 223 365 -2432
2019-10-13 03:46:29 GMT 38.716965 -122.437729 20,200 223 363 -2624
2019-10-13 03:46:26 GMT 38.720058 -122.434082 20,325 223 363 -2752
2019-10-13 03:46:21 GMT 38.725552 -122.427734 20,550 223 361 -3136
2019-10-13 03:46:18 GMT 38.730148 -122.422447 20,725 223 361 -3008
2019-10-13 03:46:14 GMT 38.733974 -122.417969 22,750 223 362 -2688
2019-10-13 03:46:11 GMT 38.739075 -122.412117 21,075 223 362 -2752
2019-10-13 03:46:07 GMT 38.743835 -122.406685 21,225 223 363 -2752
2019-10-13 03:46:04 GMT 38.747429 -122.402466 21,350 223 363 -2752
2019-10-13 03:45:57 GMT 38.755947 -122.392639 21,650 223 366 -2752
2019-10-13 03:45:53 GMT 38.760742 -122.387085 22,750 223 371 -3008
2019-10-13 03:45:48 GMT 38.772171 -122.373779 22,225 223 368 -2624
2019-10-13 03:45:44 GMT 38.773312 -122.372437 22,250 223 369 -2624
2019-10-13 03:45:39 GMT 38.778259 -122.366737 22,425 223 370 -2816
2019-10-13 03:45:35 GMT 38.784485 -122.359497 22,650 223 372 -3200
2019-10-13 03:45:32 GMT 38.787045 -122.356506 22,750 223 372 -3712
2019-10-13 03:45:29 GMT 38.791607 -122.351135 22,950 223 372 -3712
2019-10-13 03:45:23 GMT 38.799408 -122.342079 23,275 223 374 -2880
2019-10-13 03:45:17 GMT 38.805588 -122.334915 23,500 223 377 -2112
2019-10-13 03:45:13 GMT 38.811264 -122.328285 23,625 223 380 -1280
2019-10-13 03:45:10 GMT 38.816093 -122.322693 23,675 223 381 -1152
2019-10-13 03:45:07 GMT 38.819092 -122.319206 23,725 223 382 -1024
2019-10-13 03:45:02 GMT 38.826569 -122.310486 23,800 223 385 -896
2019-10-13 03:44:57 GMT 38.833458 -122.302429 23,875 223 387 -1024
2019-10-13 03:44:51 GMT 38.840347 -122.294373 23,950 223 388 -1280
2019-10-13 03:44:48 GMT 38.844864 -122.289124 24,050 223 390 -1600
2019-10-13 03:44:43 GMT 38.853012 -122.279625 24,200 223 391 -1216
2019-10-13 03:44:40 GMT 38.855011 -122.277283 24,225 223 392 -1344
2019-10-13 03:44:37 GMT 38.859467 -122.272102 24,350 223 393 -1664
2019-10-13 03:44:34 GMT 38.864975 -122.265686 24,400 223 393 -1856
2019-10-13 03:44:30 GMT 38.869171 -122.260818 24,500 223 393 -2112
2019-10-13 03:44:25 GMT 38.875774 -122.253113 24,675 223 393 -2176
2019-10-13 03:44:21 GMT 38.881966 -122.245911 24,875 223 392 -2176
2019-10-13 03:44:18 GMT 38.884106 -122.243408 24,900 223 392 -2176
2019-10-13 03:44:13 GMT 38.890411 -122.236099 25,250 223 392 -2240
2019-10-13 03:44:10 GMT 38.896088 -122.229530 25,225 223 391 -2240
2019-10-13 03:44:04 GMT 38.904419 -122.219856 25,450 223 392 -2240
2019-10-13 03:43:58 GMT 38.912521 -122.210419 25,675 223 395 -2304
2019-10-13 03:43:53 GMT 38.919022 -122.202835 25,850 223 397 -2240
2019-10-13 03:43:50 GMT 38.923691 -122.197464 25,975 223 398 -2304
2019-10-13 03:43:47 GMT 38.927216 -122.193344 26,075 223 399 -2304
2019-10-13 03:43:42 GMT 38.933357 -122.186157 26,250 223 401 -2240
2019-10-13 03:43:39 GMT 38.938156 -122.180504 26,375 223 402 -2240
2019-10-13 03:43:36 GMT 38.941601 -122.176514 26,450 223 402 -2176
2019-10-13 03:43:32 GMT 38.948364 -122.168625 26,625 223 403 -2176
2019-10-13 03:43:28 GMT 38.954178 -122.161819 26,775 223 404 -2240
2019-10-13 03:43:25 GMT 38.957054 -122.158447 26,850 223 404 -2176
2019-10-13 03:43:21 GMT 38.963013 -122.151489 27,000 223 405 -2176
2019-10-13 03:43:15 GMT 38.971439 -122.141541 27,225 223 406 -2176
2019-10-13 03:43:09 GMT 38.978703 -122.133057 27,400 223 408 -2176
2019-10-13 03:43:06 GMT 38.984116 -122.126648 27,525 223 409 -2176
2019-10-13 03:43:00 GMT 38.993088 -122.116142 27,700 223 411 -2304
2019-10-13 03:42:57 GMT 38.997181 -122.111389 27,875 223 412 -2368
2019-10-13 03:42:53 GMT 39.001419 -122.106445 28,000 223 412 -2304
2019-10-13 03:42:49 GMT 39.007782 -122.099007 28,150 223 415 -2368
2019-10-13 03:42:43 GMT 39.016735 -122.088501 28,400 223 417 -2368
2019-10-13 03:42:38 GMT 39.023064 -122.081177 28,550 222 420 -2304
2019-10-13 03:42:34 GMT 39.029892 -122.073334 28,725 223 421 -2240
2019-10-13 03:42:31 GMT 39.031952 -122.070999 28,775 223 422 -2304
2019-10-13 03:42:27 GMT 39.038269 -122.063538 28,950 224 423 -2240
2019-10-13 03:42:21 GMT 39.046967 -122.052673 29,100 225 424 -2240
2019-10-13 03:42:15 GMT 39.057037 -122.039177 29,425 228 425 -2240
2019-10-13 03:42:11 GMT 39.061657 -122.032654 29,550 229 425 -2240
2019-10-13 03:42:06 GMT 39.067200 -122.024429 29,725 230 425 -2240
2019-10-13 03:42:03 GMT 39.070496 -122.019356 29,825 231 426 -2240
2019-10-13 03:41:59 GMT 39.075111 -122.012085 29,950 232 426 -2240
2019-10-13 03:41:55 GMT 39.080418 -122.003296 30,100 233 427 -2240
2019-10-13 03:41:50 GMT 39.087448 -121.990967 30,325 236 428 -2240
2019-10-13 03:41:43 GMT 39.095306 -121.976067 30,600 237 428 -2304
2019-10-13 03:41:39 GMT 39.099655 -121.967529 30,750 237 429 -2240
2019-10-13 03:41:32 GMT 39.106487 -121.954041 30,975 238 430 -2240
2019-10-13 03:41:28 GMT 39.110817 -121.945435 31,125 237 430 -2304
2019-10-13 03:41:22 GMT 39.118515 -121.930206 31,375 238 431 -2240
2019-10-13 03:41:17 GMT 39.123013 -121.921387 31,525 238 432 -2304
2019-10-13 03:41:13 GMT 39.127762 -121.911926 31,700 238 432 -2304
2019-10-13 03:41:07 GMT 39.132889 -121.901726 31,975 238 433 -2304
2019-10-13 03:41:04 GMT 39.136513 -121.894592 31,975 238 433 -2304
2019-10-13 03:41:00 GMT 39.141632 -121.884415 32,175 238 436 -2240
2019-10-13 03:40:57 GMT 39.144287 -121.879219 32,275 238 436 -2240
2019-10-13 03:40:54 GMT 39.149551 -121.868767 32,450 238 437 -2240
2019-10-13 03:40:50 GMT 39.151291 -121.865250 32,500 238 437 -2240
2019-10-13 03:40:46 GMT 39.157471 -121.853065 32,700 237 438 -2240
2019-10-13 03:40:41 GMT 39.163055 -121.842140 32,875 237 440 -2240
2019-10-13 03:40:36 GMT 39.167797 -121.832703 33,075 238 441 -2240
2019-10-13 03:40:32 GMT 39.171249 -121.825897 33,075 238 441 -2240
2019-10-13 03:40:29 GMT 39.174686 -121.819031 33,350 238 442 -2240
2019-10-13 03:40:25 GMT 39.179672 -121.809120 33,475 238 442 -2240
2019-10-13 03:40:22 GMT 39.183243 -121.802017 33,775 237 452 -2304
2019-10-13 03:40:19 GMT 39.192238 -121.784058 34,225 238 446 -2240
2019-10-13 03:40:15 GMT 39.192238 -121.784058 33,875 238 444 -2240
2019-10-13 03:40:12 GMT 39.195587 -121.777405 33,950 238 446 -2240
2019-10-13 03:40:09 GMT 39.198521 -121.771606 34,050 238 446 -2240
2019-10-13 03:40:04 GMT 39.204105 -121.760437 34,250 237 447 -2240
2019-10-13 03:40:00 GMT 39.207825 -121.753059 34,300 237 447 -2240
2019-10-13 03:39:57 GMT 39.212719 -121.743469 34,525 237 448 -2240
2019-10-13 03:39:51 GMT 39.218819 -121.731384 34,650 237 450 -2240
2019-10-13 03:39:47 GMT 39.222610 -121.723976 34,850 237 450 -2240
2019-10-13 03:39:42 GMT 39.228745 -121.711861 35,050 237 451 -2304
2019-10-13 03:39:39 GMT 39.232407 -121.704636 35,175 237 452 -2304
2019-10-13 03:39:34 GMT 39.237110 -121.695374 35,250 237 452 -2304
2019-10-13 03:39:31 GMT 39.242752 -121.684334 35,500 237 453 -2240
2019-10-13 03:39:28 GMT 39.245041 -121.679794 35,575 237 454 -2240
2019-10-13 03:39:25 GMT 39.249264 -121.671387 35,700 238 455 -2240
2019-10-13 03:39:20 GMT 39.252640 -121.664810 35,850 237 455 -2240
2019-10-13 03:39:17 GMT 39.257675 -121.654778 35,975 237 456 -2176
2019-10-13 03:39:13 GMT 39.261612 -121.647072 36,025 237 457 -2176
2019-10-13 03:39:10 GMT 39.266235 -121.637878 36,250 238 459 -2240
2019-10-13 03:39:06 GMT 39.270401 -121.629639 36,375 238 459 -2304
2019-10-13 03:39:02 GMT 39.275253 -121.619965 36,550 238 460 -2560
2019-10-13 03:38:58 GMT 39.278358 -121.613770 36,675 238 460 -2816
2019-10-13 03:38:53 GMT 39.285946 -121.598511 36,875 238 460 -2944
2019-10-13 03:38:48 GMT 39.290276 -121.589722 37,175 238 460 -2880
2019-10-13 03:38:42 GMT 39.297165 -121.575806 37,425 238 461 -2560
2019-10-13 03:38:38 GMT 39.302658 -121.564697 37,625 238 461 -2112
2019-10-13 03:38:32 GMT 39.309952 -121.550110 37,850 238 462 -1664
2019-10-13 03:38:27 GMT 39.315598 -121.538757 37,950 238 463 -1216
2019-10-13 03:38:22 GMT 39.321075 -121.527840 37,975 238 463 -576
2019-10-13 03:38:18 GMT 39.325142 -121.519714 38,000 238 463 -128
2019-10-13 03:38:15 GMT 39.327423 -121.515076 37,975 238 463 0
2019-10-13 03:38:11 GMT 39.334408 -121.501099 38,000 238 463 0
2019-10-13 03:38:06 GMT 39.339615 -121.490639 37,975 238 463 0
2019-10-13 03:38:00 GMT 39.346184 -121.477417 38,000 238 464 0
2019-10-13 03:37:57 GMT 39.348404 -121.472961 38,000 238 464 -64
2019-10-13 03:37:54 GMT 39.351955 -121.465759 37,975 238 464 0
2019-10-13 03:37:50 GMT 39.358009 -121.453674 38,000 238 464 -64
2019-10-13 03:37:47 GMT 39.360291 -121.448975 38,000 238 464 -64
2019-10-13 03:37:44 GMT 39.364246 -121.441101 38,000 238 464 -64
2019-10-13 03:37:37 GMT 39.371750 -121.425911 37,975 238 464 0
2019-10-13 03:37:33 GMT 39.377422 -121.414490 37,975 238 464 0
2019-10-13 03:37:28 GMT 39.382774 -121.403809 38,000 238 465 0
2019-10-13 03:37:22 GMT 39.389057 -121.391235 37,975 238 465 0
2019-10-13 03:37:18 GMT 39.395809 -121.377686 37,975 238 465 -64
2019-10-13 03:37:12 GMT 39.401276 -121.366745 37,975 238 465 0
2019-10-13 03:37:06 GMT 39.408737 -121.351753 37,975 238 465 -64
2019-10-13 03:37:02 GMT 39.413818 -121.341484 37,975 238 465 -64
2019-10-13 03:36:55 GMT 39.426407 -121.316231 38,000 238 465 -64
2019-10-13 03:36:51 GMT 39.426407 -121.316231 38,000 238 465 -64
2019-10-13 03:36:44 GMT 39.433701 -121.301514 38,000 238 465 -64
2019-10-13 03:36:39 GMT 39.438824 -121.291199 38,000 238 466 0
2019-10-13 03:36:33 GMT 39.447281 -121.274078 38,000 238 464 0
2019-10-13 03:36:30 GMT 39.451347 -121.265930 38,000 238 464 0
2019-10-13 03:36:23 GMT 39.459213 -121.250000 37,975 238 464 -64
2019-10-13 03:36:18 GMT 39.463123 -121.242065 37,975 238 464 -64
2019-10-13 03:36:08 GMT 39.481419 -121.205078 38,000 238 464 0
2019-10-13 03:36:01 GMT 39.484444 -121.198975 37,975 238 464 -64
2019-10-13 03:35:58 GMT 39.487656 -121.192444 37,975 238 464 0
2019-10-13 03:35:53 GMT 39.494247 -121.179077 38,000 238 464 -64
2019-10-13 03:35:49 GMT 39.500179 -121.167175 37,975 238 464 0
2019-10-13 03:35:46 GMT 39.500179 -121.167175 38,000 238 464 0
2019-10-13 03:35:41 GMT 39.506973 -121.153343 38,000 238 464 0
2019-10-13 03:35:36 GMT 39.512787 -121.141640 37,975 238 464 -64
2019-10-13 03:35:31 GMT 39.518429 -121.130127 38,000 238 464 -64
2019-10-13 03:35:28 GMT 39.522034 -121.122894 38,000 238 465 -64
2019-10-13 03:35:25 GMT 39.525597 -121.115601 38,000 238 464 -64
2019-10-13 03:35:20 GMT 39.531281 -121.104149 37,975 238 464 -64
2019-10-13 03:35:15 GMT 39.537189 -121.092163 38,000 238 464 -64
2019-10-13 03:35:09 GMT 39.543892 -121.078552 38,000 238 464 -64
2019-10-13 03:35:04 GMT 39.549774 -121.066589 38,000 238 464 -64
2019-10-13 03:34:59 GMT 39.556087 -121.053711 38,000 238 464 0
2019-10-13 03:34:55 GMT 39.560230 -121.045288 37,975 238 464 0
2019-10-13 03:34:48 GMT 39.568748 -121.027893 37,975 238 463 0
2019-10-13 03:34:43 GMT 39.574474 -121.016235 38,000 238 464 -64
2019-10-13 03:34:39 GMT 39.579552 -121.005920 38,000 238 463 0
2019-10-13 03:34:31 GMT 39.587372 -120.989990 38,000 238 463 -64
2019-10-13 03:34:27 GMT 39.593033 -120.978523 38,000 238 463 0
2019-10-13 03:34:21 GMT 39.598915 -120.966614 37,975 238 463 -64
2019-10-13 03:34:16 GMT 39.605255 -120.953743 37,975 238 463 -64
2019-10-13 03:34:11 GMT 39.611252 -120.941620 38,000 238 463 -64
2019-10-13 03:34:05 GMT 39.617352 -120.929199 38,000 238 463 -64
2019-10-13 03:33:59 GMT 39.623775 -120.916077 38,000 238 463 -64
2019-10-13 03:33:55 GMT 39.636578 -120.889893 38,000 238 462 0
2019-10-13 03:33:48 GMT 39.636578 -120.889893 37,975 238 462 0
2019-10-13 03:33:43 GMT 39.641838 -120.879089 38,000 238 462 0
2019-10-13 03:33:39 GMT 39.648029 -120.866516 38,000 238 462 0
2019-10-13 03:33:34 GMT 39.653870 -120.854568 37,975 238 461 0
2019-10-13 03:33:27 GMT 39.661949 -120.838013 37,975 238 461 0
2019-10-13 03:33:23 GMT 39.665859 -120.830017 37,975 238 461 0
2019-10-13 03:33:16 GMT 39.672935 -120.815552 37,975 238 461 0
2019-10-13 03:33:12 GMT 39.677963 -120.805298 37,975 238 461 -64
2019-10-13 03:33:05 GMT 39.685364 -120.790077 37,975 238 461 -64
2019-10-13 03:33:02 GMT 39.690533 -120.779602 37,975 238 462 -64
2019-10-13 03:32:56 GMT 39.697605 -120.765076 38,000 238 462 -64
2019-10-13 03:32:50 GMT 39.702759 -120.754555 38,000 238 461 -64
2019-10-13 03:32:47 GMT 39.706497 -120.746826 38,000 238 461 0
2019-10-13 03:32:44 GMT 39.709476 -120.740723 37,975 238 461 0
2019-10-13 03:32:39 GMT 39.715714 -120.727867 37,975 238 461 0
2019-10-13 03:32:34 GMT 39.721848 -120.715263 37,975 238 461 0
2019-10-13 03:32:30 GMT 39.726837 -120.704994 37,975 238 461 0
2019-10-13 03:32:25 GMT 39.730957 -120.696579 37,975 238 460 0
2019-10-13 03:32:22 GMT 39.735031 -120.688156 38,000 238 460 -64
2019-10-13 03:32:19 GMT 39.738758 -120.680420 38,000 238 461 -64
2019-10-13 03:32:15 GMT 39.743225 -120.671318 37,975 238 461 -64
2019-10-13 03:32:11 GMT 39.747299 -120.662842 38,000 238 461 -64
2019-10-13 03:32:08 GMT 39.751190 -120.654900 38,000 238 461 -64
2019-10-13 03:32:05 GMT 39.755493 -120.646004 38,000 238 461 -64
2019-10-13 03:32:00 GMT 39.759613 -120.637589 38,000 238 461 -64
2019-10-13 03:31:56 GMT 39.763916 -120.628693 38,000 238 461 -64
2019-10-13 03:31:53 GMT 39.768135 -120.620056 38,000 238 461 -64
2019-10-13 03:31:50 GMT 39.771530 -120.612976 38,000 238 461 -64
2019-10-13 03:31:47 GMT 39.775860 -120.604065 38,000 238 461 0
2019-10-13 03:31:43 GMT 39.779343 -120.596802 38,000 238 461 0
2019-10-13 03:31:38 GMT 39.786163 -120.582771 38,000 238 461 0
2019-10-13 03:31:35 GMT 39.788990 -120.576904 37,975 238 461 0
2019-10-13 03:31:30 GMT 39.794018 -120.566589 37,975 238 461 0
2019-10-13 03:31:27 GMT 39.798431 -120.557457 37,975 238 461 0
2019-10-13 03:31:24 GMT 39.800812 -120.552551 37,975 238 461 0
2019-10-13 03:31:20 GMT 39.806625 -120.540619 37,975 238 461 0
2019-10-13 03:31:14 GMT 39.812988 -120.527420 37,975 238 461 0
2019-10-13 03:31:09 GMT 39.819122 -120.514763 37,975 238 462 0
2019-10-13 03:31:06 GMT 39.825485 -120.501572 37,975 238 462 0
2019-10-13 03:31:03 GMT 39.825485 -120.501572 37,975 238 462 -64
2019-10-13 03:30:57 GMT 39.830791 -120.490540 37,975 238 463 -64
2019-10-13 03:30:54 GMT 39.835922 -120.479897 37,975 238 463 -64
2019-10-13 03:30:47 GMT 39.842896 -120.465515 38,000 238 464 -64
2019-10-13 03:30:43 GMT 39.848282 -120.454460 38,000 238 465 -64
2019-10-13 03:30:40 GMT 39.850437 -120.449951 37,975 238 465 -64
2019-10-13 03:30:34 GMT 39.858536 -120.433144 37,975 238 465 -64
2019-10-13 03:30:31 GMT 39.861969 -120.426102 37,975 238 465 0
2019-10-13 03:30:26 GMT 39.867336 -120.414978 38,000 238 465 -64
2019-10-13 03:30:23 GMT 39.870548 -120.408325 38,000 239 464 -64
2019-10-13 03:30:20 GMT 39.874969 -120.399109 38,000 239 464 -64
2019-10-13 03:30:16 GMT 39.879208 -120.390381 38,000 239 464 -64
2019-10-13 03:30:12 GMT 39.883163 -120.382095 38,000 239 464 -64
2019-10-13 03:30:09 GMT 39.887169 -120.373779 38,000 239 464 0
2019-10-13 03:30:05 GMT 39.890717 -120.366447 38,000 239 464 0
2019-10-13 03:30:02 GMT 39.894562 -120.358452 37,975 238 463 -64
2019-10-13 03:29:58 GMT 39.898991 -120.349243 37,975 238 463 -64
2019-10-13 03:29:55 GMT 39.901970 -120.343079 38,000 238 463 0
2019-10-13 03:29:52 GMT 39.911282 -120.323730 38,000 238 463 0
2019-10-13 03:29:48 GMT 39.911282 -120.323730 38,000 238 463 0
2019-10-13 03:29:44 GMT 39.915939 -120.314026 37,975 238 463 0
2019-10-13 03:29:39 GMT 39.921524 -120.302490 37,975 238 463 0
2019-10-13 03:29:35 GMT 39.925854 -120.293488 38,000 238 463 0
2019-10-13 03:29:32 GMT 39.929398 -120.286194 37,975 239 463 0
2019-10-13 03:29:29 GMT 39.933243 -120.278137 38,000 239 463 -64
2019-10-13 03:29:25 GMT 39.935860 -120.272705 38,000 239 463 0
2019-10-13 03:29:22 GMT 39.939835 -120.264465 38,000 239 463 -64
2019-10-13 03:29:19 GMT 39.942764 -120.258301 37,975 239 463 0
2019-10-13 03:29:16 GMT 39.947639 -120.248169 37,975 239 463 -64
2019-10-13 03:29:12 GMT 39.952057 -120.238953 37,975 239 463 -64
2019-10-13 03:29:08 GMT 39.955444 -120.231873 38,000 239 463 -64
2019-10-13 03:29:05 GMT 39.968765 -120.204041 38,000 239 462 0
2019-10-13 03:28:57 GMT 39.968765 -120.204041 38,000 239 461 0
2019-10-13 03:28:54 GMT 39.972500 -120.196236 37,975 239 461 0
2019-10-13 03:28:49 GMT 39.976868 -120.187073 38,000 239 461 0
2019-10-13 03:28:46 GMT 39.981297 -120.177879 38,000 239 461 -64
2019-10-13 03:28:43 GMT 39.985996 -120.167961 38,000 239 461 -64
2019-10-13 03:28:37 GMT 39.991333 -120.156860 38,000 239 460 0
2019-10-13 03:28:34 GMT 39.994720 -120.149841 38,000 239 460 -64
2019-10-13 03:28:29 GMT 40.000477 -120.137810 38,000 239 460 0
2019-10-13 03:28:25 GMT 40.004944 -120.128380 37,975 239 461 -64
2019-10-13 03:28:19 GMT 40.012161 -120.113335 38,000 239 460 0
2019-10-13 03:28:16 GMT 40.014313 -120.108887 38,000 239 460 0
2019-10-13 03:28:13 GMT 40.017094 -120.102974 38,000 239 460 -64
2019-10-13 03:28:07 GMT 40.025379 -120.085564 37,975 239 459 64
2019-10-13 03:28:04 GMT 40.029099 -120.077820 37,975 239 459 64
2019-10-13 03:27:56 GMT 40.038071 -120.059021 37,975 239 459 0
2019-10-13 03:27:53 GMT 40.040726 -120.053345 37,975 239 459 0
2019-10-13 03:27:46 GMT 40.048141 -120.037842 37,975 239 460 0
2019-10-13 03:27:41 GMT 40.052856 -120.027954 37,975 239 461 -64
2019-10-13 03:27:35 GMT 40.061417 -120.010010 37,975 239 461 0
2019-10-13 03:27:32 GMT 40.064758 -120.002991 37,975 239 461 0
2019-10-13 03:27:25 GMT 40.071838 -119.988060 37,975 239 461 -64
2019-10-13 03:27:22 GMT 40.075104 -119.981262 38,000 239 461 -64
2019-10-13 03:27:19 GMT 40.078903 -119.973206 38,000 239 462 -64
2019-10-13 03:27:16 GMT 40.082291 -119.966125 38,000 239 462 -64
2019-10-13 03:27:12 GMT 40.085758 -119.958778 38,000 239 462 -64
2019-10-13 03:27:09 GMT 40.089157 -119.951668 38,000 239 462 -64
2019-10-13 03:27:04 GMT 40.096092 -119.936996 38,000 239 462 -64
2019-10-13 03:27:01 GMT 40.099258 -119.930382 38,000 239 462 -64
2019-10-13 03:26:58 GMT 40.101379 -119.925903 38,000 239 462 -64
2019-10-13 03:26:52 GMT 40.109024 -119.909790 38,000 239 461 0
2019-10-13 03:26:48 GMT 40.113510 -119.900330 38,000 239 460 0
2019-10-13 03:26:40 GMT 40.122581 -119.881187 37,975 239 460 0
2019-10-13 03:26:30 GMT 40.133568 -119.858032 38,000 239 460 0
2019-10-13 03:26:25 GMT 40.140152 -119.844116 37,975 239 460 -64
2019-10-13 03:26:19 GMT 40.145439 -119.833000 38,000 239 460 0
2019-10-13 03:26:12 GMT 40.153381 -119.816223 38,000 239 460 -64
2019-10-13 03:26:09 GMT 40.157730 -119.807030 37,975 239 460 -64
2019-10-13 03:26:01 GMT 40.165695 -119.790222 38,000 239 460 0
2019-10-13 03:25:57 GMT 40.169495 -119.782166 38,000 239 460 -64
2019-10-13 03:25:53 GMT 40.176636 -119.767029 38,000 239 460 0
2019-10-13 03:25:47 GMT 40.181122 -119.757568 38,000 239 460 -64
2019-10-13 03:25:41 GMT 40.187805 -119.743408 37,975 239 461 0
2019-10-13 03:25:37 GMT 40.193848 -119.730591 38,000 239 461 0
2019-10-13 03:25:32 GMT 40.199432 -119.718750 37,975 239 460 0
2019-10-13 03:25:26 GMT 40.205200 -119.706421 38,000 239 461 -64
2019-10-13 03:25:20 GMT 40.211243 -119.693665 37,975 239 461 -64
2019-10-13 03:25:15 GMT 40.217178 -119.681129 37,975 239 461 -64
2019-10-13 03:25:10 GMT 40.223328 -119.668091 38,000 239 461 -64
2019-10-13 03:25:04 GMT 40.229233 -119.655533 38,000 239 461 0
2019-10-13 03:24:59 GMT 40.235287 -119.642738 38,000 239 461 64
2019-10-13 03:24:53 GMT 40.242176 -119.628006 37,975 239 461 64
2019-10-13 03:24:50 GMT 40.246078 -119.619690 37,975 239 461 0
2019-10-13 03:24:42 GMT 40.253952 -119.602844 37,975 239 461 0
2019-10-13 03:24:38 GMT 40.258759 -119.592590 37,975 239 461 -64
2019-10-13 03:24:32 GMT 40.266312 -119.576416 37,975 239 461 -64
2019-10-13 03:24:28 GMT 40.270523 -119.567383 38,000 239 461 -64
2019-10-13 03:24:20 GMT 40.277786 -119.551910 38,000 239 462 -64
2019-10-13 03:24:14 GMT 40.285950 -119.534546 38,000 239 462 -64
2019-10-13 03:24:10 GMT 40.289890 -119.526192 38,000 239 462 0
2019-10-13 03:24:06 GMT 40.293777 -119.517822 37,975 239 462 -64
2019-10-13 03:23:59 GMT 40.301529 -119.501411 38,000 239 462 0
2019-10-13 03:23:49 GMT 40.313232 -119.476379 37,975 239 461 0
2019-10-13 03:23:39 GMT 40.325043 -119.451111 38,000 239 461 0
2019-10-13 03:23:27 GMT 40.337128 -119.425415 38,000 239 461 0
2019-10-13 03:23:22 GMT 40.344910 -119.408691 38,000 239 462 -64
2019-10-13 03:23:17 GMT 40.355717 -119.385559 38,000 239 461 -64
2019-10-13 03:23:05 GMT 40.362373 -119.371262 37,975 239 461 0
2019-10-13 03:22:54 GMT 40.374195 -119.345978 38,000 239 461 -64
2019-10-13 03:22:44 GMT 40.386208 -119.320198 37,975 239 462 -64
2019-10-13 03:22:32 GMT 40.398331 -119.294189 38,000 239 462 0
2019-10-13 03:22:22 GMT 40.411301 -119.266266 37,975 239 462 0
2019-10-13 03:22:09 GMT 40.424973 -119.236816 37,975 239 462 -64
2019-10-13 03:21:58 GMT 40.436157 -119.212646 38,000 239 463 -64
2019-10-13 03:21:48 GMT 40.450287 -119.182190 37,975 239 463 -64
2019-10-13 03:21:35 GMT 40.462051 -119.156738 38,000 239 463 -64
2019-10-13 03:21:25 GMT 40.473724 -119.131561 38,000 239 463 -64
2019-10-13 03:21:13 GMT 40.486084 -119.104919 38,000 239 463 0
2019-10-13 03:21:03 GMT 40.497978 -119.079247 37,975 239 463 0
2019-10-13 03:20:53 GMT 40.510025 -119.052979 38,000 239 463 -64
2019-10-13 03:20:42 GMT 40.521442 -119.028252 38,000 239 463 -64
2019-10-13 03:20:30 GMT 40.533638 -119.001785 37,975 239 463 0
2019-10-13 03:20:20 GMT 40.545502 -118.976074 37,975 239 463 0
2019-10-13 03:20:09 GMT 40.557983 -118.948914 37,975 239 463 -64
2019-10-13 03:19:59 GMT 40.569717 -118.923378 38,000 239 463 0
2019-10-13 03:19:48 GMT 40.581573 -118.897644 38,000 239 463 -64
2019-10-13 03:19:36 GMT 40.593933 -118.870728 37,975 239 462 0
2019-10-13 03:19:26 GMT 40.605881 -118.844788 38,000 239 462 0
2019-10-13 03:19:14 GMT 40.617710 -118.819008 37,975 239 462 0
2019-10-13 03:19:04 GMT 40.629398 -118.793541 38,000 239 462 -64
2019-10-13 03:18:54 GMT 40.640991 -118.768311 38,000 239 462 0
2019-10-13 03:18:42 GMT 40.652847 -118.742310 38,000 239 462 0
2019-10-13 03:18:32 GMT 40.664867 -118.716080 38,000 239 462 -64
2019-10-13 03:18:22 GMT 40.676506 -118.690613 37,975 240 461 0
2019-10-13 03:18:11 GMT 40.687912 -118.665512 38,000 240 461 0
2019-10-13 03:18:01 GMT 40.699677 -118.639771 38,000 240 462 0
2019-10-13 03:17:50 GMT 40.711075 -118.614685 37,975 240 462 0
2019-10-13 03:17:38 GMT 40.723480 -118.587425 37,975 240 462 0
2019-10-13 03:17:28 GMT 40.734932 -118.562332 38,000 240 462 -64
2019-10-13 03:17:18 GMT 40.746799 -118.536240 37,975 240 463 -64
2019-10-13 03:17:07 GMT 40.758133 -118.511292 38,000 240 463 -64
2019-10-13 03:16:55 GMT 40.770630 -118.483704 38,000 240 463 -64
2019-10-13 03:16:45 GMT 40.783020 -118.456337 37,975 240 463 -64
2019-10-13 03:16:34 GMT 40.795441 -118.429016 38,000 240 463 0
2019-10-13 03:16:19 GMT 40.812332 -118.391724 37,975 240 463 0
2019-10-13 03:16:10 GMT 40.821239 -118.372070 37,975 240 463 0
2019-10-13 03:15:52 GMT 40.839935 -118.330566 38,000 240 464 -64
2019-10-13 03:15:46 GMT 40.846657 -118.315765 38,000 240 464 0
2019-10-13 03:15:36 GMT 40.858711 -118.288986 38,000 240 464 0
2019-10-13 03:15:27 GMT 40.869049 -118.266136 37,975 240 464 0
We lost coverage of the aircraft here for a total of 10 minutes
2019-10-13 03:05:07 GMT 41.538986 -116.741219 38,000 241 466 -64
2019-10-13 03:04:56 GMT 41.550617 -116.714020 38,000 241 466 64
2019-10-13 03:04:50 GMT 41.557880 -116.697098 37,975 241 466 0
2019-10-13 03:04:40 GMT 41.567825 -116.673866 37,975 241 465 0
2019-10-13 03:04:32 GMT 41.576641 -116.653152 37,975 241 467 -64
2019-10-13 03:04:21 GMT 41.588104 -116.626366 38,000 241 467 -64
2019-10-13 03:04:11 GMT 41.599594 -116.599335 38,000 241 467 -64
2019-10-13 03:03:55 GMT 41.616585 -116.559509 38,000 241 467 0
2019-10-13 03:03:44 GMT 41.627850 -116.532944 37,975 241 467 0
2019-10-13 03:03:31 GMT 41.641159 -116.501579 37,975 241 467 0
2019-10-13 03:03:23 GMT 41.650429 -116.479797 38,000 241 467 -64
2019-10-13 03:03:12 GMT 41.661694 -116.453163 37,975 241 467 0
2019-10-13 03:03:01 GMT 41.674118 -116.423805 38,000 241 467 0
2019-10-13 03:02:56 GMT 41.679016 -116.412254 37,975 241 467 0
2019-10-13 03:02:51 GMT 41.684326 -116.399712 37,975 241 467 0
2019-10-13 03:02:47 GMT 41.688694 -116.389420 37,975 241 467 -64
2019-10-13 03:02:35 GMT 41.701172 -116.359947 37,975 241 468 0
2019-10-13 03:02:31 GMT 41.705544 -116.349625 37,975 241 468 0
2019-10-13 03:02:26 GMT 41.711197 -116.336288 37,975 241 468 0
2019-10-13 03:02:15 GMT 41.722504 -116.309570 37,975 241 469 -64
2019-10-13 03:02:05 GMT 41.733475 -116.283516 38,000 241 470 -64
2019-10-13 03:01:54 GMT 41.747223 -116.250832 37,975 241 470 -64
2019-10-13 03:01:46 GMT 41.752991 -116.237160 38,000 241 470 -64
2019-10-13 03:01:41 GMT 41.758987 -116.222992 38,000 241 470 -64
2019-10-13 03:01:36 GMT 41.764343 -116.210320 38,000 241 470 -64
2019-10-13 03:01:33 GMT 41.767414 -116.202965 38,000 241 470 -64
2019-10-13 03:01:25 GMT 41.776352 -116.181694 38,000 241 470 -64
2019-10-13 03:01:14 GMT 41.787735 -116.154579 37,975 241 470 0
2019-10-13 03:01:10 GMT 41.791901 -116.144653 38,000 241 469 -64
2019-10-13 03:01:06 GMT 41.796661 -116.133293 38,000 241 469 -64
2019-10-13 03:01:03 GMT 41.799454 -116.126740 38,000 241 469 -64
2019-10-13 03:00:55 GMT 41.808151 -116.106010 38,000 241 467 -64
2019-10-13 03:00:52 GMT 41.811218 -116.098724 38,000 241 467 0
2019-10-13 03:00:45 GMT 41.818726 -116.080856 38,000 241 466 64
2019-10-13 03:00:42 GMT 41.821884 -116.073303 38,000 241 466 64
2019-10-13 03:00:34 GMT 41.830353 -116.053139 37,975 241 466 64
2019-10-13 03:00:31 GMT 41.833282 -116.046089 37,975 241 466 64
2019-10-13 03:00:23 GMT 41.841385 -116.026741 37,975 241 466 64
2019-10-13 03:00:17 GMT 41.848846 -116.008881 37,975 236 470 -64
2019-10-13 03:00:13 GMT 41.852093 -116.001060 37,975 241 466 -64
2019-10-13 03:00:09 GMT 41.856812 -115.989723 37,975 242 467 -64
2019-10-13 03:00:03 GMT 41.863129 -115.974487 37,975 241 467 -64
2019-10-13 02:59:58 GMT 41.868256 -115.962440 37,975 236 470 -64
2019-10-13 02:59:52 GMT 41.875042 -115.947281 38,000 239 469 -64
2019-10-13 02:59:47 GMT 41.880203 -115.936157 38,000 238 469 0
2019-10-13 02:59:41 GMT 41.886959 -115.922241 37,975 237 470 -64
2019-10-13 02:59:36 GMT 41.893570 -115.909271 38,000 236 471 -64
2019-10-13 02:59:31 GMT 41.899853 -115.897331 38,000 235 471 -64
2019-10-13 02:59:25 GMT 41.907116 -115.884171 38,000 233 471 -64
2019-10-13 02:59:20 GMT 41.914444 -115.871429 38,000 232 472 -64
2019-10-13 02:59:14 GMT 41.922523 -115.858047 37,975 231 472 0
2019-10-13 02:59:10 GMT 41.928112 -115.849045 38,000 230 471 0
2019-10-13 02:59:04 GMT 41.937096 -115.834732 37,975 230 471 0
2019-10-13 02:58:59 GMT 41.942871 -115.825607 37,975 230 471 0
2019-10-13 02:58:53 GMT 41.952759 -115.809944 37,975 230 472 -64
2019-10-13 02:58:49 GMT 41.957672 -115.802094 37,975 230 472 -64
2019-10-13 02:58:42 GMT 41.968098 -115.785553 38,000 230 472 -64
2019-10-13 02:58:37 GMT 41.973907 -115.776421 38,000 230 472 -64
2019-10-13 02:58:31 GMT 41.983322 -115.761406 38,000 230 472 -64
2019-10-13 02:58:28 GMT 41.987556 -115.754700 38,000 230 472 -64
2019-10-13 02:58:20 GMT 41.997803 -115.738281 37,975 230 471 0
2019-10-13 02:58:17 GMT 42.002609 -115.730667 37,975 230 471 0
2019-10-13 02:58:09 GMT 42.014145 -115.712379 38,000 230 472 -64
2019-10-13 02:58:06 GMT 42.018234 -115.705833 38,000 230 471 0
2019-10-13 02:57:56 GMT 42.032852 -115.682587 37,975 230 471 -64
2019-10-13 02:57:46 GMT 42.047012 -115.659943 38,000 230 471 0
2019-10-13 02:57:35 GMT 42.062366 -115.635574 38,000 230 471 64
2019-10-13 02:57:25 GMT 42.076382 -115.613220 37,975 230 471 0
2019-10-13 02:57:13 GMT 42.092239 -115.587845 37,975 231 472 0
2019-10-13 02:57:06 GMT 42.103180 -115.570305 37,975 231 472 -64
2019-10-13 02:57:03 GMT 42.106129 -115.565567 37,975 230 472 -64
2019-10-13 02:56:53 GMT 42.121170 -115.541527 38,000 230 472 -64
2019-10-13 02:56:42 GMT 42.135639 -115.518364 38,000 231 472 -64
2019-10-13 02:56:32 GMT 42.150604 -115.494339 38,000 231 472 0
2019-10-13 02:56:21 GMT 42.165340 -115.470718 38,000 230 471 64
2019-10-13 02:56:10 GMT 42.180424 -115.446510 37,975 230 471 0
2019-10-13 02:55:59 GMT 42.196838 -115.420181 38,000 230 471 -64
2019-10-13 02:55:48 GMT 42.212219 -115.395462 38,000 230 471 -64
2019-10-13 02:55:37 GMT 42.226604 -115.372284 37,975 231 471 -64
2019-10-13 02:55:26 GMT 42.242523 -115.346611 38,000 231 470 0
2019-10-13 02:55:16 GMT 42.257172 -115.322990 38,000 231 471 0
2019-10-13 02:55:05 GMT 42.271957 -115.299141 37,975 231 470 0
2019-10-13 02:54:57 GMT 42.283676 -115.280228 38,000 231 470 0
2019-10-13 02:54:54 GMT 42.287167 -115.274559 37,975 231 470 0
2019-10-13 02:54:46 GMT 42.297867 -115.257195 38,000 231 471 0
2019-10-13 02:54:43 GMT 42.302628 -115.249580 38,000 231 471 -64
2019-10-13 02:54:36 GMT 42.312378 -115.233788 38,000 231 471 -64
2019-10-13 02:54:33 GMT 42.317139 -115.226105 37,975 231 471 0
2019-10-13 02:54:25 GMT 42.327438 -115.209381 38,000 231 471 0
2019-10-13 02:54:21 GMT 42.332748 -115.200829 38,000 231 471 -64
2019-10-13 02:54:14 GMT 42.343094 -115.184097 38,000 231 471 -64
2019-10-13 02:54:04 GMT 42.357464 -115.160866 38,000 231 470 -64
2019-10-13 02:53:54 GMT 42.372894 -115.135780 38,000 231 470 0
2019-10-13 02:53:43 GMT 42.386856 -115.113190 37,975 231 471 0
2019-10-13 02:53:32 GMT 42.402145 -115.088280 38,000 231 471 0
2019-10-13 02:53:22 GMT 42.416489 -115.064926 38,000 231 471 -64
2019-10-13 02:53:10 GMT 42.432083 -115.039566 38,000 231 471 -64
2019-10-13 02:52:59 GMT 42.446960 -115.015305 37,975 231 472 -64
2019-10-13 02:52:50 GMT 42.460995 -114.992363 37,975 231 472 0
2019-10-13 02:52:40 GMT 42.473797 -114.971474 37,975 231 471 0
2019-10-13 02:52:37 GMT 42.477985 -114.964645 37,975 231 471 0
2019-10-13 02:52:29 GMT 42.490509 -114.944206 37,975 231 472 0
2019-10-13 02:52:18 GMT 42.505264 -114.920120 38,000 231 472 -64
2019-10-13 02:52:14 GMT 42.510681 -114.911247 37,975 231 472 -64
2019-10-13 02:52:06 GMT 42.521141 -114.894188 38,000 231 472 -64
2019-10-13 02:52:03 GMT 42.526016 -114.886215 38,000 231 473 0
2019-10-13 02:51:58 GMT 42.532825 -114.875031 38,000 231 473 -64
2019-10-13 02:51:52 GMT 42.541031 -114.861565 37,975 231 473 -64
2019-10-13 02:51:46 GMT 42.549957 -114.846954 37,975 231 473 0
2019-10-13 02:51:41 GMT 42.555401 -114.838043 38,000 231 473 0
2019-10-13 02:51:36 GMT 42.564854 -114.822525 38,000 231 473 -64
2019-10-13 02:51:30 GMT 42.570831 -114.812683 38,000 231 473 0
2019-10-13 02:51:24 GMT 42.579483 -114.798515 38,000 231 473 0
2019-10-13 02:51:20 GMT 42.585571 -114.788528 37,975 231 473 0
2019-10-13 02:51:14 GMT 42.593948 -114.774796 37,975 231 473 0
2019-10-13 02:51:09 GMT 42.600357 -114.764305 38,000 231 473 0
2019-10-13 02:51:04 GMT 42.609238 -114.749641 38,000 231 473 -64
2019-10-13 02:50:58 GMT 42.615372 -114.739586 38,000 231 473 -64
2019-10-13 02:50:53 GMT 42.623428 -114.726357 38,000 231 472 0
2019-10-13 02:50:48 GMT 42.630211 -114.715149 38,000 231 472 0
2019-10-13 02:50:42 GMT 42.638546 -114.701416 38,000 231 472 0
2019-10-13 02:50:37 GMT 42.644642 -114.691322 37,975 231 472 0
2019-10-13 02:50:32 GMT 42.653534 -114.676697 38,000 231 472 0
2019-10-13 02:50:26 GMT 42.659588 -114.666672 37,975 231 471 0
2019-10-13 02:50:20 GMT 42.667919 -114.652939 38,000 231 472 0
2019-10-13 02:50:15 GMT 42.674973 -114.641273 37,975 231 472 0
2019-10-13 02:50:11 GMT 42.682480 -114.628914 37,975 231 472 0
2019-10-13 02:50:07 GMT 42.685936 -114.623169 37,975 231 472 0
2019-10-13 02:50:04 GMT 42.689941 -114.616554 37,975 231 472 0
2019-10-13 02:49:59 GMT 42.697292 -114.604393 37,975 231 472 0
2019-10-13 02:49:54 GMT 42.704788 -114.592003 37,975 231 473 0
2019-10-13 02:49:48 GMT 42.712841 -114.578712 37,975 231 473 0
2019-10-13 02:49:44 GMT 42.719055 -114.568428 37,975 231 473 0
2019-10-13 02:49:39 GMT 42.726994 -114.555336 37,975 231 473 0
2019-10-13 02:49:33 GMT 42.733929 -114.543839 37,975 231 473 -64
2019-10-13 02:49:28 GMT 42.740028 -114.533745 37,975 231 473 0
2019-10-13 02:49:25 GMT 42.744873 -114.525726 37,975 231 474 0
2019-10-13 02:49:22 GMT 42.749199 -114.518547 38,000 231 474 -64
2019-10-13 02:49:18 GMT 42.756416 -114.506599 37,975 231 474 -64
2019-10-13 02:49:14 GMT 42.760162 -114.500389 38,000 231 474 -64
2019-10-13 02:49:11 GMT 42.764053 -114.493958 37,975 231 474 -64
2019-10-13 02:49:04 GMT 42.774475 -114.476707 38,000 231 474 -64
2019-10-13 02:49:00 GMT 42.779739 -114.467957 38,000 231 474 -64
2019-10-13 02:48:56 GMT 42.785431 -114.458504 38,000 231 474 0
2019-10-13 02:48:52 GMT 42.790257 -114.450394 38,000 231 474 -64
2019-10-13 02:48:46 GMT 42.800545 -114.433403 38,000 231 473 0
2019-10-13 02:48:42 GMT 42.803970 -114.427605 38,000 231 473 0
2019-10-13 02:48:35 GMT 42.814884 -114.409401 37,975 231 472 0
2019-10-13 02:48:32 GMT 42.818516 -114.403450 37,975 231 472 0
2019-10-13 02:48:25 GMT 42.829826 -114.384613 37,975 231 472 0
2019-10-13 02:48:21 GMT 42.833817 -114.377899 37,975 231 472 0
2019-10-13 02:48:15 GMT 42.841698 -114.364799 37,975 231 472 -64
2019-10-13 02:48:12 GMT 42.845993 -114.357651 38,000 231 472 -64
2019-10-13 02:48:03 GMT 42.858719 -114.336502 38,000 231 472 -64
2019-10-13 02:48:00 GMT 42.862740 -114.329880 38,000 231 472 0
2019-10-13 02:47:57 GMT 42.867443 -114.322029 37,975 231 472 0
2019-10-13 02:47:53 GMT 42.873367 -114.312103 38,000 231 472 0
2019-10-13 02:47:49 GMT 42.877125 -114.305946 37,975 231 472 -64
2019-10-13 02:47:42 GMT 42.887878 -114.287956 37,975 231 471 0
2019-10-13 02:47:39 GMT 42.891975 -114.281029 37,975 231 471 0
2019-10-13 02:47:36 GMT 42.897354 -114.272057 37,975 231 471 -64
2019-10-13 02:47:32 GMT 42.902298 -114.263756 38,000 231 471 -64
2019-10-13 02:47:28 GMT 42.906464 -114.256851 38,000 231 471 0
2019-10-13 02:47:25 GMT 42.911526 -114.248329 38,000 231 471 0
2019-10-13 02:47:18 GMT 42.920326 -114.233620 38,000 231 471 0
2019-10-13 02:47:14 GMT 42.926514 -114.223259 38,000 231 471 -64
2019-10-13 02:47:11 GMT 42.931591 -114.214714 38,000 231 471 -64
2019-10-13 02:47:07 GMT 42.935455 -114.208244 37,975 231 471 -64
2019-10-13 02:47:03 GMT 42.942577 -114.196274 37,975 231 471 0
2019-10-13 02:46:59 GMT 42.945885 -114.190781 38,000 231 471 0
2019-10-13 02:46:56 GMT 42.950027 -114.183853 38,000 231 471 0
2019-10-13 02:46:49 GMT 42.960175 -114.166847 37,975 231 471 0
2019-10-13 02:46:46 GMT 42.964550 -114.159462 37,975 231 471 0
2019-10-13 02:46:43 GMT 42.970322 -114.149780 38,000 231 471 0
2019-10-13 02:46:39 GMT 42.974979 -114.141998 37,975 231 471 0
2019-10-13 02:46:35 GMT 42.979122 -114.135063 37,975 231 471 0
2019-10-13 02:46:31 GMT 42.985840 -114.123741 37,975 231 471 0
2019-10-13 02:46:28 GMT 42.989548 -114.117538 38,000 231 471 0
2019-10-13 02:46:25 GMT 42.993645 -114.110611 37,975 232 472 0
2019-10-13 02:46:18 GMT 43.004517 -114.092377 37,975 232 472 0
2019-10-13 02:46:14 GMT 43.008362 -114.085930 38,000 232 472 0
2019-10-13 02:46:10 GMT 43.016174 -114.072746 38,000 232 472 -64
2019-10-13 02:46:06 GMT 43.018925 -114.068100 37,975 232 472 -64
2019-10-13 02:46:03 GMT 43.023067 -114.061172 37,975 232 472 -64
2019-10-13 02:45:59 GMT 43.029629 -114.050056 38,000 232 473 -64
2019-10-13 02:45:56 GMT 43.037476 -114.036804 38,000 232 473 -64
2019-10-13 02:45:53 GMT 43.037476 -114.036804 38,000 232 473 -64
2019-10-13 02:45:49 GMT 43.045212 -114.023781 38,000 232 473 -64
2019-10-13 02:45:46 GMT 43.048233 -114.018669 38,000 232 473 -64
2019-10-13 02:45:42 GMT 43.052902 -114.010811 38,000 232 473 -64
2019-10-13 02:45:34 GMT 43.062962 -113.993813 38,000 232 473 0
2019-10-13 02:45:31 GMT 43.067505 -113.986153 38,000 232 474 0
2019-10-13 02:45:25 GMT 43.077393 -113.969421 37,975 232 473 0
2019-10-13 02:45:20 GMT 43.081787 -113.962013 38,000 232 473 0
2019-10-13 02:45:16 GMT 43.088379 -113.950836 37,975 232 473 0
2019-10-13 02:45:13 GMT 43.091545 -113.945488 37,975 232 473 0
2019-10-13 02:45:10 GMT 43.096619 -113.936913 38,000 232 472 0
2019-10-13 02:45:03 GMT 43.106396 -113.920372 37,975 232 473 0
2019-10-13 02:44:59 GMT 43.111221 -113.912254 37,975 232 473 0
2019-10-13 02:44:53 GMT 43.120686 -113.896179 37,975 232 474 -64
2019-10-13 02:44:48 GMT 43.126602 -113.886192 37,975 232 474 -64
2019-10-13 02:44:41 GMT 43.135986 -113.870354 38,000 232 474 -64
2019-10-13 02:44:38 GMT 43.139832 -113.863838 38,000 232 474 0
2019-10-13 02:44:32 GMT 43.150269 -113.846085 37,975 232 474 -64
2019-10-13 02:44:28 GMT 43.154297 -113.839348 38,000 232 474 -64
2019-10-13 02:44:20 GMT 43.164726 -113.821564 37,975 232 475 -64
2019-10-13 02:44:17 GMT 43.168869 -113.814568 38,000 232 474 -64
2019-10-13 02:44:10 GMT 43.179153 -113.797028 37,975 232 474 0
2019-10-13 02:44:07 GMT 43.183159 -113.790306 37,975 232 474 0
2019-10-13 02:44:00 GMT 43.193985 -113.771797 37,975 232 475 64
2019-10-13 02:43:56 GMT 43.197327 -113.766235 37,975 232 475 0
2019-10-13 02:43:51 GMT 43.209412 -113.745674 37,975 232 475 0
2019-10-13 02:43:45 GMT 43.212708 -113.740051 38,000 232 475 -64
2019-10-13 02:43:39 GMT 43.222916 -113.722740 37,975 232 475 0
2019-10-13 02:43:35 GMT 43.226917 -113.715950 37,975 232 475 0
2019-10-13 02:43:28 GMT 43.236969 -113.698853 38,000 232 477 0
2019-10-13 02:43:25 GMT 43.241364 -113.691315 37,975 232 475 0
2019-10-13 02:43:18 GMT 43.252243 -113.672791 38,000 232 475 0
2019-10-13 02:43:14 GMT 43.255547 -113.667168 37,975 232 476 -64
2019-10-13 02:43:08 GMT 43.265232 -113.650688 38,000 232 477 -64
2019-10-13 02:43:04 GMT 43.270065 -113.642448 37,975 232 477 0
2019-10-13 02:42:56 GMT 43.280968 -113.623878 38,000 232 476 0
2019-10-13 02:42:53 GMT 43.284550 -113.617729 37,975 232 476 0
2019-10-13 02:42:45 GMT 43.295975 -113.598183 38,000 232 476 -64
2019-10-13 02:42:42 GMT 43.299446 -113.592293 38,000 232 476 -64
2019-10-13 02:42:35 GMT 43.310303 -113.573662 38,000 232 476 -64
2019-10-13 02:42:32 GMT 43.313644 -113.568039 38,000 232 476 -64
2019-10-13 02:42:25 GMT 43.324493 -113.549393 38,000 232 477 0
2019-10-13 02:42:21 GMT 43.329620 -113.540634 38,000 232 477 0
2019-10-13 02:42:14 GMT 43.339233 -113.524155 37,975 232 476 0
2019-10-13 02:42:11 GMT 43.343204 -113.517281 37,975 232 476 0
2019-10-13 02:42:03 GMT 43.354469 -113.497925 38,000 232 476 -64
2019-10-13 02:41:59 GMT 43.358566 -113.490860 38,000 232 476 0
2019-10-13 02:41:51 GMT 43.370270 -113.470757 38,000 232 476 0
2019-10-13 02:41:48 GMT 43.373699 -113.464836 37,975 232 476 0
2019-10-13 02:41:43 GMT 43.382729 -113.449272 37,975 232 476 0
2019-10-13 02:41:38 GMT 43.387848 -113.440483 37,975 232 476 0
2019-10-13 02:41:31 GMT 43.397301 -113.424156 37,975 232 476 64
2019-10-13 02:41:28 GMT 43.402000 -113.416115 37,975 232 476 64
2019-10-13 02:41:17 GMT 43.417130 -113.390091 37,975 232 477 0
2019-10-13 02:41:10 GMT 43.426487 -113.374001 37,975 232 478 0
2019-10-13 02:41:06 GMT 43.431423 -113.365433 37,975 232 478 -64
2019-10-13 02:40:59 GMT 43.446041 -113.340256 37,975 232 478 -64
2019-10-13 02:40:56 GMT 43.446041 -113.340256 37,975 232 478 -64
2019-10-13 02:40:50 GMT 43.456100 -113.322891 38,000 232 478 -64
2019-10-13 02:40:45 GMT 43.461594 -113.313370 38,000 232 478 -64
2019-10-13 02:40:38 GMT 43.470013 -113.298866 38,000 232 478 0
2019-10-13 02:40:34 GMT 43.475418 -113.289612 38,000 232 478 0
2019-10-13 02:40:29 GMT 43.485191 -113.272636 37,975 232 478 0
2019-10-13 02:40:24 GMT 43.490021 -113.264313 37,975 232 478 0
2019-10-13 02:40:17 GMT 43.499809 -113.247398 38,000 232 478 0
2019-10-13 02:40:13 GMT 43.504463 -113.239288 38,000 232 479 0
2019-10-13 02:40:08 GMT 43.513687 -113.223312 37,975 232 479 0
2019-10-13 02:40:03 GMT 43.518631 -113.214752 38,000 232 479 -64
2019-10-13 02:39:57 GMT 43.527740 -113.198975 37,975 232 478 0
2019-10-13 02:39:52 GMT 43.533783 -113.188499 38,000 232 478 0
2019-10-13 02:39:45 GMT 43.544266 -113.170357 38,000 232 479 0
2019-10-13 02:39:42 GMT 43.547562 -113.164612 37,975 232 479 0
2019-10-13 02:39:36 GMT 43.557175 -113.147942 37,975 232 479 0
2019-10-13 02:39:31 GMT 43.562233 -113.139107 37,975 232 479 0
2019-10-13 02:39:24 GMT 43.572151 -113.121841 38,000 232 479 -64
2019-10-13 02:39:21 GMT 43.577084 -113.113274 38,000 232 479 -64
2019-10-13 02:39:15 GMT 43.586720 -113.096535 38,000 232 479 0
2019-10-13 02:39:10 GMT 43.591702 -113.087898 38,000 232 479 -64
2019-10-13 02:39:03 GMT 43.601440 -113.070908 38,000 232 479 0
2019-10-13 02:38:59 GMT 43.606831 -113.061607 37,975 232 479 0
2019-10-13 02:38:53 GMT 43.615910 -113.045784 38,000 232 479 0
2019-10-13 02:38:48 GMT 43.621262 -113.036476 38,000 232 479 0
2019-10-13 02:38:42 GMT 43.629776 -113.021660 38,000 232 479 0
2019-10-13 02:38:38 GMT 43.636322 -113.010162 38,000 232 479 0
2019-10-13 02:38:32 GMT 43.644287 -112.996239 38,000 232 479 -64
2019-10-13 02:38:27 GMT 43.650558 -112.985252 38,000 232 479 -64
2019-10-13 02:38:22 GMT 43.659203 -112.970123 38,000 232 478 0
2019-10-13 02:38:15 GMT 43.667442 -112.955734 38,000 232 478 0
2019-10-13 02:38:11 GMT 43.673168 -112.945732 38,000 232 478 0
2019-10-13 02:38:05 GMT 43.681274 -112.931595 37,975 232 479 0
2019-10-13 02:38:00 GMT 43.688416 -112.919144 37,975 232 479 0
2019-10-13 02:37:54 GMT 43.696060 -112.905731 37,975 232 479 0
2019-10-13 02:37:50 GMT 43.703476 -112.892761 38,000 232 478 -64
2019-10-13 02:37:43 GMT 43.710846 -112.879791 37,975 232 479 0
2019-10-13 02:37:38 GMT 43.717533 -112.868042 37,975 232 479 0
2019-10-13 02:37:33 GMT 43.725082 -112.854820 37,975 232 479 -64
2019-10-13 02:37:26 GMT 43.735035 -112.837303 37,975 232 479 0
2019-10-13 02:37:23 GMT 43.738064 -112.832008 38,000 232 479 -64
2019-10-13 02:37:17 GMT 43.746304 -112.817619 38,000 232 479 -64
2019-10-13 02:37:12 GMT 43.753143 -112.805588 38,000 232 479 -64
2019-10-13 02:37:06 GMT 43.761059 -112.791595 38,000 232 479 -64
2019-10-13 02:37:03 GMT 43.766273 -112.782440 38,000 232 480 0
2019-10-13 02:36:56 GMT 43.775711 -112.765846 37,975 233 479 0
2019-10-13 02:36:45 GMT 43.790295 -112.740067 37,975 232 478 0
2019-10-13 02:36:34 GMT 43.805191 -112.713852 38,000 232 478 -64
2019-10-13 02:36:23 GMT 43.820206 -112.687340 38,000 232 478 0
2019-10-13 02:36:13 GMT 43.834518 -112.662048 37,975 232 478 0
2019-10-13 02:36:02 GMT 43.848995 -112.636543 38,000 232 478 -64
2019-10-13 02:35:51 GMT 43.863556 -112.610756 37,975 233 479 0
2019-10-13 02:35:40 GMT 43.878571 -112.584183 38,000 233 479 -64
2019-10-13 02:35:30 GMT 43.892941 -112.558853 38,000 233 479 -64
2019-10-13 02:35:20 GMT 43.906254 -112.535179 38,000 233 478 -64
2019-10-13 02:35:10 GMT 43.920822 -112.509323 37,975 233 478 0
2019-10-13 02:35:00 GMT 43.934280 -112.485420 38,000 233 478 0
2019-10-13 02:34:51 GMT 43.945312 -112.465889 38,000 233 478 -64
2019-10-13 02:34:40 GMT 43.960831 -112.438301 37,975 233 478 -64
2019-10-13 02:34:29 GMT 43.975616 -112.411911 38,000 233 478 0
2019-10-13 02:34:19 GMT 43.989769 -112.386734 37,975 233 479 0
2019-10-13 02:34:15 GMT 43.995621 -112.376343 37,975 233 479 0
2019-10-13 02:34:08 GMT 44.004318 -112.360756 38,000 233 479 0
2019-10-13 02:33:57 GMT 44.019142 -112.334358 37,975 222 484 64
2019-10-13 02:33:47 GMT 44.047913 -112.282692 38,000 222 484 64
2019-10-13 02:33:36 GMT 44.047913 -112.282692 38,000 233 480 -64
2019-10-13 02:33:25 GMT 44.062160 -112.257454 38,000 231 481 -64
2019-10-13 02:33:14 GMT 44.077988 -112.231491 37,975 229 482 64
2019-10-13 02:33:03 GMT 44.094559 -112.206375 37,975 222 484 64
2019-10-13 02:32:53 GMT 44.111595 -112.182640 37,975 224 483 0
2019-10-13 02:32:42 GMT 44.128403 -112.161186 38,000 222 485 0
2019-10-13 02:32:32 GMT 44.146454 -112.139236 37,975 222 484 -64
2019-10-13 02:32:21 GMT 44.164993 -112.116631 38,000 222 485 -64
2019-10-13 02:32:10 GMT 44.182358 -112.095467 38,000 222 485 -64
2019-10-13 02:32:00 GMT 44.200378 -112.073433 38,000 222 484 0
2019-10-13 02:31:44 GMT 44.227047 -112.040718 38,000 222 483 -64
2019-10-13 02:31:33 GMT 44.245010 -112.018631 37,975 222 483 64
2019-10-13 02:31:21 GMT 44.264832 -111.994370 37,975 222 483 0
2019-10-13 02:31:11 GMT 44.281586 -111.973701 37,975 222 484 -64
2019-10-13 02:31:01 GMT 44.299393 -111.951859 38,000 222 484 -64
2019-10-13 02:30:50 GMT 44.317200 -111.929955 38,000 222 485 -64
2019-10-13 02:30:39 GMT 44.335052 -111.908112 38,000 222 485 0
2019-10-13 02:30:28 GMT 44.355064 -111.883492 38,000 222 485 0
2019-10-13 02:30:18 GMT 44.371353 -111.863380 38,000 222 484 0
2019-10-13 02:30:07 GMT 44.389114 -111.841408 37,975 222 484 -64
2019-10-13 02:29:56 GMT 44.407562 -111.818649 38,000 222 484 0
2019-10-13 02:29:46 GMT 44.425323 -111.796677 38,000 222 483 0
2019-10-13 02:29:34 GMT 44.445610 -111.771622 37,975 222 483 -64
2019-10-13 02:29:23 GMT 44.463673 -111.749245 38,000 222 483 0
2019-10-13 02:29:12 GMT 44.481361 -111.727272 37,975 222 483 -64
2019-10-13 02:29:01 GMT 44.500214 -111.703819 38,000 222 482 -64
2019-10-13 02:28:51 GMT 44.517563 -111.682365 38,000 222 481 0
2019-10-13 02:28:40 GMT 44.535873 -111.659615 38,000 222 480 64
2019-10-13 02:28:26 GMT 44.558266 -111.631744 37,975 222 480 64
2019-10-13 02:26:00 GMT 44.801147 -111.327736 38,000 222 482 -64
2019-10-13 02:25:50 GMT 44.817562 -111.307045 38,000 222 481 64
2019-10-13 02:25:39 GMT 44.836258 -111.283524 37,975 222 480 64
2019-10-13 02:25:29 GMT 44.851868 -111.263969 37,975 222 480 64
2019-10-13 02:25:18 GMT 44.869884 -111.241127 37,975 222 481 64
2019-10-13 02:25:08 GMT 44.886612 -111.219963 37,975 222 482 -64
2019-10-13 02:24:58 GMT 44.903549 -111.198509 38,000 222 483 -64
2019-10-13 02:24:47 GMT 44.922180 -111.174973 38,000 222 484 0
2019-10-13 02:24:37 GMT 44.938644 -111.154106 38,000 223 483 0
2019-10-13 02:24:26 GMT 44.956741 -111.131157 37,975 223 483 64
2019-10-13 02:24:00 GMT 45.000595 -111.075439 38,000 222 484 64
2019-10-13 02:23:55 GMT 45.009029 -111.064674 38,000 223 483 64
2019-10-13 02:23:45 GMT 45.025650 -111.043571 37,975 223 482 64
2019-10-13 02:23:34 GMT 45.042503 -111.022072 37,975 223 482 64
2019-10-13 02:23:23 GMT 45.060658 -110.998825 38,000 223 482 0
2019-10-13 02:23:03 GMT 45.094528 -110.955574 38,000 223 482 -64
2019-10-13 02:22:53 GMT 45.111374 -110.933990 38,000 223 481 -64
2019-10-13 02:22:42 GMT 45.128860 -110.911690 38,000 223 480 0
2019-10-13 02:22:24 GMT 45.159023 -110.873154 37,975 223 480 0
2019-10-13 02:22:21 GMT 45.163147 -110.867874 38,000 223 480 0
2019-10-13 02:22:11 GMT 45.180435 -110.845757 38,000 223 480 -64
2019-10-13 02:22:00 GMT 45.198265 -110.822975 37,975 223 480 64
2019-10-13 02:21:50 GMT 45.214699 -110.801811 37,975 223 480 0
2019-10-13 02:21:39 GMT 45.231903 -110.779594 38,000 223 480 0
2019-10-13 02:21:27 GMT 45.252274 -110.753372 37,975 223 481 64
2019-10-13 02:21:18 GMT 45.267059 -110.734337 37,975 223 480 0
2019-10-13 02:21:08 GMT 45.283539 -110.713150 37,975 223 480 64
2019-10-13 02:20:57 GMT 45.301666 -110.689873 37,975 223 481 64
2019-10-13 02:20:47 GMT 45.317627 -110.669304 38,000 223 481 -64
2019-10-13 02:20:37 GMT 45.335220 -110.646584 38,000 223 482 -128
2019-10-13 02:20:26 GMT 45.352493 -110.624153 37,975 223 481 0
2019-10-13 02:20:16 GMT 45.369736 -110.601723 37,975 223 482 -64
2019-10-13 02:20:05 GMT 45.387497 -110.578636 38,000 223 482 -64
2019-10-13 02:19:54 GMT 45.404774 -110.556160 37,975 223 482 0
2019-10-13 02:19:45 GMT 45.421051 -110.535019 37,975 223 482 0
2019-10-13 02:19:34 GMT 45.438381 -110.512611 37,975 223 482 -64
2019-10-13 02:19:23 GMT 45.456490 -110.489098 38,000 223 482 -64
2019-10-13 02:19:13 GMT 45.472599 -110.468063 38,000 223 482 -64
2019-10-13 02:19:03 GMT 45.490055 -110.445358 37,975 223 482 0
2019-10-13 02:18:52 GMT 45.507839 -110.422310 37,975 223 482 0
2019-10-13 02:18:42 GMT 45.524780 -110.400169 38,000 223 482 -64
2019-10-13 02:18:31 GMT 45.541729 -110.378098 37,975 223 482 0
2019-10-13 02:18:21 GMT 45.559139 -110.355331 38,000 223 482 -64
2019-10-13 02:18:10 GMT 45.575897 -110.333427 38,000 223 481 0
2019-10-13 02:18:00 GMT 45.593307 -110.310699 38,000 223 481 64
2019-10-13 02:17:47 GMT 45.613770 -110.283844 38,000 223 481 64
2019-10-13 02:17:38 GMT 45.628510 -110.264481 38,000 223 481 0
2019-10-13 02:17:29 GMT 45.644577 -110.243446 37,975 223 481 64
2019-10-13 02:17:18 GMT 45.661785 -110.220886 38,000 223 481 -64
2019-10-13 02:17:07 GMT 45.679195 -110.198090 38,000 223 481 0
2019-10-13 02:16:47 GMT 45.713272 -110.153320 37,975 223 481 128
2019-10-13 02:16:32 GMT 45.737595 -110.120995 38,000 223 483 -192
2019-10-13 02:16:26 GMT 45.747303 -110.108139 38,000 223 485 -128
2019-10-13 02:16:15 GMT 45.764603 -110.085281 38,000 223 486 -64
2019-10-13 02:16:05 GMT 45.781448 -110.063110 38,000 223 485 0
2019-10-13 02:15:55 GMT 45.798416 -110.040710 38,000 223 485 -64
2019-10-13 02:15:44 GMT 45.816479 -110.016747 38,000 223 485 64
2019-10-13 02:15:31 GMT 45.836868 -109.989693 37,975 223 485 64
2019-10-13 02:15:23 GMT 45.850159 -109.972076 37,975 223 484 64
2019-10-13 02:15:13 GMT 45.867188 -109.949295 38,000 223 484 -128
2019-10-13 02:15:00 GMT 45.888885 -109.920494 37,975 223 485 -64
2019-10-13 02:14:31 GMT 45.936539 -109.857185 37,975 223 485 0
2019-10-13 02:14:20 GMT 45.953438 -109.834579 38,000 223 485 -128
2019-10-13 02:14:10 GMT 45.970093 -109.812500 37,975 223 486 64
2019-10-13 02:14:00 GMT 45.987652 -109.789055 38,000 223 485 0
2019-10-13 02:13:49 GMT 46.005062 -109.765778 38,000 223 486 -64
2019-10-13 02:13:39 GMT 46.022003 -109.743172 38,000 223 485 0
2019-10-13 02:13:28 GMT 46.039230 -109.720116 38,000 223 486 0
2019-10-13 02:13:18 GMT 46.055992 -109.697662 38,000 223 485 0
2019-10-13 02:13:07 GMT 46.074188 -109.673233 38,000 224 486 -64
2019-10-13 02:12:57 GMT 46.090439 -109.651382 38,000 224 486 0
2019-10-13 02:12:47 GMT 46.107010 -109.629082 38,000 224 486 0
2019-10-13 02:12:36 GMT 46.124680 -109.605240 37,975 224 486 64
2019-10-13 02:12:26 GMT 46.141602 -109.582443 37,975 224 486 64
2019-10-13 02:12:15 GMT 46.158463 -109.559685 37,975 224 486 -64
2019-10-13 02:12:03 GMT 46.178833 -109.532288 37,975 224 486 -64
2019-10-13 02:11:53 GMT 46.195740 -109.509521 38,000 224 486 -64
2019-10-13 02:11:44 GMT 46.210648 -109.489410 38,000 224 486 -64
2019-10-13 02:11:33 GMT 46.227863 -109.466125 38,000 224 486 64
2019-10-13 02:11:08 GMT 46.269012 -109.410301 37,975 224 485 0
2019-10-13 02:11:02 GMT 46.278790 -109.396980 37,975 224 485 0
2019-10-13 02:10:52 GMT 46.295456 -109.374390 37,975 224 484 64
2019-10-13 02:10:40 GMT 46.314148 -109.348930 37,975 224 483 -64
2019-10-13 02:10:24 GMT 46.340054 -109.313690 38,000 224 484 -64
2019-10-13 02:10:20 GMT 46.346741 -109.304588 38,000 224 484 -64
2019-10-13 02:10:10 GMT 46.363514 -109.281830 38,000 224 483 0
2019-10-13 02:09:59 GMT 46.380569 -109.258568 37,975 224 483 64
2019-10-13 02:09:49 GMT 46.397919 -109.234863 37,975 224 482 64
2019-10-13 02:08:25 GMT 46.533371 -109.049286 38,000 224 482 0
2019-10-13 02:08:15 GMT 46.550537 -109.025772 37,975 224 482 64
2019-10-13 02:07:54 GMT 46.583130 -108.980827 37,975 224 481 0
2019-10-13 02:05:29 GMT 46.817825 -108.655251 38,000 224 484 -64
2019-10-13 02:05:20 GMT 46.833939 -108.632683 37,975 224 484 64
2019-10-13 02:05:09 GMT 46.850098 -108.610100 38,000 224 485 0
2019-10-13 02:04:58 GMT 46.867397 -108.585838 38,000 224 486 64
2019-10-13 02:04:43 GMT 46.892212 -108.551033 37,975 224 487 64
2019-10-13 02:04:35 GMT 46.905384 -108.532524 38,000 224 488 -64
2019-10-13 02:04:27 GMT 46.918579 -108.514023 38,000 224 490 -64
2019-10-13 02:04:17 GMT 46.934803 -108.491257 38,000 224 491 0
2019-10-13 02:04:06 GMT 46.951797 -108.467316 37,975 225 492 0
2019-10-13 02:03:56 GMT 46.969345 -108.442612 38,000 225 493 -64
2019-10-13 02:03:45 GMT 46.985916 -108.419212 37,975 224 494 0
2019-10-13 02:03:35 GMT 47.003700 -108.394142 38,000 224 495 -64
2019-10-13 02:03:25 GMT 47.021393 -108.369209 38,000 224 497 -64
2019-10-13 02:03:14 GMT 47.038239 -108.345451 38,000 224 497 0
2019-10-13 02:03:04 GMT 47.055450 -108.321144 38,000 225 497 0
2019-10-13 02:02:53 GMT 47.072937 -108.296356 37,975 225 497 0
2019-10-13 02:02:43 GMT 47.090790 -108.271019 38,000 225 498 -64
2019-10-13 02:02:32 GMT 47.108166 -108.246391 38,000 225 498 0
2019-10-13 02:02:22 GMT 47.125854 -108.221237 37,975 225 499 0
2019-10-13 02:02:10 GMT 47.143021 -108.196724 37,975 225 499 0
2019-10-13 02:02:01 GMT 47.159912 -108.172691 37,975 225 499 0
2019-10-13 02:01:50 GMT 47.177620 -108.147446 38,000 225 499 -64
2019-10-13 02:01:40 GMT 47.194748 -108.123184 38,000 225 500 -64
2019-10-13 02:01:29 GMT 47.212692 -108.097710 38,000 225 499 0
2019-10-13 02:01:19 GMT 47.229805 -108.073425 38,000 225 499 0
2019-10-13 02:01:08 GMT 47.246796 -108.049164 38,000 225 498 0
2019-10-13 02:00:58 GMT 47.264069 -108.024406 38,000 225 496 0
2019-10-13 02:00:47 GMT 47.281631 -107.999176 38,000 225 495 0
2019-10-13 02:00:37 GMT 47.299122 -107.973915 38,000 225 495 64
2019-10-13 02:00:26 GMT 47.315323 -107.950630 37,975 225 495 64
2019-10-13 02:00:16 GMT 47.332870 -107.925461 37,975 225 495 0
2019-10-13 02:00:05 GMT 47.350433 -107.900299 38,000 225 497 -64
2019-10-13 01:59:55 GMT 47.367367 -107.875954 38,000 225 497 0
2019-10-13 01:59:44 GMT 47.384453 -107.851372 38,000 225 497 0
2019-10-13 01:59:34 GMT 47.402187 -107.825813 38,000 225 497 -64
2019-10-13 01:59:22 GMT 47.419647 -107.800667 38,000 225 498 -64
2019-10-13 01:59:13 GMT 47.436584 -107.776154 38,000 225 498 0
2019-10-13 01:59:02 GMT 47.453705 -107.751434 38,000 225 498 0
2019-10-13 01:58:52 GMT 47.471466 -107.725685 38,000 225 498 0
2019-10-13 01:58:41 GMT 47.488403 -107.701225 38,000 225 498 0
2019-10-13 01:58:31 GMT 47.505661 -107.676178 38,000 225 498 0
2019-10-13 01:58:20 GMT 47.523056 -107.650909 37,975 225 498 0
2019-10-13 01:58:10 GMT 47.540817 -107.625092 38,000 225 499 0
2019-10-13 01:57:58 GMT 47.557720 -107.600517 37,975 225 498 64
2019-10-13 01:57:49 GMT 47.574757 -107.575729 38,000 225 498 0
2019-10-13 01:57:38 GMT 47.591354 -107.551552 38,000 225 498 -64
2019-10-13 01:57:27 GMT 47.608883 -107.525940 38,000 225 499 0
2019-10-13 01:57:17 GMT 47.626099 -107.500809 37,975 225 499 0
2019-10-13 01:57:06 GMT 47.643219 -107.475815 37,975 225 499 64
2019-10-13 01:56:56 GMT 47.660660 -107.450340 37,975 225 500 0
2019-10-13 01:56:46 GMT 47.677265 -107.426010 37,975 225 501 0
2019-10-13 01:56:35 GMT 47.695049 -107.399948 37,975 225 502 -64
2019-10-13 01:56:07 GMT 47.740345 -107.333611 38,000 225 503 0
2019-10-13 01:56:03 GMT 47.747280 -107.323395 37,975 225 503 0
2019-10-13 01:55:53 GMT 47.764786 -107.297691 37,975 225 503 64
2019-10-13 01:55:43 GMT 47.781418 -107.273117 37,975 225 502 -64
2019-10-13 01:55:32 GMT 47.799179 -107.246819 38,000 225 503 0
2019-10-13 01:55:22 GMT 47.816025 -107.221962 38,000 225 503 64
2019-10-13 01:55:10 GMT 47.835636 -107.193039 38,000 225 503 -64
2019-10-13 01:55:01 GMT 47.851639 -107.169365 38,000 225 502 0
2019-10-13 01:54:50 GMT 47.868439 -107.144577 37,975 225 502 0
2019-10-13 01:54:40 GMT 47.886154 -107.118279 37,975 225 502 0
2019-10-13 01:54:28 GMT 47.903549 -107.092461 38,000 225 502 -64
2019-10-13 01:54:19 GMT 47.921265 -107.066093 38,000 225 502 0
2019-10-13 01:54:07 GMT 47.938145 -107.040993 38,000 225 502 0
2019-10-13 01:53:55 GMT 47.960587 -107.007591 37,975 225 501 64
2019-10-13 01:53:46 GMT 47.973358 -106.988571 37,975 225 501 0
2019-10-13 01:53:36 GMT 47.989380 -106.964676 37,975 225 500 0
2019-10-13 01:53:10 GMT 48.031494 -106.901848 38,000 225 499 -64
2019-10-13 01:53:05 GMT 48.042049 -106.886055 38,000 225 497 0
2019-10-13 01:52:53 GMT 48.058777 -106.861061 38,000 226 496 0
2019-10-13 01:52:15 GMT 48.122353 -106.765556 38,000 226 494 -64
2019-10-13 01:52:10 GMT 48.128448 -106.756332 38,000 226 494 -64
2019-10-13 01:52:02 GMT 48.142776 -106.734856 37,975 226 494 -64
2019-10-13 01:51:51 GMT 48.160011 -106.708939 37,975 226 493 -64
2019-10-13 01:51:41 GMT 48.176514 -106.683937 38,000 226 494 0
2019-10-13 01:51:29 GMT 48.194092 -106.658020 38,000 225 494 0
2019-10-13 01:51:20 GMT 48.211578 -106.633087 37,975 224 493 64
2019-10-13 01:51:08 GMT 48.228771 -106.609230 37,975 223 492 0
2019-10-13 01:50:59 GMT 48.246086 -106.586105 38,000 222 491 -64
2019-10-13 01:50:48 GMT 48.264336 -106.562538 38,000 221 491 -64
2019-10-13 01:50:38 GMT 48.282440 -106.539352 38,000 221 490 -64
2019-10-13 01:50:27 GMT 48.300880 -106.515778 38,000 221 490 0
2019-10-13 01:50:17 GMT 48.319290 -106.492172 38,000 221 489 -64
2019-10-13 01:50:05 GMT 48.337509 -106.468857 38,000 221 489 0
2019-10-13 01:49:55 GMT 48.355160 -106.446243 38,000 221 488 0
2019-10-13 01:49:44 GMT 48.373268 -106.422829 38,000 221 487 64
2019-10-13 01:49:33 GMT 48.391891 -106.398857 38,000 221 487 0
2019-10-13 01:49:24 GMT 48.409115 -106.376572 38,000 221 487 -64
2019-10-13 01:49:12 GMT 48.427876 -106.352356 37,975 221 487 -64
2019-10-13 01:49:03 GMT 48.444958 -106.330307 38,000 221 487 0
2019-10-13 01:48:51 GMT 48.463348 -106.306458 37,975 221 486 0
2019-10-13 01:48:42 GMT 48.481407 -106.282967 37,975 221 487 0
2019-10-13 01:48:31 GMT 48.498772 -106.260414 38,000 221 487 -64
2019-10-13 01:48:21 GMT 48.517487 -106.236061 38,000 221 487 -64
2019-10-13 01:47:36 GMT 48.592018 -106.139130 38,000 221 486 0
2019-10-13 01:47:21 GMT 48.618027 -106.105179 38,000 221 487 -64
2019-10-13 01:46:58 GMT 48.656864 -106.054352 38,000 221 486 0
2019-10-13 01:46:44 GMT 48.681679 -106.021896 37,975 221 486 64
2019-10-13 01:46:31 GMT 48.701740 -105.995659 38,000 221 487 0
2019-10-13 01:45:52 GMT 48.769520 -105.906540 37,975 222 490 0
2019-10-13 01:45:42 GMT 48.786118 -105.884682 37,975 222 491 0
2019-10-13 01:45:21 GMT 48.821846 -105.837372 38,000 222 492 0
2019-10-13 01:45:11 GMT 48.839539 -105.813972 38,000 222 493 0
2019-10-13 01:44:53 GMT 48.869476 -105.774399 38,000 222 494 -64
2019-10-13 01:44:47 GMT 48.879456 -105.761223 38,000 221 495 -64
2019-10-13 01:44:34 GMT 48.903305 -105.729744 37,975 222 496 0
2019-10-13 01:44:24 GMT 48.920349 -105.707054 38,000 222 496 -64
2019-10-13 01:44:17 GMT 48.931229 -105.692635 38,000 222 496 -64
2019-10-13 01:44:07 GMT 48.948700 -105.669464 38,000 222 496 0
2019-10-13 01:43:57 GMT 48.966995 -105.645111 37,975 222 496 0
2019-10-13 01:43:46 GMT 48.984871 -105.621262 38,000 222 496 0
2019-10-13 01:43:36 GMT 49.002960 -105.597137 38,000 222 495 0
2019-10-13 01:43:26 GMT 49.020996 -105.573051 37,975 222 495 0
2019-10-13 01:43:15 GMT 49.038986 -105.548897 37,975 222 495 0
2019-10-13 01:43:05 GMT 49.057354 -105.524330 38,000 222 495 -64
2019-10-13 01:42:54 GMT 49.075230 -105.500481 38,000 222 495 -64
2019-10-13 01:42:44 GMT 49.093803 -105.475616 38,000 222 495 64
2019-10-13 01:42:32 GMT 49.111633 -105.451622 37,975 222 495 64
2019-10-13 01:42:23 GMT 49.129833 -105.427261 37,975 222 495 -64
2019-10-13 01:42:11 GMT 49.147842 -105.403046 38,000 222 495 -128
2019-10-13 01:42:02 GMT 49.165375 -105.379448 38,000 222 495 0
2019-10-13 01:41:50 GMT 49.184326 -105.354027 37,975 222 495 64
2019-10-13 01:41:41 GMT 49.201813 -105.330437 38,000 222 495 0
2019-10-13 01:41:29 GMT 49.219822 -105.306122 37,975 222 495 0
2019-10-13 01:41:20 GMT 49.237839 -105.281700 37,975 222 496 64
2019-10-13 01:41:07 GMT 49.257706 -105.254654 37,975 222 497 -64
2019-10-13 01:41:03 GMT 49.265488 -105.244179 38,000 222 497 -64
2019-10-13 01:41:00 GMT 49.270111 -105.237900 38,000 222 498 -64
2019-10-13 01:40:57 GMT 49.275124 -105.231094 38,000 222 498 -64
2019-10-13 01:40:47 GMT 49.292175 -105.207970 38,000 222 498 0
2019-10-13 01:40:37 GMT 49.310596 -105.182961 38,000 222 497 -64
2019-10-13 01:40:27 GMT 49.329025 -105.157967 37,975 222 497 0
2019-10-13 01:40:16 GMT 49.346722 -105.134026 38,000 222 496 0
2019-10-13 01:40:06 GMT 49.365250 -105.108803 38,000 222 495 64
2019-10-13 01:39:54 GMT 49.383591 -105.083878 38,000 222 496 0
2019-10-13 01:39:44 GMT 49.401279 -105.059868 38,000 222 497 0
2019-10-13 01:39:33 GMT 49.419296 -105.035286 37,975 222 497 0
2019-10-13 01:39:23 GMT 49.437149 -105.010864 38,000 222 498 -64
2019-10-13 01:39:12 GMT 49.455688 -104.985420 38,000 222 498 0
2019-10-13 01:39:02 GMT 49.473267 -104.961426 37,975 222 500 64
2019-10-13 01:38:51 GMT 49.491360 -104.936653 37,975 222 500 0
2019-10-13 01:38:41 GMT 49.509979 -104.911118 37,975 222 502 0
2019-10-13 01:38:30 GMT 49.527622 -104.886848 37,975 222 502 0
2019-10-13 01:38:17 GMT 49.551361 -104.854240 37,975 222 503 -64
2019-10-13 01:38:10 GMT 49.564678 -104.835846 38,000 223 503 -64
2019-10-13 01:37:59 GMT 49.582123 -104.811737 37,975 222 502 64
2019-10-13 01:37:48 GMT 49.603691 -104.781883 37,975 222 502 0
2019-10-13 01:37:38 GMT 49.618866 -104.760872 38,000 222 502 0
2019-10-13 01:37:28 GMT 49.637207 -104.735558 37,975 222 502 0
2019-10-13 01:37:16 GMT 49.656200 -104.709282 38,000 222 502 0
2019-10-13 01:37:05 GMT 49.674316 -104.684242 38,000 223 502 0
2019-10-13 01:36:55 GMT 49.693069 -104.658211 38,000 223 502 -64
2019-10-13 01:36:44 GMT 49.711487 -104.632561 37,975 223 502 0
2019-10-13 01:36:35 GMT 49.732178 -104.603935 38,000 223 502 0
2019-10-13 01:36:25 GMT 49.745590 -104.585220 38,000 223 501 0
2019-10-13 01:36:21 GMT 49.750397 -104.578499 38,000 223 501 0
2019-10-13 01:36:11 GMT 49.768764 -104.552803 37,975 223 501 0
2019-10-13 01:36:04 GMT 49.782173 -104.534096 38,000 223 501 0
2019-10-13 01:36:00 GMT 49.787666 -104.526375 37,975 223 501 64
2019-10-13 01:35:53 GMT 49.801254 -104.507378 37,975 223 501 0
2019-10-13 01:35:49 GMT 49.806240 -104.500397 37,975 223 501 0
2019-10-13 01:35:43 GMT 49.817734 -104.484314 38,000 223 502 0
2019-10-13 01:35:38 GMT 49.824814 -104.474411 37,975 223 503 0
2019-10-13 01:35:34 GMT 49.832077 -104.464317 37,975 222 504 0
2019-10-13 01:35:31 GMT 49.837292 -104.457115 37,975 222 504 64
2019-10-13 01:35:27 GMT 49.843155 -104.448952 37,975 222 504 0
2019-10-13 01:35:21 GMT 49.857559 -104.428955 37,975 223 504 -64
2019-10-13 01:35:16 GMT 49.863098 -104.421219 37,975 223 505 64
2019-10-13 01:35:09 GMT 49.874863 -104.404739 37,975 223 505 0
2019-10-13 01:35:05 GMT 49.881283 -104.395798 37,975 223 505 0
2019-10-13 01:35:00 GMT 49.892689 -104.379768 38,000 223 506 -64
2019-10-13 01:34:55 GMT 49.899624 -104.370041 38,000 223 506 64
2019-10-13 01:34:49 GMT 49.910702 -104.354530 37,975 223 505 0
2019-10-13 01:34:44 GMT 49.917801 -104.344528 37,975 223 505 -64
2019-10-13 01:34:39 GMT 49.928673 -104.329216 38,000 223 506 0
2019-10-13 01:34:34 GMT 49.936157 -104.318802 38,000 223 506 -64
2019-10-13 01:34:27 GMT 49.947601 -104.302757 38,000 223 506 -64
2019-10-13 01:34:18 GMT 49.965401 -104.277695 37,975 223 505 -64
2019-10-13 01:34:07 GMT 49.983536 -104.252083 38,000 223 505 0
2019-10-13 01:33:57 GMT 50.002808 -104.224762 37,975 223 505 64
2019-10-13 01:33:45 GMT 50.020340 -104.199829 37,975 223 504 0
2019-10-13 01:33:36 GMT 50.037743 -104.175255 38,000 223 504 -64
2019-10-13 01:33:24 GMT 50.056736 -104.148384 38,000 223 504 -64
2019-10-13 01:33:14 GMT 50.075405 -104.122185 38,000 223 504 0
2019-10-13 01:33:07 GMT 50.085365 -104.108078 38,000 223 502 64
2019-10-13 01:33:03 GMT 50.092255 -104.098427 38,000 223 501 64
2019-10-13 01:32:53 GMT 50.110413 -104.072746 37,975 223 500 128
2019-10-13 01:32:42 GMT 50.129128 -104.045944 37,975 223 499 -64
2019-10-13 01:32:31 GMT 50.147373 -104.019669 38,000 223 499 0
2019-10-13 01:32:22 GMT 50.163895 -103.996078 38,000 223 499 -64
2019-10-13 01:32:09 GMT 50.184525 -103.966743 38,000 223 500 0
2019-10-13 01:31:59 GMT 50.201752 -103.942154 37,975 223 501 64
2019-10-13 01:31:48 GMT 50.221348 -103.914040 37,975 223 502 64
2019-10-13 01:31:38 GMT 50.237549 -103.890694 37,975 223 503 -64
2019-10-13 01:31:28 GMT 50.255356 -103.865105 38,000 223 504 0
2019-10-13 01:31:17 GMT 50.275440 -103.836388 38,000 223 504 -64
2019-10-13 01:31:07 GMT 50.291473 -103.813576 38,000 223 504 64
2019-10-13 01:30:57 GMT 50.309795 -103.787247 37,975 223 503 64
2019-10-13 01:30:45 GMT 50.327728 -103.761391 37,975 223 502 0
2019-10-13 01:30:35 GMT 50.347778 -103.732330 38,000 223 502 -64
2019-10-13 01:30:24 GMT 50.365284 -103.706932 38,000 223 503 -64
2019-10-13 01:30:15 GMT 50.382568 -103.682175 38,000 223 502 0
2019-10-13 01:29:59 GMT 50.407600 -103.645988 38,000 223 502 0
2019-10-13 01:29:52 GMT 50.418320 -103.630417 38,000 223 501 64
2019-10-13 01:29:43 GMT 50.434662 -103.606781 38,000 223 501 0
2019-10-13 01:29:30 GMT 50.456039 -103.575562 38,000 224 502 0
2019-10-13 01:29:23 GMT 50.469269 -103.556259 37,975 223 503 64
2019-10-13 01:29:20 GMT 50.475037 -103.547806 37,975 223 503 64
2019-10-13 01:29:12 GMT 50.489044 -103.527565 37,975 223 503 -64
2019-10-13 01:29:07 GMT 50.497971 -103.514702 37,975 223 504 -64
2019-10-13 01:28:56 GMT 50.514725 -103.490417 38,000 223 505 -64
2019-10-13 01:28:48 GMT 50.528217 -103.470726 37,975 223 505 -64
2019-10-13 01:28:36 GMT 50.547398 -103.442810 37,975 223 504 0
2019-10-13 01:28:26 GMT 50.565308 -103.416695 38,000 223 504 0
2019-10-13 01:28:15 GMT 50.584030 -103.389229 37,975 223 504 0
2019-10-13 01:28:05 GMT 50.600559 -103.365021 37,975 224 503 0
2019-10-13 01:28:01 GMT 50.607834 -103.354317 37,975 224 503 0
2019-10-13 01:27:56 GMT 50.617180 -103.340591 37,975 224 503 0
2019-10-13 01:27:43 GMT 50.639191 -103.308418 37,975 223 504 0
2019-10-13 01:27:32 GMT 50.657074 -103.282173 37,975 224 504 0
2019-10-13 01:27:21 GMT 50.675583 -103.254852 38,000 224 504 -64
2019-10-13 01:27:10 GMT 50.694454 -103.227005 37,975 223 505 0
2019-10-13 01:26:59 GMT 50.712387 -103.200813 37,975 224 504 0
2019-10-13 01:26:49 GMT 50.730534 -103.173904 37,975 224 504 -64
2019-10-13 01:26:37 GMT 50.749741 -103.145584 38,000 223 504 0
2019-10-13 01:26:27 GMT 50.767456 -103.119453 38,000 224 505 0
2019-10-13 01:26:16 GMT 50.785904 -103.092361 38,000 224 505 0
2019-10-13 01:26:06 GMT 50.804260 -103.065117 37,975 224 505 0
2019-10-13 01:25:55 GMT 50.822147 -103.038559 38,000 224 506 -64
2019-10-13 01:25:44 GMT 50.841431 -103.009964 38,000 224 507 0
2019-10-13 01:25:33 GMT 50.859066 -102.983780 37,975 224 508 64
2019-10-13 01:25:22 GMT 50.878738 -102.954590 38,000 224 509 64
2019-10-13 01:25:12 GMT 50.896355 -102.928314 37,975 224 510 -64
2019-10-13 01:25:01 GMT 50.914833 -102.900620 38,000 224 510 64
2019-10-13 01:24:50 GMT 50.933533 -102.872787 38,000 224 510 64
2019-10-13 01:24:39 GMT 50.951385 -102.846207 37,975 224 510 0
2019-10-13 01:24:29 GMT 50.969997 -102.818222 38,000 224 509 -64
2019-10-13 01:24:17 GMT 50.989086 -102.789459 38,000 224 510 0
2019-10-13 01:24:06 GMT 51.008171 -102.760696 38,000 224 509 0
2019-10-13 01:23:56 GMT 51.025211 -102.735062 38,000 224 509 0
2019-10-13 01:23:45 GMT 51.043598 -102.707291 38,000 224 509 0
2019-10-13 01:23:34 GMT 51.062405 -102.679062 38,000 224 509 0
2019-10-13 01:23:22 GMT 51.083313 -102.647415 37,975 224 509 0
2019-10-13 01:23:12 GMT 51.099834 -102.622375 37,975 224 509 -64
2019-10-13 01:23:02 GMT 51.117615 -102.595520 38,000 224 510 -64
2019-10-13 01:22:51 GMT 51.135773 -102.568207 37,975 224 511 -64
We lost coverage of the aircraft here for a total of 317 minutes
2019-10-12 20:05:28 GMT 64.298538 -24.911610 20,950 293 450 1216
2019-10-12 20:05:18 GMT 64.291122 -24.869970 20,750 293 448 1280
2019-10-12 20:05:08 GMT 64.282822 -24.823837 20,525 293 447 1280
2019-10-12 20:04:58 GMT 64.275146 -24.781311 20,300 293 446 1344
2019-10-12 20:04:43 GMT 64.263382 -24.715963 19,925 293 443 1472
2019-10-12 20:03:57 GMT 64.227219 -24.516941 18,775 293 434 1536
2019-10-12 20:03:45 GMT 64.217743 -24.464968 18,475 293 434 1472
2019-10-12 20:03:36 GMT 64.211060 -24.428522 18,250 293 432 1536
2019-10-12 20:03:26 GMT 64.203400 -24.386791 17,975 293 432 1664
2019-10-12 20:03:16 GMT 64.195625 -24.344713 17,675 294 430 1728
2019-10-12 20:03:06 GMT 64.187668 -24.301977 17,375 294 429 1664
2019-10-12 20:02:33 GMT 64.162064 -24.163330 16,625 293 420 1344
2019-10-12 20:02:25 GMT 64.156311 -24.131786 16,425 293 419 1472
2019-10-12 20:02:11 GMT 64.145912 -24.076208 16,050 294 416 1856
2019-10-12 20:02:04 GMT 64.140884 -24.049622 15,850 294 415 1664
2019-10-12 20:01:55 GMT 64.133469 -24.009775 15,550 294 414 1664
2019-10-12 20:01:44 GMT 64.125549 -23.967203 15,250 294 411 1728
2019-10-12 20:01:32 GMT 64.116959 -23.921412 14,900 294 409 1856
2019-10-12 20:01:22 GMT 64.109413 -23.880981 14,575 294 407 1792
2019-10-12 20:01:13 GMT 64.102661 -23.845085 14,300 294 405 1664
2019-10-12 20:00:59 GMT 64.091858 -23.787830 13,850 294 404 1984
2019-10-12 20:00:53 GMT 64.087677 -23.765514 13,650 294 403 1920
2019-10-12 20:00:42 GMT 64.079773 -23.723919 13,300 294 400 1984
2019-10-12 20:00:32 GMT 64.071892 -23.682568 12,950 294 399 1920
2019-10-12 20:00:22 GMT 64.065079 -23.646805 12,650 294 397 1920
2019-10-12 20:00:12 GMT 64.057755 -23.608667 12,325 294 394 1728
2019-10-12 20:00:02 GMT 64.050339 -23.569519 12,100 294 390 1216
2019-10-12 19:59:52 GMT 64.043106 -23.531870 11,900 294 383 1088
2019-10-12 19:59:41 GMT 64.035866 -23.494152 11,750 294 374 768
2019-10-12 19:59:31 GMT 64.028648 -23.457020 11,625 294 366 832
2019-10-12 19:59:21 GMT 64.022003 -23.422535 11,475 294 356 768
2019-10-12 19:59:11 GMT 64.015274 -23.387884 11,350 295 348 768
2019-10-12 19:58:59 GMT 64.007233 -23.346827 11,175 294 335 960
2019-10-12 19:58:50 GMT 64.002205 -23.320568 11,050 294 328 896
2019-10-12 19:58:39 GMT 63.995682 -23.286472 10,875 295 315 1088
2019-10-12 19:58:12 GMT 63.980186 -23.206532 10,425 294 291 960
2019-10-12 19:57:59 GMT 63.972931 -23.169214 10,025 294 285 2304
2019-10-12 19:57:49 GMT 63.967667 -23.142384 9,625 294 283 2304
2019-10-12 19:57:35 GMT 63.960159 -23.103825 9,075 295 282 2368
2019-10-12 19:57:24 GMT 63.954536 -23.074915 8,625 294 280 2304
2019-10-12 19:57:12 GMT 63.948158 -23.042175 8,125 295 279 2368
2019-10-12 19:57:06 GMT 63.945145 -23.026920 7,900 295 277 2368
2019-10-12 19:56:50 GMT 63.936630 -22.984667 7,250 295 276 2432
2019-10-12 19:56:47 GMT 63.935123 -22.977026 7,125 295 275 2560
2019-10-12 19:56:32 GMT 63.927292 -22.938080 6,500 295 273 2496
2019-10-12 19:56:27 GMT 63.924316 -22.922974 6,250 294 271 2624
2019-10-12 19:56:16 GMT 63.918968 -22.896276 5,775 298 272 2560
2019-10-12 19:56:07 GMT 63.912827 -22.873007 5,400 305 273 1536
2019-10-12 19:55:57 GMT 63.904953 -22.850506 5,275 313 275 192
2019-10-12 19:55:47 GMT 63.895523 -22.830330 5,275 320 276 -64
2019-10-12 19:55:36 GMT 63.885124 -22.810144 5,275 318 275 128
2019-10-12 19:55:25 GMT 63.876205 -22.787334 5,250 298 269 -64
2019-10-12 19:55:15 GMT 63.871300 -22.762463 5,250 291 268 0
2019-10-12 19:55:05 GMT 63.866180 -22.734728 5,225 295 267 704
2019-10-12 19:54:55 GMT 63.861057 -22.710058 5,075 294 269 1088
2019-10-12 19:54:44 GMT 63.857010 -22.681166 4,775 278 258 1472
2019-10-12 19:54:34 GMT 63.857208 -22.655289 4,575 258 241 896
2019-10-12 19:54:22 GMT 63.862316 -22.628321 4,400 237 225 896
2019-10-12 19:54:14 GMT 63.868240 -22.615145 4,275 215 209 704
2019-10-12 19:54:03 GMT 63.877213 -22.606167 4,150 191 195 704
2019-10-12 19:53:54 GMT 63.885731 -22.604700 4,000 178 185 832
2019-10-12 19:53:43 GMT 63.894249 -22.605249 3,800 179 177 1536
2019-10-12 19:53:33 GMT 63.902489 -22.605469 3,475 179 173 2304
2019-10-12 19:53:23 GMT 63.910858 -22.605955 3,075 178 173 1984
2019-10-12 19:53:13 GMT 63.918823 -22.606588 2,750 177 171 1920
2019-10-12 19:53:02 GMT 63.927017 -22.607117 2,400 179 170 2048
2019-10-12 19:52:52 GMT 63.934750 -22.607227 2,075 180 169 2112
2019-10-12 19:52:42 GMT 63.942764 -22.607012 1,675 182 168 2240
2019-10-12 19:52:31 GMT 63.951508 -22.606348 1,275 182 167 2112
2019-10-12 19:52:21 GMT 63.958725 -22.605907 900 182 168 2176
2019-10-12 19:51:55 GMT 63.978424 -22.605427 450 180 144 -64
2019-10-12 19:51:50 GMT 63.981770 -22.605469 450 180 122 0
2019-10-12 19:51:40 GMT 63.986458 -22.605440 0 196 88
2019-10-12 19:51:28 GMT 63.990112 -22.605413 0 194 40
2019-10-12 19:51:20 GMT 63.991043 -22.605413 0 199 9
2019-10-12 19:51:10 GMT 63.991196 -22.605400 0 202 0
2019-10-12 19:51:00 GMT 63.991196 -22.605387 0 202 3
2019-10-12 19:50:49 GMT 63.991425 -22.605373 0 222 6
2019-10-12 19:50:29 GMT 63.991711 -22.604263 0 286 11
2019-10-12 19:50:19 GMT 63.991711 -22.602997 0 286 12
2019-10-12 19:50:08 GMT 63.991711 -22.601755 0 286 11
2019-10-12 19:49:34 GMT 63.990852 -22.598507 0 331 17
2019-10-12 19:49:27 GMT 63.990509 -22.597715 0 331 17
2019-10-12 19:49:17 GMT 63.989971 -22.596487 0 331 14
2019-10-12 19:49:07 GMT 63.989594 -22.595629 0 331 10
2019-10-12 19:48:57 GMT 63.989300 -22.594921 0 331 10
2019-10-12 19:48:47 GMT 63.988953 -22.594175 0 348 11
2019-10-12 19:48:36 GMT 63.988342 -22.593632 0 357 18
2019-10-12 19:48:24 GMT 63.987389 -22.593054 0 11 18
2019-10-12 19:48:16 GMT 63.986725 -22.592972 0 16 16
2019-10-12 19:48:06 GMT 63.986034 -22.592987 0 16 14
2019-10-12 19:47:55 GMT 63.985397 -22.592972 0 14 12
2019-10-12 19:47:44 GMT 63.984863 -22.592916 0 0 12
2019-10-12 19:47:35 GMT 63.984375 -22.592539 0 351 12
2019-10-12 19:47:25 GMT 63.983807 -22.591955 0 354 15
2019-10-12 19:47:14 GMT 63.983212 -22.591406 0 354 11
2019-10-12 19:47:04 GMT 63.982849 -22.591078 0 354 8
2019-10-12 19:46:43 GMT 63.982212 -22.590479 0 354 8
2019-10-12 19:46:33 GMT 63.981895 -22.590170 0 351 8
2019-10-12 19:46:23 GMT 63.981594 -22.589870 0 340 8
2019-10-12 19:46:13 GMT 63.981316 -22.589430 0 309 8
2019-10-12 19:46:02 GMT 63.981194 -22.588577 0 286 9
2019-10-12 19:45:52 GMT 63.981197 -22.587698 0 286 10
2019-10-12 19:45:42 GMT 63.981194 -22.586729 0 289 7
2019-10-12 19:45:32 GMT 63.981186 -22.586187 0 298 5
We lost coverage of the aircraft here for a total of 84 minutes
2019-10-12 18:21:28 GMT 63.980442 -22.586903 525 106 6 -768
2019-10-12 18:21:21 GMT 63.980442 -22.587370 525 106 8 -768
2019-10-12 18:21:11 GMT 63.980431 -22.588083 525 120 7 -768
2019-10-12 18:21:01 GMT 63.980476 -22.588715 525 163 6 -768
2019-10-12 18:20:50 GMT 63.980724 -22.589052 525 174 8 -768
2019-10-12 18:20:40 GMT 63.981068 -22.589371 525 174 7 -768
2019-10-12 18:20:27 GMT 63.981411 -22.589661 525 174 6 -768
2019-10-12 18:20:19 GMT 63.981628 -22.589897 525 174 9 -768
2019-10-12 18:20:09 GMT 63.981979 -22.590225 525 174 8 -768
2019-10-12 18:19:59 GMT 63.982281 -22.590500 525 174 7 -768
2019-10-12 18:19:39 GMT 63.982841 -22.591007 525 174 7 -768
2019-10-12 18:19:34 GMT 63.982979 -22.591139 525 174 7 -768
2019-10-12 18:19:27 GMT 63.983196 -22.591351 525 174 9 -768
2019-10-12 18:19:17 GMT 63.983620 -22.591763 525 174 11 -768
2019-10-12 18:19:07 GMT 63.984085 -22.592203 525 174 11 -768
2019-10-12 18:18:57 GMT 63.984512 -22.592566 525 168 10 -768
2019-10-12 18:18:44 GMT 63.984936 -22.593172 525 129 9 -768
2019-10-12 18:18:22 GMT 63.985050 -22.595919 525 106 21 -768
2019-10-12 18:18:13 GMT 63.985062 -22.598190 525 106 25 -768
2019-10-12 18:18:06 GMT 63.985062 -22.599985 525 106 27 -768
2019-10-12 18:16:37 GMT 63.985073 -22.667650 525 90 139 -768
2019-10-12 18:16:33 GMT 63.985073 -22.674133 600 90 141 -768
2019-10-12 18:16:23 GMT 63.985107 -22.689726 725 89 144 -768
2019-10-12 18:16:11 GMT 63.985073 -22.707861 875 90 147 -832
2019-10-12 18:16:03 GMT 63.985107 -22.720467 1,000 90 149 -896
2019-10-12 18:15:52 GMT 63.985062 -22.736839 1,125 89 151 -832
2019-10-12 18:15:24 GMT 63.984982 -22.783117 1,550 90 156 -896
2019-10-12 18:15:21 GMT 63.984982 -22.787073 1,575 90 156 -832
2019-10-12 18:15:09 GMT 63.984982 -22.807068 1,750 90 157 -896
2019-10-12 18:15:01 GMT 63.984982 -22.820911 1,875 90 158 -1024
2019-10-12 18:14:51 GMT 63.984924 -22.837830 2,050 90 159 -576
2019-10-12 18:14:40 GMT 63.984936 -22.855738 2,100 89 156 -192
2019-10-12 18:14:30 GMT 63.984886 -22.871777 2,125 89 155 -256
2019-10-12 18:14:19 GMT 63.984886 -22.889685 2,175 89 156 -192
2019-10-12 18:14:09 GMT 63.984833 -22.905861 2,200 89 163 -320
2019-10-12 18:13:59 GMT 63.984795 -22.923523 2,250 89 169 -192
2019-10-12 18:13:49 GMT 63.984741 -22.941250 2,275 89 171 -192
2019-10-12 18:13:22 GMT 63.986069 -22.988892 2,375 100 168 -256
2019-10-12 18:13:18 GMT 63.986893 -22.995865 2,375 108 169 -256
2019-10-12 18:13:01 GMT 63.992203 -23.023752 2,450 114 179 -384
2019-10-12 18:12:56 GMT 63.994080 -23.032837 2,500 114 179 -384
2019-10-12 18:12:47 GMT 63.997375 -23.048895 2,550 114 185 -576
2019-10-12 18:12:27 GMT 64.004654 -23.083965 2,725 115 194 -576
2019-10-12 18:12:17 GMT 64.008545 -23.102770 2,825 115 193 -640
2019-10-12 18:12:07 GMT 64.012489 -23.121826 2,975 115 195 -1088
2019-10-12 18:11:56 GMT 64.016586 -23.141493 3,150 114 194 -1152
2019-10-12 18:11:46 GMT 64.020355 -23.159815 3,325 115 194 -960
2019-10-12 18:11:35 GMT 64.024658 -23.180624 3,525 114 196 -1024
2019-10-12 18:11:26 GMT 64.028366 -23.198839 3,675 114 197 -960
2019-10-12 18:11:15 GMT 64.032257 -23.217810 3,825 115 198 -768
2019-10-12 18:11:05 GMT 64.036232 -23.237074 3,975 115 200 -832
2019-10-12 18:10:55 GMT 64.040359 -23.257317 4,100 114 204 -640
2019-10-12 18:10:45 GMT 64.044434 -23.277388 4,200 115 208 -576
2019-10-12 18:10:34 GMT 64.048660 -23.297716 4,300 115 214 -704
2019-10-12 18:10:24 GMT 64.053131 -23.319580 4,425 114 219 -768
2019-10-12 18:10:09 GMT 64.059792 -23.351990 4,600 115 227 -960
2019-10-12 18:10:04 GMT 64.062057 -23.363062 4,700 115 228 -1216
2019-10-12 18:09:53 GMT 64.066772 -23.386194 4,975 114 229 -1792
2019-10-12 18:09:43 GMT 64.071098 -23.407471 5,250 114 230 -1856
2019-10-12 18:09:33 GMT 64.075790 -23.430670 5,600 114 231 -1920
2019-10-12 18:09:23 GMT 64.080276 -23.452957 5,900 114 232 -1792
2019-10-12 18:09:13 GMT 64.084808 -23.475882 6,225 114 234 -1920
2019-10-12 18:09:02 GMT 64.089584 -23.499537 6,575 115 236 -1856
2019-10-12 18:08:41 GMT 64.099312 -23.546778 7,225 114 240 -1792
2019-10-12 18:08:31 GMT 64.104012 -23.569849 7,500 114 244 -1536
2019-10-12 18:08:21 GMT 64.108887 -23.594196 7,725 114 249 -1152
2019-10-12 18:08:11 GMT 64.113792 -23.618738 7,900 114 256 -960
2019-10-12 18:08:00 GMT 64.119141 -23.645325 8,075 114 261 -768
2019-10-12 18:07:47 GMT 64.125687 -23.677967 8,225 114 269 -576
2019-10-12 18:07:40 GMT 64.129616 -23.697510 8,275 114 275 -640
2019-10-12 18:07:30 GMT 64.134933 -23.723814 8,425 114 278 -1216
2019-10-12 18:07:20 GMT 64.140602 -23.752003 8,675 114 279 -1408
2019-10-12 18:07:07 GMT 64.147354 -23.785839 8,975 114 280 -1344
2019-10-12 18:06:59 GMT 64.151543 -23.806824 9,150 114 281 -1344
2019-10-12 18:06:49 GMT 64.156998 -23.834206 9,375 114 281 -1472
2019-10-12 18:06:32 GMT 64.165977 -23.879333 9,700 114 280 -896
2019-10-12 18:06:14 GMT 64.175674 -23.928118 10,000 114 281 -832
2019-10-12 18:06:07 GMT 64.179428 -23.947132 10,075 114 282 -896
2019-10-12 18:05:57 GMT 64.184692 -23.973858 10,250 114 282 -1280
2019-10-12 18:05:43 GMT 64.192520 -24.013050 10,550 114 285 -960
2019-10-12 18:05:37 GMT 64.195816 -24.029634 10,625 114 288 -640
2019-10-12 18:05:27 GMT 64.201355 -24.057312 10,725 114 294 -384
2019-10-12 18:05:14 GMT 64.208618 -24.094336 10,750 114 305 -192
2019-10-12 18:04:10 GMT 64.249634 -24.303625 11,825 113 356 -2176
2019-10-12 18:04:05 GMT 64.253036 -24.321301 12,000 113 357 -1920
2019-10-12 18:03:54 GMT 64.260201 -24.358337 12,350 114 358 -1920
2019-10-12 18:03:43 GMT 64.267822 -24.396021 12,725 115 358 -1984
2019-10-12 18:03:34 GMT 64.274323 -24.426891 13,000 116 359 -1408
2019-10-12 18:01:51 GMT 64.353302 -24.782181 16,175 116 371 -1792
2019-10-12 18:01:35 GMT 64.366150 -24.840889 16,625 116 372 -1408
2019-10-12 18:01:29 GMT 64.370995 -24.862862 16,775 116 372 -1472
2019-10-12 18:01:15 GMT 64.381714 -24.911718 17,075 116 370 -1472
2019-10-12 18:01:06 GMT 64.388535 -24.942591 17,325 116 370 -1472
2019-10-12 18:01:01 GMT 64.392311 -24.959793 17,450 116 371 -1472
We lost coverage of the aircraft here for a total of 41 minutes
2019-10-12 17:20:19 GMT 63.935165 -25.784491 38,000 304 492 0
2019-10-12 17:20:12 GMT 63.926605 -25.754700 38,000 304 492 -64
2019-10-12 17:20:01 GMT 63.912964 -25.707129 38,000 304 492 -64
2019-10-12 17:19:51 GMT 63.901047 -25.665710 38,000 304 492 -64
2019-10-12 17:19:40 GMT 63.887695 -25.619589 38,000 304 493 0
2019-10-12 17:19:30 GMT 63.874840 -25.575184 38,000 304 493 -64
2019-10-12 17:19:20 GMT 63.861740 -25.530008 38,000 304 493 -64
2019-10-12 17:19:09 GMT 63.849094 -25.486633 38,000 304 493 -64
2019-10-12 17:18:57 GMT 63.833633 -25.433666 38,000 304 494 -64
2019-10-12 17:18:29 GMT 63.798958 -25.315027 38,000 304 492 -64
2019-10-12 17:18:23 GMT 63.791183 -25.288549 38,000 304 492 0
2019-10-12 17:18:17 GMT 63.783783 -25.263378 38,000 304 491 -64
2019-10-12 17:18:07 GMT 63.770653 -25.218678 38,000 304 491 -64
2019-10-12 17:17:56 GMT 63.757462 -25.173903 38,000 304 491 0
2019-10-12 17:17:46 GMT 63.744141 -25.128902 38,000 304 490 0
2019-10-12 17:17:35 GMT 63.730865 -25.083900 37,975 304 490 0
2019-10-12 17:17:25 GMT 63.717545 -25.038898 37,975 304 490 0
2019-10-12 17:17:19 GMT 63.710602 -25.015539 38,000 304 492 -64
2019-10-12 17:17:09 GMT 63.698219 -24.974010 38,000 304 492 -64
2019-10-12 17:17:01 GMT 63.687698 -24.938753 37,975 304 492 0
2019-10-12 17:16:56 GMT 63.681885 -24.919210 38,000 305 493 -64
2019-10-12 17:16:53 GMT 63.677536 -24.904737 38,000 304 494 -64
2019-10-12 17:16:47 GMT 63.670567 -24.881395 37,975 304 494 0
2019-10-12 17:16:43 GMT 63.664352 -24.860582 37,975 304 494 0
2019-10-12 17:16:33 GMT 63.651760 -24.818445 38,000 304 494 -64
2019-10-12 17:16:22 GMT 63.638493 -24.774281 38,000 305 494 -64
2019-10-12 17:16:18 GMT 63.632908 -24.755604 38,000 305 494 -64
2019-10-12 17:16:12 GMT 63.625225 -24.730116 37,975 305 494 -64
2019-10-12 17:16:06 GMT 63.618210 -24.706774 38,000 305 494 -64
2019-10-12 17:16:02 GMT 63.612076 -24.686384 38,000 305 494 -64
2019-10-12 17:15:51 GMT 63.598644 -24.641895 38,000 305 494 -64
2019-10-12 17:15:47 GMT 63.594032 -24.626734 38,000 305 494 -64
2019-10-12 17:15:37 GMT 63.581234 -24.584326 37,975 305 494 0
2019-10-12 17:15:31 GMT 63.572388 -24.555183 37,975 305 494 0
2019-10-12 17:15:20 GMT 63.558422 -24.509180 37,975 305 494 -64
2019-10-12 17:15:13 GMT 63.549950 -24.481384 37,975 305 494 0
2019-10-12 17:15:10 GMT 63.545700 -24.467398 37,975 305 494 -64
2019-10-12 17:15:06 GMT 63.541351 -24.453136 38,000 305 494 -64
2019-10-12 17:14:59 GMT 63.532104 -24.422819 37,975 305 494 -64
2019-10-12 17:14:55 GMT 63.526703 -24.405071 38,000 305 494 -64
2019-10-12 17:14:49 GMT 63.518852 -24.379431 38,000 305 493 -64
2019-10-12 17:14:46 GMT 63.515221 -24.367676 38,000 305 493 -64
2019-10-12 17:14:39 GMT 63.505600 -24.336090 38,000 305 493 0
2019-10-12 17:14:36 GMT 63.501862 -24.323950 38,000 305 492 0
2019-10-12 17:14:28 GMT 63.492085 -24.292200 37,975 305 491 0
2019-10-12 17:14:25 GMT 63.488388 -24.279997 37,975 305 491 0
2019-10-12 17:14:15 GMT 63.475700 -24.238695 37,975 305 490 0
2019-10-12 17:14:05 GMT 63.462250 -24.195065 37,975 305 490 0
2019-10-12 17:13:54 GMT 63.448929 -24.151752 38,000 305 490 -64
2019-10-12 17:13:44 GMT 63.435562 -24.108545 38,000 305 491 -64
2019-10-12 17:13:34 GMT 63.423096 -24.068298 38,000 305 490 -64
2019-10-12 17:13:24 GMT 63.409176 -24.023474 38,000 305 490 -64
2019-10-12 17:13:13 GMT 63.395645 -23.979879 37,975 305 490 -64
2019-10-12 17:13:03 GMT 63.382362 -23.937342 37,975 305 490 0
2019-10-12 17:12:52 GMT 63.369186 -23.895044 38,000 305 490 -64
2019-10-12 17:12:42 GMT 63.355133 -23.850052 38,000 305 491 -64
2019-10-12 17:12:31 GMT 63.341766 -23.807484 37,975 305 490 0
2019-10-12 17:12:21 GMT 63.328171 -23.764273 37,975 306 489 0
2019-10-12 17:12:11 GMT 63.315262 -23.723181 37,975 305 489 0
2019-10-12 17:12:00 GMT 63.301575 -23.679657 37,975 306 489 0
2019-10-12 17:11:50 GMT 63.287998 -23.636536 37,975 306 489 -64
2019-10-12 17:11:40 GMT 63.274933 -23.595146 37,975 306 488 -64
2019-10-12 17:11:29 GMT 63.261326 -23.552160 38,000 306 489 -64
2019-10-12 17:11:19 GMT 63.248199 -23.510847 38,000 306 489 0
2019-10-12 17:11:09 GMT 63.234604 -23.467896 37,975 306 489 0
2019-10-12 17:10:58 GMT 63.220963 -23.424965 37,975 306 489 0
2019-10-12 17:10:48 GMT 63.208069 -23.384508 37,975 306 489 0
2019-10-12 17:10:37 GMT 63.194092 -23.340759 37,975 306 490 -64
2019-10-12 17:10:30 GMT 63.183884 -23.308920 38,000 306 491 -64
2019-10-12 17:10:27 GMT 63.180496 -23.298340 38,000 306 491 -64
2019-10-12 17:10:17 GMT 63.167084 -23.256632 37,975 306 491 0
2019-10-12 17:10:09 GMT 63.156601 -23.223980 37,975 306 491 -64
2019-10-12 17:10:06 GMT 63.153442 -23.214212 37,975 306 491 0
2019-10-12 17:09:58 GMT 63.142757 -23.181152 37,975 306 491 -64
2019-10-12 17:09:55 GMT 63.139080 -23.169743 38,000 306 492 -64
2019-10-12 17:09:48 GMT 63.129456 -23.139954 38,000 306 491 -64
2019-10-12 17:09:45 GMT 63.125347 -23.127382 38,000 306 492 -64
2019-10-12 17:09:38 GMT 63.115723 -23.097534 37,975 306 492 0
2019-10-12 17:09:35 GMT 63.111740 -23.085327 37,975 306 491 -64
2019-10-12 17:09:28 GMT 63.102394 -23.056499 38,000 306 491 -64
2019-10-12 17:09:24 GMT 63.097778 -23.042196 38,000 306 491 0
2019-10-12 17:09:18 GMT 63.089355 -23.016256 38,000 306 490 -64
2019-10-12 17:09:14 GMT 63.084366 -23.000793 38,000 306 490 -64
2019-10-12 17:09:07 GMT 63.075535 -22.973680 38,000 306 490 -64
2019-10-12 17:09:03 GMT 63.069763 -22.955828 38,000 306 490 -64
2019-10-12 17:08:57 GMT 63.061432 -22.930401 38,000 306 490 0
2019-10-12 17:08:53 GMT 63.056396 -22.915039 38,000 306 489 0
2019-10-12 17:08:47 GMT 63.048248 -22.890015 38,000 306 489 0
2019-10-12 17:08:42 GMT 63.042297 -22.871845 37,975 306 489 0
2019-10-12 17:08:36 GMT 63.034664 -22.848499 37,975 306 488 0
2019-10-12 17:08:32 GMT 63.028378 -22.829166 38,000 306 488 -64
2019-10-12 17:08:26 GMT 63.021534 -22.808250 37,975 306 489 0
2019-10-12 17:08:21 GMT 63.014412 -22.786489 38,000 306 489 0
2019-10-12 17:08:15 GMT 63.007011 -22.763884 38,000 306 489 -64
2019-10-12 17:08:11 GMT 63.001328 -22.746582 38,000 306 489 0
2019-10-12 17:08:05 GMT 62.993511 -22.722897 38,000 306 489 -64
2019-10-12 17:08:00 GMT 62.987045 -22.703144 38,000 306 489 0
2019-10-12 17:07:55 GMT 62.979630 -22.680664 37,975 306 489 0
2019-10-12 17:07:50 GMT 62.973541 -22.662149 37,975 306 490 0
2019-10-12 17:07:43 GMT 62.964928 -22.635956 37,975 306 491 -64
2019-10-12 17:07:39 GMT 62.958782 -22.617470 38,000 306 491 -64
2019-10-12 17:07:34 GMT 62.952965 -22.599722 38,000 306 491 -64
2019-10-12 17:07:29 GMT 62.945892 -22.578430 38,000 306 491 -64
2019-10-12 17:07:24 GMT 62.938980 -22.557474 38,000 307 492 -64
2019-10-12 17:07:18 GMT 62.931473 -22.534891 38,000 307 492 0
2019-10-12 17:07:14 GMT 62.925064 -22.515564 38,000 307 492 0
2019-10-12 17:07:08 GMT 62.918003 -22.494295 37,975 307 492 0
2019-10-12 17:07:04 GMT 62.912090 -22.476547 37,975 307 492 0
2019-10-12 17:06:58 GMT 62.903961 -22.451986 38,000 307 492 -64
2019-10-12 17:06:53 GMT 62.897938 -22.433870 38,000 307 493 0
2019-10-12 17:06:47 GMT 62.890045 -22.410177 37,975 307 493 0
2019-10-12 17:06:43 GMT 62.883865 -22.391663 37,975 307 493 -64
2019-10-12 17:06:37 GMT 62.875534 -22.366739 37,975 307 493 -64
2019-10-12 17:06:30 GMT 62.866928 -22.341003 37,975 307 493 -64
2019-10-12 17:06:26 GMT 62.861526 -22.324930 38,000 307 493 -64
2019-10-12 17:06:23 GMT 62.856720 -22.310486 37,975 307 493 -64
2019-10-12 17:06:16 GMT 62.847382 -22.282808 38,000 307 494 -64
2019-10-12 17:06:12 GMT 62.843102 -22.269920 38,000 307 494 -64
2019-10-12 17:06:05 GMT 62.833370 -22.241081 38,000 307 493 -64
2019-10-12 17:05:59 GMT 62.824905 -22.215780 38,000 307 493 -64
2019-10-12 17:05:55 GMT 62.819504 -22.199808 38,000 307 492 -64
2019-10-12 17:05:52 GMT 62.815353 -22.187418 37,975 307 492 0
2019-10-12 17:05:43 GMT 62.803204 -22.151396 37,975 307 492 0
2019-10-12 17:05:37 GMT 62.795666 -22.129107 38,000 307 492 0
2019-10-12 17:05:34 GMT 62.791763 -22.117514 38,000 307 492 0
2019-10-12 17:05:30 GMT 62.785980 -22.100372 38,000 307 492 0
2019-10-12 17:05:24 GMT 62.772125 -22.059326 38,000 307 491 -64
2019-10-12 17:05:13 GMT 62.762844 -22.031919 37,975 307 491 -64
2019-10-12 17:05:07 GMT 62.755070 -22.008890 37,975 307 491 0
2019-10-12 17:05:00 GMT 62.745758 -21.981506 38,000 307 491 0
2019-10-12 17:04:50 GMT 62.717827 -21.899555 37,975 307 491 0
2019-10-12 17:04:39 GMT 62.717827 -21.899555 38,000 307 491 0
2019-10-12 17:04:29 GMT 62.704048 -21.859201 37,975 307 491 0
2019-10-12 17:04:19 GMT 62.689991 -21.818108 37,975 307 491 0
2019-10-12 17:04:08 GMT 62.674988 -21.774292 37,975 307 490 -64
2019-10-12 17:03:58 GMT 62.661163 -21.734112 37,975 307 490 0
2019-10-12 17:03:47 GMT 62.646931 -21.692717 37,975 307 490 0
2019-10-12 17:03:36 GMT 62.631985 -21.649405 37,975 307 491 -64
2019-10-12 17:03:25 GMT 62.617043 -21.606092 38,000 307 491 -64
2019-10-12 17:03:17 GMT 62.606476 -21.575459 38,000 307 491 -64
2019-10-12 17:03:14 GMT 62.602657 -21.564472 37,975 307 491 -64
2019-10-12 17:03:04 GMT 62.588104 -21.522421 38,000 307 491 0
2019-10-12 17:02:57 GMT 62.578903 -21.495667 38,000 307 491 0
2019-10-12 17:02:54 GMT 62.574280 -21.482340 38,000 307 490 0
2019-10-12 17:02:47 GMT 62.565414 -21.456932 38,000 307 490 0
2019-10-12 17:02:43 GMT 62.560135 -21.441650 38,000 307 490 -64
2019-10-12 17:02:36 GMT 62.550613 -21.414185 37,975 307 490 -64
2019-10-12 17:02:33 GMT 62.545990 -21.400860 38,000 307 490 -64
2019-10-12 17:02:25 GMT 62.535095 -21.369629 38,000 308 489 0
2019-10-12 17:02:22 GMT 62.531994 -21.360697 38,000 308 489 0
2019-10-12 17:02:16 GMT 62.523567 -21.336506 37,975 308 489 0
2019-10-12 17:02:12 GMT 62.517700 -21.319784 37,975 308 489 0
2019-10-12 17:02:05 GMT 62.507629 -21.290995 38,000 308 489 -64
2019-10-12 17:02:01 GMT 62.502731 -21.276957 38,000 308 489 -64
2019-10-12 17:01:55 GMT 62.494656 -21.254108 38,000 308 488 -64
2019-10-12 17:01:50 GMT 62.488266 -21.235861 38,000 308 489 -64
2019-10-12 17:01:40 GMT 62.474396 -21.196289 37,975 308 488 0
2019-10-12 17:01:30 GMT 62.460346 -21.156393 38,000 308 488 0
2019-10-12 17:01:24 GMT 62.452286 -21.133627 37,975 308 488 0
2019-10-12 17:01:19 GMT 62.444916 -21.112774 38,000 308 488 -64
2019-10-12 17:01:08 GMT 62.430836 -21.073046 38,000 308 488 -64
2019-10-12 17:00:57 GMT 62.415070 -21.028748 37,975 308 488 0
2019-10-12 17:00:46 GMT 62.400436 -20.987478 38,000 308 488 0
2019-10-12 17:00:36 GMT 62.385956 -20.946701 38,000 308 488 0
2019-10-12 17:00:25 GMT 62.371479 -20.905926 38,000 308 488 0
2019-10-12 17:00:14 GMT 62.357002 -20.865150 37,975 308 487 -64
2019-10-12 17:00:03 GMT 62.340801 -20.819832 38,000 308 488 -64
2019-10-12 16:59:54 GMT 62.328419 -20.785288 38,000 308 489 -64
2019-10-12 16:59:44 GMT 62.314545 -20.746662 37,975 308 488 0
2019-10-12 16:59:33 GMT 62.300491 -20.707602 38,000 308 488 0
2019-10-12 16:59:23 GMT 62.285934 -20.667114 37,975 308 488 0
2019-10-12 16:59:12 GMT 62.271767 -20.627676 38,000 308 489 -64
2019-10-12 16:59:02 GMT 62.257099 -20.587217 38,000 308 489 -64
2019-10-12 16:58:51 GMT 62.242859 -20.547791 38,000 308 490 -64
2019-10-12 16:58:41 GMT 62.228760 -20.508829 38,000 308 489 -64
2019-10-12 16:58:30 GMT 62.213791 -20.467428 38,000 308 489 0
2019-10-12 16:58:21 GMT 62.200241 -20.430094 37,975 308 488 0
2019-10-12 16:58:10 GMT 62.185738 -20.390097 37,975 308 489 -64
2019-10-12 16:58:00 GMT 62.171448 -20.350952 37,975 309 488 0
2019-10-12 16:57:50 GMT 62.157154 -20.311819 37,975 309 488 0
2019-10-12 16:57:39 GMT 62.142288 -20.271200 38,000 309 488 -64
2019-10-12 16:57:29 GMT 62.128292 -20.232849 38,000 309 489 -64
2019-10-12 16:57:18 GMT 62.113766 -20.193380 38,000 309 489 -64
2019-10-12 16:57:07 GMT 62.098297 -20.151379 37,975 309 489 0
2019-10-12 16:56:57 GMT 62.084484 -20.113831 37,975 309 490 0
2019-10-12 16:56:47 GMT 62.070007 -20.074965 37,975 309 490 -64
2019-10-12 16:56:36 GMT 62.055065 -20.034485 38,000 308 489 -64
2019-10-12 16:56:26 GMT 62.040260 -19.993286 38,000 308 489 -64
2019-10-12 16:56:16 GMT 62.026806 -19.954632 37,975 307 490 -64
2019-10-12 16:56:05 GMT 62.013073 -19.914145 38,000 306 489 -64
2019-10-12 16:55:55 GMT 62.000088 -19.874777 38,000 305 489 0
2019-10-12 16:55:45 GMT 61.986866 -19.833679 38,000 305 489 -64
2019-10-12 16:55:33 GMT 61.971596 -19.786175 37,975 305 489 -64
2019-10-12 16:55:24 GMT 61.960655 -19.752096 38,000 305 489 -64
2019-10-12 16:55:13 GMT 61.946457 -19.708197 37,975 305 490 0
2019-10-12 16:55:03 GMT 61.934074 -19.669903 38,000 305 489 0
2019-10-12 16:54:53 GMT 61.920685 -19.628448 37,975 305 489 0
2019-10-12 16:54:42 GMT 61.907261 -19.587198 38,000 305 488 -64
2019-10-12 16:54:32 GMT 61.894180 -19.547016 38,000 305 488 -64
2019-10-12 16:54:21 GMT 61.880493 -19.505049 38,000 305 488 0
2019-10-12 16:54:11 GMT 61.867218 -19.464243 37,975 305 488 0
2019-10-12 16:54:01 GMT 61.853897 -19.423435 38,000 305 489 -64
2019-10-12 16:53:50 GMT 61.840366 -19.382324 38,000 305 488 -64
2019-10-12 16:53:40 GMT 61.827118 -19.342018 38,000 305 488 -64
2019-10-12 16:53:30 GMT 61.814026 -19.302095 38,000 305 488 -64
2019-10-12 16:53:19 GMT 61.800003 -19.259542 38,000 305 488 -64
2019-10-12 16:53:08 GMT 61.786644 -19.218952 38,000 305 487 0
2019-10-12 16:52:58 GMT 61.773518 -19.179281 37,975 305 487 0
2019-10-12 16:52:48 GMT 61.759781 -19.137594 38,000 305 487 -64
2019-10-12 16:52:37 GMT 61.746796 -19.098410 37,975 306 487 0
2019-10-12 16:52:27 GMT 61.733109 -19.057211 38,000 306 487 0
2019-10-12 16:52:16 GMT 61.719086 -19.014881 38,000 305 488 -64
2019-10-12 16:52:06 GMT 61.706249 -18.976542 38,000 306 488 -64
2019-10-12 16:51:55 GMT 61.692516 -18.935446 38,000 306 488 -64
2019-10-12 16:51:44 GMT 61.677944 -18.892111 38,000 306 488 0
2019-10-12 16:51:35 GMT 61.665894 -18.856070 38,000 306 488 0
2019-10-12 16:51:24 GMT 61.651337 -18.812714 37,975 306 488 0
2019-10-12 16:51:14 GMT 61.638382 -18.774065 38,000 306 488 0
2019-10-12 16:51:03 GMT 61.624687 -18.733521 37,975 306 489 -64
2019-10-12 16:50:53 GMT 61.611141 -18.693338 37,975 306 489 0
2019-10-12 16:50:42 GMT 61.597137 -18.651939 37,975 306 490 -64
2019-10-12 16:50:31 GMT 61.582836 -18.609720 37,975 306 491 -64
2019-10-12 16:50:21 GMT 61.569855 -18.571505 38,000 306 490 -64
2019-10-12 16:50:11 GMT 61.556442 -18.532169 37,975 306 490 0
2019-10-12 16:50:01 GMT 61.543076 -18.492834 37,975 306 490 0
2019-10-12 16:49:50 GMT 61.528976 -18.451538 38,000 306 490 -64
2019-10-12 16:49:40 GMT 61.515747 -18.412695 38,000 306 490 0
2019-10-12 16:49:30 GMT 61.501930 -18.372293 37,975 306 490 -64
2019-10-12 16:49:19 GMT 61.487823 -18.331278 37,975 306 490 -64
2019-10-12 16:49:04 GMT 61.468739 -18.275553 38,000 306 490 -64
2019-10-12 16:48:59 GMT 61.461105 -18.253378 38,000 306 489 0
2019-10-12 16:48:48 GMT 61.446857 -18.212076 37,975 306 489 0
2019-10-12 16:48:37 GMT 61.432102 -18.169250 38,000 306 489 0
We lost coverage of the aircraft here for a total of 21 minutes
2019-10-12 16:27:57 GMT 59.710041 -13.656953 37,975 310 492 -64
2019-10-12 16:27:48 GMT 59.696075 -13.623710 38,000 310 492 -64
2019-10-12 16:27:37 GMT 59.681396 -13.588898 38,000 310 492 0
2019-10-12 16:27:27 GMT 59.666748 -13.554003 38,000 310 492 -64
2019-10-12 16:27:17 GMT 59.651295 -13.517540 38,000 310 491 -64
2019-10-12 16:27:07 GMT 59.636723 -13.483161 38,000 310 492 0
2019-10-12 16:26:57 GMT 59.621826 -13.448023 37,975 310 492 0
2019-10-12 16:26:46 GMT 59.606647 -13.412318 37,975 310 493 -64
2019-10-12 16:26:36 GMT 59.591751 -13.377180 38,000 310 494 0
2019-10-12 16:26:26 GMT 59.577255 -13.343079 37,975 310 494 64
2019-10-12 16:26:15 GMT 59.561588 -13.306243 38,000 310 494 -64
2019-10-12 16:26:05 GMT 59.546318 -13.270443 38,000 311 495 -64
2019-10-12 16:25:54 GMT 59.530117 -13.232559 38,000 311 496 -64
2019-10-12 16:25:45 GMT 59.517178 -13.202252 37,975 311 496 -64
2019-10-12 16:25:35 GMT 59.501862 -13.166451 38,000 311 496 -64
2019-10-12 16:25:25 GMT 59.486824 -13.131409 38,000 311 496 -64
2019-10-12 16:25:15 GMT 59.472019 -13.097029 38,000 311 496 0
2019-10-12 16:25:05 GMT 59.457214 -13.062649 37,975 311 496 64
2019-10-12 16:24:54 GMT 59.441986 -13.027313 37,975 311 497 0
2019-10-12 16:23:52 GMT 59.349171 -12.813658 38,000 311 497 64
2019-10-12 16:23:42 GMT 59.334877 -12.780793 37,975 311 497 0
2019-10-12 16:23:32 GMT 59.319656 -12.746035 38,000 311 497 -64
2019-10-12 16:23:22 GMT 59.304337 -12.710907 38,000 311 497 -64
2019-10-12 16:23:11 GMT 59.288651 -12.675097 38,000 311 498 -64
2019-10-12 16:23:01 GMT 59.273575 -12.640594 37,975 311 497 -64
2019-10-12 16:22:48 GMT 59.253410 -12.594689 38,000 311 497 -64
2019-10-12 16:22:41 GMT 59.243263 -12.571674 38,000 311 497 -64
2019-10-12 16:22:31 GMT 59.227715 -12.536347 37,975 311 497 0
2019-10-12 16:22:21 GMT 59.212921 -12.502808 38,000 311 497 -64
2019-10-12 16:22:10 GMT 59.197403 -12.467560 37,975 311 497 -64
2019-10-12 16:22:00 GMT 59.181675 -12.432072 37,975 311 497 0
2019-10-12 16:21:50 GMT 59.166962 -12.398924 38,000 311 497 -64
2019-10-12 16:21:39 GMT 59.149879 -12.360472 38,000 311 497 -64
2019-10-12 16:21:30 GMT 59.136200 -12.329773 38,000 311 496 -64
2019-10-12 16:21:19 GMT 59.119850 -12.293038 37,975 311 496 64
2019-10-12 16:21:09 GMT 59.105621 -12.261108 37,975 312 496 0
2019-10-12 16:20:59 GMT 59.090477 -12.227215 37,975 311 495 0
2019-10-12 16:20:48 GMT 59.074402 -12.191437 38,000 312 495 64
2019-10-12 16:20:38 GMT 59.059334 -12.158835 37,975 313 495 -64
2019-10-12 16:20:28 GMT 59.043320 -12.125427 38,000 314 495 -64
2019-10-12 16:20:18 GMT 59.027260 -12.093201 38,000 315 495 0
2019-10-12 16:20:07 GMT 59.010082 -12.060052 37,975 316 495 -64
2019-10-12 16:19:57 GMT 58.992905 -12.028135 38,000 317 495 -64
2019-10-12 16:19:46 GMT 58.974609 -11.995331 38,000 318 497 -64
2019-10-12 16:19:37 GMT 58.958691 -11.967994 38,000 319 496 64
2019-10-12 16:19:27 GMT 58.940952 -11.938445 37,975 320 497 0
2019-10-12 16:19:16 GMT 58.922611 -11.908990 38,000 322 497 -64
2019-10-12 16:19:06 GMT 58.904388 -11.881256 38,000 323 499 -64
2019-10-12 16:18:56 GMT 58.885647 -11.853301 37,975 322 497 64
2019-10-12 16:18:46 GMT 58.867821 -11.824130 38,000 318 496 -64
2019-10-12 16:18:35 GMT 58.851105 -11.793365 38,000 315 494 -64
2019-10-12 16:18:25 GMT 58.834908 -11.759491 38,000 312 493 0
2019-10-12 16:18:15 GMT 58.820023 -11.726931 37,975 312 493 64
2019-10-12 16:18:04 GMT 58.804047 -11.692111 37,975 312 492 64
2019-10-12 16:17:54 GMT 58.788261 -11.657684 37,975 312 492 -64
2019-10-12 16:17:44 GMT 58.773697 -11.625839 38,000 312 493 -64
2019-10-12 16:17:34 GMT 58.758186 -11.592041 38,000 312 493 -64
2019-10-12 16:17:23 GMT 58.742020 -11.556908 38,000 312 493 -64
2019-10-12 16:17:13 GMT 58.725880 -11.521912 38,000 312 493 0
2019-10-12 16:17:03 GMT 58.710938 -11.489573 38,000 312 492 0
2019-10-12 16:16:53 GMT 58.695763 -11.456726 37,975 312 491 0
2019-10-12 16:16:43 GMT 58.681137 -11.425161 37,975 312 491 0
2019-10-12 16:16:32 GMT 58.665035 -11.390442 38,000 312 491 -64
2019-10-12 16:16:22 GMT 58.650234 -11.358582 38,000 312 492 -64
2019-10-12 16:16:12 GMT 58.634827 -11.325439 37,975 312 492 0
2019-10-12 16:16:02 GMT 58.619522 -11.292616 37,975 312 492 0
2019-10-12 16:15:52 GMT 58.603634 -11.258514 38,000 312 492 -64
2019-10-12 16:15:41 GMT 58.588074 -11.225104 37,975 312 492 0
2019-10-12 16:15:31 GMT 58.572445 -11.191864 38,000 313 491 -64
2019-10-12 16:15:21 GMT 58.557175 -11.159274 38,000 312 490 -64
2019-10-12 16:15:11 GMT 58.541748 -11.126492 37,975 312 490 -64
2019-10-12 16:15:00 GMT 58.526173 -11.093353 38,000 312 490 -64
2019-10-12 16:14:50 GMT 58.511044 -11.061218 37,975 312 490 0
2019-10-12 16:14:40 GMT 58.495468 -11.028058 37,975 313 491 0
2019-10-12 16:14:30 GMT 58.480179 -10.995575 37,975 313 491 -64
2019-10-12 16:14:19 GMT 58.463928 -10.961166 37,975 313 491 -64
2019-10-12 16:14:09 GMT 58.448895 -10.929382 38,000 313 492 -64
2019-10-12 16:13:59 GMT 58.432461 -10.894684 38,000 313 492 -64
2019-10-12 16:13:49 GMT 58.418015 -10.864150 38,000 313 492 -64
2019-10-12 16:13:39 GMT 58.402344 -10.831146 37,975 313 491 0
2019-10-12 16:13:29 GMT 58.386795 -10.798553 38,000 313 490 0
2019-10-12 16:13:18 GMT 58.371140 -10.765716 38,000 313 490 0
2019-10-12 16:13:08 GMT 58.355789 -10.733551 38,000 313 489 0
2019-10-12 16:12:58 GMT 58.340008 -10.700500 38,000 313 489 0
2019-10-12 16:12:48 GMT 58.324833 -10.668732 37,975 313 489 0
2019-10-12 16:12:38 GMT 58.309525 -10.636715 37,975 313 489 -64
2019-10-12 16:12:27 GMT 58.292618 -10.601532 37,975 313 489 -64
2019-10-12 16:12:17 GMT 58.277847 -10.570797 38,000 313 489 -64
2019-10-12 16:12:07 GMT 58.262604 -10.539078 37,975 313 489 0
2019-10-12 16:11:56 GMT 58.246021 -10.504578 37,975 313 490 0
2019-10-12 16:11:46 GMT 58.231201 -10.473869 37,975 313 490 -64
2019-10-12 16:11:36 GMT 58.214951 -10.440378 38,000 313 491 -64
2019-10-12 16:11:25 GMT 58.199020 -10.407508 37,975 313 491 -64
2019-10-12 16:11:15 GMT 58.183548 -10.375488 37,975 313 491 -64
2019-10-12 16:11:05 GMT 58.167480 -10.342299 38,000 313 491 -64
2019-10-12 16:10:55 GMT 58.152466 -10.311289 38,000 313 491 0
2019-10-12 16:10:45 GMT 58.136856 -10.279128 37,975 313 491 0
2019-10-12 16:10:34 GMT 58.121120 -10.246674 38,000 313 490 -64
2019-10-12 16:10:24 GMT 58.105480 -10.214630 38,000 313 490 -64
2019-10-12 16:10:14 GMT 58.090118 -10.183228 38,000 313 490 -64
2019-10-12 16:10:04 GMT 58.074150 -10.150726 38,000 313 489 -64
2019-10-12 16:09:53 GMT 58.058029 -10.117877 38,000 313 490 -64
2019-10-12 16:09:44 GMT 58.043243 -10.088019 37,975 314 489 0
2019-10-12 16:09:33 GMT 58.027596 -10.055603 37,975 312 488 64
2019-10-12 16:09:23 GMT 58.012608 -10.022736 37,975 310 487 -64
2019-10-12 16:09:13 GMT 57.997898 -9.988495 38,000 308 487 -64
2019-10-12 16:09:03 GMT 57.984512 -9.955119 38,000 307 487 -64
2019-10-12 16:08:52 GMT 57.970615 -9.918274 37,975 305 486 0
2019-10-12 16:08:42 GMT 57.958191 -9.883708 37,975 305 486 0
2019-10-12 16:08:32 GMT 57.945648 -9.848800 38,000 305 485 0
2019-10-12 16:08:22 GMT 57.932556 -9.812474 38,000 305 485 -64
2019-10-12 16:08:11 GMT 57.919464 -9.776237 38,000 305 485 -64
2019-10-12 16:08:01 GMT 57.906830 -9.741418 38,000 305 486 -64
2019-10-12 16:07:51 GMT 57.893692 -9.705269 37,975 305 486 0
2019-10-12 16:07:41 GMT 57.881058 -9.670450 37,975 305 486 -64
2019-10-12 16:07:30 GMT 57.867142 -9.632175 37,975 305 486 0
2019-10-12 16:07:20 GMT 57.854378 -9.597107 37,975 305 487 -64
2019-10-12 16:07:09 GMT 57.840820 -9.559966 37,975 305 487 -64
2019-10-12 16:07:00 GMT 57.828491 -9.526245 38,000 305 487 -64
2019-10-12 16:06:49 GMT 57.815460 -9.490416 38,000 305 487 -64
2019-10-12 16:06:39 GMT 57.802780 -9.455773 38,000 305 486 -64
2019-10-12 16:06:29 GMT 57.789825 -9.420422 38,000 305 486 -64
2019-10-12 16:06:19 GMT 57.776871 -9.385159 38,000 305 486 -64
2019-10-12 16:06:09 GMT 57.763962 -9.349897 38,000 305 485 -64
2019-10-12 16:05:58 GMT 57.750893 -9.314301 37,975 305 485 -64
2019-10-12 16:05:48 GMT 57.737904 -9.279144 38,000 305 485 -64
2019-10-12 16:05:38 GMT 57.724915 -9.244109 38,000 305 484 -64
2019-10-12 16:05:27 GMT 57.711647 -9.208404 37,975 305 484 0
2019-10-12 16:05:18 GMT 57.699406 -9.175445 38,000 305 484 -64
2019-10-12 16:05:07 GMT 57.686005 -9.139509 38,000 305 484 -64
2019-10-12 16:04:56 GMT 57.671951 -9.101915 37,975 305 484 0
2019-10-12 16:04:46 GMT 57.658951 -9.066982 38,000 305 484 -64
2019-10-12 16:04:36 GMT 57.645676 -9.031363 38,000 305 484 -64
2019-10-12 16:04:26 GMT 57.632507 -8.996208 38,000 305 484 -64
2019-10-12 16:04:15 GMT 57.619755 -8.962009 38,000 305 484 -64
2019-10-12 16:04:05 GMT 57.606487 -8.926480 38,000 305 484 -64
2019-10-12 16:03:55 GMT 57.593452 -8.891661 37,975 305 484 0
2019-10-12 16:03:45 GMT 57.580307 -8.856611 38,000 305 483 -64
2019-10-12 16:03:34 GMT 57.567101 -8.821578 38,000 306 483 -64
2019-10-12 16:03:24 GMT 57.554302 -8.787556 38,000 306 483 -64
2019-10-12 16:03:14 GMT 57.541351 -8.753271 38,000 306 483 0
2019-10-12 16:03:04 GMT 57.528259 -8.718767 37,975 306 483 0
2019-10-12 16:02:54 GMT 57.515057 -8.683895 37,975 306 482 0
2019-10-12 16:02:43 GMT 57.501465 -8.648101 37,975 306 482 -64
2019-10-12 16:02:33 GMT 57.488663 -8.614344 38,000 306 482 -64
2019-10-12 16:02:23 GMT 57.475708 -8.580322 37,975 306 481 -64
2019-10-12 16:02:13 GMT 57.462433 -8.545303 38,000 306 481 -64
2019-10-12 16:02:07 GMT 57.454586 -8.524770 38,000 306 481 -64
2019-10-12 16:02:02 GMT 57.449230 -8.510683 38,000 306 480 0
2019-10-12 16:01:57 GMT 57.442200 -8.492260 38,000 306 479 0
2019-10-12 16:01:52 GMT 57.436569 -8.477497 38,000 306 480 0
2019-10-12 16:01:47 GMT 57.429657 -8.459387 37,975 306 479 0
2019-10-12 16:01:42 GMT 57.423752 -8.444023 37,975 306 479 0
2019-10-12 16:01:37 GMT 57.416458 -8.424919 37,975 306 479 0
2019-10-12 16:01:31 GMT 57.409698 -8.407288 38,000 306 479 0
2019-10-12 16:01:27 GMT 57.403519 -8.391237 38,000 306 479 0
2019-10-12 16:01:22 GMT 57.397156 -8.374500 37,975 306 479 -64
2019-10-12 16:01:16 GMT 57.390388 -8.356786 37,975 306 479 -64
2019-10-12 16:01:11 GMT 57.384109 -8.340425 37,975 306 479 -64
2019-10-12 16:01:06 GMT 57.376923 -8.321629 38,000 306 479 -64
2019-10-12 16:01:02 GMT 57.371567 -8.307638 38,000 306 479 -64
2019-10-12 16:00:56 GMT 57.363876 -8.287640 38,000 306 480 -64
2019-10-12 16:00:50 GMT 57.357059 -8.269958 38,000 306 480 -64
2019-10-12 16:00:46 GMT 57.351288 -8.254938 38,000 306 479 -64
2019-10-12 16:00:41 GMT 57.344723 -8.237974 38,000 306 479 -64
2019-10-12 16:00:36 GMT 57.337921 -8.220348 37,975 306 478 0
2019-10-12 16:00:30 GMT 57.331512 -8.203697 38,000 306 478 0
2019-10-12 16:00:25 GMT 57.323959 -8.184106 38,000 306 478 -64
2019-10-12 16:00:20 GMT 57.318516 -8.170196 38,000 306 478 0
2019-10-12 16:00:15 GMT 57.311066 -8.150969 38,000 306 478 -64
2019-10-12 16:00:09 GMT 57.304230 -8.133402 38,000 306 478 0
2019-10-12 16:00:05 GMT 57.298325 -8.118124 37,975 306 478 0
2019-10-12 16:00:00 GMT 57.291641 -8.100958 37,975 306 478 0
2019-10-12 15:59:55 GMT 57.285233 -8.084393 37,975 306 478 0
2019-10-12 15:59:50 GMT 57.278942 -8.068129 37,975 306 477 0
2019-10-12 15:59:47 GMT 57.275482 -8.059244 38,000 306 478 0
2019-10-12 15:59:44 GMT 57.271362 -8.048687 37,975 306 478 -64
2019-10-12 15:59:39 GMT 57.265583 -8.033752 37,975 306 478 -64
2019-10-12 15:59:34 GMT 57.259048 -8.016930 37,975 306 478 -64
2019-10-12 15:59:29 GMT 57.252735 -8.000705 38,000 306 477 -64
2019-10-12 15:59:24 GMT 57.245682 -7.982512 38,000 306 478 -64
2019-10-12 15:59:19 GMT 57.239502 -7.966719 38,000 306 477 -64
2019-10-12 15:59:14 GMT 57.232391 -7.948520 38,000 306 478 -64
2019-10-12 15:59:07 GMT 57.224663 -7.928762 38,000 306 478 -64
2019-10-12 15:59:03 GMT 57.219406 -7.915220 38,000 306 477 0
2019-10-12 15:58:58 GMT 57.213074 -7.899081 37,975 306 477 0
2019-10-12 15:58:53 GMT 57.205765 -7.880373 37,975 306 477 0
2019-10-12 15:58:48 GMT 57.199432 -7.864262 37,975 306 477 0
2019-10-12 15:58:43 GMT 57.193008 -7.847871 37,975 306 476 0
2019-10-12 15:58:38 GMT 57.186951 -7.832394 38,000 306 476 -64
2019-10-12 15:58:33 GMT 57.179089 -7.812431 38,000 306 476 -64
2019-10-12 15:58:27 GMT 57.173035 -7.797031 38,000 306 476 -64
2019-10-12 15:58:22 GMT 57.166241 -7.779649 38,000 306 476 -64
2019-10-12 15:58:18 GMT 57.160675 -7.765532 38,000 306 476 -64
2019-10-12 15:58:12 GMT 57.152710 -7.745275 38,000 306 475 0
2019-10-12 15:58:08 GMT 57.147713 -7.732514 38,000 306 475 64
2019-10-12 15:58:02 GMT 57.140121 -7.713261 37,975 306 475 0
2019-10-12 15:57:58 GMT 57.134819 -7.699910 37,975 306 475 0
2019-10-12 15:57:51 GMT 57.126301 -7.678292 37,975 307 476 -64
2019-10-12 15:57:47 GMT 57.121307 -7.665625 37,975 306 475 -64
2019-10-12 15:57:41 GMT 57.113571 -7.646055 37,975 307 476 -64
2019-10-12 15:57:36 GMT 57.106468 -7.628144 38,000 307 476 -64
2019-10-12 15:57:31 GMT 57.100277 -7.612462 38,000 307 476 -128
2019-10-12 15:57:25 GMT 57.092880 -7.593870 37,975 307 476 -64
2019-10-12 15:57:20 GMT 57.086311 -7.577200 38,000 307 476 -64
2019-10-12 15:57:16 GMT 57.080864 -7.563555 37,975 307 476 0
2019-10-12 15:57:10 GMT 57.073792 -7.545633 38,000 307 475 -64
2019-10-12 15:57:06 GMT 57.067692 -7.530331 38,000 307 475 -64
2019-10-12 15:57:00 GMT 57.060940 -7.513408 38,000 307 475 -64
2019-10-12 15:56:53 GMT 57.051117 -7.488689 38,000 307 475 -64
2019-10-12 15:56:50 GMT 57.047485 -7.479563 37,975 307 475 -64
2019-10-12 15:56:45 GMT 57.040783 -7.462729 37,975 307 475 -64
2019-10-12 15:56:39 GMT 57.033920 -7.445469 37,975 307 475 -64
2019-10-12 15:56:33 GMT 57.025280 -7.423657 37,975 307 476 -64
2019-10-12 15:56:29 GMT 57.020626 -7.411962 37,975 307 475 -64
2019-10-12 15:56:23 GMT 57.012955 -7.392855 37,975 307 476 -64
2019-10-12 15:56:19 GMT 57.007359 -7.378914 37,975 307 475 0
2019-10-12 15:56:12 GMT 56.998672 -7.357149 37,975 307 476 -64
2019-10-12 15:56:09 GMT 56.994278 -7.346077 37,975 307 476 0
2019-10-12 15:56:03 GMT 56.986725 -7.327280 37,975 307 477 -128
2019-10-12 15:55:59 GMT 56.981003 -7.313032 37,975 307 476 -192
2019-10-12 15:55:56 GMT 56.976791 -7.302732 37,975 307 476 -256
2019-10-12 15:55:52 GMT 56.971573 -7.289772 37,950 307 477 448
2019-10-12 15:55:48 GMT 56.966999 -7.278442 38,025 307 476 -192
2019-10-12 15:55:42 GMT 56.957829 -7.255850 38,025 307 477 128
2019-10-12 15:55:38 GMT 56.954041 -7.246428 38,000 307 477 128
2019-10-12 15:55:33 GMT 56.946213 -7.226944 37,975 307 477 448
2019-10-12 15:55:30 GMT 56.943768 -7.220853 37,950 307 476 704
2019-10-12 15:55:26 GMT 56.938553 -7.207829 37,900 307 476 768
2019-10-12 15:55:23 GMT 56.933990 -7.196474 37,875 307 477 896
2019-10-12 15:55:20 GMT 56.928360 -7.182578 37,800 307 477 896
2019-10-12 15:55:16 GMT 56.925751 -7.176110 37,775 307 477 896
2019-10-12 15:55:13 GMT 56.921173 -7.164717 37,625 307 473 -128
2019-10-12 15:55:10 GMT 56.917141 -7.154669 37,650 307 478 832
2019-10-12 15:55:07 GMT 56.913849 -7.146521 37,600 307 479 768
2019-10-12 15:55:02 GMT 56.904968 -7.124462 37,550 307 479 768
2019-10-12 15:54:58 GMT 56.901306 -7.115364 37,225 307 479 640
2019-10-12 15:54:51 GMT 56.892654 -7.093906 37,450 307 479 640
2019-10-12 15:54:47 GMT 56.880177 -7.063057 37,350 307 479 512
2019-10-12 15:54:42 GMT 56.880177 -7.063057 37,325 307 479 512
2019-10-12 15:54:39 GMT 56.875031 -7.050390 37,300 307 479 448
2019-10-12 15:54:35 GMT 56.870960 -7.040287 37,300 307 478 384
2019-10-12 15:54:31 GMT 56.865700 -7.027352 37,250 307 478 320
2019-10-12 15:54:28 GMT 56.861115 -7.015972 37,225 307 477 128
2019-10-12 15:54:25 GMT 56.856575 -7.004670 37,225 307 477 128
2019-10-12 15:54:20 GMT 56.851456 -6.992111 37,200 307 476 192
2019-10-12 15:54:15 GMT 56.845543 -6.977559 37,200 307 476 192
2019-10-12 15:54:10 GMT 56.838512 -6.960193 37,175 307 474 384
2019-10-12 15:54:07 GMT 56.833530 -6.948055 37,150 307 474 512
2019-10-12 15:54:04 GMT 56.829903 -6.939018 37,150 307 474 512
2019-10-12 15:54:00 GMT 56.825432 -6.928209 36,975 308 479 -64
2019-10-12 15:53:56 GMT 56.816074 -6.905173 37,050 307 473 512
2019-10-12 15:53:49 GMT 56.811653 -6.894275 37,000 307 474 448
2019-10-12 15:53:46 GMT 56.806438 -6.881428 36,975 307 474 128
2019-10-12 15:53:43 GMT 56.803436 -6.874094 37,000 307 474 128
2019-10-12 15:53:40 GMT 56.792381 -6.846875 36,975 307 473 -64
2019-10-12 15:53:35 GMT 56.792381 -6.846875 36,975 307 473 0
2019-10-12 15:53:32 GMT 56.788605 -6.837616 36,975 307 473 -64
2019-10-12 15:53:29 GMT 56.785351 -6.829686 36,975 307 473 -64
2019-10-12 15:53:25 GMT 56.778946 -6.814013 37,000 307 473 -64
2019-10-12 15:53:22 GMT 56.775833 -6.806374 36,975 307 473 -64
2019-10-12 15:53:19 GMT 56.772171 -6.797447 36,975 307 473 -64
2019-10-12 15:53:14 GMT 56.765854 -6.782169 37,000 307 473 -64
2019-10-12 15:53:11 GMT 56.758255 -6.763716 37,000 307 473 -64
2019-10-12 15:53:04 GMT 56.751480 -6.747150 37,000 307 473 -64
2019-10-12 15:52:58 GMT 56.737728 -6.713621 37,000 307 473 0
2019-10-12 15:52:53 GMT 56.731956 -6.699622 37,000 307 473 0
2019-10-12 15:52:49 GMT 56.731956 -6.699622 37,000 307 473 0
2019-10-12 15:52:46 GMT 56.729233 -6.692991 37,000 307 473 -64
2019-10-12 15:52:43 GMT 56.723740 -6.679602 36,975 307 473 0
2019-10-12 15:52:38 GMT 56.711800 -6.650627 36,975 307 474 0
2019-10-12 15:52:34 GMT 56.711800 -6.650627 36,975 307 474 0
2019-10-12 15:52:28 GMT 56.705002 -6.634059 36,975 307 474 -64
2019-10-12 15:52:25 GMT 56.702225 -6.627417 36,975 307 475 -64
2019-10-12 15:52:22 GMT 56.696457 -6.613340 36,975 307 475 0
2019-10-12 15:52:17 GMT 56.690414 -6.598749 36,975 307 475 0
2019-10-12 15:52:14 GMT 56.682610 -6.579925 36,975 307 475 -64
2019-10-12 15:52:11 GMT 56.682610 -6.579925 36,975 307 476 0
2019-10-12 15:52:08 GMT 56.678699 -6.570356 36,975 307 476 -64
2019-10-12 15:52:05 GMT 56.674850 -6.561069 36,975 307 477 -64
2019-10-12 15:52:02 GMT 56.671532 -6.553079 36,975 307 477 -64
2019-10-12 15:51:59 GMT 56.666782 -6.541561 36,975 307 477 -64
2019-10-12 15:51:56 GMT 56.663727 -6.534204 36,975 308 478 -128
2019-10-12 15:51:53 GMT 56.658142 -6.520729 37,000 308 478 -128
2019-10-12 15:51:48 GMT 56.652832 -6.507940 37,000 308 478 -128
2019-10-12 15:51:45 GMT 56.649231 -6.499299 37,000 307 479 -64
2019-10-12 15:51:42 GMT 56.644867 -6.488714 37,000 307 479 -64
2019-10-12 15:51:38 GMT 56.638386 -6.472985 37,000 307 479 -64
2019-10-12 15:51:35 GMT 56.635574 -6.466312 37,000 307 479 -64
2019-10-12 15:51:31 GMT 56.630539 -6.454124 36,975 307 479 -64
2019-10-12 15:51:28 GMT 56.625629 -6.442241 37,000 308 479 -64
2019-10-12 15:51:25 GMT 56.621475 -6.432323 37,000 308 479 -64
2019-10-12 15:51:21 GMT 56.612038 -6.409636 37,000 308 479 -64
2019-10-12 15:51:17 GMT 56.612038 -6.409636 37,000 308 479 -64
2019-10-12 15:51:14 GMT 56.607925 -6.399794 37,000 308 478 -64
2019-10-12 15:51:11 GMT 56.603519 -6.389259 36,975 308 478 -64
2019-10-12 15:51:08 GMT 56.598862 -6.378078 37,000 308 478 -64
2019-10-12 15:51:05 GMT 56.596069 -6.371362 37,000 308 478 -64
2019-10-12 15:51:02 GMT 56.590622 -6.358337 37,000 308 476 -64
2019-10-12 15:50:58 GMT 56.584618 -6.344004 36,975 308 476 0
2019-10-12 15:50:54 GMT 56.580612 -6.334476 37,000 308 476 0
2019-10-12 15:50:51 GMT 56.576797 -6.325295 36,975 308 476 0
2019-10-12 15:50:48 GMT 56.572422 -6.314821 37,000 308 476 64
2019-10-12 15:50:44 GMT 56.567505 -6.303073 36,975 308 476 64
2019-10-12 15:50:41 GMT 56.562553 -6.291304 36,975 308 476 0
2019-10-12 15:50:37 GMT 56.556732 -6.277313 36,975 308 476 -64
2019-10-12 15:50:34 GMT 56.549564 -6.260147 36,975 308 477 -64
2019-10-12 15:50:31 GMT 56.549564 -6.260147 36,975 308 477 -64
2019-10-12 15:50:28 GMT 56.545002 -6.249332 36,975 308 478 -64
2019-10-12 15:50:24 GMT 56.535969 -6.227703 37,000 308 478 0
2019-10-12 15:50:21 GMT 56.535969 -6.227703 36,975 308 478 -64
2019-10-12 15:50:15 GMT 56.527962 -6.208649 37,000 308 478 -64
2019-10-12 15:50:12 GMT 56.525265 -6.202297 37,000 308 478 -64
2019-10-12 15:50:09 GMT 56.521408 -6.193043 36,975 308 478 -64
2019-10-12 15:50:06 GMT 56.516876 -6.182223 36,975 308 479 -64
2019-10-12 15:50:03 GMT 56.510422 -6.166909 37,000 308 479 -64
2019-10-12 15:50:00 GMT 56.507767 -6.160583 36,975 308 478 -64
2019-10-12 15:49:55 GMT 56.501476 -6.145649 36,975 308 479 -64
2019-10-12 15:49:52 GMT 56.496403 -6.133547 37,000 308 479 -64
2019-10-12 15:49:48 GMT 56.492352 -6.124020 37,000 308 479 -64
2019-10-12 15:49:45 GMT 56.487671 -6.112893 37,000 308 479 -64
2019-10-12 15:49:42 GMT 56.484856 -6.106253 37,000 308 478 -64
2019-10-12 15:49:39 GMT 56.480293 -6.095438 37,000 308 478 -64
2019-10-12 15:49:36 GMT 56.476292 -6.085911 37,000 308 478 -64
2019-10-12 15:49:32 GMT 56.471329 -6.074191 36,975 308 478 -64
2019-10-12 15:49:28 GMT 56.465698 -6.060874 37,000 308 478 -64
2019-10-12 15:49:25 GMT 56.461716 -6.051386 37,000 308 478 -128
2019-10-12 15:49:22 GMT 56.456360 -6.038652 37,000 308 475 0
2019-10-12 15:49:19 GMT 56.452332 -6.029164 37,000 308 478 -64
2019-10-12 15:49:15 GMT 56.449127 -6.021590 37,000 308 477 -64
2019-10-12 15:49:12 GMT 56.443657 -6.008663 37,000 308 477 -64
2019-10-12 15:49:08 GMT 56.438965 -5.997620 37,000 308 477 0
2019-10-12 15:49:04 GMT 56.429459 -5.975189 37,000 308 475 0
2019-10-12 15:49:01 GMT 56.425735 -5.966434 37,000 308 475 0
2019-10-12 15:48:58 GMT 56.420708 -5.954418 37,000 308 475 0
2019-10-12 15:48:51 GMT 56.416424 -5.944462 36,975 308 474 0
2019-10-12 15:48:48 GMT 56.411774 -5.933449 36,975 308 473 0
2019-10-12 15:48:45 GMT 56.408844 -5.926541 36,975 308 474 0
2019-10-12 15:48:41 GMT 56.402481 -5.911560 36,975 308 474 0
2019-10-12 15:48:38 GMT 56.398361 -5.901804 36,975 308 473 -64
2019-10-12 15:48:33 GMT 56.392365 -5.887840 36,975 308 473 0
2019-10-12 15:48:30 GMT 56.388771 -5.879402 37,000 308 473 -64
2019-10-12 15:48:26 GMT 56.378670 -5.855713 37,000 308 472 0
2019-10-12 15:48:23 GMT 56.378670 -5.855713 36,975 308 473 -64
2019-10-12 15:48:20 GMT 56.374832 -5.846641 36,975 308 473 0
2019-10-12 15:48:16 GMT 56.368973 -5.832908 37,000 308 474 -128
2019-10-12 15:48:12 GMT 56.364761 -5.822920 36,975 308 473 0
2019-10-12 15:48:09 GMT 56.360779 -5.813515 36,975 308 473 0
2019-10-12 15:48:06 GMT 56.357491 -5.805674 36,975 308 473 0
2019-10-12 15:48:02 GMT 56.351212 -5.791043 37,000 308 473 -64
2019-10-12 15:47:58 GMT 56.345245 -5.777006 36,975 308 474 -64
2019-10-12 15:47:55 GMT 56.341141 -5.767323 37,000 308 474 -64
2019-10-12 15:47:52 GMT 56.337799 -5.759497 37,000 308 474 -128
2019-10-12 15:47:49 GMT 56.334457 -5.751676 37,000 308 474 -64
2019-10-12 15:47:46 GMT 56.330025 -5.741386 37,000 308 474 -64
2019-10-12 15:47:43 GMT 56.326859 -5.733919 36,975 308 474 -64
2019-10-12 15:47:40 GMT 56.321091 -5.720465 37,000 308 474 -64
2019-10-12 15:47:36 GMT 56.315594 -5.707655 37,000 308 474 -64
2019-10-12 15:47:33 GMT 56.312382 -5.700188 37,000 308 474 -64
2019-10-12 15:47:30 GMT 56.308777 -5.691750 37,000 308 473 0
2019-10-12 15:47:27 GMT 56.303581 -5.679588 37,000 308 474 -64
2019-10-12 15:47:24 GMT 56.300766 -5.673024 37,000 308 473 64
2019-10-12 15:47:21 GMT 56.296646 -5.663366 37,000 308 474 -64
2019-10-12 15:47:18 GMT 56.292480 -5.653714 37,000 308 473 -64
2019-10-12 15:47:15 GMT 56.288498 -5.644393 37,000 308 473 0
2019-10-12 15:47:09 GMT 56.279003 -5.622339 36,975 308 473 0
2019-10-12 15:47:05 GMT 56.274628 -5.612016 36,975 308 472 64
2019-10-12 15:47:02 GMT 56.271149 -5.604026 36,975 308 473 64
2019-10-12 15:46:59 GMT 56.267551 -5.595646 36,975 308 473 -128
2019-10-12 15:46:55 GMT 56.262085 -5.582886 36,975 308 473 -128
2019-10-12 15:46:52 GMT 56.253754 -5.563743 36,975 308 473 0
2019-10-12 15:46:49 GMT 56.253754 -5.563743 37,000 308 473 -64
2019-10-12 15:46:46 GMT 56.245579 -5.544834 36,975 308 473 -128
2019-10-12 15:46:43 GMT 56.245579 -5.544834 37,000 308 473 -64
2019-10-12 15:46:40 GMT 56.241714 -5.535861 36,975 308 473 -64
2019-10-12 15:46:37 GMT 56.238235 -5.527788 37,000 308 473 -128
2019-10-12 15:46:34 GMT 56.234207 -5.518549 37,000 308 473 -64
2019-10-12 15:46:31 GMT 56.230030 -5.508957 37,000 308 473 -64
2019-10-12 15:46:28 GMT 56.226025 -5.499687 37,000 308 473 -64
2019-10-12 15:46:25 GMT 56.221462 -5.489130 37,000 308 473 -64
2019-10-12 15:46:22 GMT 56.217972 -5.481062 37,000 308 473 -64
2019-10-12 15:46:19 GMT 56.213177 -5.469990 37,000 308 473 -64
2019-10-12 15:46:16 GMT 56.209686 -5.461922 36,975 308 473 -64
2019-10-12 15:46:13 GMT 56.205681 -5.452566 37,000 308 473 -64
2019-10-12 15:46:10 GMT 56.200050 -5.439606 37,000 308 473 -64
2019-10-12 15:46:06 GMT 56.194695 -5.427246 37,000 308 473 -64
2019-10-12 15:46:03 GMT 56.191864 -5.420754 37,000 308 473 -64
2019-10-12 15:46:00 GMT 56.183708 -5.401840 37,000 308 473 0
2019-10-12 15:45:54 GMT 56.179985 -5.393171 37,000 308 473 0
2019-10-12 15:45:51 GMT 56.176117 -5.384216 36,975 309 474 0
2019-10-12 15:45:47 GMT 56.171143 -5.372829 37,000 308 473 0
2019-10-12 15:45:44 GMT 56.167007 -5.363242 36,975 309 471 64
2019-10-12 15:45:41 GMT 56.162430 -5.352755 36,975 308 472 64
2019-10-12 15:45:37 GMT 56.156021 -5.337941 37,000 308 472 -64
2019-10-12 15:45:34 GMT 56.151993 -5.328702 36,975 308 472 -64
2019-10-12 15:45:31 GMT 56.144257 -5.310808 36,975 308 472 -64
2019-10-12 15:45:27 GMT 56.139019 -5.298843 36,975 308 472 -64
2019-10-12 15:45:24 GMT 56.139019 -5.298843 37,000 308 472 -64
2019-10-12 15:45:20 GMT 56.135422 -5.290500 37,000 308 472 -64
2019-10-12 15:45:17 GMT 56.130966 -5.280390 37,000 309 472 -64
2019-10-12 15:45:13 GMT 56.125610 -5.268030 37,000 309 472 -64
2019-10-12 15:45:10 GMT 56.120407 -5.256042 37,000 309 472 0
2019-10-12 15:45:06 GMT 56.115051 -5.243808 36,975 309 472 64
2019-10-12 15:45:03 GMT 56.107922 -5.227518 36,975 309 471 64
2019-10-12 15:44:57 GMT 56.099590 -5.208549 36,975 309 472 -64
2019-10-12 15:44:54 GMT 56.095261 -5.198765 36,975 309 472 0
2019-10-12 15:44:51 GMT 56.091492 -5.190182 36,975 309 472 -64
2019-10-12 15:44:45 GMT 56.086647 -5.179110 36,975 309 473 -128
2019-10-12 15:44:42 GMT 56.083389 -5.171728 37,000 309 473 -128
2019-10-12 15:44:39 GMT 56.079338 -5.162544 37,000 309 473 -128
2019-10-12 15:44:36 GMT 56.071381 -5.144431 37,000 309 474 -128
2019-10-12 15:44:30 GMT 56.067627 -5.135775 37,000 309 474 -128
2019-10-12 15:44:27 GMT 56.063553 -5.126537 37,000 309 475 -64
2019-10-12 15:44:24 GMT 56.058701 -5.115467 37,000 309 475 -128
2019-10-12 15:44:21 GMT 56.053970 -5.104694 37,000 309 475 -64
2019-10-12 15:44:17 GMT 56.049500 -5.094577 37,000 309 474 0
2019-10-12 15:44:14 GMT 56.045425 -5.085338 37,000 309 474 0
2019-10-12 15:44:11 GMT 56.041397 -5.076100 37,000 309 474 64
2019-10-12 15:44:08 GMT 56.037724 -5.067787 37,000 309 474 64
2019-10-12 15:44:04 GMT 56.032196 -5.055209 36,975 309 472 64
2019-10-12 15:44:01 GMT 56.028831 -5.047531 36,975 309 472 64
2019-10-12 15:43:58 GMT 56.020779 -5.029163 36,975 309 471 64
2019-10-12 15:43:52 GMT 56.014435 -5.014843 36,975 309 471 0
2019-10-12 15:43:49 GMT 56.012165 -5.009680 36,975 309 471 0
2019-10-12 15:43:45 GMT 56.006809 -4.997492 36,975 309 471 0
2019-10-12 15:43:42 GMT 56.003040 -4.988909 36,975 309 471 -64
2019-10-12 15:43:39 GMT 55.999146 -4.980053 36,975 309 471 -64
2019-10-12 15:43:36 GMT 55.994427 -4.969425 36,975 309 471 -64
2019-10-12 15:43:32 GMT 55.987400 -4.953632 37,000 309 471 -64
2019-10-12 15:43:29 GMT 55.985413 -4.949008 37,000 309 471 -64
2019-10-12 15:43:25 GMT 55.980137 -4.937153 36,975 309 471 -64
2019-10-12 15:43:22 GMT 55.974655 -4.924705 37,000 309 470 -64
2019-10-12 15:43:19 GMT 55.971680 -4.918046 37,000 309 470 -64
2019-10-12 15:43:15 GMT 55.966553 -4.906477 37,000 309 470 -64
2019-10-12 15:43:12 GMT 55.961151 -4.894326 37,000 309 470 -64
2019-10-12 15:43:09 GMT 55.957672 -4.886419 37,000 309 470 -64
2019-10-12 15:43:05 GMT 55.952820 -4.875516 37,000 309 470 -64
2019-10-12 15:43:02 GMT 55.949066 -4.866943 37,000 309 471 -64
2019-10-12 15:42:59 GMT 55.941406 -4.849691 36,975 309 470 -64
2019-10-12 15:42:53 GMT 55.936432 -4.838396 36,975 309 469 0
2019-10-12 15:42:49 GMT 55.931854 -4.828075 37,000 309 469 0
2019-10-12 15:42:46 GMT 55.923946 -4.810209 36,975 309 469 0
2019-10-12 15:42:40 GMT 55.918873 -4.798708 37,000 309 469 -64
2019-10-12 15:42:37 GMT 55.915337 -4.790897 37,000 309 469 -64
2019-10-12 15:42:33 GMT 55.909981 -4.778795 37,000 309 470 -64
2019-10-12 15:42:30 GMT 55.905487 -4.768815 36,975 309 470 -64
2019-10-12 15:42:27 GMT 55.897831 -4.751587 36,975 309 469 -64
2019-10-12 15:42:21 GMT 55.888779 -4.731362 36,975 309 468 -64
2019-10-12 15:42:18 GMT 55.888779 -4.731362 36,975 309 468 -64
2019-10-12 15:42:15 GMT 55.885574 -4.724204 36,975 309 468 -64
2019-10-12 15:42:12 GMT 55.880840 -4.713650 37,000 309 468 -64
2019-10-12 15:42:09 GMT 55.877747 -4.706726 37,000 309 468 -64
2019-10-12 15:42:06 GMT 55.873577 -4.697342 36,975 309 468 -64
2019-10-12 15:42:02 GMT 55.867767 -4.684420 37,000 309 468 -64
2019-10-12 15:41:59 GMT 55.864407 -4.676914 37,000 309 468 -64
2019-10-12 15:41:56 GMT 55.854214 -4.653997 37,000 309 468 -64
2019-10-12 15:41:52 GMT 55.854214 -4.653997 37,000 309 468 -64
2019-10-12 15:41:48 GMT 55.849930 -4.644384 37,000 309 468 0
2019-10-12 15:41:45 GMT 55.840393 -4.622997 37,000 309 468 0
2019-10-12 15:41:42 GMT 55.840393 -4.622997 36,975 309 467 -64
2019-10-12 15:41:39 GMT 55.837826 -4.617262 36,975 309 468 64
2019-10-12 15:41:36 GMT 55.833775 -4.608250 36,975 309 468 0
2019-10-12 15:41:33 GMT 55.829636 -4.598944 36,975 309 468 0
2019-10-12 15:41:30 GMT 55.824509 -4.587541 36,975 309 467 -64
2019-10-12 15:41:27 GMT 55.815762 -4.568081 36,975 309 467 -64
2019-10-12 15:41:24 GMT 55.815762 -4.568081 37,000 309 467 -64
2019-10-12 15:41:21 GMT 55.812653 -4.561240 37,000 309 467 -64
2019-10-12 15:41:18 GMT 55.808899 -4.552834 37,000 309 466 -64
2019-10-12 15:41:15 GMT 55.804497 -4.543018 36,975 309 466 -64
2019-10-12 15:41:12 GMT 55.801117 -4.535522 37,000 309 466 -64
2019-10-12 15:41:09 GMT 55.795715 -4.523621 36,975 309 466 0
2019-10-12 15:41:05 GMT 55.790359 -4.511636 36,975 309 466 -64
2019-10-12 15:41:02 GMT 55.787552 -4.505424 36,975 309 466 0
2019-10-12 15:40:59 GMT 55.782578 -4.494407 36,975 309 466 -64
2019-10-12 15:40:56 GMT 55.778778 -4.486084 36,975 309 465 -64
2019-10-12 15:40:53 GMT 55.773972 -4.475347 36,975 309 465 -64
2019-10-12 15:40:50 GMT 55.771271 -4.469438 36,975 309 465 -64
2019-10-12 15:40:47 GMT 55.766739 -4.459284 36,975 309 465 -64
2019-10-12 15:40:44 GMT 55.762711 -4.450378 37,000 309 465 -64
2019-10-12 15:40:41 GMT 55.757629 -4.439142 37,000 309 465 -128
2019-10-12 15:40:38 GMT 55.755478 -4.434398 37,000 309 465 -64
2019-10-12 15:40:35 GMT 55.751175 -4.424910 37,000 309 465 -64
2019-10-12 15:40:32 GMT 55.747147 -4.416005 37,000 309 465 -64
2019-10-12 15:40:29 GMT 55.742615 -4.405850 37,000 309 464 -64
2019-10-12 15:40:26 GMT 55.739365 -4.398776 37,000 309 464 0
2019-10-12 15:40:22 GMT 55.732956 -4.384544 36,975 309 464 0
2019-10-12 15:40:19 GMT 55.729202 -4.376304 36,975 309 463 0
2019-10-12 15:40:16 GMT 55.724899 -4.366816 36,975 309 463 0
2019-10-12 15:40:12 GMT 55.720047 -4.356162 36,975 309 463 -64
2019-10-12 15:40:09 GMT 55.716187 -4.347668 36,975 309 463 -64
2019-10-12 15:40:06 GMT 55.712692 -4.339943 36,975 309 463 -64
2019-10-12 15:40:03 GMT 55.703339 -4.319258 36,975 309 463 -64
2019-10-12 15:40:00 GMT 55.703339 -4.319258 36,975 309 462 -64
2019-10-12 15:39:57 GMT 55.699448 -4.310719 36,975 309 463 -64
2019-10-12 15:39:54 GMT 55.695286 -4.301577 37,000 309 463 -64
2019-10-12 15:39:51 GMT 55.691048 -4.292135 37,000 309 462 -64
2019-10-12 15:39:48 GMT 55.687134 -4.283669 37,000 309 463 -64
2019-10-12 15:39:45 GMT 55.684063 -4.276857 37,000 309 462 -64
2019-10-12 15:39:41 GMT 55.678619 -4.264776 37,000 309 462 -64
2019-10-12 15:39:38 GMT 55.675140 -4.257202 37,000 309 461 -64
2019-10-12 15:39:35 GMT 55.665756 -4.236644 37,000 309 461 -64
2019-10-12 15:39:31 GMT 55.665756 -4.236644 37,000 309 461 -64
2019-10-12 15:39:28 GMT 55.660557 -4.225273 37,000 309 460 -64
2019-10-12 15:39:25 GMT 55.657856 -4.219351 37,000 309 460 -64
2019-10-12 15:39:22 GMT 55.654266 -4.211509 37,000 309 459 0
2019-10-12 15:39:19 GMT 55.643749 -4.188452 37,000 309 459 64
2019-10-12 15:39:15 GMT 55.643749 -4.188452 37,000 309 459 0
2019-10-12 15:39:12 GMT 55.640717 -4.181713 37,000 309 459 64
2019-10-12 15:39:09 GMT 55.635277 -4.169741 36,975 309 458 64
2019-10-12 15:39:05 GMT 55.630760 -4.159870 36,975 309 458 0
2019-10-12 15:39:02 GMT 55.626759 -4.151115 36,975 309 457 0
2019-10-12 15:38:59 GMT 55.623035 -4.142962 36,975 309 457 -64
2019-10-12 15:38:56 GMT 55.619431 -4.135104 36,975 310 458 -64
2019-10-12 15:38:53 GMT 55.611584 -4.117985 37,000 310 458 -64
2019-10-12 15:38:47 GMT 55.602905 -4.099149 37,000 310 458 -128
2019-10-12 15:38:44 GMT 55.602905 -4.099149 37,000 310 458 -64
2019-10-12 15:38:40 GMT 55.596920 -4.086056 37,000 310 459 -64
2019-10-12 15:38:37 GMT 55.593426 -4.078503 37,000 310 459 -64
2019-10-12 15:38:34 GMT 55.589859 -4.070684 36,975 310 463 -128
2019-10-12 15:38:31 GMT 55.585701 -4.061680 37,000 309 459 0
2019-10-12 15:38:28 GMT 55.581184 -4.051809 36,975 309 459 64
2019-10-12 15:38:24 GMT 55.576622 -4.041853 36,975 310 459 64
2019-10-12 15:38:21 GMT 55.572105 -4.031982 36,975 309 461 -64
2019-10-12 15:38:18 GMT 55.564610 -4.015675 36,975 310 460 0
2019-10-12 15:38:12 GMT 55.559769 -4.005203 36,975 309 461 -64
2019-10-12 15:38:09 GMT 55.555344 -3.995528 36,975 309 461 -128
2019-10-12 15:38:06 GMT 55.552555 -3.989410 36,975 309 461 -128
2019-10-12 15:38:03 GMT 55.547836 -3.979215 36,975 310 462 -64
2019-10-12 15:38:00 GMT 55.544632 -3.972223 37,000 309 461 -128
2019-10-12 15:37:57 GMT 55.539940 -3.961945 37,000 309 462 -128
2019-10-12 15:37:54 GMT 55.536072 -3.953497 37,000 310 462 -64
2019-10-12 15:37:51 GMT 55.526344 -3.932934 37,000 310 463 -128
2019-10-12 15:37:48 GMT 55.526344 -3.932934 37,000 311 464 -64
2019-10-12 15:37:45 GMT 55.524261 -3.928611 37,000 311 464 -64
2019-10-12 15:37:41 GMT 55.518356 -3.916626 36,975 314 467 -64
2019-10-12 15:37:37 GMT 55.511490 -3.903060 37,000 313 466 0
2019-10-12 15:37:34 GMT 55.507690 -3.895735 37,000 315 469 -64
2019-10-12 15:37:31 GMT 55.503441 -3.887701 36,975 314 468 -64
2019-10-12 15:37:28 GMT 55.499020 -3.879375 37,000 315 469 -64
2019-10-12 15:37:22 GMT 55.489792 -3.862693 36,975 315 469 -64
2019-10-12 15:37:19 GMT 55.485378 -3.854914 37,000 316 470 -64
2019-10-12 15:37:16 GMT 55.480724 -3.846846 37,000 316 470 -64
2019-10-12 15:37:13 GMT 55.476791 -3.840138 37,000 317 471 -64
2019-10-12 15:37:10 GMT 55.466805 -3.823586 37,000 318 472 -64
2019-10-12 15:37:07 GMT 55.466805 -3.823586 37,000 318 472 -64
2019-10-12 15:37:04 GMT 55.461182 -3.814503 37,000 319 473 0
2019-10-12 15:37:01 GMT 55.457291 -3.808344 37,000 319 473 0
2019-10-12 15:36:58 GMT 55.452347 -3.800687 36,975 319 474 64
2019-10-12 15:36:55 GMT 55.447083 -3.792614 36,975 320 474 64
2019-10-12 15:36:52 GMT 55.441452 -3.784063 36,975 320 473 -64
2019-10-12 15:36:47 GMT 55.435009 -3.774220 36,975 320 473 0
2019-10-12 15:36:44 GMT 55.429749 -3.766147 36,975 320 473 0
2019-10-12 15:36:41 GMT 55.417831 -3.748086 36,975 320 474 -64
2019-10-12 15:36:37 GMT 55.417831 -3.748086 36,975 320 474 -64
2019-10-12 15:36:34 GMT 55.412704 -3.740279 36,975 320 474 -64
2019-10-12 15:36:31 GMT 55.406891 -3.731523 36,975 320 474 -64
2019-10-12 15:36:27 GMT 55.394974 -3.713379 36,975 320 474 -128
2019-10-12 15:36:24 GMT 55.394974 -3.713379 37,000 320 474 -128
2019-10-12 15:36:21 GMT 55.391018 -3.707386 37,000 320 474 -128
2019-10-12 15:36:17 GMT 55.383911 -3.696576 37,000 320 473 -128
2019-10-12 15:36:14 GMT 55.379429 -3.689825 37,000 320 473 -64
2019-10-12 15:36:11 GMT 55.373466 -3.680836 37,000 320 473 -64
2019-10-12 15:36:05 GMT 55.364529 -3.667353 36,975 320 473 -64
2019-10-12 15:36:02 GMT 55.359222 -3.659363 36,975 320 473 -64
2019-10-12 15:35:59 GMT 55.354385 -3.652066 36,975 320 473 -64
2019-10-12 15:35:56 GMT 55.343304 -3.635393 36,975 320 473 -128
2019-10-12 15:35:53 GMT 55.343304 -3.635393 37,000 320 473 -128
2019-10-12 15:35:50 GMT 55.339188 -3.629123 37,000 320 473 -128
2019-10-12 15:35:47 GMT 55.334518 -3.622176 37,000 320 473 -128
2019-10-12 15:35:44 GMT 55.330082 -3.615417 37,000 320 473 -128
2019-10-12 15:35:41 GMT 55.324905 -3.607716 37,000 320 473 -128
2019-10-12 15:35:38 GMT 55.319641 -3.599800 37,000 320 473 -64
2019-10-12 15:35:35 GMT 55.314331 -3.591802 37,000 320 473 -64
2019-10-12 15:35:32 GMT 55.308701 -3.583320 37,000 320 473 0
2019-10-12 15:35:29 GMT 55.305550 -3.578630 37,000 320 473 0
2019-10-12 15:35:26 GMT 55.300289 -3.570640 37,000 320 471 64
2019-10-12 15:35:23 GMT 55.293823 -3.560944 36,975 320 471 64
2019-10-12 15:35:20 GMT 55.288879 -3.553512 36,975 320 470 64
2019-10-12 15:35:17 GMT 55.283764 -3.545837 36,975 320 470 64
2019-10-12 15:35:14 GMT 55.279430 -3.539345 36,975 320 470 64
2019-10-12 15:35:11 GMT 55.273193 -3.530024 36,975 320 470 0
2019-10-12 15:35:07 GMT 55.262787 -3.514413 36,975 320 470 -64
2019-10-12 15:35:04 GMT 55.262787 -3.514413 36,975 320 470 -64
2019-10-12 15:35:01 GMT 55.256992 -3.505804 36,975 320 470 -64
2019-10-12 15:34:58 GMT 55.253689 -3.500893 37,000 320 471 -64
2019-10-12 15:34:54 GMT 55.245895 -3.489290 36,975 320 471 -64
2019-10-12 15:34:51 GMT 55.236969 -3.476042 37,000 320 471 -128
2019-10-12 15:34:48 GMT 55.229004 -3.464248 37,000 320 471 -128
2019-10-12 15:34:44 GMT 55.229004 -3.464248 37,000 320 470 -128
2019-10-12 15:34:41 GMT 55.224873 -3.458030 37,000 320 470 -128
2019-10-12 15:34:38 GMT 55.215820 -3.444537 37,000 320 470 -128
2019-10-12 15:34:35 GMT 55.215820 -3.444537 37,000 320 470 -128
2019-10-12 15:34:32 GMT 55.210831 -3.437105 37,000 320 470 -64
2019-10-12 15:34:28 GMT 55.203087 -3.425570 37,000 320 468 64
2019-10-12 15:34:24 GMT 55.196198 -3.415250 37,000 320 469 -64
2019-10-12 15:34:21 GMT 55.192242 -3.409341 37,000 320 468 64
2019-10-12 15:34:18 GMT 55.187958 -3.402932 37,000 320 468 0
2019-10-12 15:34:15 GMT 55.177917 -3.387909 37,000 320 468 64
2019-10-12 15:34:12 GMT 55.171371 -3.378134 36,975 320 468 64
2019-10-12 15:34:09 GMT 55.171371 -3.378134 36,975 320 468 64
2019-10-12 15:34:06 GMT 55.167240 -3.371970 36,975 320 467 -64
2019-10-12 15:34:02 GMT 55.161701 -3.363647 36,975 320 468 64
2019-10-12 15:33:59 GMT 55.156769 -3.356323 36,975 320 468 64
2019-10-12 15:33:56 GMT 55.150360 -3.346710 36,975 320 467 0
2019-10-12 15:33:53 GMT 55.146103 -3.340409 36,975 320 468 -64
2019-10-12 15:33:50 GMT 55.136536 -3.326272 36,975 320 467 -128
2019-10-12 15:33:44 GMT 55.130630 -3.317467 36,975 320 468 -64
2019-10-12 15:33:41 GMT 55.125530 -3.309881 37,000 320 467 -128
2019-10-12 15:33:38 GMT 55.115662 -3.295233 37,000 320 468 -64
2019-10-12 15:33:35 GMT 55.115662 -3.295233 37,000 320 468 -64
2019-10-12 15:33:32 GMT 55.111378 -3.288907 37,000 320 468 -64
2019-10-12 15:33:28 GMT 55.104630 -3.278853 37,000 320 468 -64
2019-10-12 15:33:25 GMT 55.100204 -3.272261 37,000 320 468 -64
2019-10-12 15:33:21 GMT 55.087685 -3.253784 37,000 320 468 -64
2019-10-12 15:33:18 GMT 55.083076 -3.246959 36,975 320 468 -64
2019-10-12 15:33:15 GMT 55.083076 -3.246959 36,975 320 468 -64
2019-10-12 15:33:12 GMT 55.078465 -3.240134 36,975 320 467 0
2019-10-12 15:33:09 GMT 55.073685 -3.233131 36,975 320 467 0
2019-10-12 15:33:05 GMT 55.067093 -3.223356 36,975 320 467 0
2019-10-12 15:33:01 GMT 55.061008 -3.214417 37,000 320 467 0
2019-10-12 15:32:58 GMT 55.054726 -3.205178 36,975 320 467 0
2019-10-12 15:32:54 GMT 55.048325 -3.195648 36,975 320 467 -64
2019-10-12 15:32:51 GMT 55.044857 -3.190613 36,975 320 467 -64
2019-10-12 15:32:48 GMT 55.039764 -3.183046 36,975 320 467 -64
2019-10-12 15:32:45 GMT 55.034821 -3.175776 36,975 320 467 -64
2019-10-12 15:32:42 GMT 55.028049 -3.165810 36,975 320 468 -128
2019-10-12 15:32:39 GMT 55.024933 -3.161235 37,000 320 467 -128
2019-10-12 15:32:36 GMT 55.019302 -3.152995 37,000 320 467 -64
2019-10-12 15:32:33 GMT 55.013718 -3.144756 37,000 320 467 -128
2019-10-12 15:32:30 GMT 55.009735 -3.138939 37,000 320 467 -64
2019-10-12 15:32:27 GMT 55.004150 -3.130780 37,000 320 467 -64
2019-10-12 15:32:23 GMT 54.992439 -3.113542 37,000 320 466 -64
2019-10-12 15:32:20 GMT 54.992439 -3.113542 37,000 320 466 -64
2019-10-12 15:32:17 GMT 54.989178 -3.108715 37,000 320 466 -64
2019-10-12 15:32:14 GMT 54.984570 -3.101973 37,000 320 466 -64
2019-10-12 15:32:11 GMT 54.972244 -3.083846 37,000 320 466 -64
2019-10-12 15:32:08 GMT 54.972244 -3.083846 36,975 320 465 -64
2019-10-12 15:32:05 GMT 54.967667 -3.077060 36,975 320 465 -64
2019-10-12 15:32:02 GMT 54.964691 -3.072698 37,000 320 465 -64
2019-10-12 15:31:59 GMT 54.957184 -3.061631 37,000 320 464 -64
2019-10-12 15:31:56 GMT 54.954895 -3.058238 37,000 320 464 -64
2019-10-12 15:31:53 GMT 54.948540 -3.048873 37,000 320 464 -64
2019-10-12 15:31:50 GMT 54.944584 -3.043046 36,975 320 459 -64
2019-10-12 15:31:47 GMT 54.934616 -3.028430 37,000 320 464 -64
2019-10-12 15:31:44 GMT 54.934616 -3.028430 37,000 320 464 -64
2019-10-12 15:31:41 GMT 54.929077 -3.020271 37,000 320 463 -64
2019-10-12 15:31:38 GMT 54.923679 -3.012335 37,000 320 463 -64
2019-10-12 15:31:35 GMT 54.920883 -3.008315 37,000 320 457 -64
2019-10-12 15:31:32 GMT 54.913902 -2.998019 37,000 320 462 -64
2019-10-12 15:31:29 GMT 54.908844 -2.990543 37,000 320 462 -64
2019-10-12 15:31:25 GMT 54.902451 -2.981290 37,000 321 462 -64
2019-10-12 15:31:22 GMT 54.898087 -2.974871 37,000 320 461 -64
2019-10-12 15:31:19 GMT 54.893188 -2.967682 37,000 320 461 -64
2019-10-12 15:31:16 GMT 54.888611 -2.961058 37,000 320 461 0
2019-10-12 15:31:13 GMT 54.883713 -2.953949 37,000 320 457 -64
2019-10-12 15:31:09 GMT 54.876431 -2.943254 36,975 320 461 0
2019-10-12 15:31:06 GMT 54.872520 -2.937511 36,975 320 460 0
2019-10-12 15:31:02 GMT 54.860184 -2.919450 36,975 320 459 0
2019-10-12 15:30:59 GMT 54.855469 -2.912589 36,975 320 458 -64
2019-10-12 15:30:56 GMT 54.850937 -2.905965 36,975 320 459 -64
2019-10-12 15:30:53 GMT 54.850937 -2.905965 36,975 320 459 -64
2019-10-12 15:30:50 GMT 54.846085 -2.898856 36,975 320 459 -64
2019-10-12 15:30:47 GMT 54.842030 -2.892900 37,000 321 459 -128
2019-10-12 15:30:44 GMT 54.835098 -2.882780 36,975 321 459 -128
2019-10-12 15:30:41 GMT 54.831528 -2.877610 36,975 321 459 -64
2019-10-12 15:30:38 GMT 54.826630 -2.870501 37,000 321 459 -128
2019-10-12 15:30:35 GMT 54.821091 -2.862504 37,000 321 459 -64
2019-10-12 15:30:32 GMT 54.817680 -2.857611 37,000 321 457 -64
2019-10-12 15:30:29 GMT 54.812668 -2.850306 37,000 321 459 -64
2019-10-12 15:30:26 GMT 54.806122 -2.840854 37,000 320 458 -64
2019-10-12 15:30:23 GMT 54.802872 -2.836169 36,975 321 459 -64
2019-10-12 15:30:20 GMT 54.798019 -2.829141 36,975 320 458 -64
2019-10-12 15:30:16 GMT 54.785561 -2.811002 37,000 320 457 -64
2019-10-12 15:30:13 GMT 54.781540 -2.805149 37,000 320 457 -64
2019-10-12 15:30:10 GMT 54.781540 -2.805149 37,000 320 457 -64
2019-10-12 15:30:07 GMT 54.777328 -2.799009 37,000 320 457 -64
2019-10-12 15:30:04 GMT 54.771515 -2.790608 36,975 320 457 -64
2019-10-12 15:30:01 GMT 54.765541 -2.781871 37,000 321 457 -64
2019-10-12 15:29:58 GMT 54.762177 -2.776956 37,000 321 457 -64
2019-10-12 15:29:55 GMT 54.756317 -2.768555 37,000 321 457 -64
2019-10-12 15:29:52 GMT 54.752602 -2.763228 37,000 321 457 -64
2019-10-12 15:29:49 GMT 54.746292 -2.754095 37,000 321 457 -64
2019-10-12 15:29:46 GMT 54.743568 -2.750078 37,000 321 456 -64
2019-10-12 15:29:43 GMT 54.736122 -2.739341 37,000 321 456 -64
2019-10-12 15:29:40 GMT 54.732910 -2.734680 37,000 321 456 -64
2019-10-12 15:29:37 GMT 54.727890 -2.727518 37,000 321 456 -64
2019-10-12 15:29:34 GMT 54.723679 -2.721378 37,000 321 456 -64
2019-10-12 15:29:31 GMT 54.711731 -2.704172 36,975 321 455 -64
2019-10-12 15:29:28 GMT 54.711731 -2.704172 36,975 321 455 0
2019-10-12 15:29:25 GMT 54.704315 -2.693428 36,975 321 455 0
2019-10-12 15:29:22 GMT 54.704315 -2.693428 36,975 321 455 0
2019-10-12 15:29:19 GMT 54.698322 -2.684909 36,975 321 455 -64
2019-10-12 15:29:16 GMT 54.694458 -2.679332 36,975 321 455 -64
2019-10-12 15:29:13 GMT 54.690765 -2.673959 36,975 321 455 -64
2019-10-12 15:29:10 GMT 54.678677 -2.656611 36,975 321 454 -64
2019-10-12 15:29:07 GMT 54.678677 -2.656611 37,000 321 454 -64
2019-10-12 15:29:04 GMT 54.674484 -2.650618 37,000 321 454 -64
2019-10-12 15:29:01 GMT 54.669319 -2.643211 36,975 321 455 -64
2019-10-12 15:28:58 GMT 54.664307 -2.636072 36,975 321 454 -64
2019-10-12 15:28:55 GMT 54.660290 -2.630227 36,975 321 454 -64
2019-10-12 15:28:52 GMT 54.654007 -2.621209 37,000 321 453 -64
2019-10-12 15:28:48 GMT 54.648880 -2.613777 36,975 321 453 -64
2019-10-12 15:28:45 GMT 54.643250 -2.605674 36,975 321 453 -64
2019-10-12 15:28:42 GMT 54.639587 -2.600367 36,975 321 452 -64
2019-10-12 15:28:39 GMT 54.628490 -2.584450 36,975 321 453 -64
2019-10-12 15:28:36 GMT 54.628490 -2.584450 36,975 321 452 -64
2019-10-12 15:28:33 GMT 54.624481 -2.578637 36,975 321 452 -64
2019-10-12 15:28:30 GMT 54.619785 -2.571966 37,000 321 452 -64
2019-10-12 15:28:27 GMT 54.615784 -2.566196 37,000 321 452 -64
2019-10-12 15:28:24 GMT 54.609219 -2.556735 37,000 321 452 -64
2019-10-12 15:28:21 GMT 54.604706 -2.550243 37,000 321 452 -64
2019-10-12 15:28:18 GMT 54.601166 -2.545249 36,975 321 452 -64
2019-10-12 15:28:15 GMT 54.591576 -2.531433 37,000 321 450 -64
2019-10-12 15:28:12 GMT 54.586624 -2.524351 36,975 321 450 -64
2019-10-12 15:28:09 GMT 54.586624 -2.524351 37,000 321 450 -64
2019-10-12 15:28:06 GMT 54.581497 -2.517000 37,000 321 450 -64
2019-10-12 15:28:03 GMT 54.576691 -2.510134 37,000 321 450 -64
2019-10-12 15:28:00 GMT 54.571243 -2.502379 37,000 321 450 -64
2019-10-12 15:27:57 GMT 54.567444 -2.496885 37,000 321 450 -64
2019-10-12 15:27:54 GMT 54.562637 -2.490019 37,000 321 449 -64
2019-10-12 15:27:51 GMT 54.556870 -2.481779 37,000 321 449 -64
2019-10-12 15:27:47 GMT 54.550007 -2.472007 37,000 321 449 -64
2019-10-12 15:27:44 GMT 54.546021 -2.466350 37,000 321 449 -64
2019-10-12 15:27:41 GMT 54.536774 -2.453102 36,975 321 449 0
2019-10-12 15:27:38 GMT 54.536774 -2.453102 36,975 321 448 0
2019-10-12 15:27:35 GMT 54.531525 -2.445623 36,975 321 449 -64
2019-10-12 15:27:32 GMT 54.523361 -2.434037 36,975 321 449 -64
2019-10-12 15:27:26 GMT 54.516953 -2.424990 37,000 321 448 -64
2019-10-12 15:27:22 GMT 54.507877 -2.412082 37,000 321 447 -64
2019-10-12 15:27:16 GMT 54.501823 -2.403509 37,000 321 447 -64
2019-10-12 15:27:13 GMT 54.496376 -2.395852 37,000 321 447 -64
2019-10-12 15:27:10 GMT 54.492737 -2.390657 37,000 321 445 -64
2019-10-12 15:27:07 GMT 54.481480 -2.374545 37,000 321 445 -64
2019-10-12 15:27:04 GMT 54.478134 -2.369816 37,000 321 445 -64
2019-10-12 15:26:58 GMT 54.473568 -2.363309 37,000 321 444 -64
2019-10-12 15:26:55 GMT 54.468212 -2.355652 37,000 321 443 0
2019-10-12 15:26:52 GMT 54.463623 -2.349135 37,000 321 443 0
2019-10-12 15:26:49 GMT 54.459694 -2.343584 36,975 321 443 0
2019-10-12 15:26:46 GMT 54.449917 -2.329684 36,975 321 442 0
2019-10-12 15:26:43 GMT 54.449917 -2.329684 36,975 321 440 0
2019-10-12 15:26:40 GMT 54.444889 -2.322610 36,975 321 441 0
2019-10-12 15:26:37 GMT 54.440189 -2.315868 36,975 321 441 0
2019-10-12 15:26:34 GMT 54.434509 -2.307878 36,975 321 440 0
2019-10-12 15:26:31 GMT 54.427341 -2.297641 36,975 321 440 -64
2019-10-12 15:26:25 GMT 54.419678 -2.286772 36,975 321 439 -64
2019-10-12 15:26:22 GMT 54.415924 -2.281440 36,975 321 439 -64
2019-10-12 15:26:19 GMT 54.412025 -2.275918 36,975 321 439 -64
2019-10-12 15:26:15 GMT 54.405136 -2.266180 36,975 321 439 -64
2019-10-12 15:26:12 GMT 54.400433 -2.259521 36,975 321 439 -64
2019-10-12 15:26:09 GMT 54.395733 -2.252946 36,975 321 439 -64
2019-10-12 15:26:06 GMT 54.390423 -2.245372 36,975 321 439 -64
2019-10-12 15:26:03 GMT 54.386536 -2.239838 36,975 321 439 -64
2019-10-12 15:26:00 GMT 54.383377 -2.235475 36,975 321 439 -128
2019-10-12 15:25:57 GMT 54.377296 -2.226812 36,975 321 439 -64
2019-10-12 15:25:54 GMT 54.373398 -2.221339 36,975 321 439 -64
2019-10-12 15:25:51 GMT 54.367767 -2.213422 36,975 321 439 -128
2019-10-12 15:25:48 GMT 54.363842 -2.207836 36,975 321 439 -128
2019-10-12 15:25:45 GMT 54.358978 -2.201062 36,975 321 439 -128
2019-10-12 15:25:42 GMT 54.352707 -2.192257 36,975 321 438 -128
2019-10-12 15:25:39 GMT 54.348808 -2.186779 37,000 321 438 -128
2019-10-12 15:25:36 GMT 54.344105 -2.180120 37,000 321 438 -192
2019-10-12 15:25:33 GMT 54.338654 -2.172466 37,000 321 437 -128
2019-10-12 15:25:29 GMT 54.333492 -2.165222 37,000 321 437 -128
2019-10-12 15:25:26 GMT 54.329269 -2.159298 37,000 321 437 -128
2019-10-12 15:25:22 GMT 54.321667 -2.148576 37,000 321 436 -64
2019-10-12 15:25:19 GMT 54.319153 -2.145081 37,000 321 436 -64
2019-10-12 15:25:16 GMT 54.314499 -2.138505 37,000 321 435 -64
2019-10-12 15:25:13 GMT 54.309402 -2.131267 37,000 321 434 -64
2019-10-12 15:25:10 GMT 54.304779 -2.124724 37,000 321 434 -64
2019-10-12 15:25:07 GMT 54.298157 -2.115368 37,000 321 432 -64
2019-10-12 15:25:04 GMT 54.295086 -2.110956 37,000 321 432 0
2019-10-12 15:25:01 GMT 54.289993 -2.103801 37,000 321 431 64
2019-10-12 15:24:58 GMT 54.280472 -2.090391 36,975 321 431 64
2019-10-12 15:24:55 GMT 54.280472 -2.090391 36,975 321 431 64
2019-10-12 15:24:52 GMT 54.276649 -2.084979 36,975 321 430 0
2019-10-12 15:24:49 GMT 54.271271 -2.077436 36,975 321 430 0
2019-10-12 15:24:46 GMT 54.268204 -2.073120 36,975 321 430 -64
2019-10-12 15:24:43 GMT 54.263901 -2.067078 36,975 321 430 -64
2019-10-12 15:24:40 GMT 54.257286 -2.057836 37,000 321 430 -64
2019-10-12 15:24:37 GMT 54.252071 -2.050566 37,000 321 430 0
2019-10-12 15:24:34 GMT 54.248718 -2.045800 37,000 321 430 -64
2019-10-12 15:24:31 GMT 54.243942 -2.039141 37,000 321 430 0
2019-10-12 15:24:28 GMT 54.239365 -2.032706 36,975 321 430 64
2019-10-12 15:24:25 GMT 54.235062 -2.026664 36,975 321 429 64
2019-10-12 15:24:22 GMT 54.229355 -2.018738 36,975 321 429 64
2019-10-12 15:24:19 GMT 54.225540 -2.013402 36,975 321 430 64
2019-10-12 15:24:16 GMT 54.220917 -2.006967 36,975 321 430 -64
2019-10-12 15:24:13 GMT 54.216457 -2.000723 36,975 321 430 -64
2019-10-12 15:24:10 GMT 54.212128 -1.994746 36,975 321 430 -128
2019-10-12 15:24:07 GMT 54.206726 -1.987270 36,975 321 430 -128
2019-10-12 15:24:04 GMT 54.203190 -1.982386 36,975 321 430 -128
2019-10-12 15:24:01 GMT 54.193497 -1.968907 37,000 321 430 -192
2019-10-12 15:23:58 GMT 54.193497 -1.968907 37,000 321 430 -256
2019-10-12 15:23:55 GMT 54.188873 -1.962551 37,000 321 429 -192
2019-10-12 15:23:52 GMT 54.184845 -1.956979 37,000 321 429 -192
2019-10-12 15:23:49 GMT 54.180267 -1.950544 36,975 321 429 192
2019-10-12 15:23:46 GMT 54.174408 -1.942461 37,000 321 429 192
2019-10-12 15:23:43 GMT 54.169674 -1.935775 36,975 321 429 384
2019-10-12 15:23:40 GMT 54.165112 -1.929312 36,850 321 429 640
2019-10-12 15:23:37 GMT 54.160034 -1.922294 36,900 321 430 768
2019-10-12 15:23:34 GMT 54.156326 -1.917193 36,475 329 448 -64
2019-10-12 15:23:31 GMT 54.151016 -1.910052 36,825 322 432 960
2019-10-12 15:23:28 GMT 54.147858 -1.905814 36,775 323 432 1024
2019-10-12 15:23:25 GMT 54.143276 -1.899827 36,675 323 434 1024
2019-10-12 15:23:22 GMT 54.138485 -1.893607 36,675 324 435 1088
2019-10-12 15:23:19 GMT 54.132011 -1.885448 36,575 324 438 1088
2019-10-12 15:23:16 GMT 54.128056 -1.880601 36,525 325 439 1088
2019-10-12 15:23:13 GMT 54.122471 -1.873815 36,425 325 440 1088
2019-10-12 15:23:10 GMT 54.117443 -1.867837 36,425 326 443 1024
2019-10-12 15:23:07 GMT 54.113251 -1.862889 36,400 326 443 1024
2019-10-12 15:23:04 GMT 54.107666 -1.856447 36,325 327 444 960
2019-10-12 15:23:01 GMT 54.098076 -1.845622 36,250 327 446 832
2019-10-12 15:22:58 GMT 54.093750 -1.840838 36,200 328 447 832
2019-10-12 15:22:52 GMT 54.085373 -1.831813 36,125 329 449 768
2019-10-12 15:22:49 GMT 54.083038 -1.829466 36,100 329 450 640
2019-10-12 15:22:46 GMT 54.076859 -1.823024 36,100 329 450 704
2019-10-12 15:22:43 GMT 54.066193 -1.812038 36,025 329 450 320
2019-10-12 15:22:37 GMT 54.060150 -1.805760 36,000 329 450 128
2019-10-12 15:22:34 GMT 54.055206 -1.800659 35,975 329 450 -64
2019-10-12 15:22:31 GMT 54.049164 -1.794381 36,000 329 450 0
2019-10-12 15:22:28 GMT 54.044540 -1.789673 36,000 329 449 -64
2019-10-12 15:22:25 GMT 54.038498 -1.783473 36,000 329 449 -64
2019-10-12 15:22:22 GMT 54.034393 -1.779300 36,000 329 449 -64
2019-10-12 15:22:19 GMT 54.029251 -1.773978 35,975 329 449 -64
2019-10-12 15:22:16 GMT 54.018265 -1.762756 36,000 329 448 -64
2019-10-12 15:22:13 GMT 54.018265 -1.762756 35,975 329 447 -64
2019-10-12 15:22:10 GMT 54.010849 -1.755066 36,000 329 447 0
2019-10-12 15:22:06 GMT 54.004646 -1.748765 36,000 329 446 -64
2019-10-12 15:22:03 GMT 53.999710 -1.743676 36,000 329 446 0
2019-10-12 15:22:00 GMT 53.994598 -1.738351 35,975 329 446 0
2019-10-12 15:21:57 GMT 53.991074 -1.734741 35,975 329 446 -64
2019-10-12 15:21:54 GMT 53.984390 -1.727914 36,000 329 446 -64
2019-10-12 15:21:51 GMT 53.978203 -1.721541 35,975 329 446 -64
2019-10-12 15:21:48 GMT 53.972942 -1.716129 35,975 329 446 0
2019-10-12 15:21:45 GMT 53.967819 -1.710885 35,975 329 446 0
2019-10-12 15:21:42 GMT 53.963448 -1.706354 36,000 329 445 0
2019-10-12 15:21:39 GMT 53.957069 -1.699892 35,975 329 445 -64
2019-10-12 15:21:36 GMT 53.952507 -1.695207 35,975 329 445 0
2019-10-12 15:21:33 GMT 53.941612 -1.683978 36,000 329 441 0
2019-10-12 15:21:30 GMT 53.941612 -1.683978 35,975 329 445 -64
2019-10-12 15:21:27 GMT 53.930557 -1.672668 35,975 329 445 -64
2019-10-12 15:21:24 GMT 53.930557 -1.672668 35,975 329 445 -64
2019-10-12 15:21:20 GMT 53.925461 -1.667418 35,975 329 444 -64
2019-10-12 15:21:17 GMT 53.920898 -1.662813 36,000 330 444 -64
2019-10-12 15:21:14 GMT 53.908936 -1.650615 36,000 330 443 -64
2019-10-12 15:21:08 GMT 53.902603 -1.644233 36,000 330 443 -64
2019-10-12 15:21:05 GMT 53.898560 -1.640102 36,000 329 441 -64
2019-10-12 15:21:02 GMT 53.892242 -1.633667 36,000 330 443 -64
2019-10-12 15:20:59 GMT 53.887711 -1.629037 36,000 330 443 -64
2019-10-12 15:20:56 GMT 53.882957 -1.624199 36,000 329 442 -64
2019-10-12 15:20:53 GMT 53.870388 -1.611355 36,000 329 441 0
2019-10-12 15:20:49 GMT 53.870388 -1.611355 36,000 329 441 0
2019-10-12 15:20:46 GMT 53.865173 -1.606023 36,000 330 440 -64
2019-10-12 15:20:43 GMT 53.859962 -1.600773 36,000 329 436 64
2019-10-12 15:20:40 GMT 53.852978 -1.593664 36,000 329 440 -64
2019-10-12 15:20:37 GMT 53.843079 -1.583601 36,000 329 439 0
2019-10-12 15:20:34 GMT 53.843079 -1.583601 36,000 329 437 64
2019-10-12 15:20:31 GMT 53.839279 -1.579677 35,975 329 438 0
2019-10-12 15:20:28 GMT 53.834267 -1.574599 36,000 329 437 64
2019-10-12 15:20:25 GMT 53.828724 -1.568945 35,975 329 436 64
2019-10-12 15:20:22 GMT 53.824036 -1.564139 35,975 329 437 64
2019-10-12 15:20:19 GMT 53.813690 -1.553624 35,975 329 436 64
2019-10-12 15:20:16 GMT 53.807465 -1.547267 35,975 329 435 64
2019-10-12 15:20:13 GMT 53.807465 -1.547267 35,975 329 435 64
2019-10-12 15:20:10 GMT 53.803169 -1.542852 35,975 329 436 0
2019-10-12 15:20:07 GMT 53.796478 -1.535967 35,975 329 436 0
2019-10-12 15:20:04 GMT 53.791157 -1.530573 36,000 329 435 -64
2019-10-12 15:20:01 GMT 53.786819 -1.526158 35,975 329 435 -64
2019-10-12 15:19:58 GMT 53.775284 -1.514417 36,000 329 436 -64
2019-10-12 15:19:54 GMT 53.775284 -1.514417 35,975 330 436 -64
2019-10-12 15:19:51 GMT 53.769928 -1.509051 35,975 330 436 -64
2019-10-12 15:19:48 GMT 53.758339 -1.497291 35,975 330 437 -64
2019-10-12 15:19:45 GMT 53.758339 -1.497291 36,000 330 437 -64
2019-10-12 15:19:42 GMT 53.754684 -1.493670 36,000 330 437 -64
2019-10-12 15:19:39 GMT 53.748653 -1.487517 36,000 330 437 -128
2019-10-12 15:19:36 GMT 53.744465 -1.483316 35,975 330 437 -128
2019-10-12 15:19:33 GMT 53.737904 -1.476611 36,000 330 437 -64
2019-10-12 15:19:30 GMT 53.732529 -1.471226 36,000 330 437 -64
2019-10-12 15:19:27 GMT 53.729244 -1.467887 36,000 330 437 -64
2019-10-12 15:19:24 GMT 53.723049 -1.461586 36,000 330 439 -128
2019-10-12 15:19:21 GMT 53.718704 -1.457179 36,000 330 437 -128
2019-10-12 15:19:18 GMT 53.713165 -1.451608 35,975 330 437 64
2019-10-12 15:19:15 GMT 53.707993 -1.446350 35,975 330 437 64
2019-10-12 15:19:12 GMT 53.702988 -1.441229 36,000 330 437 -64
2019-10-12 15:19:09 GMT 53.697647 -1.435835 35,975 330 437 -64
2019-10-12 15:19:06 GMT 53.693306 -1.431454 35,975 330 437 -64
2019-10-12 15:19:03 GMT 53.687576 -1.425633 36,000 330 439 -128
2019-10-12 15:19:00 GMT 53.681717 -1.419669 35,975 330 437 -64
2019-10-12 15:18:57 GMT 53.673752 -1.411665 35,975 330 438 -64
2019-10-12 15:18:54 GMT 53.665234 -1.403100 36,000 330 438 -128
2019-10-12 15:18:51 GMT 53.665234 -1.403100 35,975 330 438 -64
2019-10-12 15:18:48 GMT 53.659695 -1.397526 36,000 330 439 -128
2019-10-12 15:18:45 GMT 53.649078 -1.386789 35,975 330 439 -64
2019-10-12 15:18:42 GMT 53.649078 -1.386789 36,000 330 439 -128
2019-10-12 15:18:39 GMT 53.643860 -1.381609 36,000 330 440 -128
2019-10-12 15:18:36 GMT 53.640560 -1.378219 36,000 330 439 -128
2019-10-12 15:18:33 GMT 53.635849 -1.373526 36,000 330 439 -64
2019-10-12 15:18:30 GMT 53.629898 -1.367562 36,000 330 441 -64
2019-10-12 15:18:27 GMT 53.625896 -1.363516 36,000 330 441 -64
2019-10-12 15:18:24 GMT 53.618542 -1.356165 36,000 330 440 -64
2019-10-12 15:18:21 GMT 53.614353 -1.351965 36,000 330 441 0
2019-10-12 15:18:18 GMT 53.609299 -1.346924 36,000 330 441 -64
2019-10-12 15:18:15 GMT 53.601929 -1.339547 36,000 330 441 0
2019-10-12 15:18:12 GMT 53.598083 -1.335702 36,000 330 441 0
2019-10-12 15:18:09 GMT 53.593357 -1.330961 36,000 330 441 0
2019-10-12 15:18:06 GMT 53.582558 -1.320056 35,975 330 441 -64
2019-10-12 15:18:00 GMT 53.575378 -1.312866 36,000 330 442 -64
2019-10-12 15:17:57 GMT 53.571854 -1.309335 35,975 330 442 -64
2019-10-12 15:17:54 GMT 53.566589 -1.304077 35,975 330 442 -64
2019-10-12 15:17:51 GMT 53.562057 -1.299526 36,000 330 442 -64
2019-10-12 15:17:48 GMT 53.555229 -1.292671 36,000 330 442 -64
2019-10-12 15:17:45 GMT 53.551369 -1.288793 36,000 330 442 0
2019-10-12 15:17:42 GMT 53.545898 -1.283360 36,000 330 442 0
2019-10-12 15:17:39 GMT 53.540848 -1.278211 36,000 330 442 -64
2019-10-12 15:17:36 GMT 53.533630 -1.271040 35,975 330 444 -64
2019-10-12 15:17:33 GMT 53.529953 -1.267305 35,975 330 444 -64
2019-10-12 15:17:30 GMT 53.523788 -1.261152 35,975 330 444 -128
2019-10-12 15:17:27 GMT 53.519386 -1.256723 35,975 330 444 -64
2019-10-12 15:17:24 GMT 53.512527 -1.249852 36,000 330 444 -64
2019-10-12 15:17:21 GMT 53.507217 -1.244516 35,975 330 444 -64
2019-10-12 15:17:18 GMT 53.503372 -1.240670 36,000 330 444 -128
2019-10-12 15:17:15 GMT 53.497551 -1.234831 36,000 330 456 -64
2019-10-12 15:17:12 GMT 53.493118 -1.230390 35,975 330 446 -64
2019-10-12 15:17:09 GMT 53.486755 -1.224034 35,975 330 446 -64
2019-10-12 15:17:06 GMT 53.480560 -1.217867 36,000 330 446 -64
2019-10-12 15:17:03 GMT 53.477024 -1.214312 35,975 330 446 -64
2019-10-12 15:17:00 GMT 53.471668 -1.209062 36,000 330 447 -64
2019-10-12 15:16:57 GMT 53.464592 -1.201953 36,000 330 447 -64
2019-10-12 15:16:54 GMT 53.459286 -1.196702 36,000 330 447 -64
2019-10-12 15:16:51 GMT 53.454304 -1.191693 36,000 330 447 -64
2019-10-12 15:16:48 GMT 53.450546 -1.188014 36,000 330 448 -64
2019-10-12 15:16:45 GMT 53.443085 -1.180559 36,000 330 449 -64
2019-10-12 15:16:42 GMT 53.438461 -1.175929 36,000 330 449 -64
2019-10-12 15:16:39 GMT 53.429169 -1.166670 35,975 330 449 -64
2019-10-12 15:16:33 GMT 53.423447 -1.161019 35,975 330 451 -128
2019-10-12 15:16:30 GMT 53.417904 -1.155503 36,000 330 450 -192
2019-10-12 15:16:27 GMT 53.413422 -1.151132 35,975 330 450 -64
2019-10-12 15:16:24 GMT 53.407700 -1.145403 35,975 330 450 -128
2019-10-12 15:16:21 GMT 53.402168 -1.139912 35,975 330 455 -128
2019-10-12 15:16:18 GMT 53.396988 -1.134809 36,000 330 451 -64
2019-10-12 15:16:15 GMT 53.385735 -1.123594 36,000 330 451 -128
2019-10-12 15:16:09 GMT 53.373535 -1.111477 35,975 330 451 -64
2019-10-12 15:16:06 GMT 53.373535 -1.111477 36,000 330 451 -64
2019-10-12 15:16:03 GMT 53.368137 -1.106146 35,975 330 451 64
2019-10-12 15:16:00 GMT 53.364552 -1.102591 36,000 330 451 0
2019-10-12 15:15:57 GMT 53.359200 -1.097260 35,975 330 452 0
2019-10-12 15:15:54 GMT 53.352730 -1.090878 35,975 330 452 64
2019-10-12 15:15:51 GMT 53.349842 -1.088050 35,975 330 452 -64
2019-10-12 15:15:48 GMT 53.344299 -1.082467 35,975 330 453 -64
2019-10-12 15:15:45 GMT 53.337646 -1.075933 35,975 330 453 -64
2019-10-12 15:15:42 GMT 53.332245 -1.070602 35,975 330 454 -128
2019-10-12 15:15:39 GMT 53.325943 -1.064340 35,975 330 454 -128
2019-10-12 15:15:35 GMT 53.319256 -1.057757 36,000 330 455 -128
2019-10-12 15:15:32 GMT 53.309326 -1.047939 36,000 330 455 -128
2019-10-12 15:15:29 GMT 53.303879 -1.042603 36,000 330 455 -128
2019-10-12 15:15:26 GMT 53.297565 -1.036350 36,000 330 455 -128
2019-10-12 15:15:23 GMT 53.297565 -1.036350 36,000 330 456 -64
2019-10-12 15:15:20 GMT 53.291374 -1.030211 36,000 330 456 -128
2019-10-12 15:15:17 GMT 53.285751 -1.024711 36,000 330 456 -64
2019-10-12 15:15:14 GMT 53.280716 -1.019688 36,000 330 456 -64
2019-10-12 15:15:11 GMT 53.271973 -1.011056 36,000 330 456 -64
2019-10-12 15:15:05 GMT 53.265793 -1.005014 36,000 330 457 -64
2019-10-12 15:15:02 GMT 53.259293 -0.998579 35,975 330 457 -64
2019-10-12 15:14:59 GMT 53.254738 -0.994101 35,975 330 457 -64
2019-10-12 15:14:56 GMT 53.249496 -0.988926 35,975 330 456 -64
2019-10-12 15:14:53 GMT 53.244049 -0.983512 35,975 330 456 -64
2019-10-12 15:14:50 GMT 53.238235 -0.977783 35,975 330 456 -64
2019-10-12 15:14:47 GMT 53.231323 -0.971034 35,975 330 456 -64
2019-10-12 15:14:44 GMT 53.225685 -0.965504 36,000 330 456 -64
2019-10-12 15:14:41 GMT 53.220287 -0.960092 36,000 330 456 -64
2019-10-12 15:14:38 GMT 53.214840 -0.954760 36,000 330 456 -64
2019-10-12 15:14:35 GMT 53.209766 -0.949752 36,000 330 456 -64
2019-10-12 15:14:32 GMT 53.205597 -0.945687 35,975 330 456 -64
2019-10-12 15:14:29 GMT 53.199619 -0.939735 35,975 330 456 -64
2019-10-12 15:14:26 GMT 53.194336 -0.934623 36,000 330 457 -64
2019-10-12 15:14:23 GMT 53.187653 -0.928022 35,975 330 456 -64
2019-10-12 15:14:20 GMT 53.182209 -0.922690 35,975 330 456 -64
2019-10-12 15:14:17 GMT 53.178204 -0.918732 35,975 330 456 -64
2019-10-12 15:14:14 GMT 53.167511 -0.908255 36,000 330 456 -64
2019-10-12 15:14:08 GMT 53.160419 -0.901364 36,000 330 456 -64
2019-10-12 15:14:05 GMT 53.155884 -0.896877 36,000 330 456 -64
2019-10-12 15:14:02 GMT 53.151123 -0.892325 36,000 330 456 -64
2019-10-12 15:13:59 GMT 53.145676 -0.886989 36,000 330 457 -64
2019-10-12 15:13:56 GMT 53.134048 -0.875610 36,000 330 456 -64
2019-10-12 15:13:53 GMT 53.134048 -0.875610 35,975 330 456 -64
2019-10-12 15:13:50 GMT 53.128601 -0.870274 36,000 330 457 -64
2019-10-12 15:13:47 GMT 53.123318 -0.865093 36,000 330 457 -64
2019-10-12 15:13:44 GMT 53.117870 -0.859761 36,000 330 457 -64
2019-10-12 15:13:41 GMT 53.112797 -0.854833 35,975 330 457 -64
2019-10-12 15:13:38 GMT 53.107353 -0.849502 36,000 330 457 -64
2019-10-12 15:13:35 GMT 53.095551 -0.837943 36,000 330 457 -64
2019-10-12 15:13:32 GMT 53.095551 -0.837943 36,000 330 456 -64
2019-10-12 15:13:29 GMT 53.085022 -0.827637 36,000 330 455 -64
2019-10-12 15:13:26 GMT 53.085022 -0.827637 36,000 330 458 -64
2019-10-12 15:13:23 GMT 53.080490 -0.823190 36,000 330 455 -64
2019-10-12 15:13:20 GMT 53.073929 -0.816833 35,975 330 455 -64
2019-10-12 15:13:17 GMT 53.068680 -0.811691 36,000 330 455 -64
2019-10-12 15:13:14 GMT 53.064152 -0.807260 36,000 330 455 -64
2019-10-12 15:13:11 GMT 53.057419 -0.800705 36,000 330 455 -64
2019-10-12 15:13:08 GMT 53.051971 -0.795364 35,975 330 455 -64
2019-10-12 15:13:05 GMT 53.047440 -0.790937 36,000 330 455 -64
2019-10-12 15:13:02 GMT 53.035995 -0.779800 36,000 330 456 -64
2019-10-12 15:12:59 GMT 53.035995 -0.779800 35,975 330 459 -64
2019-10-12 15:12:56 GMT 53.031281 -0.775146 35,975 330 456 0
2019-10-12 15:12:53 GMT 53.025467 -0.769501 35,975 330 456 -64
2019-10-12 15:12:50 GMT 53.019089 -0.763314 35,975 330 456 -64
2019-10-12 15:12:47 GMT 53.008942 -0.753427 35,975 330 456 -64
2019-10-12 15:12:41 GMT 53.002899 -0.747604 36,000 330 457 -64
2019-10-12 15:12:38 GMT 52.998184 -0.743027 36,000 330 457 -64
2019-10-12 15:12:35 GMT 52.992737 -0.737686 36,000 330 457 -64
2019-10-12 15:12:32 GMT 52.986511 -0.731735 35,975 330 457 -64
2019-10-12 15:12:29 GMT 52.980331 -0.725708 36,000 330 457 -64
2019-10-12 15:12:26 GMT 52.969757 -0.715485 35,975 330 457 -64
2019-10-12 15:12:23 GMT 52.969757 -0.715485 36,000 330 457 -64
2019-10-12 15:12:20 GMT 52.959736 -0.705715 35,975 330 457 -64
2019-10-12 15:12:17 GMT 52.959736 -0.705715 35,975 330 457 -64
2019-10-12 15:12:14 GMT 52.953171 -0.699358 35,975 330 457 -64
2019-10-12 15:12:11 GMT 52.948242 -0.694580 36,000 330 458 -64
2019-10-12 15:12:08 GMT 52.943848 -0.690384 35,975 330 458 -64
2019-10-12 15:12:05 GMT 52.938599 -0.685233 35,975 330 458 -64
2019-10-12 15:12:02 GMT 52.931664 -0.678484 36,000 330 458 -64
2019-10-12 15:11:59 GMT 52.921967 -0.669174 35,975 330 458 -64
2019-10-12 15:11:53 GMT 52.916302 -0.663653 36,000 330 458 -64
2019-10-12 15:11:50 GMT 52.910294 -0.657883 35,975 330 458 -64
2019-10-12 15:11:47 GMT 52.904434 -0.652237 36,000 330 459 -64
2019-10-12 15:11:44 GMT 52.899307 -0.647278 36,000 330 458 -64
2019-10-12 15:11:41 GMT 52.893082 -0.641327 36,000 330 459 -64
2019-10-12 15:11:37 GMT 52.886490 -0.634995 36,000 330 459 -64
2019-10-12 15:11:34 GMT 52.881363 -0.630035 35,975 330 459 -64
2019-10-12 15:11:31 GMT 52.875870 -0.624771 36,000 330 458 -64
2019-10-12 15:11:28 GMT 52.869843 -0.618923 36,000 330 458 -64
2019-10-12 15:11:25 GMT 52.865093 -0.614371 36,000 330 458 -64
2019-10-12 15:11:22 GMT 52.858856 -0.608329 36,000 330 458 -64
2019-10-12 15:11:19 GMT 52.853210 -0.602875 36,000 330 458 -128
2019-10-12 15:11:16 GMT 52.849182 -0.598984 36,000 330 458 -64
2019-10-12 15:11:13 GMT 52.843689 -0.593643 36,000 330 458 -64
2019-10-12 15:11:10 GMT 52.837875 -0.587997 36,000 330 458 -64
2019-10-12 15:11:07 GMT 52.831650 -0.582047 36,000 330 458 -64
2019-10-12 15:11:01 GMT 52.819565 -0.570374 35,975 330 459 -64
2019-10-12 15:10:58 GMT 52.816074 -0.567051 36,000 330 459 -64
2019-10-12 15:10:55 GMT 52.809677 -0.560837 35,975 330 459 0
2019-10-12 15:10:52 GMT 52.804550 -0.555954 35,975 330 459 -64
2019-10-12 15:10:49 GMT 52.799271 -0.550807 35,975 330 459 -64
2019-10-12 15:10:46 GMT 52.788982 -0.540998 35,975 330 458 -64
2019-10-12 15:10:43 GMT 52.788982 -0.540998 35,975 330 459 -64
2019-10-12 15:10:40 GMT 52.781845 -0.534134 35,975 330 459 -64
2019-10-12 15:10:37 GMT 52.777294 -0.529776 36,000 330 458 -64
2019-10-12 15:10:34 GMT 52.770687 -0.523420 36,000 330 458 -64
2019-10-12 15:10:31 GMT 52.765194 -0.518162 36,000 330 458 -64
2019-10-12 15:10:28 GMT 52.754951 -0.508353 35,975 330 458 -64
2019-10-12 15:10:25 GMT 52.754951 -0.508353 35,975 330 458 -64
2019-10-12 15:10:22 GMT 52.749458 -0.503095 36,000 330 458 -64
2019-10-12 15:10:19 GMT 52.742847 -0.496817 36,000 330 459 -64
2019-10-12 15:10:16 GMT 52.738472 -0.492580 35,975 330 458 -64
2019-10-12 15:10:13 GMT 52.727859 -0.482457 35,975 330 458 -64
2019-10-12 15:10:10 GMT 52.727859 -0.482457 35,975 330 458 -64
2019-10-12 15:10:07 GMT 52.720322 -0.475235 36,000 330 458 -64
2019-10-12 15:10:04 GMT 52.714828 -0.469971 35,975 330 459 -64
2019-10-12 15:10:01 GMT 52.710068 -0.465393 36,000 330 458 -64
2019-10-12 15:09:58 GMT 52.700958 -0.456696 36,000 330 458 -64
2019-10-12 15:09:52 GMT 52.690151 -0.446359 36,000 330 457 -64
2019-10-12 15:09:49 GMT 52.690151 -0.446359 36,000 330 456 -64
2019-10-12 15:09:46 GMT 52.684845 -0.441284 36,000 330 456 -64
2019-10-12 15:09:43 GMT 52.678467 -0.435137 36,000 330 457 -64
2019-10-12 15:09:40 GMT 52.667480 -0.424700 36,000 330 457 -64
2019-10-12 15:09:34 GMT 52.661133 -0.418549 36,000 330 457 -64
2019-10-12 15:09:31 GMT 52.656914 -0.414577 36,000 331 456 -64
2019-10-12 15:09:28 GMT 52.650723 -0.408691 36,000 330 456 -64
2019-10-12 15:09:25 GMT 52.643414 -0.401707 36,000 330 456 0
2019-10-12 15:09:22 GMT 52.639408 -0.397862 36,000 331 456 -64
2019-10-12 15:09:19 GMT 52.629730 -0.388641 35,975 331 456 -64
2019-10-12 15:09:13 GMT 52.622650 -0.381932 36,000 331 456 -64
2019-10-12 15:09:10 GMT 52.612244 -0.372086 35,975 331 456 -64
2019-10-12 15:09:07 GMT 52.612244 -0.372086 36,000 330 455 -64
2019-10-12 15:09:04 GMT 52.607895 -0.367889 36,000 330 455 -64
2019-10-12 15:09:01 GMT 52.602261 -0.362549 36,000 330 455 -64
2019-10-12 15:08:58 GMT 52.596588 -0.357208 35,975 330 455 -64
2019-10-12 15:08:55 GMT 52.590408 -0.351334 36,000 330 455 -64
2019-10-12 15:08:52 GMT 52.585129 -0.346305 36,000 330 455 -64
2019-10-12 15:08:49 GMT 52.579514 -0.340958 36,000 330 455 -64
2019-10-12 15:08:46 GMT 52.572792 -0.334534 36,000 331 455 -64
2019-10-12 15:08:43 GMT 52.569305 -0.331268 35,975 330 455 -64
2019-10-12 15:08:40 GMT 52.563858 -0.326080 36,000 330 455 -64
2019-10-12 15:08:37 GMT 52.556034 -0.318682 36,000 331 455 -64
2019-10-12 15:08:34 GMT 52.552597 -0.315399 36,000 330 455 -64
2019-10-12 15:08:31 GMT 52.546581 -0.309736 35,975 330 455 -64
2019-10-12 15:08:28 GMT 52.540764 -0.304164 35,975 330 455 -64
2019-10-12 15:08:25 GMT 52.530197 -0.294198 35,975 330 455 -64
2019-10-12 15:08:22 GMT 52.530197 -0.294198 35,975 331 456 -64
2019-10-12 15:08:19 GMT 52.524902 -0.289154 35,975 331 455 -64
2019-10-12 15:08:13 GMT 52.512691 -0.277640 35,975 331 455 -64
2019-10-12 15:08:10 GMT 52.508366 -0.273560 36,000 331 455 -64
2019-10-12 15:08:06 GMT 52.496677 -0.262573 36,000 331 455 -64
2019-10-12 15:08:03 GMT 52.494690 -0.260620 36,000 331 455 -64
2019-10-12 15:08:00 GMT 52.489742 -0.255981 36,000 331 454 -64
2019-10-12 15:07:57 GMT 52.484295 -0.250881 36,000 331 454 -64
2019-10-12 15:07:54 GMT 52.478104 -0.245074 36,000 331 454 -64
2019-10-12 15:07:51 GMT 52.474686 -0.241776 36,000 331 453 -64
2019-10-12 15:07:48 GMT 52.464325 -0.232047 36,000 331 453 -64
2019-10-12 15:07:42 GMT 52.456558 -0.224686 36,000 331 452 0
2019-10-12 15:07:39 GMT 52.452209 -0.220566 36,000 331 452 -64
2019-10-12 15:07:36 GMT 52.447128 -0.215836 35,975 330 451 -64
2019-10-12 15:07:33 GMT 52.433228 -0.202698 36,000 330 451 -64
2019-10-12 15:07:29 GMT 52.433228 -0.202698 35,975 330 451 -64
2019-10-12 15:07:26 GMT 52.429272 -0.198931 36,000 330 451 -64
2019-10-12 15:07:23 GMT 52.422428 -0.192496 36,000 331 450 -64
2019-10-12 15:07:20 GMT 52.418976 -0.189209 36,000 331 450 -64
2019-10-12 15:07:17 GMT 52.412888 -0.183487 35,975 331 450 -64
2019-10-12 15:07:14 GMT 52.407673 -0.178528 36,000 331 449 -64
2019-10-12 15:07:11 GMT 52.400455 -0.171779 36,000 331 449 -64
2019-10-12 15:07:08 GMT 52.394531 -0.166168 35,975 331 448 -64
2019-10-12 15:07:05 GMT 52.390774 -0.162598 35,975 331 448 -64
2019-10-12 15:07:02 GMT 52.385559 -0.157700 35,975 331 448 -64
2019-10-12 15:06:59 GMT 52.373703 -0.146561 35,975 331 448 -64
2019-10-12 15:06:53 GMT 52.369919 -0.143058 36,000 331 448 -64
2019-10-12 15:06:50 GMT 52.363266 -0.136795 36,000 331 448 -64
2019-10-12 15:06:47 GMT 52.357544 -0.131378 36,000 331 448 -64
2019-10-12 15:06:44 GMT 52.354137 -0.128148 36,000 331 448 -64
2019-10-12 15:06:41 GMT 52.347294 -0.121713 36,000 331 448 -64
2019-10-12 15:06:38 GMT 52.342636 -0.117397 36,000 331 448 -64
2019-10-12 15:06:35 GMT 52.336716 -0.111771 36,000 331 448 -64
2019-10-12 15:06:32 GMT 52.332413 -0.107727 36,000 331 448 -64
2019-10-12 15:06:29 GMT 52.325958 -0.101624 36,000 331 448 0
2019-10-12 15:06:26 GMT 52.314468 -0.090866 36,000 331 448 -64
2019-10-12 15:06:23 GMT 52.314468 -0.090866 35,975 331 448 -64
2019-10-12 15:06:20 GMT 52.309433 -0.086136 35,975 331 449 0
2019-10-12 15:06:17 GMT 52.305676 -0.082633 36,000 331 448 -64
2019-10-12 15:06:14 GMT 52.299728 -0.077057 35,975 331 449 0
2019-10-12 15:06:11 GMT 52.294876 -0.072510 35,975 331 449 0
2019-10-12 15:06:08 GMT 52.287827 -0.065918 36,000 331 449 -64
2019-10-12 15:06:05 GMT 52.282791 -0.061264 35,975 331 450 -64
2019-10-12 15:06:02 GMT 52.277390 -0.056229 35,975 331 450 -64
2019-10-12 15:05:59 GMT 52.271461 -0.050694 36,000 331 450 -64
2019-10-12 15:05:56 GMT 52.266220 -0.045776 36,000 331 450 -64
2019-10-12 15:05:53 GMT 52.261871 -0.041733 36,000 331 450 -64
2019-10-12 15:05:50 GMT 52.255737 -0.036011 36,000 331 450 -128
2019-10-12 15:05:47 GMT 52.251068 -0.031662 36,000 331 450 -64
2019-10-12 15:05:44 GMT 52.244568 -0.025558 36,000 331 450 0
2019-10-12 15:05:41 GMT 52.239120 -0.020523 35,975 331 450 0
2019-10-12 15:05:38 GMT 52.233891 -0.015616 35,975 331 451 -64
2019-10-12 15:05:35 GMT 52.229565 -0.011536 35,950 331 451 64
2019-10-12 15:05:32 GMT 52.223236 -0.005646 35,975 331 451 -64
2019-10-12 15:05:29 GMT 52.218018 -0.000785 36,000 331 451 -64
2019-10-12 15:05:26 GMT 52.205887 0.010529 36,000 331 451 64
2019-10-12 15:05:23 GMT 52.205887 0.010529 35,975 331 451 0
2019-10-12 15:05:20 GMT 52.201584 0.014572 36,000 331 451 0
2019-10-12 15:05:17 GMT 52.195580 0.020168 36,000 331 451 0
2019-10-12 15:05:14 GMT 52.191788 0.023727 35,975 331 451 64
2019-10-12 15:05:11 GMT 52.185287 0.029755 35,975 331 451 -64
2019-10-12 15:05:08 GMT 52.177841 0.036726 35,975 331 451 -64
2019-10-12 15:05:05 GMT 52.174393 0.039902 35,975 331 453 64
2019-10-12 15:05:02 GMT 52.170044 0.043945 35,975 331 453 -64
2019-10-12 15:04:59 GMT 52.163692 0.049831 36,000 331 453 -64
2019-10-12 15:04:55 GMT 52.153496 0.059326 35,975 331 455 0
2019-10-12 15:04:52 GMT 52.150192 0.062387 35,975 331 458 -128
2019-10-12 15:04:49 GMT 52.146931 0.065447 36,000 331 455 -64
2019-10-12 15:04:46 GMT 52.134830 0.076669 35,975 331 457 -64
2019-10-12 15:04:43 GMT 52.134830 0.076669 36,000 331 457 -128
2019-10-12 15:04:40 GMT 52.129166 0.081940 35,975 331 459 -64
2019-10-12 15:04:37 GMT 52.124214 0.086557 36,000 331 462 -64
2019-10-12 15:04:34 GMT 52.119049 0.091265 36,025 331 459 -128
2019-10-12 15:04:31 GMT 52.111691 0.098092 35,975 331 460 -64
2019-10-12 15:04:28 GMT 52.107788 0.101700 36,000 331 460 -128
2019-10-12 15:04:25 GMT 52.100372 0.108490 36,000 331 462 -128
2019-10-12 15:04:22 GMT 52.095772 0.112767 35,975 331 462 -64
2019-10-12 15:04:19 GMT 52.089069 0.118966 35,975 331 463 -64
2019-10-12 15:04:16 GMT 52.084808 0.122910 35,975 331 463 -128
2019-10-12 15:04:13 GMT 52.080322 0.127029 36,000 331 462 -64
2019-10-12 15:04:10 GMT 52.067368 0.139008 35,975 331 463 -64
2019-10-12 15:04:07 GMT 52.067368 0.139008 35,975 331 462 0
2019-10-12 15:04:04 GMT 52.062881 0.143127 36,000 331 460 -128
2019-10-12 15:04:01 GMT 52.056244 0.149307 35,950 331 462 -64
2019-10-12 15:03:58 GMT 52.052338 0.152945 35,975 331 462 -64
2019-10-12 15:03:55 GMT 52.040466 0.163853 36,000 331 460 -64
2019-10-12 15:03:52 GMT 52.040466 0.163853 35,975 331 460 -64
2019-10-12 15:03:49 GMT 52.033997 0.169830 36,000 331 460 -64
2019-10-12 15:03:46 GMT 52.030132 0.173427 36,000 331 460 -64
2019-10-12 15:03:43 GMT 52.024017 0.179062 36,000 331 460 -128
2019-10-12 15:03:40 GMT 52.017014 0.185547 36,000 331 460 -64
2019-10-12 15:03:37 GMT 52.013672 0.188675 35,975 331 460 -64
2019-10-12 15:03:34 GMT 52.006859 0.195007 36,000 331 461 -64
2019-10-12 15:03:31 GMT 52.001690 0.199716 36,000 331 461 -64
2019-10-12 15:03:28 GMT 51.995956 0.205002 36,000 331 461 -64
2019-10-12 15:03:24 GMT 51.983582 0.216431 35,975 331 461 -64
2019-10-12 15:03:21 GMT 51.983582 0.216431 36,000 331 461 -64
2019-10-12 15:03:18 GMT 51.975998 0.223465 35,975 331 461 -64
2019-10-12 15:03:15 GMT 51.973198 0.226004 36,000 331 461 -64
2019-10-12 15:03:12 GMT 51.966541 0.232125 36,000 331 461 -64
2019-10-12 15:03:09 GMT 51.959141 0.238953 36,000 331 461 -64
2019-10-12 15:03:06 GMT 51.953018 0.244598 36,000 331 461 -64
2019-10-12 15:03:03 GMT 51.950455 0.246964 36,000 331 461 -64
2019-10-12 15:03:00 GMT 51.938599 0.257874 36,000 331 461 -64
2019-10-12 15:02:57 GMT 51.938599 0.257874 35,975 331 461 0
2019-10-12 15:02:54 GMT 51.932514 0.263436 35,975 331 463 -64
2019-10-12 15:02:51 GMT 51.927521 0.268097 36,000 331 461 -64
2019-10-12 15:02:48 GMT 51.921761 0.273324 35,975 331 461 0
2019-10-12 15:02:45 GMT 51.916397 0.278244 36,000 331 461 -64
2019-10-12 15:02:42 GMT 51.911751 0.282506 35,975 331 462 0
2019-10-12 15:02:39 GMT 51.906372 0.287476 35,975 331 463 -64
2019-10-12 15:02:36 GMT 51.900623 0.292707 35,975 331 462 -64
2019-10-12 15:02:33 GMT 51.894150 0.298691 35,975 331 463 0
2019-10-12 15:02:30 GMT 51.889297 0.303089 36,000 331 463 -64
2019-10-12 15:02:27 GMT 51.882423 0.309372 36,000 331 463 -64
2019-10-12 15:02:23 GMT 51.875153 0.316080 35,975 331 465 -64
2019-10-12 15:02:20 GMT 51.870300 0.320459 35,975 331 465 -64
2019-10-12 15:02:17 GMT 51.863937 0.326324 36,000 331 465 -64
2019-10-12 15:02:14 GMT 51.859238 0.330582 35,975 331 466 -64
2019-10-12 15:02:11 GMT 51.852676 0.336568 35,975 331 467 -64
2019-10-12 15:02:08 GMT 51.847229 0.341492 35,975 331 467 -64
2019-10-12 15:02:05 GMT 51.837502 0.350418 35,975 331 467 -64
2019-10-12 15:02:02 GMT 51.831448 0.355911 35,975 331 468 -64
2019-10-12 15:01:59 GMT 51.831448 0.355911 35,975 331 469 -64
2019-10-12 15:01:56 GMT 51.824524 0.362326 36,000 331 469 -64
2019-10-12 15:01:53 GMT 51.819992 0.366409 36,000 331 469 -64
2019-10-12 15:01:50 GMT 51.812222 0.373459 35,975 331 469 -64
2019-10-12 15:01:47 GMT 51.807335 0.377884 36,000 331 470 -128
2019-10-12 15:01:44 GMT 51.800720 0.383853 35,975 331 470 -128
2019-10-12 15:01:41 GMT 51.796921 0.387268 35,975 331 469 -64
2019-10-12 15:01:38 GMT 51.790668 0.392990 36,000 330 467 -64
2019-10-12 15:01:35 GMT 51.785084 0.398178 36,000 330 468 -64
2019-10-12 15:01:32 GMT 51.779663 0.403228 36,000 330 467 -64
2019-10-12 15:01:29 GMT 51.769638 0.412878 36,000 329 465 0
2019-10-12 15:01:23 GMT 51.757011 0.425339 36,000 329 465 0
2019-10-12 15:01:20 GMT 51.757011 0.425339 36,000 328 463 -64
2019-10-12 15:01:17 GMT 51.751610 0.430908 35,975 328 462 0
2019-10-12 15:01:14 GMT 51.746017 0.436632 36,000 328 462 -64
2019-10-12 15:01:11 GMT 51.743370 0.439453 35,975 327 460 0
2019-10-12 15:01:08 GMT 51.735352 0.447916 35,975 327 460 -64
2019-10-12 15:01:05 GMT 51.731140 0.452518 35,975 326 458 -64
2019-10-12 15:01:02 GMT 51.724457 0.459793 35,975 326 457 -64
2019-10-12 15:00:59 GMT 51.720291 0.464395 35,975 326 457 -64
2019-10-12 15:00:56 GMT 51.714928 0.470428 35,975 325 455 -64
2019-10-12 15:00:53 GMT 51.708408 0.477905 36,000 325 456 -64
2019-10-12 15:00:50 GMT 51.705666 0.481033 36,000 325 455 -64
2019-10-12 15:00:47 GMT 51.699417 0.488446 36,000 324 454 -64
2019-10-12 15:00:44 GMT 51.690487 0.499115 35,975 324 454 0
2019-10-12 15:00:41 GMT 51.690487 0.499115 35,975 323 454 -64
2019-10-12 15:00:38 GMT 51.684631 0.506262 36,000 323 454 -64
2019-10-12 15:00:35 GMT 51.678802 0.513382 36,000 323 454 -64
2019-10-12 15:00:32 GMT 51.675293 0.517694 35,975 323 454 0
2019-10-12 15:00:29 GMT 51.669617 0.524597 36,000 323 454 -64
2019-10-12 15:00:26 GMT 51.664745 0.530472 36,000 323 454 0
2019-10-12 15:00:23 GMT 51.658264 0.538404 36,000 323 454 0
2019-10-12 15:00:20 GMT 51.653549 0.544120 36,000 323 454 -64
2019-10-12 15:00:17 GMT 51.648239 0.550653 35,975 323 453 0
2019-10-12 15:00:14 GMT 51.644211 0.555478 36,000 323 453 -64
2019-10-12 15:00:11 GMT 51.634232 0.567726 36,000 323 453 -64
2019-10-12 15:00:08 GMT 51.634232 0.567726 35,975 323 453 -64
2019-10-12 15:00:05 GMT 51.629040 0.574036 36,000 323 454 -64
2019-10-12 15:00:02 GMT 51.624058 0.580139 36,000 323 454 -128
2019-10-12 14:59:59 GMT 51.620544 0.584428 36,000 323 454 -64
2019-10-12 14:59:56 GMT 51.615398 0.590744 35,975 323 454 -64
2019-10-12 14:59:53 GMT 51.608505 0.599052 35,975 323 454 -64
2019-10-12 14:59:50 GMT 51.602646 0.606155 36,000 323 455 0
2019-10-12 14:59:47 GMT 51.600315 0.609055 36,000 323 455 -64
2019-10-12 14:59:44 GMT 51.594265 0.616379 36,000 323 455 0
2019-10-12 14:59:41 GMT 51.589283 0.622482 36,000 323 454 -64
2019-10-12 14:59:38 GMT 51.584255 0.628586 36,000 323 455 -64
2019-10-12 14:59:35 GMT 51.579880 0.633850 36,000 323 454 -128
2019-10-12 14:59:32 GMT 51.567543 0.648956 36,000 323 454 -64
2019-10-12 14:59:29 GMT 51.567543 0.648956 36,000 323 454 -64
2019-10-12 14:59:26 GMT 51.564190 0.653000 35,975 323 454 -64
2019-10-12 14:59:23 GMT 51.559162 0.659027 36,000 324 457 0
2019-10-12 14:59:20 GMT 51.554306 0.664896 35,975 323 453 -64
2019-10-12 14:59:17 GMT 51.548782 0.671616 35,975 323 454 -64
2019-10-12 14:59:14 GMT 51.544781 0.676498 35,975 323 453 -64
2019-10-12 14:59:11 GMT 51.533615 0.690060 36,000 323 453 -64
2019-10-12 14:59:08 GMT 51.530113 0.694275 36,000 323 452 -64
2019-10-12 14:59:02 GMT 51.524109 0.701599 35,975 323 452 -64
2019-10-12 14:58:59 GMT 51.519608 0.707059 36,000 323 452 -64
2019-10-12 14:58:56 GMT 51.513451 0.714493 36,000 323 453 -64
2019-10-12 14:58:53 GMT 51.509949 0.718714 35,975 324 452 -64
2019-10-12 14:58:50 GMT 51.504791 0.725021 35,975 324 452 -64
2019-10-12 14:58:47 GMT 51.499111 0.731812 36,000 323 452 -64
2019-10-12 14:58:44 GMT 51.494083 0.737915 36,000 323 452 -64
2019-10-12 14:58:41 GMT 51.489754 0.743103 36,000 323 452 -64
2019-10-12 14:58:38 GMT 51.484772 0.749207 36,000 323 452 -64
2019-10-12 14:58:35 GMT 51.477264 0.758279 36,000 323 453 -64
2019-10-12 14:58:32 GMT 51.473236 0.763104 36,000 323 453 -64
2019-10-12 14:58:29 GMT 51.469894 0.767187 35,975 323 453 -64
2019-10-12 14:58:26 GMT 51.465034 0.773010 35,975 324 456 -64
2019-10-12 14:58:23 GMT 51.458378 0.781097 35,975 323 454 0
2019-10-12 14:58:20 GMT 51.454834 0.785300 35,975 323 454 0
2019-10-12 14:58:17 GMT 51.447998 0.793610 36,000 323 454 -64
2019-10-12 14:58:14 GMT 51.442970 0.799713 36,000 324 455 -64
2019-10-12 14:58:11 GMT 51.438400 0.805120 35,975 324 456 -64
2019-10-12 14:58:08 GMT 51.434372 0.810019 35,975 324 455 -64
2019-10-12 14:58:05 GMT 51.425629 0.820486 35,975 324 458 -64
2019-10-12 14:57:59 GMT 51.419220 0.828206 36,000 324 457 -64
2019-10-12 14:57:56 GMT 51.414341 0.834045 36,000 324 457 -64
2019-10-12 14:57:53 GMT 51.407410 0.842384 36,000 324 457 0
2019-10-12 14:57:50 GMT 51.402328 0.848471 35,975 324 459 0
2019-10-12 14:57:47 GMT 51.398140 0.853500 35,975 324 458 -64
2019-10-12 14:57:41 GMT 51.388779 0.864654 36,000 324 459 -64
2019-10-12 14:57:38 GMT 51.382500 0.872192 36,000 324 460 -64
2019-10-12 14:57:35 GMT 51.378250 0.877273 35,975 324 460 -64
2019-10-12 14:57:32 GMT 51.373810 0.882544 35,975 324 461 -128
2019-10-12 14:57:29 GMT 51.369232 0.888062 35,975 324 462 -64
2019-10-12 14:57:26 GMT 51.363735 0.894623 35,975 324 463 -128
2019-10-12 14:57:23 GMT 51.358109 0.901324 36,000 324 466 -64
2019-10-12 14:57:20 GMT 51.352615 0.907931 35,975 324 463 -64
2019-10-12 14:57:17 GMT 51.346977 0.914688 35,975 324 464 -128
2019-10-12 14:57:14 GMT 51.341114 0.921631 36,000 324 464 -128
2019-10-12 14:57:11 GMT 51.338562 0.924782 35,975 323 464 -128
2019-10-12 14:57:08 GMT 51.331898 0.932770 36,000 324 465 -64
2019-10-12 14:57:05 GMT 51.327427 0.938110 36,000 324 465 -64
2019-10-12 14:57:02 GMT 51.321560 0.945129 35,975 324 466 -64
2019-10-12 14:56:59 GMT 51.316067 0.951691 35,975 324 466 -64
2019-10-12 14:56:56 GMT 51.311050 0.957666 35,975 324 466 -64
2019-10-12 14:56:52 GMT 51.304012 0.966110 35,975 324 466 -64
2019-10-12 14:56:49 GMT 51.299870 0.971069 35,975 324 466 -64
2019-10-12 14:56:46 GMT 51.294891 0.977115 36,000 324 467 -64
2019-10-12 14:56:43 GMT 51.290085 0.982905 35,975 324 467 -64
2019-10-12 14:56:40 GMT 51.283714 0.990524 35,975 324 467 -64
2019-10-12 14:56:37 GMT 51.275799 0.999985 36,000 324 466 -64
2019-10-12 14:56:34 GMT 51.272682 1.003723 36,000 324 467 -64
2019-10-12 14:56:31 GMT 51.269073 1.008070 35,975 324 467 -64
2019-10-12 14:56:28 GMT 51.263535 1.014676 35,975 324 469 -64
2019-10-12 14:56:25 GMT 51.257675 1.021654 36,000 324 467 -64
2019-10-12 14:56:21 GMT 51.250244 1.030502 36,000 324 468 -64
2019-10-12 14:56:18 GMT 51.246597 1.034868 35,975 324 468 -64
2019-10-12 14:56:15 GMT 51.241585 1.040802 36,000 324 468 -64
2019-10-12 14:56:12 GMT 51.234650 1.049042 36,000 324 468 -64
2019-10-12 14:56:09 GMT 51.231720 1.052609 35,975 324 467 -64
2019-10-12 14:56:06 GMT 51.224964 1.060638 36,000 323 468 -64
2019-10-12 14:56:03 GMT 51.214783 1.072874 36,000 324 469 -64
2019-10-12 14:56:00 GMT 51.214783 1.072874 36,000 324 469 -64
2019-10-12 14:55:57 GMT 51.209290 1.079555 36,000 324 469 -64
2019-10-12 14:55:54 GMT 51.205971 1.083450 36,000 324 469 -128
2019-10-12 14:55:51 GMT 51.199539 1.091061 35,975 324 469 0
2019-10-12 14:55:48 GMT 51.196060 1.095218 36,000 324 469 -64
2019-10-12 14:55:45 GMT 51.184418 1.109009 36,000 324 469 -64
2019-10-12 14:55:42 GMT 51.178833 1.115570 36,000 324 469 -64
2019-10-12 14:55:39 GMT 51.178833 1.115570 35,975 324 469 -64
2019-10-12 14:55:36 GMT 51.168274 1.128103 36,000 324 468 0
2019-10-12 14:55:33 GMT 51.168274 1.128103 36,000 324 468 64
2019-10-12 14:55:30 GMT 51.161316 1.136343 35,975 324 468 -64
2019-10-12 14:55:27 GMT 51.158024 1.140289 35,975 324 468 -64
2019-10-12 14:55:24 GMT 51.152985 1.146215 35,975 324 468 0
2019-10-12 14:55:21 GMT 51.142227 1.158909 36,000 324 468 0
2019-10-12 14:55:15 GMT 51.137741 1.164254 36,000 324 470 -64
2019-10-12 14:55:12 GMT 51.131626 1.171417 35,975 324 468 -64
2019-10-12 14:55:09 GMT 51.125389 1.178818 35,975 324 471 -64
2019-10-12 14:55:06 GMT 51.122086 1.182738 36,000 324 469 -64
2019-10-12 14:55:03 GMT 51.115986 1.189880 35,975 324 469 -64
2019-10-12 14:55:00 GMT 51.110596 1.196248 36,000 324 470 -64
2019-10-12 14:54:57 GMT 51.104488 1.203461 35,975 324 471 -64
2019-10-12 14:54:54 GMT 51.099426 1.209387 35,975 324 471 0
2019-10-12 14:54:51 GMT 51.093842 1.215994 36,000 324 470 -64
2019-10-12 14:54:48 GMT 51.089676 1.220967 36,000 324 470 -64
2019-10-12 14:54:45 GMT 51.080093 1.232300 35,975 324 471 -64
2019-10-12 14:54:39 GMT 51.071503 1.242420 35,975 324 471 -64
2019-10-12 14:54:35 GMT 51.066605 1.248136 35,975 324 471 -64
2019-10-12 14:54:32 GMT 51.061386 1.254371 35,975 324 471 -64
2019-10-12 14:54:29 GMT 51.055237 1.261520 35,975 324 472 -64
2019-10-12 14:54:26 GMT 51.049976 1.267700 36,000 324 472 -128
2019-10-12 14:54:23 GMT 51.045086 1.273422 35,975 324 472 -64
2019-10-12 14:54:20 GMT 51.040329 1.279016 36,000 324 472 -128
2019-10-12 14:54:17 GMT 51.035065 1.285178 36,000 324 472 -128
2019-10-12 14:54:14 GMT 51.030533 1.290522 36,000 324 472 -128
2019-10-12 14:54:11 GMT 51.024582 1.297574 36,000 324 472 -64
2019-10-12 14:54:08 GMT 51.020370 1.302474 35,975 324 472 -64
2019-10-12 14:54:05 GMT 51.014099 1.309971 36,000 324 473 -64
2019-10-12 14:54:02 GMT 51.010406 1.314316 36,000 324 472 -64
2019-10-12 14:53:59 GMT 51.002518 1.323556 36,000 324 471 -64
2019-10-12 14:53:56 GMT 50.997463 1.329575 36,000 324 471 -64
2019-10-12 14:53:53 GMT 50.987137 1.341668 36,000 324 472 -64
2019-10-12 14:53:50 GMT 50.987137 1.341668 36,000 324 471 -64
2019-10-12 14:53:47 GMT 50.981873 1.347829 36,000 324 470 -64
2019-10-12 14:53:44 GMT 50.976467 1.354218 35,975 324 471 0
2019-10-12 14:53:41 GMT 50.972977 1.358337 36,000 324 471 -64
2019-10-12 14:53:38 GMT 50.967716 1.364517 36,000 324 471 -64
2019-10-12 14:53:35 GMT 50.960735 1.372757 36,000 324 470 -64
2019-10-12 14:53:32 GMT 50.950634 1.384659 35,975 324 470 -64
2019-10-12 14:53:29 GMT 50.950634 1.384659 35,975 324 470 -64
2019-10-12 14:53:26 GMT 50.946770 1.389160 35,975 324 470 -64
2019-10-12 14:53:23 GMT 50.941879 1.394882 36,000 324 470 -64
2019-10-12 14:53:20 GMT 50.935776 1.402019 35,975 324 470 -64
2019-10-12 14:53:17 GMT 50.931454 1.407166 35,975 324 470 -64
2019-10-12 14:53:14 GMT 50.927078 1.412263 35,975 324 470 -64
2019-10-12 14:53:11 GMT 50.914856 1.426515 36,000 324 470 -64
2019-10-12 14:53:08 GMT 50.914856 1.426515 36,000 324 470 -64
2019-10-12 14:53:05 GMT 50.908585 1.433864 35,975 324 469 -64
2019-10-12 14:53:02 GMT 50.904739 1.438392 36,000 324 469 -64
2019-10-12 14:52:59 GMT 50.900208 1.443663 36,000 324 469 -64
2019-10-12 14:52:56 GMT 50.888718 1.457173 36,000 324 469 -64
2019-10-12 14:52:53 GMT 50.888718 1.457173 36,000 324 469 -64
2019-10-12 14:52:50 GMT 50.877686 1.469955 36,000 324 470 -64
2019-10-12 14:52:47 GMT 50.877686 1.469955 36,000 324 470 0
2019-10-12 14:52:44 GMT 50.874023 1.474246 36,000 324 470 0
2019-10-12 14:52:41 GMT 50.868237 1.480942 36,000 324 470 0
2019-10-12 14:52:38 GMT 50.858135 1.492767 35,975 324 470 0
2019-10-12 14:52:35 GMT 50.852875 1.498871 35,975 324 470 0
2019-10-12 14:52:32 GMT 50.846741 1.506018 35,975 324 470 -64
2019-10-12 14:52:29 GMT 50.846741 1.506018 35,975 324 470 -64
2019-10-12 14:52:26 GMT 50.841476 1.512105 35,975 324 470 0
2019-10-12 14:52:23 GMT 50.835205 1.519454 35,975 324 471 -64
2019-10-12 14:52:20 GMT 50.830627 1.524724 36,000 324 471 -128
2019-10-12 14:52:17 GMT 50.825729 1.530440 35,975 324 471 -64
2019-10-12 14:52:14 GMT 50.815201 1.542688 36,000 324 471 -64
2019-10-12 14:52:11 GMT 50.815201 1.542688 36,000 324 472 -64
2019-10-12 14:52:08 GMT 50.809570 1.549221 35,975 324 472 -64
2019-10-12 14:52:05 GMT 50.804134 1.555481 35,975 324 472 -64
2019-10-12 14:52:01 GMT 50.793777 1.567556 35,975 324 472 -64
2019-10-12 14:51:58 GMT 50.793777 1.567556 35,975 324 472 -64
2019-10-12 14:51:55 GMT 50.786583 1.575851 36,000 324 472 -64
2019-10-12 14:51:52 GMT 50.782883 1.580175 36,000 324 472 -64
2019-10-12 14:51:49 GMT 50.776016 1.588058 36,000 324 471 -64
2019-10-12 14:51:46 GMT 50.771080 1.593781 36,000 324 472 -64
2019-10-12 14:51:43 GMT 50.759815 1.606827 36,000 324 471 -64
2019-10-12 14:51:40 GMT 50.755463 1.611872 35,975 324 472 -64
2019-10-12 14:51:37 GMT 50.755463 1.611872 36,000 324 472 -64
2019-10-12 14:51:34 GMT 50.744408 1.624680 36,000 324 471 -64
2019-10-12 14:51:31 GMT 50.744408 1.624680 36,000 324 471 -64
2019-10-12 14:51:28 GMT 50.738983 1.630950 36,000 324 471 -64
2019-10-12 14:51:25 GMT 50.734406 1.636295 36,000 324 471 -64
2019-10-12 14:51:21 GMT 50.727768 1.643941 36,000 324 470 -64
2019-10-12 14:51:18 GMT 50.722504 1.650028 36,000 324 470 -64
2019-10-12 14:51:15 GMT 50.716381 1.657104 36,000 324 470 0
2019-10-12 14:51:12 GMT 50.713589 1.660385 35,975 324 470 0
2019-10-12 14:51:09 GMT 50.705704 1.669476 35,975 324 470 0
2019-10-12 14:51:06 GMT 50.701347 1.674500 35,975 324 470 0
2019-10-12 14:51:03 GMT 50.694534 1.682393 35,975 324 470 0
2019-10-12 14:51:00 GMT 50.684914 1.693497 36,000 324 469 0
2019-10-12 14:50:57 GMT 50.684914 1.693497 36,000 324 470 -64
2019-10-12 14:50:54 GMT 50.680721 1.698380 35,975 324 469 -64
2019-10-12 14:50:51 GMT 50.676727 1.702955 36,000 324 470 0
2019-10-12 14:50:48 GMT 50.670776 1.709820 36,000 324 470 0
2019-10-12 14:50:44 GMT 50.663773 1.717915 35,975 324 470 0
2019-10-12 14:50:41 GMT 50.651722 1.731831 35,975 324 470 -64
2019-10-12 14:50:38 GMT 50.651722 1.731831 35,975 324 470 0
2019-10-12 14:50:34 GMT 50.644547 1.740104 35,975 324 467 -64
2019-10-12 14:50:31 GMT 50.639282 1.746176 35,975 324 470 -64
2019-10-12 14:50:28 GMT 50.635757 1.750223 35,975 324 470 -64
2019-10-12 14:50:25 GMT 50.629807 1.757017 35,975 324 470 -64
2019-10-12 14:50:22 GMT 50.625465 1.762118 36,000 324 470 -64
2019-10-12 14:50:18 GMT 50.618435 1.770135 36,000 324 470 -64
2019-10-12 14:50:15 GMT 50.611633 1.778050 36,000 324 470 -64
2019-10-12 14:50:12 GMT 50.607056 1.783255 35,975 324 470 -64
2019-10-12 14:50:09 GMT 50.600933 1.790326 35,975 324 470 -64
2019-10-12 14:50:06 GMT 50.596371 1.795597 35,975 324 470 -64
2019-10-12 14:50:03 GMT 50.584454 1.809255 36,000 324 470 -64
2019-10-12 14:50:00 GMT 50.584454 1.809255 35,975 324 470 -64
2019-10-12 14:49:54 GMT 50.575516 1.819611 35,975 324 470 -64
2019-10-12 14:49:51 GMT 50.568718 1.827442 36,000 324 470 -64
2019-10-12 14:49:47 GMT 50.562561 1.834500 35,975 324 470 -64
2019-10-12 14:49:44 GMT 50.558350 1.839343 35,975 324 470 -64
2019-10-12 14:49:41 GMT 50.553452 1.844980 35,975 324 467 -64
2019-10-12 14:49:37 GMT 50.545441 1.854304 35,975 324 469 -64
2019-10-12 14:49:31 GMT 50.528824 1.873392 36,000 324 469 -64
2019-10-12 14:49:28 GMT 50.528824 1.873392 36,000 324 469 -64
2019-10-12 14:49:24 GMT 50.523056 1.880108 36,000 324 469 -64
2019-10-12 14:49:20 GMT 50.516098 1.888131 36,000 324 468 -64
2019-10-12 14:49:17 GMT 50.509140 1.896154 36,000 324 468 0
2019-10-12 14:49:14 GMT 50.505661 1.900201 36,000 324 468 0
2019-10-12 14:49:11 GMT 50.495224 1.912272 35,975 324 468 -64
2019-10-12 14:49:08 GMT 50.490692 1.917476 35,975 324 467 -64
2019-10-12 14:49:05 GMT 50.490692 1.917476 35,975 324 468 -64
2019-10-12 14:49:02 GMT 50.483414 1.925932 36,000 324 467 -64
2019-10-12 14:48:59 GMT 50.480083 1.929734 35,975 324 467 -64
2019-10-12 14:48:55 GMT 50.466209 1.945842 36,000 324 467 -64
2019-10-12 14:48:49 GMT 50.461853 1.950868 35,975 324 467 -64
2019-10-12 14:48:43 GMT 50.450523 1.963880 36,000 324 467 -64
2019-10-12 14:48:40 GMT 50.447079 1.967889 36,000 324 467 -64
2019-10-12 14:48:37 GMT 50.441666 1.974070 36,000 324 468 -64
2019-10-12 14:48:34 GMT 50.436447 1.980069 36,000 324 468 -64
2019-10-12 14:48:31 GMT 50.431389 1.985853 35,975 325 470 -64
2019-10-12 14:48:28 GMT 50.425278 1.992862 35,975 325 470 -64
2019-10-12 14:48:25 GMT 50.419147 1.999883 35,975 326 471 -64
2019-10-12 14:48:22 GMT 50.415653 2.003817 36,000 325 469 -64
2019-10-12 14:48:19 GMT 50.408997 2.011389 36,000 326 470 -64
2019-10-12 14:48:16 GMT 50.404587 2.016353 36,000 325 470 -64
2019-10-12 14:48:13 GMT 50.399643 2.021918 35,975 325 469 -64
2019-10-12 14:48:10 GMT 50.393822 2.028388 36,000 325 470 -64
2019-10-12 14:48:06 GMT 50.386505 2.036374 36,000 326 470 -64
2019-10-12 14:48:03 GMT 50.382935 2.040204 35,975 326 471 0
2019-10-12 14:48:00 GMT 50.377167 2.046348 36,000 326 471 -64
2019-10-12 14:47:57 GMT 50.370872 2.053033 36,000 326 471 -64
2019-10-12 14:47:53 GMT 50.364578 2.059792 35,975 326 471 -64
2019-10-12 14:47:50 GMT 50.359047 2.065727 36,000 326 470 0
2019-10-12 14:47:47 GMT 50.353867 2.071357 35,975 325 470 0
2019-10-12 14:47:44 GMT 50.346725 2.079090 35,975 325 470 0
2019-10-12 14:47:41 GMT 50.340519 2.085918 35,975 325 470 0
2019-10-12 14:47:38 GMT 50.334141 2.093044 35,975 325 470 0
2019-10-12 14:47:34 GMT 50.330795 2.096799 35,975 325 470 0
2019-10-12 14:47:31 GMT 50.324432 2.103882 36,000 324 470 0
2019-10-12 14:47:28 GMT 50.319489 2.109447 35,975 324 470 -64
2019-10-12 14:47:25 GMT 50.307266 2.123542 35,975 324 470 -64
2019-10-12 14:47:21 GMT 50.307266 2.123542 35,975 322 471 -64
2019-10-12 14:47:18 GMT 50.300262 2.131637 35,975 324 470 -64
2019-10-12 14:47:15 GMT 50.295921 2.136692 35,975 323 470 -64
2019-10-12 14:47:12 GMT 50.290558 2.143057 36,000 322 470 -64
2019-10-12 14:47:09 GMT 50.286072 2.148405 36,000 323 470 -64
2019-10-12 14:47:02 GMT 50.269867 2.167848 36,000 321 469 -64
2019-10-12 14:46:59 GMT 50.269867 2.167848 36,000 322 470 -64
2019-10-12 14:46:56 GMT 50.263367 2.175799 36,000 322 471 -64
2019-10-12 14:46:52 GMT 50.256027 2.184869 36,000 322 471 -64
2019-10-12 14:46:48 GMT 50.251099 2.190977 35,975 321 469 -64
2019-10-12 14:46:45 GMT 50.244324 2.199434 36,000 322 470 -64
2019-10-12 14:46:41 GMT 50.238430 2.206916 36,000 321 470 -64
2019-10-12 14:46:37 GMT 50.225510 2.223430 35,975 321 469 -64
2019-10-12 14:46:34 GMT 50.220695 2.229705 35,975 320 470 -64
2019-10-12 14:46:31 GMT 50.220695 2.229705 36,000 321 469 -64
2019-10-12 14:46:28 GMT 50.216171 2.235501 35,975 321 469 -64
2019-10-12 14:46:25 GMT 50.212036 2.240988 36,000 320 468 -64
2019-10-12 14:46:22 GMT 50.205097 2.250119 36,000 320 468 -64
2019-10-12 14:46:17 GMT 50.199326 2.257763 36,000 320 468 -64
2019-10-12 14:46:14 GMT 50.193928 2.264965 36,000 320 468 -64
2019-10-12 14:46:11 GMT 50.184383 2.277733 35,975 320 468 -64
2019-10-12 14:46:05 GMT 50.178955 2.284939 35,975 320 468 -64
2019-10-12 14:46:00 GMT 50.168926 2.298295 35,975 320 468 -64
2019-10-12 14:45:57 GMT 50.167099 2.300696 35,975 320 468 -64
2019-10-12 14:45:53 GMT 50.158539 2.312116 35,975 320 468 -64
2019-10-12 14:45:50 GMT 50.149017 2.324837 35,975 320 469 -64
2019-10-12 14:45:46 GMT 50.149017 2.324837 35,975 320 469 -64
2019-10-12 14:45:43 GMT 50.142426 2.333583 36,000 320 469 -64
2019-10-12 14:45:40 GMT 50.135643 2.342538 36,000 320 469 -64
2019-10-12 14:45:36 GMT 50.130707 2.349144 36,000 320 469 -64
2019-10-12 14:45:30 GMT 50.121166 2.361838 35,975 320 469 -64
2019-10-12 14:45:27 GMT 50.117020 2.367265 35,975 320 469 -64
2019-10-12 14:45:24 GMT 50.111115 2.375143 36,000 320 469 -64
2019-10-12 14:45:21 GMT 50.106316 2.381509 36,000 320 470 -64
2019-10-12 14:45:18 GMT 50.100731 2.388933 35,975 320 470 -64
2019-10-12 14:45:14 GMT 50.093418 2.398583 35,975 320 470 -64
2019-10-12 14:45:11 GMT 50.090115 2.402962 36,000 320 470 -64
2019-10-12 14:45:08 GMT 50.083878 2.411276 35,975 320 470 -64
2019-10-12 14:45:05 GMT 50.081406 2.414535 36,000 320 470 -64
2019-10-12 14:45:02 GMT 50.069504 2.430364 36,000 320 470 -64
2019-10-12 14:44:58 GMT 50.069504 2.430364 36,000 320 470 -64
2019-10-12 14:44:55 GMT 50.063721 2.438000 35,975 320 470 -64
2019-10-12 14:44:52 GMT 50.057110 2.446759 35,975 320 471 0
2019-10-12 14:44:49 GMT 50.051804 2.453737 35,975 320 471 0
2019-10-12 14:44:46 GMT 50.048172 2.458562 36,000 320 471 -64
2019-10-12 14:44:42 GMT 50.040390 2.468816 35,975 320 471 -64
2019-10-12 14:44:39 GMT 50.035400 2.475393 35,975 320 471 -64
2019-10-12 14:44:36 GMT 50.031097 2.481031 35,975 320 471 -64
2019-10-12 14:44:30 GMT 50.020157 2.495487 35,975 320 471 -64
2019-10-12 14:44:27 GMT 50.016376 2.500503 35,975 320 471 -64
2019-10-12 14:44:24 GMT 50.011551 2.506834 35,975 320 471 -64
2019-10-12 14:44:21 GMT 50.007248 2.512544 36,000 320 471 -64
2019-10-12 14:44:18 GMT 50.003109 2.518022 35,975 320 471 -64
2019-10-12 14:44:15 GMT 49.998451 2.524109 35,975 320 471 -64
2019-10-12 14:44:12 GMT 49.992645 2.531770 35,975 320 471 -64
2019-10-12 14:44:09 GMT 49.986008 2.540516 36,000 320 471 -64
2019-10-12 14:44:06 GMT 49.982857 2.544671 35,975 320 471 -64
2019-10-12 14:44:00 GMT 49.971771 2.559309 36,000 320 471 -64
2019-10-12 14:43:57 GMT 49.966141 2.566753 36,000 320 471 -64
2019-10-12 14:43:53 GMT 49.959183 2.575860 36,000 320 470 -64
2019-10-12 14:43:50 GMT 49.955841 2.580269 36,000 320 470 -64
2019-10-12 14:43:46 GMT 49.947388 2.591363 36,000 320 470 -64
2019-10-12 14:43:42 GMT 49.942932 2.597182 36,000 320 469 -64
2019-10-12 14:43:39 GMT 49.936615 2.605494 36,000 320 463 -64
2019-10-12 14:43:36 GMT 49.932678 2.610698 36,000 320 469 -64
2019-10-12 14:43:33 GMT 49.926205 2.619200 35,975 320 469 -64
2019-10-12 14:43:30 GMT 49.921097 2.625877 35,975 320 469 -64
2019-10-12 14:43:27 GMT 49.917965 2.630038 36,000 320 469 -64
2019-10-12 14:43:23 GMT 49.909195 2.641489 36,000 320 469 -64
2019-10-12 14:43:20 GMT 49.904251 2.647994 36,000 320 468 -64
2019-10-12 14:43:16 GMT 49.899628 2.654066 36,000 320 468 -64
2019-10-12 14:43:13 GMT 49.893036 2.662739 36,000 320 466 -64
2019-10-12 14:43:09 GMT 49.889053 2.667943 36,000 320 468 0
2019-10-12 14:43:05 GMT 49.881821 2.677412 35,975 320 467 -64
2019-10-12 14:43:02 GMT 49.876392 2.684598 35,975 320 467 -64
2019-10-12 14:42:59 GMT 49.871460 2.691057 36,000 320 466 0
2019-10-12 14:42:55 GMT 49.865501 2.698777 35,975 320 466 0
2019-10-12 14:42:52 GMT 49.860241 2.705680 35,975 320 463 -64
2019-10-12 14:42:48 GMT 49.850555 2.718393 36,000 320 466 -64
2019-10-12 14:42:44 GMT 49.847111 2.722902 36,000 320 465 -64
2019-10-12 14:42:40 GMT 49.840874 2.731068 36,000 320 464 -64
2019-10-12 14:42:36 GMT 49.834309 2.739678 36,000 320 464 -64
2019-10-12 14:42:32 GMT 49.827095 2.749106 36,000 320 464 -64
2019-10-12 14:42:29 GMT 49.823185 2.754228 36,000 320 463 -64
2019-10-12 14:42:26 GMT 49.818577 2.760241 36,000 320 464 -64
2019-10-12 14:42:23 GMT 49.812340 2.768332 36,000 320 464 -64
2019-10-12 14:42:20 GMT 49.808258 2.773686 35,975 320 464 0
2019-10-12 14:42:14 GMT 49.796768 2.788648 36,000 320 464 -64
2019-10-12 14:42:11 GMT 49.791016 2.796095 36,000 320 464 -64
2019-10-12 14:42:08 GMT 49.788574 2.799273 36,000 320 464 -64
2019-10-12 14:42:05 GMT 49.783524 2.805893 36,000 320 463 -64
2019-10-12 14:42:02 GMT 49.777451 2.813729 35,975 320 463 -64
2019-10-12 14:41:58 GMT 49.771225 2.821824 36,000 320 463 -64
2019-10-12 14:41:55 GMT 49.765686 2.829124 36,000 320 463 -64
2019-10-12 14:41:52 GMT 49.760742 2.835485 36,000 320 464 -64
2019-10-12 14:41:48 GMT 49.755032 2.842935 36,000 320 464 -64
2019-10-12 14:41:43 GMT 49.746513 2.853996 35,975 320 464 0
2019-10-12 14:41:40 GMT 49.742603 2.859118 36,000 320 463 0
2019-10-12 14:41:37 GMT 49.737167 2.866131 36,000 320 464 0
2019-10-12 14:41:32 GMT 49.727371 2.878852 36,000 320 464 -64
2019-10-12 14:41:29 GMT 49.725082 2.881887 36,000 320 463 0
2019-10-12 14:41:25 GMT 49.717529 2.891645 35,975 320 463 0
2019-10-12 14:41:22 GMT 49.711132 2.899871 35,975 320 463 0
2019-10-12 14:41:19 GMT 49.706848 2.905438 35,975 320 464 0
2019-10-12 14:41:15 GMT 49.700939 2.913084 35,975 320 464 0
2019-10-12 14:41:12 GMT 49.697205 2.917954 35,975 320 464 0
2019-10-12 14:41:09 GMT 49.690788 2.926298 35,975 320 464 -64
2019-10-12 14:41:06 GMT 49.686180 2.932236 35,975 320 464 -64
2019-10-12 14:41:03 GMT 49.681458 2.938409 35,975 321 464 -64
2019-10-12 14:40:58 GMT 49.673378 2.948864 36,000 320 464 -64
2019-10-12 14:40:55 GMT 49.669468 2.953986 36,000 320 464 -64
2019-10-12 14:40:52 GMT 49.664703 2.960165 36,000 320 464 -64
2019-10-12 14:40:48 GMT 49.656143 2.971224 36,000 320 464 -64
2019-10-12 14:40:43 GMT 49.647404 2.982491 36,000 320 464 -64
2019-10-12 14:40:40 GMT 49.637054 2.995870 36,000 321 462 -64
2019-10-12 14:40:37 GMT 49.637054 2.995870 36,000 320 464 -64
2019-10-12 14:40:34 GMT 49.633625 3.000307 36,000 321 464 -64
2019-10-12 14:40:31 GMT 49.627014 3.008843 35,975 321 464 0
2019-10-12 14:40:28 GMT 49.622078 3.015153 35,975 321 464 -64
2019-10-12 14:40:25 GMT 49.617004 3.021746 36,000 321 462 -64
2019-10-12 14:40:22 GMT 49.613884 3.025768 36,000 321 464 -64
2019-10-12 14:40:16 GMT 49.603039 3.039798 36,000 320 463 0
2019-10-12 14:40:13 GMT 49.599129 3.044846 35,975 320 463 0
2019-10-12 14:40:10 GMT 49.594193 3.051156 35,975 320 463 0
2019-10-12 14:40:05 GMT 49.584549 3.063668 35,975 321 462 0
2019-10-12 14:40:02 GMT 49.582088 3.066819 35,975 321 462 0
2019-10-12 14:39:59 GMT 49.576180 3.074465 35,975 321 461 0
2019-10-12 14:39:56 GMT 49.566833 3.086435 36,000 321 462 -64
2019-10-12 14:39:50 GMT 49.561794 3.092948 36,000 321 462 -64
2019-10-12 14:39:47 GMT 49.556351 3.099951 35,975 321 462 -64
2019-10-12 14:39:43 GMT 49.550125 3.107902 36,000 321 462 0
2019-10-12 14:39:39 GMT 49.542938 3.117154 36,000 321 462 -64
2019-10-12 14:39:36 GMT 49.538361 3.123081 35,975 321 462 -64
2019-10-12 14:39:32 GMT 49.530323 3.133330 36,000 321 462 0
2019-10-12 14:39:29 GMT 49.525269 3.139849 35,975 321 462 0
2019-10-12 14:39:25 GMT 49.521973 3.144041 36,000 321 461 0
2019-10-12 14:39:22 GMT 49.516266 3.151443 35,975 321 461 -64
2019-10-12 14:39:19 GMT 49.510849 3.158353 36,000 321 461 -64
2019-10-12 14:39:14 GMT 49.502533 3.169036 36,000 321 461 -64
2019-10-12 14:39:11 GMT 49.496620 3.176608 36,000 321 461 0
2019-10-12 14:39:08 GMT 49.490891 3.183939 36,000 321 461 -64
2019-10-12 14:39:02 GMT 49.481094 3.196516 35,975 321 461 0
2019-10-12 14:38:59 GMT 49.472412 3.207637 35,975 321 462 0
2019-10-12 14:38:53 GMT 49.462589 3.220256 36,000 321 462 -64
2019-10-12 14:38:50 GMT 49.462589 3.220256 36,000 321 462 -64
2019-10-12 14:38:47 GMT 49.458847 3.225066 36,000 321 462 -64
2019-10-12 14:38:44 GMT 49.453903 3.231354 36,000 321 462 -64
2019-10-12 14:38:40 GMT 49.445877 3.241635 36,000 321 462 -64
2019-10-12 14:38:36 GMT 49.440811 3.248122 36,000 321 463 -64
2019-10-12 14:38:32 GMT 49.433777 3.257149 36,000 321 462 -64
2019-10-12 14:38:29 GMT 49.429688 3.262361 35,975 321 462 0
2019-10-12 14:38:26 GMT 49.423782 3.269912 35,975 321 462 -64
2019-10-12 14:38:22 GMT 49.416550 3.279137 36,000 321 462 -64
2019-10-12 14:38:19 GMT 49.410126 3.287297 36,000 321 462 -64
2019-10-12 14:38:15 GMT 49.406868 3.291489 35,975 321 462 -64
2019-10-12 14:38:11 GMT 49.399651 3.300669 36,000 321 462 -64
2019-10-12 14:38:08 GMT 49.392113 3.310282 36,000 321 462 -64
2019-10-12 14:38:05 GMT 49.390274 3.312589 36,000 321 462 -64
2019-10-12 14:38:02 GMT 49.385696 3.318434 36,000 321 462 -64
2019-10-12 14:37:59 GMT 49.378464 3.327660 36,000 321 463 -64
2019-10-12 14:37:55 GMT 49.371552 3.336463 36,000 321 462 -64
2019-10-12 14:37:52 GMT 49.368622 3.340196 36,000 321 462 0
2019-10-12 14:37:49 GMT 49.358093 3.353577 36,000 321 462 -64
2019-10-12 14:37:46 GMT 49.358093 3.353577 36,000 321 462 -64
2019-10-12 14:37:40 GMT 49.348892 3.365338 35,975 321 462 -64
2019-10-12 14:37:37 GMT 49.342300 3.373718 35,975 321 462 -64
2019-10-12 14:37:34 GMT 49.338528 3.378513 35,975 321 462 -64
2019-10-12 14:37:31 GMT 49.331772 3.387099 35,975 321 463 -64
2019-10-12 14:37:28 GMT 49.328659 3.391017 36,000 321 463 -64
2019-10-12 14:37:25 GMT 49.323727 3.397305 35,975 321 463 -64
2019-10-12 14:37:17 GMT 49.308876 3.416170 36,000 321 463 -64
2019-10-12 14:37:13 GMT 49.303940 3.422386 36,000 321 463 -64
2019-10-12 14:37:10 GMT 49.297165 3.430974 36,000 321 463 -64
2019-10-12 14:37:07 GMT 49.294025 3.434962 36,000 321 463 -64
2019-10-12 14:37:04 GMT 49.288925 3.441467 36,000 321 464 -64
2019-10-12 14:37:01 GMT 49.284157 3.447539 36,000 321 465 64
2019-10-12 14:36:57 GMT 49.277870 3.455489 35,975 321 465 64
2019-10-12 14:36:54 GMT 49.271259 3.463874 36,000 321 465 0
2019-10-12 14:36:51 GMT 49.267776 3.468299 35,975 321 465 0
2019-10-12 14:36:48 GMT 49.262512 3.474990 35,975 321 465 -64
2019-10-12 14:36:42 GMT 49.252731 3.487292 35,975 321 465 0
2019-10-12 14:36:39 GMT 49.248123 3.493219 35,975 321 465 0
2019-10-12 14:36:36 GMT 49.243141 3.499435 35,975 321 465 0
2019-10-12 14:36:33 GMT 49.238342 3.505554 36,000 321 465 -64
2019-10-12 14:36:30 GMT 49.232529 3.512878 35,975 321 466 -64
2019-10-12 14:36:27 GMT 49.228043 3.518512 35,975 321 467 -64
2019-10-12 14:36:24 GMT 49.221542 3.526756 36,000 321 467 -64
2019-10-12 14:36:20 GMT 49.210052 3.541189 36,000 321 468 -64
2019-10-12 14:36:16 GMT 49.210052 3.541189 36,000 321 468 -64
2019-10-12 14:36:12 GMT 49.202877 3.550246 35,975 321 469 -64
2019-10-12 14:36:09 GMT 49.198700 3.555556 35,975 321 469 -64
2019-10-12 14:36:06 GMT 49.192867 3.562895 35,975 321 469 -64
2019-10-12 14:36:02 GMT 49.184692 3.573162 36,000 321 469 -64
2019-10-12 14:35:59 GMT 49.181992 3.576543 36,000 321 469 -64
2019-10-12 14:35:56 GMT 49.175674 3.584571 36,000 321 469 -64
2019-10-12 14:35:53 GMT 49.171326 3.589994 36,000 321 469 -64
2019-10-12 14:35:49 GMT 49.164795 3.598239 36,000 321 468 -64
2019-10-12 14:35:45 GMT 49.158279 3.606473 36,000 321 469 -64
2019-10-12 14:35:41 GMT 49.146881 3.620770 35,975 321 469 -64
2019-10-12 14:35:38 GMT 49.146881 3.620770 35,975 321 469 0
2019-10-12 14:35:35 GMT 49.141052 3.628163 35,975 321 469 0
2019-10-12 14:35:28 GMT 49.129532 3.642672 35,975 321 469 0
2019-10-12 14:35:25 GMT 49.123970 3.649629 35,975 321 468 64
2019-10-12 14:35:18 GMT 49.112610 3.663868 35,975 321 468 64
2019-10-12 14:35:15 GMT 49.106781 3.671265 35,975 321 468 -64
2019-10-12 14:35:12 GMT 49.093735 3.687603 36,000 321 468 -64
2019-10-12 14:35:07 GMT 49.093735 3.687603 36,000 321 468 -64
2019-10-12 14:35:04 GMT 49.088543 3.694081 36,000 321 468 -64
2019-10-12 14:35:00 GMT 49.083515 3.700369 36,000 321 468 -64
2019-10-12 14:34:57 GMT 49.078163 3.707091 36,000 321 468 -64
2019-10-12 14:34:53 GMT 49.071304 3.715633 36,000 321 468 -64
2019-10-12 14:34:50 GMT 49.066151 3.722125 36,000 321 468 0
2019-10-12 14:34:46 GMT 49.058258 3.731971 36,000 321 468 0
2019-10-12 14:34:43 GMT 49.049561 3.742817 36,000 321 468 0
2019-10-12 14:34:40 GMT 49.049561 3.742817 35,975 321 468 0
2019-10-12 14:34:34 GMT 49.040035 3.754794 35,975 321 468 0
2019-10-12 14:34:31 GMT 49.032028 3.764769 35,975 321 468 64
2019-10-12 14:34:27 GMT 49.026676 3.771491 35,975 321 468 -64
2019-10-12 14:34:23 GMT 49.014339 3.786958 35,975 321 469 -64
2019-10-12 14:34:20 GMT 49.014339 3.786958 35,975 321 469 -64
2019-10-12 14:34:17 GMT 49.009964 3.792379 35,975 321 469 -64
2019-10-12 14:34:11 GMT 49.000076 3.804650 35,975 321 469 0
2019-10-12 14:34:08 GMT 48.996231 3.809509 36,000 321 469 -64
2019-10-12 14:34:04 GMT 48.987198 3.820785 36,000 321 469 -64
2019-10-12 14:34:01 GMT 48.981995 3.827256 35,975 321 469 -64
2019-10-12 14:33:58 GMT 48.979145 3.830759 35,975 321 469 -64
2019-10-12 14:33:55 GMT 48.973938 3.837257 35,975 321 469 0
2019-10-12 14:33:52 GMT 48.968765 3.843769 36,000 321 469 -64
2019-10-12 14:33:49 GMT 48.964920 3.848525 35,975 321 469 -64
2019-10-12 14:33:45 GMT 48.957684 3.857502 36,000 321 469 -64
2019-10-12 14:33:42 GMT 48.946838 3.871061 36,000 321 469 -64
2019-10-12 14:33:39 GMT 48.946838 3.871061 35,975 321 469 -64
2019-10-12 14:33:36 GMT 48.942444 3.876554 36,000 321 470 -64
2019-10-12 14:33:33 GMT 48.936768 3.883597 36,000 321 469 0
2019-10-12 14:33:30 GMT 48.932739 3.888597 36,000 321 469 0
2019-10-12 14:33:27 GMT 48.926170 3.896749 36,000 321 469 -64
2019-10-12 14:33:21 GMT 48.915787 3.909687 36,000 321 469 -64
2019-10-12 14:33:18 GMT 48.910583 3.916133 35,975 321 469 0
2019-10-12 14:33:15 GMT 48.905033 3.922986 35,975 321 469 -64
2019-10-12 14:33:11 GMT 48.899307 3.930070 36,000 321 469 0
2019-10-12 14:33:07 GMT 48.891907 3.939249 35,975 321 469 0
2019-10-12 14:33:02 GMT 48.884674 3.948176 35,975 321 469 0
2019-10-12 14:32:59 GMT 48.879639 3.954444 36,000 321 471 0
2019-10-12 14:32:56 GMT 48.873962 3.961557 36,000 321 470 -64
2019-10-12 14:32:53 GMT 48.865219 3.972403 36,000 321 470 -64
2019-10-12 14:32:50 GMT 48.865219 3.972403 36,000 321 470 -64
2019-10-12 14:32:46 GMT 48.858170 3.981135 35,975 321 470 -64
2019-10-12 14:32:42 GMT 48.850754 3.990291 36,000 321 471 -64
2019-10-12 14:32:37 GMT 48.843864 3.998879 35,975 321 471 -64
2019-10-12 14:32:34 GMT 48.833588 4.011559 35,975 321 471 0
2019-10-12 14:32:28 GMT 48.827866 4.018672 35,975 321 471 -64
2019-10-12 14:32:24 GMT 48.821136 4.027053 36,000 321 471 -64
2019-10-12 14:32:21 GMT 48.813721 4.036208 35,975 321 471 -64
2019-10-12 14:32:17 GMT 48.802917 4.049589 35,975 321 471 -64
2019-10-12 14:32:14 GMT 48.802917 4.049589 36,000 321 471 -64
2019-10-12 14:32:10 GMT 48.790607 4.064797 36,000 321 471 -64
2019-10-12 14:32:06 GMT 48.790607 4.064797 35,975 321 474 -64
2019-10-12 14:32:03 GMT 48.785534 4.071013 36,000 321 471 -64
2019-10-12 14:32:00 GMT 48.780670 4.077055 35,975 321 471 -64
2019-10-12 14:31:57 GMT 48.775589 4.083322 35,975 321 471 -64
2019-10-12 14:31:54 GMT 48.770683 4.089372 35,975 321 472 -64
2019-10-12 14:31:50 GMT 48.758652 4.104168 36,000 321 473 -64
2019-10-12 14:31:44 GMT 48.751877 4.112549 35,975 321 473 -64
2019-10-12 14:31:37 GMT 48.742565 4.123993 36,000 321 473 -64
2019-10-12 14:31:34 GMT 48.737122 4.130715 36,000 321 474 -64
2019-10-12 14:31:30 GMT 48.727798 4.142198 36,000 321 474 -64
2019-10-12 14:31:26 GMT 48.723724 4.147198 36,000 321 474 -64
2019-10-12 14:31:22 GMT 48.716904 4.155508 35,975 321 474 0
2019-10-12 14:31:19 GMT 48.711823 4.161776 36,000 321 474 -64
2019-10-12 14:31:16 GMT 48.705002 4.170157 35,975 321 474 -64
2019-10-12 14:31:12 GMT 48.699554 4.176847 35,975 321 475 -64
2019-10-12 14:31:09 GMT 48.694473 4.183115 35,975 321 475 -64
2019-10-12 14:31:05 GMT 48.686100 4.193308 35,975 321 474 -64
2019-10-12 14:31:01 GMT 48.680653 4.200030 36,000 321 475 -64
2019-10-12 14:30:58 GMT 48.673855 4.208342 36,000 321 474 -64
2019-10-12 14:30:55 GMT 48.671108 4.211739 36,000 322 475 -64
2019-10-12 14:30:52 GMT 48.664444 4.219877 35,975 322 475 -64
2019-10-12 14:30:48 GMT 48.659145 4.226339 36,000 322 475 -64
2019-10-12 14:30:45 GMT 48.651325 4.235952 36,000 321 476 -64
2019-10-12 14:30:41 GMT 48.646206 4.242168 36,000 322 475 0
2019-10-12 14:30:38 GMT 48.638855 4.251146 36,000 321 476 0
2019-10-12 14:30:35 GMT 48.636108 4.254526 36,000 322 475 0
2019-10-12 14:30:31 GMT 48.627594 4.264949 35,975 322 475 0
2019-10-12 14:30:27 GMT 48.622467 4.271217 36,000 322 475 0
2019-10-12 14:30:24 GMT 48.617661 4.277062 35,975 322 475 0
2019-10-12 14:30:21 GMT 48.611710 4.284307 35,975 322 475 0
2019-10-12 14:30:18 GMT 48.607086 4.289950 35,975 321 474 0
2019-10-12 14:30:15 GMT 48.597046 4.302232 35,975 321 475 0
2019-10-12 14:30:08 GMT 48.582706 4.319795 35,975 322 475 -64
2019-10-12 14:30:04 GMT 48.582706 4.319795 35,975 322 475 -64
2019-10-12 14:29:59 GMT 48.574841 4.329336 35,975 322 475 -64
2019-10-12 14:29:56 GMT 48.568043 4.337720 36,000 322 475 -128
2019-10-12 14:29:51 GMT 48.560669 4.346642 36,000 322 474 -64
2019-10-12 14:29:48 GMT 48.555706 4.352682 36,000 322 475 -64
2019-10-12 14:29:44 GMT 48.548908 4.360994 36,000 322 475 -64
2019-10-12 14:29:35 GMT 48.534573 4.378485 36,000 321 474 -64
2019-10-12 14:29:31 GMT 48.526520 4.388263 35,975 321 474 -64
2019-10-12 14:29:27 GMT 48.518185 4.398434 36,000 322 474 -64
2019-10-12 14:29:23 GMT 48.512039 4.405951 36,000 322 474 0
2019-10-12 14:29:18 GMT 48.504364 4.415236 35,975 322 474 -64
2019-10-12 14:29:14 GMT 48.496216 4.425166 36,000 322 474 0
2019-10-12 14:29:11 GMT 48.491776 4.430589 36,000 322 474 0
2019-10-12 14:29:05 GMT 48.481037 4.443608 35,975 322 474 0
2019-10-12 14:29:01 GMT 48.467117 4.460594 35,975 322 474 0
2019-10-12 14:28:56 GMT 48.467117 4.460594 35,975 322 474 -64
2019-10-12 14:28:52 GMT 48.460464 4.468689 35,975 322 474 -64
2019-10-12 14:28:46 GMT 48.448517 4.483126 36,000 322 475 -64
2019-10-12 14:28:40 GMT 48.440491 4.492830 36,000 322 475 -64
2019-10-12 14:28:35 GMT 48.431973 4.503166 36,000 322 475 -64
2019-10-12 14:28:30 GMT 48.422054 4.515164 36,000 322 475 -64
2019-10-12 14:28:25 GMT 48.413681 4.525311 36,000 322 475 -64
2019-10-12 14:28:22 GMT 48.408741 4.531282 35,975 322 475 -64
2019-10-12 14:28:18 GMT 48.403748 4.537283 36,000 322 475 -64
2019-10-12 14:28:15 GMT 48.391800 4.551791 36,000 322 475 0
2019-10-12 14:28:12 GMT 48.391800 4.551791 36,000 322 475 0
2019-10-12 14:28:09 GMT 48.387726 4.556791 36,000 322 475 0
2019-10-12 14:28:05 GMT 48.380219 4.565876 36,000 322 475 0
2019-10-12 14:27:59 GMT 48.369598 4.578693 35,975 322 475 0
2019-10-12 14:27:55 GMT 48.363785 4.585736 35,975 322 475 0
2019-10-12 14:27:52 GMT 48.359024 4.591510 36,000 322 475 -64
2019-10-12 14:27:49 GMT 48.351837 4.600173 35,975 322 475 -64
2019-10-12 14:27:46 GMT 48.346874 4.606163 35,975 322 475 -64
2019-10-12 14:27:42 GMT 48.329697 4.626762 36,000 322 475 -64
2019-10-12 14:27:36 GMT 48.329697 4.626762 35,975 322 476 -64
2019-10-12 14:27:32 GMT 48.324051 4.633625 36,000 322 476 -64
2019-10-12 14:27:27 GMT 48.316132 4.643132 36,000 322 476 -64
2019-10-12 14:27:24 GMT 48.308945 4.651794 36,000 322 476 -64
2019-10-12 14:27:21 GMT 48.305676 4.655673 35,975 322 477 -64
2019-10-12 14:27:18 GMT 48.300659 4.661724 36,000 322 477 -64
2019-10-12 14:27:15 GMT 48.292786 4.671232 35,975 322 477 0
2019-10-12 14:27:11 GMT 48.287426 4.677574 36,000 322 476 0
2019-10-12 14:27:06 GMT 48.277836 4.689211 36,000 322 477 -64
2019-10-12 14:27:02 GMT 48.266968 4.702219 36,000 322 476 -64
2019-10-12 14:26:59 GMT 48.266968 4.702219 35,975 322 476 -64
2019-10-12 14:26:56 GMT 48.262527 4.707571 35,975 322 477 -64
2019-10-12 14:26:53 GMT 48.252373 4.719712 36,000 322 476 -64
2019-10-12 14:26:50 GMT 48.252373 4.719712 35,975 322 476 -64
2019-10-12 14:26:46 GMT 48.245808 4.727518 36,000 322 476 -64
2019-10-12 14:26:43 GMT 48.233643 4.742080 36,000 322 476 -64
2019-10-12 14:26:39 GMT 48.233643 4.742080 36,000 322 476 -64
2019-10-12 14:26:35 GMT 48.226910 4.750141 36,000 322 476 -64
2019-10-12 14:26:32 GMT 48.220230 4.758136 36,000 322 476 -64
2019-10-12 14:26:29 GMT 48.215923 4.763296 35,975 322 473 0
2019-10-12 14:26:25 GMT 48.209080 4.771536 36,000 322 475 0
2019-10-12 14:26:21 GMT 48.200684 4.781588 35,975 322 474 0
2019-10-12 14:26:18 GMT 48.196369 4.786714 36,000 322 474 -64
2019-10-12 14:26:13 GMT 48.188503 4.796110 36,000 322 475 -64
2019-10-12 14:26:10 GMT 48.182312 4.803411 36,000 322 474 -64
2019-10-12 14:26:06 GMT 48.175964 4.810955 36,000 322 475 0
2019-10-12 14:26:03 GMT 48.170792 4.817082 36,000 322 473 0
2019-10-12 14:25:59 GMT 48.162434 4.827118 36,000 322 473 -64
2019-10-12 14:25:56 GMT 48.158989 4.831167 35,975 322 473 -64
2019-10-12 14:25:50 GMT 48.149597 4.842361 35,975 322 473 -64
2019-10-12 14:25:47 GMT 48.142555 4.850746 36,000 322 473 -64
2019-10-12 14:25:44 GMT 48.138134 4.856027 36,000 322 473 -64
2019-10-12 14:25:36 GMT 48.125469 4.871098 36,000 322 473 0
2019-10-12 14:25:32 GMT 48.118999 4.878845 35,975 322 473 0
2019-10-12 14:25:29 GMT 48.112656 4.886444 36,000 322 474 -64
2019-10-12 14:25:25 GMT 48.106842 4.893379 36,000 322 473 -64
2019-10-12 14:25:22 GMT 48.100845 4.900536 36,000 322 474 -64
2019-10-12 14:25:19 GMT 48.095722 4.906663 35,975 322 474 -64
2019-10-12 14:25:16 GMT 48.088882 4.914832 36,000 322 474 -64
2019-10-12 14:25:13 GMT 48.083588 4.921120 36,000 322 474 -64
2019-10-12 14:25:09 GMT 48.079292 4.926241 36,000 322 475 -64
2019-10-12 14:25:03 GMT 48.068676 4.938847 36,000 322 475 -64
2019-10-12 14:24:56 GMT 48.057320 4.952369 36,000 322 475 0
2019-10-12 14:24:50 GMT 48.045681 4.966243 35,975 322 475 0
2019-10-12 14:24:47 GMT 48.041016 4.971725 35,975 322 475 0
2019-10-12 14:24:42 GMT 48.032600 4.981736 35,975 322 475 -64
2019-10-12 14:24:39 GMT 48.027603 4.987587 36,000 322 476 0
2019-10-12 14:24:36 GMT 48.013000 5.004977 36,000 322 476 0
2019-10-12 14:24:31 GMT 48.013000 5.004977 35,975 322 476 -64
2019-10-12 14:24:27 GMT 48.007324 5.011688 35,975 322 476 -64
2019-10-12 14:24:19 GMT 47.993546 5.027962 36,000 322 476 -64
2019-10-12 14:24:16 GMT 47.988419 5.034073 36,000 322 476 0
2019-10-12 14:24:13 GMT 47.981529 5.042232 36,000 322 476 -64
2019-10-12 14:24:09 GMT 47.974960 5.050003 36,000 322 476 0
2019-10-12 14:24:05 GMT 47.968094 5.058174 36,000 322 476 -64
2019-10-12 14:23:59 GMT 47.956375 5.071976 36,000 322 476 -64
2019-10-12 14:23:54 GMT 47.950195 5.079323 35,975 322 476 0
2019-10-12 14:23:51 GMT 47.934139 5.098290 36,000 322 476 0
2019-10-12 14:23:46 GMT 47.934139 5.098290 36,000 322 477 -64
2019-10-12 14:23:42 GMT 47.928650 5.104769 35,975 322 476 0
2019-10-12 14:23:38 GMT 47.922592 5.111938 35,975 322 476 0
2019-10-12 14:23:34 GMT 47.915195 5.120685 35,975 322 477 -64
2019-10-12 14:23:30 GMT 47.908630 5.128432 35,975 322 471 -64
2019-10-12 14:23:26 GMT 47.894302 5.145309 35,975 322 477 -64
2019-10-12 14:23:22 GMT 47.894302 5.145309 35,975 322 477 -64
2019-10-12 14:23:17 GMT 47.886337 5.154648 35,975 322 477 -64
2019-10-12 14:23:14 GMT 47.880280 5.161814 36,000 322 478 -128
2019-10-12 14:23:10 GMT 47.865707 5.178927 36,000 322 478 -64
2019-10-12 14:23:02 GMT 47.859470 5.186251 36,000 322 478 -64
2019-10-12 14:22:59 GMT 47.854305 5.192378 36,000 322 478 -64
2019-10-12 14:22:56 GMT 47.849461 5.198083 36,000 322 478 -64
2019-10-12 14:22:52 GMT 47.842667 5.206009 36,000 322 477 -64
2019-10-12 14:22:48 GMT 47.835217 5.214703 36,000 322 477 0
2019-10-12 14:22:43 GMT 47.826050 5.225510 35,975 322 477 0
2019-10-12 14:22:40 GMT 47.821716 5.230619 35,975 322 477 0
2019-10-12 14:22:36 GMT 47.813431 5.240338 35,975 322 477 0
2019-10-12 14:22:31 GMT 47.807373 5.247482 35,975 322 477 0
2019-10-12 14:22:28 GMT 47.800415 5.255585 35,975 322 478 -64
2019-10-12 14:22:25 GMT 47.796764 5.259845 35,975 322 477 0
2019-10-12 14:22:22 GMT 47.791084 5.266465 35,975 322 477 0
2019-10-12 14:22:19 GMT 47.784988 5.273649 35,975 322 477 0
2019-10-12 14:22:15 GMT 47.778423 5.281325 35,975 322 477 -64
2019-10-12 14:22:10 GMT 47.769241 5.292114 35,975 322 477 -64
2019-10-12 14:22:07 GMT 47.765762 5.296165 35,975 322 478 -64
2019-10-12 14:22:02 GMT 47.754124 5.309777 36,000 322 472 -64
2019-10-12 14:21:59 GMT 47.751518 5.312805 36,000 322 472 -64
2019-10-12 14:21:56 GMT 47.745090 5.320270 35,975 322 478 -64
2019-10-12 14:21:53 GMT 47.740948 5.325130 35,975 322 477 -64
2019-10-12 14:21:49 GMT 47.733315 5.334074 35,975 322 472 -64
2019-10-12 14:21:46 GMT 47.729126 5.338933 36,000 322 477 -64
2019-10-12 14:21:42 GMT 47.720791 5.348652 35,975 322 477 -64
2019-10-12 14:21:39 GMT 47.715252 5.355131 35,975 322 477 -64
2019-10-12 14:21:35 GMT 47.708317 5.363159 35,975 322 477 -64
2019-10-12 14:21:31 GMT 47.703278 5.369087 35,975 322 477 -64
2019-10-12 14:21:27 GMT 47.695469 5.378160 35,975 322 477 -64
2019-10-12 14:21:23 GMT 47.687668 5.387283 36,000 322 477 -64
2019-10-12 14:21:20 GMT 47.684063 5.391541 36,000 322 477 -64
2019-10-12 14:21:16 GMT 47.676056 5.400837 35,975 322 477 -64
2019-10-12 14:21:12 GMT 47.669312 5.408775 36,000 322 477 -64
2019-10-12 14:21:08 GMT 47.662720 5.416397 36,000 322 478 -64
2019-10-12 14:21:05 GMT 47.657715 5.422246 36,000 322 477 -64
2019-10-12 14:21:02 GMT 47.651802 5.429148 36,000 322 477 -64
2019-10-12 14:20:59 GMT 47.646587 5.435204 36,000 322 477 -128
2019-10-12 14:20:54 GMT 47.637558 5.445627 36,000 322 471 -64
2019-10-12 14:20:49 GMT 47.629761 5.454712 36,000 322 476 -64
2019-10-12 14:20:45 GMT 47.615936 5.470779 36,000 322 475 -64
2019-10-12 14:20:35 GMT 47.603165 5.485611 36,000 322 472 64
2019-10-12 14:20:32 GMT 47.600361 5.488798 36,000 322 472 0
2019-10-12 14:20:28 GMT 47.592308 5.498164 35,975 322 472 64
2019-10-12 14:20:25 GMT 47.588165 5.502953 36,000 322 471 0
2019-10-12 14:20:21 GMT 47.580997 5.511334 36,000 322 471 0
2019-10-12 14:20:17 GMT 47.573593 5.519875 35,975 322 471 -64
2019-10-12 14:20:13 GMT 47.565540 5.529222 35,975 322 471 0
2019-10-12 14:20:10 GMT 47.555298 5.541124 36,000 323 471 -64
2019-10-12 14:20:06 GMT 47.555298 5.541124 36,000 322 471 -64
2019-10-12 14:20:02 GMT 47.542786 5.555649 36,000 322 471 -64
2019-10-12 14:19:59 GMT 47.542786 5.555649 35,975 322 471 -64
2019-10-12 14:19:56 GMT 47.527725 5.573090 35,975 323 471 -64
2019-10-12 14:19:50 GMT 47.527725 5.573090 36,000 322 472 -64
2019-10-12 14:19:47 GMT 47.521687 5.579998 35,975 322 471 0
2019-10-12 14:19:44 GMT 47.510700 5.592675 36,000 322 471 64
2019-10-12 14:19:40 GMT 47.505535 5.598661 35,975 322 472 0
2019-10-12 14:19:34 GMT 47.500740 5.604154 35,975 322 471 64
2019-10-12 14:19:31 GMT 47.495247 5.610563 35,975 322 471 0
2019-10-12 14:19:28 GMT 47.490128 5.616479 35,975 322 472 -64
2019-10-12 14:19:24 GMT 47.483414 5.624245 35,975 322 472 -64
2019-10-12 14:19:21 GMT 47.478439 5.630000 36,000 322 473 -64
2019-10-12 14:19:18 GMT 47.472946 5.636338 35,975 323 473 -64
2019-10-12 14:19:12 GMT 47.455536 5.656380 36,000 323 473 -64
2019-10-12 14:19:08 GMT 47.455536 5.656380 36,000 322 473 -64
2019-10-12 14:19:05 GMT 47.449532 5.663311 36,000 322 473 -64
2019-10-12 14:19:02 GMT 47.443993 5.669650 35,975 322 473 0
2019-10-12 14:18:59 GMT 47.439850 5.674438 35,975 322 473 0
2019-10-12 14:18:56 GMT 47.434891 5.680206 35,975 322 473 -64
2019-10-12 14:18:53 GMT 47.422298 5.694721 35,975 323 474 -64
2019-10-12 14:18:48 GMT 47.422298 5.694721 35,975 323 474 -64
2019-10-12 14:18:45 GMT 47.416260 5.701630 35,975 323 474 -64
2019-10-12 14:18:42 GMT 47.411266 5.707397 36,000 323 474 -64
2019-10-12 14:18:38 GMT 47.404541 5.715157 35,975 323 473 -64
2019-10-12 14:18:35 GMT 47.399323 5.721130 35,975 323 474 -64
2019-10-12 14:18:30 GMT 47.390350 5.731430 35,975 323 474 -64
2019-10-12 14:18:27 GMT 47.385132 5.737335 35,975 323 474 -64
2019-10-12 14:18:24 GMT 47.379799 5.743526 35,975 323 474 -64
2019-10-12 14:18:20 GMT 47.371510 5.753033 35,975 323 474 -64
2019-10-12 14:18:16 GMT 47.366135 5.759171 36,000 323 474 -64
2019-10-12 14:18:12 GMT 47.359222 5.767136 36,000 323 473 -64
2019-10-12 14:18:07 GMT 47.350937 5.776611 36,000 323 473 -64
2019-10-12 14:18:04 GMT 47.340462 5.788668 36,000 323 473 -64
2019-10-12 14:18:01 GMT 47.340462 5.788668 36,000 323 473 -64
2019-10-12 14:17:58 GMT 47.334923 5.795006 35,975 323 473 -64
2019-10-12 14:17:55 GMT 47.329754 5.800922 36,000 323 473 -64
2019-10-12 14:17:51 GMT 47.323059 5.808609 36,000 323 472 0
2019-10-12 14:17:48 GMT 47.318069 5.814303 35,975 323 472 0
2019-10-12 14:17:45 GMT 47.310806 5.822613 36,000 323 471 -64
2019-10-12 14:17:40 GMT 47.304108 5.830238 35,975 323 471 -64
2019-10-12 14:17:36 GMT 47.295502 5.840057 35,975 323 471 -64
2019-10-12 14:17:33 GMT 47.286739 5.850079 35,975 323 471 -64
2019-10-12 14:17:30 GMT 47.286739 5.850079 35,975 323 471 -64
2019-10-12 14:17:25 GMT 47.277283 5.860863 36,000 323 471 -64
2019-10-12 14:17:22 GMT 47.273331 5.865361 36,000 323 471 -64
2019-10-12 14:17:19 GMT 47.267792 5.871629 36,000 323 471 0
2019-10-12 14:17:15 GMT 47.261444 5.878922 35,975 323 473 -64
2019-10-12 14:17:12 GMT 47.255409 5.885784 35,975 323 471 64
2019-10-12 14:17:09 GMT 47.250458 5.891487 35,975 323 472 0
2019-10-12 14:17:06 GMT 47.244919 5.897736 35,975 323 472 0
2019-10-12 14:17:03 GMT 47.238373 5.905220 35,975 323 472 0
2019-10-12 14:16:58 GMT 47.231667 5.912898 35,975 323 472 -64
2019-10-12 14:16:54 GMT 47.224079 5.921560 35,975 323 473 -64
2019-10-12 14:16:51 GMT 47.218048 5.928429 36,000 323 471 0
2019-10-12 14:16:48 GMT 47.213745 5.933321 36,000 323 473 -64
2019-10-12 14:16:45 GMT 47.209076 5.938591 35,975 323 473 -64
2019-10-12 14:16:42 GMT 47.203217 5.945320 36,000 323 473 -64
2019-10-12 14:16:38 GMT 47.196625 5.952805 35,975 323 473 -64
2019-10-12 14:16:35 GMT 47.192139 5.957886 35,975 323 473 -64
2019-10-12 14:16:31 GMT 47.185070 5.965999 36,000 323 473 -64
2019-10-12 14:16:28 GMT 47.178879 5.973041 35,975 323 473 -64
2019-10-12 14:16:25 GMT 47.175060 5.977408 36,000 323 471 -64
2019-10-12 14:16:22 GMT 47.164398 5.989591 35,975 323 473 -64
2019-10-12 14:16:15 GMT 47.157463 5.997479 35,975 323 472 0
2019-10-12 14:16:12 GMT 47.152496 6.003204 36,000 323 472 0
2019-10-12 14:16:09 GMT 47.146957 6.009521 35,975 323 472 0
2019-10-12 14:16:06 GMT 47.136467 6.021494 36,000 323 471 -64
2019-10-12 14:16:03 GMT 47.136467 6.021494 36,000 323 472 0
2019-10-12 14:16:00 GMT 47.131302 6.027409 36,000 323 471 0
2019-10-12 14:15:57 GMT 47.126312 6.033073 36,000 323 471 -64
2019-10-12 14:15:54 GMT 47.121338 6.038748 36,000 323 471 -64
2019-10-12 14:15:51 GMT 47.115845 6.045016 36,000 323 471 -64
2019-10-12 14:15:47 GMT 47.110153 6.051476 36,000 323 471 -64
2019-10-12 14:15:42 GMT 47.100174 6.062805 36,000 324 471 0
2019-10-12 14:15:39 GMT 47.095001 6.068642 36,000 323 471 -64
2019-10-12 14:15:36 GMT 47.088287 6.076214 36,000 323 470 -64
2019-10-12 14:15:33 GMT 47.085709 6.079147 36,000 324 471 0
2019-10-12 14:15:30 GMT 47.079117 6.086494 36,000 323 471 0
2019-10-12 14:15:27 GMT 47.074787 6.091285 35,975 324 471 64
2019-10-12 14:15:24 GMT 47.067993 6.098717 36,000 324 471 0
2019-10-12 14:15:21 GMT 47.064514 6.102562 35,975 324 471 0
2019-10-12 14:15:18 GMT 47.054352 6.113548 35,975 324 471 0
2019-10-12 14:15:11 GMT 47.046616 6.121788 35,975 324 470 0
2019-10-12 14:15:06 GMT 47.038925 6.130165 35,975 324 471 0
2019-10-12 14:15:02 GMT 47.032288 6.137375 35,975 324 470 0
2019-10-12 14:14:59 GMT 47.024139 6.146358 35,975 323 470 0
2019-10-12 14:14:56 GMT 47.013386 6.158330 35,975 323 470 -64
2019-10-12 14:14:52 GMT 47.013386 6.158330 35,975 323 470 -64
2019-10-12 14:14:48 GMT 47.007706 6.164703 35,975 322 470 -64
2019-10-12 14:14:45 GMT 47.002026 6.171147 35,975 323 471 -64
2019-10-12 14:14:41 GMT 46.994705 6.179535 35,975 322 470 -64
2019-10-12 14:14:38 GMT 46.990265 6.184685 35,975 322 470 -64
2019-10-12 14:14:35 GMT 46.984615 6.191148 35,975 322 470 -64
2019-10-12 14:14:30 GMT 46.976143 6.201078 36,000 322 470 -128
2019-10-12 14:14:27 GMT 46.971069 6.207064 36,000 322 470 -128
2019-10-12 14:14:24 GMT 46.966366 6.212698 36,000 321 471 -128
2019-10-12 14:14:21 GMT 46.960640 6.219529 36,000 321 470 -64
2019-10-12 14:14:17 GMT 46.954422 6.227051 36,000 320 470 -64
2019-10-12 14:14:14 GMT 46.942951 6.241150 36,000 320 470 -64
2019-10-12 14:14:10 GMT 46.942951 6.241150 35,975 319 469 -64
2019-10-12 14:14:07 GMT 46.937317 6.248122 36,000 320 470 0
2019-10-12 14:14:04 GMT 46.933037 6.253474 36,000 320 469 -64
2019-10-12 14:14:00 GMT 46.925774 6.262559 35,975 319 469 -64
2019-10-12 14:13:57 GMT 46.919724 6.270241 36,000 319 469 -64
2019-10-12 14:13:54 GMT 46.916275 6.274602 36,000 319 469 -64
2019-10-12 14:13:51 GMT 46.910889 6.281502 36,000 319 469 0
2019-10-12 14:13:48 GMT 46.898445 6.297701 35,975 319 468 0
2019-10-12 14:13:43 GMT 46.898445 6.297701 35,975 319 469 0
2019-10-12 14:13:39 GMT 46.891373 6.307068 35,975 318 468 0
2019-10-12 14:13:36 GMT 46.886578 6.313406 35,975 318 468 0
2019-10-12 14:13:33 GMT 46.882061 6.319322 35,975 318 469 -64
2019-10-12 14:13:30 GMT 46.872749 6.331646 35,975 318 468 0
2019-10-12 14:13:27 GMT 46.868088 6.337807 35,975 319 469 -64
2019-10-12 14:13:24 GMT 46.868088 6.337807 35,975 318 469 -64
2019-10-12 14:13:21 GMT 46.862915 6.344538 35,975 318 469 -64
2019-10-12 14:13:17 GMT 46.856186 6.353447 35,975 318 470 -128
2019-10-12 14:13:14 GMT 46.852020 6.358940 35,975 318 469 -64
2019-10-12 14:13:11 GMT 46.847984 6.364243 36,000 318 470 -128
2019-10-12 14:13:08 GMT 46.840584 6.373993 36,000 318 470 -128
2019-10-12 14:13:05 GMT 46.835587 6.380578 36,000 318 470 -128
2019-10-12 14:13:02 GMT 46.831551 6.385872 36,000 319 469 -128
2019-10-12 14:12:57 GMT 46.822845 6.397339 36,000 319 469 -128
2019-10-12 14:12:53 GMT 46.818005 6.403656 36,000 319 469 -64
2019-10-12 14:12:50 GMT 46.813293 6.409786 36,000 319 469 -64
2019-10-12 14:12:47 GMT 46.808647 6.415947 36,000 319 469 -64
2019-10-12 14:12:44 GMT 46.797226 6.430954 36,000 319 468 0
2019-10-12 14:12:41 GMT 46.797226 6.430954 36,000 318 468 -64
2019-10-12 14:12:35 GMT 46.789169 6.441472 35,975 318 468 0
2019-10-12 14:12:32 GMT 46.783882 6.448425 36,000 319 468 0
2019-10-12 14:12:29 GMT 46.779694 6.453918 36,000 319 468 0
2019-10-12 14:12:24 GMT 46.770660 6.465729 35,975 319 468 0
2019-10-12 14:12:20 GMT 46.764084 6.474364 36,000 319 468 0
2019-10-12 14:12:15 GMT 46.754425 6.486958 35,975 319 468 -64
2019-10-12 14:12:11 GMT 46.749298 6.493724 36,000 319 468 0
2019-10-12 14:12:08 GMT 46.746094 6.497944 35,975 319 468 -64
2019-10-12 14:12:05 GMT 46.740448 6.505280 35,975 319 467 0
2019-10-12 14:12:02 GMT 46.735474 6.511744 35,975 319 467 0
2019-10-12 14:11:59 GMT 46.730026 6.518912 35,975 319 467 -64
2019-10-12 14:11:56 GMT 46.721008 6.530635 35,975 319 467 -64
2019-10-12 14:11:53 GMT 46.721008 6.530635 36,000 319 467 -64
2019-10-12 14:11:50 GMT 46.716705 6.536316 36,000 319 467 -64
2019-10-12 14:11:47 GMT 46.712845 6.541328 36,000 319 465 -64
2019-10-12 14:11:44 GMT 46.701736 6.555823 35,975 319 467 -64
2019-10-12 14:11:41 GMT 46.697388 6.561447 36,000 319 467 -64
2019-10-12 14:11:38 GMT 46.697388 6.561447 36,000 319 467 -64
2019-10-12 14:11:35 GMT 46.691437 6.569221 36,000 319 467 -64
2019-10-12 14:11:32 GMT 46.686951 6.575116 36,000 319 467 -64
2019-10-12 14:11:29 GMT 46.682957 6.580330 36,000 319 467 -64
2019-10-12 14:11:24 GMT 46.674774 6.590993 36,000 319 465 -64
2019-10-12 14:11:21 GMT 46.669781 6.597496 36,000 318 464 0
2019-10-12 14:11:18 GMT 46.664986 6.603745 36,000 319 465 -64
2019-10-12 14:11:14 GMT 46.656830 6.614372 35,975 319 465 -64
2019-10-12 14:11:11 GMT 46.652184 6.620430 36,000 319 465 -64
2019-10-12 14:11:08 GMT 46.649300 6.624207 36,000 318 464 -64
2019-10-12 14:11:05 GMT 46.644505 6.630455 36,000 318 464 -64
2019-10-12 14:11:02 GMT 46.639572 6.636948 36,000 318 464 -64
2019-10-12 14:10:59 GMT 46.635452 6.642374 36,000 318 464 0
2019-10-12 14:10:56 GMT 46.630966 6.648202 35,975 318 464 0
2019-10-12 14:10:53 GMT 46.623642 6.657782 35,975 319 464 0
2019-10-12 14:10:50 GMT 46.620579 6.661766 35,975 319 464 0
2019-10-12 14:10:47 GMT 46.615631 6.668232 35,975 319 464 0
2019-10-12 14:10:42 GMT 46.606846 6.679619 36,000 319 464 -64
2019-10-12 14:10:39 GMT 46.601723 6.686279 36,000 319 464 -64
2019-10-12 14:10:36 GMT 46.597904 6.691223 36,000 319 464 -64
2019-10-12 14:10:32 GMT 46.591156 6.699944 36,000 319 464 -64
2019-10-12 14:10:29 GMT 46.586517 6.705948 36,000 319 464 -64
2019-10-12 14:10:26 GMT 46.581890 6.711960 36,000 319 464 -64
2019-10-12 14:10:21 GMT 46.573887 6.722397 36,000 319 464 -64
2019-10-12 14:10:15 GMT 46.564499 6.734619 36,000 319 468 -64
2019-10-12 14:10:11 GMT 46.556213 6.745404 35,975 319 463 0
2019-10-12 14:10:07 GMT 46.552689 6.750027 35,975 319 464 -64
2019-10-12 14:10:04 GMT 46.547722 6.756454 35,975 319 464 0
2019-10-12 14:10:00 GMT 46.540558 6.765769 35,975 319 464 0
2019-10-12 14:09:56 GMT 46.530453 6.778770 35,975 319 465 -64
2019-10-12 14:09:50 GMT 46.524353 6.786667 35,975 319 465 0
2019-10-12 14:09:46 GMT 46.517929 6.794907 35,975 319 466 -64
2019-10-12 14:09:43 GMT 46.508617 6.806923 35,975 319 465 0
2019-10-12 14:09:40 GMT 46.504429 6.812279 36,000 319 465 0
2019-10-12 14:09:33 GMT 46.497849 6.820768 35,975 319 465 0
2019-10-12 14:09:30 GMT 46.492233 6.828072 35,975 319 466 -64
2019-10-12 14:09:27 GMT 46.487228 6.834434 36,000 319 466 -64
2019-10-12 14:09:23 GMT 46.481415 6.841937 36,000 319 467 -64
2019-10-12 14:09:20 GMT 46.475281 6.849775 36,000 319 466 -128
2019-10-12 14:09:17 GMT 46.471935 6.854164 36,000 319 467 -128
2019-10-12 14:09:12 GMT 46.463699 6.864780 36,000 319 467 -64
2019-10-12 14:09:09 GMT 46.458847 6.871010 36,000 319 468 -128
2019-10-12 14:09:06 GMT 46.454315 6.876838 36,000 319 468 -64
2019-10-12 14:09:02 GMT 46.446751 6.886642 36,000 319 468 -64
2019-10-12 14:08:59 GMT 46.440445 6.894725 36,000 319 467 -64
2019-10-12 14:08:56 GMT 46.436874 6.899347 36,000 319 467 -64
2019-10-12 14:08:53 GMT 46.433029 6.904304 36,000 319 467 -64
2019-10-12 14:08:50 GMT 46.428177 6.910534 36,000 319 464 0
2019-10-12 14:08:47 GMT 46.418198 6.923463 36,000 319 467 0
2019-10-12 14:08:41 GMT 46.412384 6.930899 35,975 319 466 0
2019-10-12 14:08:38 GMT 46.408859 6.935455 36,000 319 466 0
2019-10-12 14:08:35 GMT 46.403549 6.942261 36,000 319 466 0
2019-10-12 14:08:31 GMT 46.396317 6.951599 36,000 319 464 0
2019-10-12 14:08:28 GMT 46.391678 6.957573 36,000 319 464 -64
2019-10-12 14:08:25 GMT 46.387024 6.963590 36,000 319 464 0
2019-10-12 14:08:22 GMT 46.383347 6.968285 36,000 319 464 0
2019-10-12 14:08:19 GMT 46.378693 6.974309 36,000 319 464 0
2019-10-12 14:08:16 GMT 46.373245 6.981276 35,975 319 464 0
2019-10-12 14:08:13 GMT 46.369400 6.986233 35,975 319 464 0
2019-10-12 14:08:09 GMT 46.363144 6.994308 36,000 319 465 64
2019-10-12 14:08:06 GMT 46.356392 7.002960 35,975 319 464 64
2019-10-12 14:08:03 GMT 46.352573 7.007904 35,975 319 464 64
2019-10-12 14:08:00 GMT 46.343124 7.020063 35,975 319 464 0
2019-10-12 14:07:54 GMT 46.337166 7.027679 35,975 319 464 -64
2019-10-12 14:07:51 GMT 46.334106 7.031585 35,975 319 464 -64
2019-10-12 14:07:48 GMT 46.328339 7.039021 35,975 319 464 -64
2019-10-12 14:07:44 GMT 46.317444 7.053022 36,000 319 465 -128
2019-10-12 14:07:41 GMT 46.317444 7.053022 35,975 319 464 -64
2019-10-12 14:07:38 GMT 46.311356 7.060859 36,000 319 465 -64
2019-10-12 14:07:33 GMT 46.302486 7.072174 36,000 319 465 -64
2019-10-12 14:07:30 GMT 46.299454 7.076133 36,000 319 465 -64
2019-10-12 14:07:27 GMT 46.295132 7.081718 36,000 319 465 -64
2019-10-12 14:07:23 GMT 46.286911 7.092211 36,000 319 465 -64
2019-10-12 14:07:19 GMT 46.282425 7.097972 36,000 319 468 -128
2019-10-12 14:07:16 GMT 46.276932 7.104939 36,000 319 465 0
2019-10-12 14:07:13 GMT 46.272274 7.110901 36,000 319 465 0
2019-10-12 14:07:10 GMT 46.267479 7.117081 35,975 319 465 64
2019-10-12 14:07:07 GMT 46.261055 7.125320 35,975 319 465 64
2019-10-12 14:07:04 GMT 46.256538 7.131157 35,975 319 466 0
2019-10-12 14:07:01 GMT 46.253174 7.135486 35,975 319 466 0
2019-10-12 14:06:58 GMT 46.241547 7.150291 36,000 319 468 -128
2019-10-12 14:06:51 GMT 46.237656 7.155248 35,975 319 467 -64
2019-10-12 14:06:48 GMT 46.232006 7.162468 35,975 319 468 -128
2019-10-12 14:06:45 GMT 46.227814 7.167892 35,975 319 468 -128
2019-10-12 14:06:42 GMT 46.221951 7.175308 36,000 319 468 -128
2019-10-12 14:06:39 GMT 46.217110 7.181488 36,000 319 468 -128
2019-10-12 14:06:35 GMT 46.209007 7.191856 36,000 319 469 -64
2019-10-12 14:06:32 GMT 46.206402 7.195152 36,000 319 469 -64
2019-10-12 14:06:29 GMT 46.200211 7.202980 36,000 319 469 -64
2019-10-12 14:06:26 GMT 46.192566 7.212725 35,975 319 468 -64
2019-10-12 14:06:20 GMT 46.186752 7.220161 36,000 319 469 -64
2019-10-12 14:06:17 GMT 46.175861 7.233948 36,000 319 469 -64
2019-10-12 14:06:14 GMT 46.175861 7.233948 36,000 319 469 0
2019-10-12 14:06:11 GMT 46.172424 7.238315 35,975 319 469 -64
2019-10-12 14:06:08 GMT 46.166611 7.245751 35,975 319 469 -64
2019-10-12 14:06:05 GMT 46.162224 7.251251 36,000 319 468 -64
2019-10-12 14:06:02 GMT 46.156815 7.258077 35,975 314 466 0
2019-10-12 14:05:59 GMT 46.152122 7.264023 36,000 318 468 0
2019-10-12 14:05:56 GMT 46.148071 7.269198 36,000 319 468 0
2019-10-12 14:05:53 GMT 46.142578 7.276299 36,000 318 467 0
2019-10-12 14:05:50 GMT 46.136063 7.284897 36,000 318 467 -64
2019-10-12 14:05:47 GMT 46.133011 7.288893 36,000 317 467 -64
2019-10-12 14:05:43 GMT 46.126240 7.298012 36,000 317 467 0
2019-10-12 14:05:39 GMT 46.120468 7.305975 36,000 317 467 -64
2019-10-12 14:05:36 GMT 46.116440 7.311602 36,000 316 466 -64
2019-10-12 14:05:32 GMT 46.108269 7.323074 36,000 315 466 0
2019-10-12 14:05:28 GMT 46.103706 7.329666 35,975 315 466 0
2019-10-12 14:05:25 GMT 46.098866 7.336739 36,000 315 466 0
2019-10-12 14:05:20 GMT 46.089752 7.350389 35,975 314 466 0
2019-10-12 14:05:17 GMT 46.086777 7.354878 35,975 314 466 0
2019-10-12 14:05:09 GMT 46.070114 7.380803 35,975 313 466 -64
2019-10-12 14:05:06 GMT 46.070114 7.380803 36,000 312 466 -64
2019-10-12 14:05:00 GMT 46.062229 7.393524 36,000 312 466 -64
2019-10-12 14:04:56 GMT 46.052265 7.409798 36,000 312 466 -64
2019-10-12 14:04:53 GMT 46.046589 7.419067 35,975 312 466 -64
2019-10-12 14:04:50 GMT 46.046589 7.419067 36,000 312 466 -64
2019-10-12 14:04:47 GMT 46.043015 7.424882 36,000 312 466 -64
2019-10-12 14:04:44 GMT 46.039467 7.430740 36,000 312 466 -64
2019-10-12 14:04:40 GMT 46.033905 7.439821 35,975 312 466 0
2019-10-12 14:04:36 GMT 46.027500 7.450241 35,975 312 466 64
2019-10-12 14:04:33 GMT 46.022381 7.458618 35,975 312 466 0
2019-10-12 14:04:30 GMT 46.019493 7.463287 35,975 312 466 64
2019-10-12 14:04:26 GMT 46.013351 7.473249 35,975 312 466 0
2019-10-12 14:04:23 GMT 46.009918 7.478809 35,975 312 466 -64
2019-10-12 14:04:19 GMT 46.004364 7.487801 35,975 312 466 -64
2019-10-12 14:04:16 GMT 45.999802 7.495216 36,000 312 466 -64
2019-10-12 14:04:13 GMT 45.995636 7.501987 36,000 312 467 -64
2019-10-12 14:04:09 GMT 45.989914 7.511232 36,000 312 466 -64
2019-10-12 14:04:06 GMT 45.984192 7.520477 35,975 312 466 -64
2019-10-12 14:04:03 GMT 45.981182 7.525360 36,000 312 466 -64
2019-10-12 14:03:59 GMT 45.975632 7.534410 35,975 312 466 0
2019-10-12 14:03:56 GMT 45.970940 7.542046 36,000 312 466 -64
2019-10-12 14:03:53 GMT 45.966331 7.549461 35,975 312 466 -64
2019-10-12 14:03:48 GMT 45.958511 7.562211 35,975 312 466 -64
2019-10-12 14:03:44 GMT 45.953484 7.570267 36,000 312 466 -64
2019-10-12 14:03:35 GMT 45.940659 7.590682 36,000 313 466 -64
2019-10-12 14:03:32 GMT 45.936398 7.597321 36,000 313 466 -64
2019-10-12 14:03:28 GMT 45.923550 7.617302 36,000 313 465 -64
2019-10-12 14:03:23 GMT 45.923550 7.617302 35,975 313 465 -64
2019-10-12 14:03:20 GMT 45.919781 7.623207 35,975 313 465 -64
2019-10-12 14:03:16 GMT 45.913357 7.633163 36,000 313 464 -64
2019-10-12 14:03:12 GMT 45.897015 7.658432 36,000 313 464 -64
2019-10-12 14:03:05 GMT 45.897015 7.658432 36,000 313 464 -64
2019-10-12 14:03:02 GMT 45.893196 7.664268 36,000 313 464 -64
2019-10-12 14:02:59 GMT 45.889381 7.670174 36,000 313 464 -64
2019-10-12 14:02:56 GMT 45.883987 7.678506 36,000 313 464 -64
2019-10-12 14:02:53 GMT 45.879139 7.685898 36,000 313 464 -64
2019-10-12 14:02:50 GMT 45.873878 7.694000 36,000 313 464 -64
2019-10-12 14:02:47 GMT 45.870667 7.698944 36,000 313 464 -64
2019-10-12 14:02:44 GMT 45.864990 7.707713 36,000 313 464 -64
2019-10-12 14:02:40 GMT 45.859867 7.715561 36,000 313 463 0
2019-10-12 14:02:33 GMT 45.850231 7.730392 35,975 313 463 0
2019-10-12 14:02:30 GMT 45.847183 7.735112 35,975 313 463 0
2019-10-12 14:02:27 GMT 45.842083 7.742958 35,975 313 463 64
2019-10-12 14:02:24 GMT 45.836700 7.751256 35,975 313 463 0
2019-10-12 14:02:19 GMT 45.830120 7.761360 35,975 313 463 -64
2019-10-12 14:02:14 GMT 45.816994 7.781548 35,975 313 463 0
2019-10-12 14:02:08 GMT 45.814663 7.785118 35,975 314 464 0
2019-10-12 14:02:05 GMT 45.809402 7.793221 35,975 314 466 -128
2019-10-12 14:02:01 GMT 45.802700 7.803520 35,975 314 466 -128
2019-10-12 14:01:58 GMT 45.799622 7.808265 36,000 314 466 -128
2019-10-12 14:01:54 GMT 45.793488 7.817643 35,975 313 465 -64
2019-10-12 14:01:51 GMT 45.789368 7.823940 35,975 313 464 0
2019-10-12 14:01:47 GMT 45.784103 7.832046 36,000 313 465 -64
2019-10-12 14:01:41 GMT 45.774994 7.845980 36,000 314 466 -128
2019-10-12 14:01:38 GMT 45.770004 7.853617 36,000 314 466 -128
2019-10-12 14:01:35 GMT 45.766621 7.858795 36,000 314 466 -128
2019-10-12 14:01:31 GMT 45.759430 7.869828 36,000 314 466 -128
2019-10-12 14:01:28 GMT 45.754120 7.877934 36,000 314 466 -64
2019-10-12 14:01:24 GMT 45.750141 7.883995 36,000 314 466 -64
2019-10-12 14:01:21 GMT 45.739105 7.900912 36,000 314 466 0
2019-10-12 14:01:18 GMT 45.736176 7.905400 36,000 314 466 0
2019-10-12 14:01:15 GMT 45.736176 7.905400 36,000 314 466 0
2019-10-12 14:01:12 GMT 45.724865 7.922722 36,000 314 465 0
2019-10-12 14:01:08 GMT 45.724865 7.922722 36,000 314 465 0
2019-10-12 14:01:05 GMT 45.719883 7.930344 35,975 314 465 0
2019-10-12 14:01:02 GMT 45.717087 7.934608 36,000 314 465 0
2019-10-12 14:00:59 GMT 45.712528 7.941605 35,975 314 465 64
2019-10-12 14:00:56 GMT 45.708107 7.948334 35,975 314 465 64
2019-10-12 14:00:52 GMT 45.702393 7.957049 35,975 313 464 -64
2019-10-12 14:00:48 GMT 45.696655 7.965775 35,975 313 464 0
2019-10-12 14:00:45 GMT 45.692139 7.972725 35,975 313 464 -64
2019-10-12 14:00:42 GMT 45.686554 7.981299 35,975 314 465 0
2019-10-12 14:00:39 GMT 45.682434 7.987529 35,975 314 464 -64
2019-10-12 14:00:35 GMT 45.677170 7.995568 36,000 314 464 -64
2019-10-12 14:00:29 GMT 45.668655 8.008564 35,975 314 464 -64
2019-10-12 14:00:26 GMT 45.663509 8.016380 36,000 314 464 -64
2019-10-12 14:00:20 GMT 45.653961 8.030939 36,000 314 464 -64
2019-10-12 14:00:17 GMT 45.650894 8.035606 35,975 314 464 -64
2019-10-12 14:00:14 GMT 45.645172 8.044337 35,975 314 464 -64
2019-10-12 14:00:05 GMT 45.633018 8.062866 35,975 314 464 -64
2019-10-12 14:00:02 GMT 45.627708 8.070900 36,000 314 463 0
2019-10-12 13:59:59 GMT 45.623055 8.077972 35,975 314 463 0
2019-10-12 13:59:53 GMT 45.614536 8.090950 36,000 314 463 0
2019-10-12 13:59:48 GMT 45.608669 8.099808 36,000 314 463 0
2019-10-12 13:59:44 GMT 45.603561 8.107642 36,000 314 463 0
2019-10-12 13:59:41 GMT 45.598476 8.115395 36,000 314 463 0
2019-10-12 13:59:36 GMT 45.592007 8.125145 36,000 314 462 0
2019-10-12 13:59:33 GMT 45.581909 8.140467 36,000 314 462 -64
2019-10-12 13:59:30 GMT 45.581909 8.140467 36,000 314 462 0
2019-10-12 13:59:25 GMT 45.575775 8.149779 35,975 314 462 0
2019-10-12 13:59:21 GMT 45.569473 8.159340 36,000 314 463 0
2019-10-12 13:59:18 GMT 45.564651 8.166660 35,975 314 462 0
2019-10-12 13:59:15 GMT 45.561001 8.172180 35,975 314 462 0
2019-10-12 13:59:11 GMT 45.553085 8.184196 36,000 314 463 0
2019-10-12 13:59:06 GMT 45.547222 8.193054 35,975 314 462 -64
2019-10-12 13:58:59 GMT 45.536819 8.208814 36,000 314 463 -64
2019-10-12 13:58:56 GMT 45.533161 8.214357 36,000 314 463 -64
2019-10-12 13:58:52 GMT 45.527020 8.223669 36,000 314 464 -64
2019-10-12 13:58:49 GMT 45.518497 8.236598 35,975 314 464 0
2019-10-12 13:58:46 GMT 45.518497 8.236598 35,975 314 464 -64
2019-10-12 13:58:42 GMT 45.512787 8.245239 36,000 314 464 -64
2019-10-12 13:58:38 GMT 45.505463 8.256356 35,975 314 464 0
2019-10-12 13:58:32 GMT 45.498093 8.267408 35,975 314 464 -64
2019-10-12 13:58:29 GMT 45.492058 8.276523 36,000 314 464 -64
2019-10-12 13:58:26 GMT 45.487961 8.282754 35,975 314 464 -64
2019-10-12 13:58:23 GMT 45.483540 8.289386 35,975 314 464 -64
2019-10-12 13:58:16 GMT 45.473694 8.304225 36,000 314 464 -64
2019-10-12 13:58:13 GMT 45.468704 8.311811 35,975 314 463 -64
2019-10-12 13:58:08 GMT 45.458405 8.327310 36,000 314 464 -64
2019-10-12 13:58:02 GMT 45.452225 8.336596 36,000 314 463 -64
2019-10-12 13:57:55 GMT 45.441971 8.352160 36,000 314 463 0
2019-10-12 13:57:52 GMT 45.434750 8.362940 36,000 314 463 -64
2019-10-12 13:57:49 GMT 45.429165 8.371381 36,000 314 463 -64
2019-10-12 13:57:45 GMT 45.429165 8.371381 35,975 314 463 64
2019-10-12 13:57:42 GMT 45.424576 8.378187 36,000 314 463 -64
2019-10-12 13:57:39 GMT 45.411621 8.397609 36,000 314 463 -64
2019-10-12 13:57:34 GMT 45.411621 8.397609 36,000 314 463 0
2019-10-12 13:57:31 GMT 45.407501 8.403822 35,975 314 463 0
2019-10-12 13:57:28 GMT 45.402954 8.410637 35,975 314 462 0
2019-10-12 13:57:24 GMT 45.396206 8.420820 35,975 314 463 -64
2019-10-12 13:57:20 GMT 45.386627 8.435146 36,000 314 463 -64
2019-10-12 13:57:17 GMT 45.381638 8.442666 36,000 314 463 -64
2019-10-12 13:57:14 GMT 45.381638 8.442666 36,000 314 463 -64
2019-10-12 13:57:11 GMT 45.377518 8.448879 36,000 314 463 -64
2019-10-12 13:57:06 GMT 45.370323 8.459674 36,000 314 463 -64
2019-10-12 13:57:02 GMT 45.365295 8.467176 36,000 314 462 -64
2019-10-12 13:56:59 GMT 45.360168 8.474906 35,975 314 462 -64
2019-10-12 13:56:56 GMT 45.356049 8.481053 36,000 314 462 -64
2019-10-12 13:56:53 GMT 45.351334 8.488116 35,975 314 462 -64
2019-10-12 13:56:49 GMT 45.346210 8.495848 36,000 314 463 -64
2019-10-12 13:56:46 GMT 45.339569 8.505707 36,000 314 462 -64
2019-10-12 13:56:43 GMT 45.337234 8.509238 36,000 314 462 -64
2019-10-12 13:56:40 GMT 45.331451 8.517821 36,000 314 463 -64
2019-10-12 13:56:33 GMT 45.318836 8.536712 35,975 314 463 -64
2019-10-12 13:56:30 GMT 45.318836 8.536712 35,975 314 462 -64
2019-10-12 13:56:27 GMT 45.313385 8.544878 36,000 314 462 -64
2019-10-12 13:56:23 GMT 45.308670 8.551876 36,000 314 462 -64
2019-10-12 13:56:19 GMT 45.301346 8.562862 36,000 314 462 -64
2019-10-12 13:56:15 GMT 45.295002 8.572350 36,000 314 461 0
2019-10-12 13:56:11 GMT 45.290627 8.578915 36,000 314 461 0
2019-10-12 13:56:08 GMT 45.286057 8.585750 35,975 314 461 0
2019-10-12 13:56:04 GMT 45.279556 8.595363 35,975 314 461 0
2019-10-12 13:56:00 GMT 45.273819 8.603903 36,000 314 461 0
2019-10-12 13:55:57 GMT 45.269726 8.610066 36,000 314 461 64
2019-10-12 13:55:54 GMT 45.264587 8.617728 35,975 314 461 64
2019-10-12 13:55:50 GMT 45.257992 8.627617 36,000 314 461 -64
2019-10-12 13:55:42 GMT 45.248428 8.641859 36,000 314 461 -64
2019-10-12 13:55:37 GMT 45.240784 8.653237 36,000 314 462 -64
2019-10-12 13:55:32 GMT 45.232819 8.665074 36,000 314 461 -64
2019-10-12 13:55:29 GMT 45.228291 8.671897 35,975 314 461 -64
2019-10-12 13:55:26 GMT 45.217850 8.687439 36,000 314 461 -64
2019-10-12 13:55:22 GMT 45.217850 8.687439 36,000 314 461 -64
2019-10-12 13:55:19 GMT 45.214325 8.692736 36,000 314 461 0
2019-10-12 13:55:16 GMT 45.210045 8.699095 36,000 314 461 0
2019-10-12 13:55:13 GMT 45.203430 8.708888 35,975 314 461 0
2019-10-12 13:55:08 GMT 45.197525 8.717651 36,000 314 461 0
2019-10-12 13:55:05 GMT 45.193085 8.724191 35,975 314 461 -64
2019-10-12 13:55:02 GMT 45.188965 8.730273 35,975 314 461 -64
2019-10-12 13:54:59 GMT 45.183655 8.738120 35,975 314 461 -64
2019-10-12 13:54:56 GMT 45.179691 8.743978 36,000 314 461 -64
2019-10-12 13:54:53 GMT 45.175964 8.749433 36,000 314 461 -64
2019-10-12 13:54:50 GMT 45.170521 8.757443 36,000 314 461 0
2019-10-12 13:54:46 GMT 45.165344 8.765128 36,000 314 461 -64
2019-10-12 13:54:43 GMT 45.160950 8.771667 35,975 314 461 0
2019-10-12 13:54:40 GMT 45.154770 8.780823 35,975 314 461 0
2019-10-12 13:54:36 GMT 45.150223 8.787589 36,000 314 461 -64
2019-10-12 13:54:33 GMT 45.145935 8.793902 36,000 314 461 -64
2019-10-12 13:54:29 GMT 45.138885 8.804365 36,000 314 461 0
2019-10-12 13:54:26 GMT 45.134491 8.810904 35,975 314 461 -64
2019-10-12 13:54:22 GMT 45.129776 8.817902 35,975 314 461 0
2019-10-12 13:54:18 GMT 45.121639 8.829859 35,975 314 461 0
2019-10-12 13:54:13 GMT 45.116661 8.837295 35,975 314 461 -64
2019-10-12 13:54:09 GMT 45.110916 8.845760 36,000 314 461 -64
2019-10-12 13:54:05 GMT 45.097641 8.865378 36,000 314 460 -64
2019-10-12 13:54:01 GMT 45.097641 8.865378 35,975 314 461 -64
2019-10-12 13:53:56 GMT 45.091614 8.874274 36,000 314 461 0
2019-10-12 13:53:53 GMT 45.078674 8.893433 36,000 314 461 -64
2019-10-12 13:53:48 GMT 45.075256 8.898403 36,000 314 460 -64
2019-10-12 13:53:42 GMT 45.071732 8.903634 36,000 314 460 0
2019-10-12 13:53:39 GMT 45.057491 8.924717 35,975 314 460 0
2019-10-12 13:53:34 GMT 45.057491 8.924717 35,975 314 460 0
2019-10-12 13:53:30 GMT 45.051907 8.932957 35,975 314 460 0
2019-10-12 13:53:26 GMT 45.047203 8.939924 35,975 314 459 0
2019-10-12 13:53:23 GMT 45.042343 8.947056 35,975 314 459 0
2019-10-12 13:53:19 GMT 45.035019 8.957912 35,975 314 459 -64
2019-10-12 13:53:16 GMT 45.031174 8.963536 36,000 314 459 -64
2019-10-12 13:53:12 GMT 45.026459 8.970468 36,000 314 459 -64
2019-10-12 13:53:09 GMT 45.015453 8.986682 36,000 314 459 -64
2019-10-12 13:53:05 GMT 45.015453 8.986682 36,000 314 459 -64
2019-10-12 13:53:01 GMT 45.010475 8.994051 36,000 314 459 -64
2019-10-12 13:52:57 GMT 45.000000 9.009378 35,975 314 459 0
2019-10-12 13:52:54 GMT 45.000000 9.009378 35,975 314 459 0
2019-10-12 13:52:50 GMT 44.987915 9.027034 35,975 314 459 0
2019-10-12 13:52:47 GMT 44.983662 9.033307 35,975 314 459 0
2019-10-12 13:52:43 GMT 44.983662 9.033307 36,000 314 459 0
2019-10-12 13:52:40 GMT 44.979237 9.039738 36,000 314 459 0
2019-10-12 13:52:37 GMT 44.974136 9.047307 35,975 314 459 -64
2019-10-12 13:52:30 GMT 44.964111 9.061955 35,975 314 459 0
2019-10-12 13:52:27 GMT 44.960754 9.066869 35,975 314 459 0
2019-10-12 13:52:24 GMT 44.956192 9.073595 35,975 314 459 0
2019-10-12 13:52:21 GMT 44.947815 9.085827 35,975 314 459 0
2019-10-12 13:52:18 GMT 44.942963 9.092952 35,975 314 458 -64
2019-10-12 13:52:15 GMT 44.942963 9.092952 35,975 314 458 -64
2019-10-12 13:52:12 GMT 44.937527 9.100900 35,975 314 458 -64
2019-10-12 13:52:08 GMT 44.932266 9.108671 35,975 314 458 -64
2019-10-12 13:52:05 GMT 44.920074 9.126500 35,975 314 458 -64
2019-10-12 13:52:00 GMT 44.920074 9.126500 36,000 314 458 -64
2019-10-12 13:51:56 GMT 44.915230 9.133591 35,975 314 458 -64
2019-10-12 13:51:53 GMT 44.910370 9.140625 35,975 314 458 -64
2019-10-12 13:51:50 GMT 44.905827 9.147324 36,000 314 458 -64
2019-10-12 13:51:47 GMT 44.901402 9.153755 36,000 314 458 -64
2019-10-12 13:51:44 GMT 44.897461 9.159524 36,000 314 458 -64
2019-10-12 13:51:41 GMT 44.893066 9.165998 36,000 314 458 -64
2019-10-12 13:51:38 GMT 44.884827 9.177965 36,000 314 458 0
2019-10-12 13:51:32 GMT 44.879837 9.185224 35,975 315 457 -64
2019-10-12 13:51:29 GMT 44.870304 9.199174 35,975 315 457 -64
2019-10-12 13:51:26 GMT 44.870304 9.199174 35,975 315 457 -64
2019-10-12 13:51:23 GMT 44.866489 9.204734 35,975 315 457 -64
2019-10-12 13:51:20 GMT 44.862671 9.210294 36,000 315 457 -64
2019-10-12 13:51:15 GMT 44.854568 9.222042 35,975 315 457 -64
2019-10-12 13:51:10 GMT 44.847244 9.232766 36,000 315 457 -64
2019-10-12 13:51:07 GMT 44.838409 9.245584 36,000 315 457 -64
2019-10-12 13:51:04 GMT 44.832691 9.253905 36,000 315 457 -64
2019-10-12 13:51:00 GMT 44.832691 9.253905 36,000 314 456 0
2019-10-12 13:50:55 GMT 44.824497 9.265896 36,000 314 456 0
2019-10-12 13:50:49 GMT 44.816437 9.277627 35,975 315 456 -128
2019-10-12 13:50:46 GMT 44.812160 9.283782 35,975 314 456 64
2019-10-12 13:50:43 GMT 44.807785 9.290213 35,975 314 456 64
2019-10-12 13:50:40 GMT 44.804123 9.295545 35,975 315 456 0
2019-10-12 13:50:37 GMT 44.798813 9.303196 35,975 315 456 0
2019-10-12 13:50:34 GMT 44.794285 9.309841 35,975 315 457 -64
2019-10-12 13:50:31 GMT 44.790619 9.315164 35,975 315 457 -64
2019-10-12 13:50:27 GMT 44.779621 9.331144 35,975 315 457 -128
2019-10-12 13:50:24 GMT 44.779621 9.331144 35,975 315 456 -128
2019-10-12 13:50:21 GMT 44.775055 9.337725 36,000 315 456 -128
2019-10-12 13:50:17 GMT 44.769611 9.345614 36,000 315 457 -64
2019-10-12 13:50:14 GMT 44.764912 9.352447 36,000 314 458 128
2019-10-12 13:50:11 GMT 44.756393 9.364840 36,000 314 458 128
2019-10-12 13:50:08 GMT 44.756393 9.364840 35,975 315 459 640
2019-10-12 13:50:03 GMT 44.747871 9.377233 35,950 315 458 384
2019-10-12 13:50:00 GMT 44.743011 9.384286 35,925 315 458 512
2019-10-12 13:49:57 GMT 44.740906 9.387294 35,450 315 459 640
2019-10-12 13:49:52 GMT 44.732666 9.399261 35,850 315 458 704
2019-10-12 13:49:48 GMT 44.726925 9.407646 35,825 315 459 704
2019-10-12 13:49:45 GMT 44.723061 9.413207 35,775 315 459 640
2019-10-12 13:49:42 GMT 44.714214 9.426069 35,675 315 459 640
2019-10-12 13:49:35 GMT 44.708130 9.434836 35,675 315 459 640
2019-10-12 13:49:32 GMT 44.703140 9.442095 35,650 315 459 640
2019-10-12 13:49:29 GMT 44.698700 9.448504 35,600 315 459 576
2019-10-12 13:49:25 GMT 44.692940 9.456817 35,550 315 459 576
2019-10-12 13:49:21 GMT 44.686703 9.465861 35,525 315 459 576
2019-10-12 13:49:18 GMT 44.683167 9.470952 35,500 315 459 576
2019-10-12 13:49:14 GMT 44.677254 9.479526 35,475 315 460 640
2019-10-12 13:49:11 GMT 44.671295 9.488034 35,450 315 460 640
2019-10-12 13:49:05 GMT 44.662537 9.500623 35,375 315 460 640
2019-10-12 13:49:02 GMT 44.651138 9.517108 35,300 315 460 640
2019-10-12 13:48:58 GMT 44.651138 9.517108 35,275 315 460 704
2019-10-12 13:48:53 GMT 44.645832 9.524745 34,800 315 460 768
2019-10-12 13:48:50 GMT 44.639267 9.534123 35,200 315 459 768
2019-10-12 13:48:47 GMT 44.636169 9.538618 35,150 315 460 768
2019-10-12 13:48:44 GMT 44.623859 9.556364 35,075 315 460 768
2019-10-12 13:48:39 GMT 44.620468 9.561244 34,975 315 460 768
2019-10-12 13:48:33 GMT 44.614082 9.570432 34,975 315 461 832
2019-10-12 13:48:30 GMT 44.611988 9.573446 34,800 315 461 896
2019-10-12 13:48:27 GMT 44.606960 9.580748 34,875 315 461 896
2019-10-12 13:48:22 GMT 44.600395 9.590127 34,800 315 461 960
2019-10-12 13:48:19 GMT 44.591034 9.603686 34,600 315 463 1088
2019-10-12 13:48:16 GMT 44.591034 9.603686 34,600 315 463 1088
2019-10-12 13:48:13 GMT 44.586105 9.610759 34,575 315 463 1088
2019-10-12 13:48:10 GMT 44.577492 9.623220 34,425 315 463 1088
2019-10-12 13:48:04 GMT 44.572975 9.629651 34,475 315 463 1088
2019-10-12 13:48:00 GMT 44.565079 9.641026 34,375 315 464 1088
2019-10-12 13:47:55 GMT 44.559357 9.649200 34,275 315 465 1024
2019-10-12 13:47:51 GMT 44.553192 9.658054 34,250 315 465 1024
2019-10-12 13:47:48 GMT 44.549328 9.663614 34,175 315 465 1024
2019-10-12 13:47:45 GMT 44.542995 9.672725 34,125 315 466 1024
2019-10-12 13:47:39 GMT 44.535004 9.684121 34,025 315 466 960
2019-10-12 13:47:36 GMT 44.531265 9.689539 34,025 315 466 960
2019-10-12 13:47:33 GMT 44.525585 9.697779 33,875 315 466 960
2019-10-12 13:47:28 GMT 44.519394 9.706617 33,850 315 467 896
2019-10-12 13:47:25 GMT 44.514313 9.714007 33,825 315 467 896
2019-10-12 13:47:22 GMT 44.509338 9.721159 33,800 315 467 896
2019-10-12 13:47:19 GMT 44.502960 9.730202 33,700 315 467 960
2019-10-12 13:47:13 GMT 44.494675 9.742061 33,575 315 468 1024
2019-10-12 13:47:09 GMT 44.489647 9.749227 33,575 315 468 1024
2019-10-12 13:47:05 GMT 44.484375 9.756775 33,450 315 468 1024
2019-10-12 13:47:02 GMT 44.478756 9.764769 33,450 315 468 1024
2019-10-12 13:46:58 GMT 44.472244 9.774039 33,375 315 468 1024
2019-10-12 13:46:55 GMT 44.468468 9.779507 33,225 315 469 1088
2019-10-12 13:46:52 GMT 44.462975 9.787278 33,225 315 469 1088
2019-10-12 13:46:49 GMT 44.459015 9.792905 33,075 315 471 1088
2019-10-12 13:46:46 GMT 44.453705 9.800459 33,150 315 470 1088
2019-10-12 13:46:42 GMT 44.448959 9.807174 33,100 315 470 1152
2019-10-12 13:46:39 GMT 44.444401 9.813672 33,050 315 471 1088
2019-10-12 13:46:36 GMT 44.440292 9.819554 33,000 315 471 1088
2019-10-12 13:46:33 GMT 44.434017 9.828476 32,925 315 471 1088
2019-10-12 13:46:30 GMT 44.430817 9.833025 32,875 315 472 1024
2019-10-12 13:46:27 GMT 44.425323 9.840873 32,850 315 473 1024
2019-10-12 13:46:22 GMT 44.418144 9.851119 32,775 315 473 1024
2019-10-12 13:46:19 GMT 44.414337 9.856567 32,675 315 473 960
2019-10-12 13:46:16 GMT 44.410183 9.862440 32,650 315 473 960
2019-10-12 13:46:13 GMT 44.403152 9.872489 32,575 315 473 960
2019-10-12 13:46:10 GMT 44.397942 9.879924 32,450 315 473 832
2019-10-12 13:46:06 GMT 44.393509 9.886257 32,475 315 473 896
2019-10-12 13:46:03 GMT 44.388290 9.893646 32,425 315 473 896
2019-10-12 13:46:00 GMT 44.384903 9.898485 32,375 315 474 832
2019-10-12 13:45:57 GMT 44.380646 9.904567 32,325 315 473 832
2019-10-12 13:45:54 GMT 44.376022 9.911107 32,325 315 473 832
2019-10-12 13:45:50 GMT 44.369728 9.920051 32,250 315 473 832
2019-10-12 13:45:47 GMT 44.364189 9.927889 32,225 315 473 832
2019-10-12 13:45:44 GMT 44.360233 9.933583 32,200 315 473 832
2019-10-12 13:45:40 GMT 44.352833 9.944034 32,125 315 473 832
2019-10-12 13:45:34 GMT 44.339172 9.963423 32,075 315 473 832
2019-10-12 13:45:29 GMT 44.335934 9.968016 31,975 315 474 896
2019-10-12 13:45:26 GMT 44.330719 9.975452 31,925 315 474 896
2019-10-12 13:45:23 GMT 44.326859 9.980883 31,900 315 474 896
2019-10-12 13:45:18 GMT 44.318253 9.993046 31,825 315 474 896
2019-10-12 13:45:14 GMT 44.307304 10.008478 31,725 315 475 960
2019-10-12 13:45:09 GMT 44.307304 10.008478 31,700 315 475 960
2019-10-12 13:45:06 GMT 44.299900 10.018928 31,625 315 475 960
2019-10-12 13:45:02 GMT 44.296501 10.023685 31,525 315 475 1024
2019-10-12 13:44:57 GMT 44.288910 10.034376 31,475 315 475 960
2019-10-12 13:44:54 GMT 44.282455 10.043531 31,400 315 475 960
2019-10-12 13:44:50 GMT 44.277042 10.051150 31,375 315 475 960
2019-10-12 13:44:46 GMT 44.271057 10.059684 31,350 315 475 960
2019-10-12 13:44:42 GMT 44.265034 10.068233 31,275 315 475 1024
2019-10-12 13:44:38 GMT 44.257828 10.078517 31,175 315 476 1088
2019-10-12 13:44:35 GMT 44.248692 10.091411 31,075 315 476 1152
2019-10-12 13:44:31 GMT 44.248692 10.091411 31,075 315 476 1088
2019-10-12 13:44:26 GMT 44.239105 10.104943 30,950 315 477 1152
2019-10-12 13:44:21 GMT 44.231552 10.115662 30,850 315 478 1216
2019-10-12 13:44:17 GMT 44.224731 10.125340 30,775 315 478 1152
2019-10-12 13:44:11 GMT 44.216995 10.136261 30,600 315 478 1216
2019-10-12 13:44:08 GMT 44.213081 10.141721 30,500 315 480 1280
2019-10-12 13:44:04 GMT 44.201431 10.158234 30,425 315 480 1344
2019-10-12 13:44:01 GMT 44.201431 10.158234 30,475 315 480 1280
2019-10-12 13:43:58 GMT 44.197254 10.164162 30,375 315 480 1344
2019-10-12 13:43:54 GMT 44.190857 10.173148 30,350 315 480 1344
2019-10-12 13:43:51 GMT 44.185383 10.180860 30,175 315 482 1344
2019-10-12 13:43:47 GMT 44.179916 10.188542 30,200 315 482 1344
2019-10-12 13:43:43 GMT 44.173138 10.197994 29,975 315 483 1152
2019-10-12 13:43:39 GMT 44.159821 10.216774 29,975 315 483 1152
2019-10-12 13:43:35 GMT 44.159821 10.216774 29,650 315 484 1088
2019-10-12 13:43:32 GMT 44.149258 10.231607 29,800 315 484 1088
2019-10-12 13:43:29 GMT 44.149258 10.231607 29,825 315 484 1088
2019-10-12 13:43:26 GMT 44.141392 10.242658 29,700 315 484 1088
2019-10-12 13:43:23 GMT 44.136200 10.249925 29,650 315 485 1088
2019-10-12 13:43:19 GMT 44.136200 10.249925 29,650 315 485 1088
2019-10-12 13:43:16 GMT 44.130524 10.257909 29,600 315 485 1088
2019-10-12 13:43:13 GMT 44.124680 10.266135 29,525 315 485 1088
2019-10-12 13:43:09 GMT 44.119278 10.273655 29,450 315 486 1152
2019-10-12 13:43:06 GMT 44.113598 10.281634 29,375 315 486 1152
2019-10-12 13:43:02 GMT 44.109650 10.287227 29,300 315 486 1216
2019-10-12 13:42:59 GMT 44.102196 10.297655 29,250 315 487 1280
2019-10-12 13:42:55 GMT 44.097446 10.304326 29,175 315 487 1344
2019-10-12 13:42:52 GMT 44.092373 10.311454 27,950 315 492 1344
2019-10-12 13:42:49 GMT 44.086319 10.319955 29,050 315 489 1408
2019-10-12 13:42:43 GMT 44.079334 10.329764 28,925 315 490 1408
2019-10-12 13:42:40 GMT 44.071793 10.340243 28,850 315 491 1408
2019-10-12 13:42:37 GMT 44.069550 10.343372 28,650 315 492 1408
2019-10-12 13:42:34 GMT 44.062996 10.352587 28,625 315 492 1344
2019-10-12 13:42:30 GMT 44.053207 10.366239 28,575 315 493 1280
2019-10-12 13:42:24 GMT 44.048519 10.372794 28,500 315 501 576
2019-10-12 13:42:20 GMT 44.041443 10.382669 28,425 315 494 1216
2019-10-12 13:42:16 GMT 44.035172 10.391470 28,250 315 501 576
2019-10-12 13:42:11 GMT 44.022263 10.409546 28,200 315 496 1216
2019-10-12 13:42:08 GMT 44.022263 10.409546 28,150 315 496 1216
2019-10-12 13:42:05 GMT 44.018211 10.415170 28,100 315 497 1280
2019-10-12 13:42:01 GMT 44.009262 10.427622 28,000 315 498 1280
2019-10-12 13:41:58 GMT 44.001160 10.438992 27,850 315 500 1344
2019-10-12 13:41:50 GMT 43.990723 10.453491 27,750 315 500 1344
2019-10-12 13:41:47 GMT 43.987629 10.457807 27,750 315 500 1344
2019-10-12 13:41:44 GMT 43.983067 10.464216 27,550 315 502 1344
2019-10-12 13:41:39 GMT 43.974380 10.476294 27,500 315 503 1280
2019-10-12 13:41:36 GMT 43.969940 10.482396 27,475 315 502 1280
2019-10-12 13:41:31 GMT 43.961929 10.493604 27,150 315 504 832
2019-10-12 13:41:27 GMT 43.954376 10.504143 27,300 315 504 1088
2019-10-12 13:41:24 GMT 43.950073 10.510084 27,250 315 504 832
2019-10-12 13:41:17 GMT 43.936890 10.528415 27,075 315 504 640
2019-10-12 13:41:13 GMT 43.932789 10.534123 27,100 315 504 640
2019-10-12 13:41:08 GMT 43.923897 10.546483 27,075 315 504 640
2019-10-12 13:41:05 GMT 43.919617 10.552434 27,050 315 504 640
2019-10-12 13:41:02 GMT 43.913864 10.560416 27,000 315 504 640
2019-10-12 13:40:55 GMT 43.902485 10.576106 26,950 315 503 640
2019-10-12 13:40:52 GMT 43.897064 10.583666 26,900 315 503 576
2019-10-12 13:40:47 GMT 43.889145 10.594589 26,675 315 502 640
2019-10-12 13:40:44 GMT 43.884567 10.600976 26,825 315 502 640
2019-10-12 13:40:38 GMT 43.875046 10.614134 26,775 315 502 640
2019-10-12 13:40:34 GMT 43.867813 10.624163 26,725 315 502 576
2019-10-12 13:40:30 GMT 43.862228 10.631891 26,675 315 502 576
2019-10-12 13:40:23 GMT 43.850952 10.647518 26,650 315 502 576
2019-10-12 13:40:20 GMT 43.844879 10.655908 26,600 315 501 576
2019-10-12 13:40:16 GMT 43.830139 10.676348 26,550 315 500 576
2019-10-12 13:40:12 GMT 43.830139 10.676348 26,500 315 500 576
2019-10-12 13:40:08 GMT 43.825394 10.682896 26,500 315 500 576
2019-10-12 13:40:03 GMT 43.815399 10.696660 26,450 315 500 576
2019-10-12 13:40:00 GMT 43.810501 10.703430 26,400 315 500 512
2019-10-12 13:39:57 GMT 43.807205 10.707965 26,400 315 500 512
2019-10-12 13:39:52 GMT 43.800018 10.717930 26,350 315 499 448
2019-10-12 13:39:49 GMT 43.794159 10.726042 26,300 315 499 448
2019-10-12 13:39:42 GMT 43.783081 10.741371 26,200 316 498 576
2019-10-12 13:39:38 GMT 43.766785 10.763919 26,125 316 498 576
2019-10-12 13:39:32 GMT 43.766785 10.763919 26,175 316 498 576
2019-10-12 13:39:28 GMT 43.760406 10.772683 26,150 316 498 640
2019-10-12 13:39:25 GMT 43.753891 10.781642 26,125 316 497 640
2019-10-12 13:39:22 GMT 43.750488 10.786339 26,050 316 497 640
2019-10-12 13:39:19 GMT 43.740856 10.799626 26,050 316 497 640
2019-10-12 13:39:16 GMT 43.740856 10.799626 26,000 316 497 640
2019-10-12 13:39:12 GMT 43.733032 10.810351 25,950 316 497 704
2019-10-12 13:39:09 GMT 43.729450 10.815255 25,850 316 497 768
2019-10-12 13:39:05 GMT 43.716087 10.833631 25,850 316 497 768
2019-10-12 13:39:02 GMT 43.716087 10.833631 25,850 316 497 768
2019-10-12 13:38:58 GMT 43.712311 10.838779 25,800 316 497 640
2019-10-12 13:38:55 GMT 43.706451 10.846827 25,775 316 497 704
2019-10-12 13:38:52 GMT 43.701752 10.853315 25,750 316 497 576
2019-10-12 13:38:49 GMT 43.696701 10.860241 25,700 316 497 576
2019-10-12 13:38:46 GMT 43.691483 10.867395 25,625 315 496 576
2019-10-12 13:38:40 GMT 43.682247 10.880127 25,650 315 496 640
2019-10-12 13:38:37 GMT 43.675449 10.889544 25,575 315 496 704
2019-10-12 13:38:33 GMT 43.671707 10.894669 25,550 316 495 704
2019-10-12 13:38:29 GMT 43.664089 10.905173 25,500 316 495 704
2019-10-12 13:38:26 GMT 43.658272 10.913217 25,450 315 494 640
2019-10-12 13:38:21 GMT 43.650970 10.923221 25,425 316 494 576
2019-10-12 13:38:18 GMT 43.647240 10.928323 25,350 316 494 576
2019-10-12 13:38:15 GMT 43.641586 10.936123 25,275 316 493 640
2019-10-12 13:38:12 GMT 43.636578 10.942971 25,325 316 493 640
2019-10-12 13:38:08 GMT 43.631084 10.950492 25,300 316 493 704
2019-10-12 13:38:05 GMT 43.624939 10.958928 25,250 316 493 704
2019-10-12 13:37:59 GMT 43.614559 10.973118 25,175 316 492 704
2019-10-12 13:37:54 GMT 43.603294 10.988552 25,050 316 492 768
2019-10-12 13:37:51 GMT 43.597641 10.996292 25,025 316 492 768
2019-10-12 13:37:48 GMT 43.597641 10.996292 25,050 316 492 768
2019-10-12 13:37:44 GMT 43.591187 11.005107 24,975 316 491 768
2019-10-12 13:37:41 GMT 43.586163 11.011963 24,975 316 491 768
2019-10-12 13:37:37 GMT 43.580391 11.019941 24,925 316 491 768
2019-10-12 13:37:34 GMT 43.575222 11.026938 24,875 316 491 768
2019-10-12 13:37:30 GMT 43.563259 11.043222 24,750 316 491 768
2019-10-12 13:37:26 GMT 43.563259 11.043222 24,750 316 490 768
2019-10-12 13:37:23 GMT 43.556183 11.052900 24,725 316 490 768
2019-10-12 13:37:20 GMT 43.551498 11.059272 24,425 316 490 768
2019-10-12 13:37:17 GMT 43.546646 11.065851 24,650 316 490 704
2019-10-12 13:37:13 GMT 43.541656 11.072649 24,625 316 490 704
2019-10-12 13:37:10 GMT 43.536667 11.079456 24,425 316 490 768
2019-10-12 13:37:07 GMT 43.531815 11.086035 24,550 316 490 768
2019-10-12 13:37:03 GMT 43.525505 11.094557 24,500 316 490 768
2019-10-12 13:37:00 GMT 43.519547 11.102643 24,425 316 490 768
2019-10-12 13:36:54 GMT 43.506512 11.120322 24,225 316 487 704
2019-10-12 13:36:48 GMT 43.500690 11.128169 24,225 316 488 768
2019-10-12 13:36:42 GMT 43.491383 11.140856 24,225 316 488 768
2019-10-12 13:36:38 GMT 43.484756 11.149782 24,175 316 488 768
2019-10-12 13:36:35 GMT 43.479790 11.156485 24,150 316 488 768
2019-10-12 13:36:30 GMT 43.471737 11.167406 23,950 316 487 704
2019-10-12 13:36:27 GMT 43.467548 11.173030 24,050 316 487 640
2019-10-12 13:36:24 GMT 43.462601 11.179802 24,025 316 487 640
2019-10-12 13:36:21 GMT 43.457153 11.187212 23,975 316 487 640
2019-10-12 13:36:17 GMT 43.449623 11.197423 23,950 316 486 704
2019-10-12 13:36:14 GMT 43.446579 11.201520 23,900 316 486 704
2019-10-12 13:36:10 GMT 43.440315 11.209978 23,825 316 485 640
2019-10-12 13:36:06 GMT 43.433937 11.218676 23,825 316 485 640
2019-10-12 13:36:03 GMT 43.429466 11.224758 23,775 316 485 640
2019-10-12 13:35:59 GMT 43.421833 11.235090 23,750 316 485 640
2019-10-12 13:35:56 GMT 43.417191 11.241377 23,700 316 483 640
2019-10-12 13:35:53 GMT 43.410988 11.249804 23,675 316 483 640
2019-10-12 13:35:49 GMT 43.397301 11.268311 23,600 316 482 640
2019-10-12 13:35:43 GMT 43.397301 11.268311 23,475 316 482 704
2019-10-12 13:35:39 GMT 43.381256 11.289985 23,475 316 481 832
2019-10-12 13:35:34 GMT 43.381256 11.289985 23,450 316 482 832
2019-10-12 13:35:31 GMT 43.377609 11.294926 23,400 316 482 896
2019-10-12 13:35:28 GMT 43.372696 11.301610 23,300 316 481 832
2019-10-12 13:35:25 GMT 43.368763 11.306959 23,350 316 481 896
2019-10-12 13:35:22 GMT 43.363220 11.314513 23,300 316 481 896
2019-10-12 13:35:18 GMT 43.356857 11.323072 23,225 316 480 896
2019-10-12 13:35:14 GMT 43.351822 11.329906 23,175 316 480 896
2019-10-12 13:35:10 GMT 43.344223 11.340190 23,000 316 480 896
2019-10-12 13:35:06 GMT 43.339142 11.347088 23,075 316 480 896
2019-10-12 13:35:03 GMT 43.332825 11.355648 23,000 316 480 896
2019-10-12 13:35:00 GMT 43.328541 11.361433 22,950 316 480 960
2019-10-12 13:34:56 GMT 43.316071 11.378259 22,875 316 480 960
2019-10-12 13:34:52 GMT 43.316071 11.378259 22,850 316 480 960
2019-10-12 13:34:49 GMT 43.311131 11.384909 22,800 316 480 960
2019-10-12 13:34:44 GMT 43.303219 11.395569 22,750 316 479 960
2019-10-12 13:34:41 GMT 43.298309 11.402148 22,675 316 480 960
2019-10-12 13:34:37 GMT 43.286739 11.417672 22,500 316 479 960
2019-10-12 13:34:34 GMT 43.286739 11.417672 22,550 316 479 960
2019-10-12 13:34:31 GMT 43.281235 11.425143 22,500 316 478 960
2019-10-12 13:34:28 GMT 43.278671 11.428528 22,425 316 478 896
2019-10-12 13:34:25 GMT 43.273796 11.435133 22,425 316 478 960
2019-10-12 13:34:20 GMT 43.263973 11.448277 22,325 316 478 960
2019-10-12 13:34:15 GMT 43.257202 11.457399 22,250 316 478 960
2019-10-12 13:34:10 GMT 43.244747 11.474173 22,175 316 478 896
2019-10-12 13:34:07 GMT 43.244747 11.474173 22,125 316 477 832
2019-10-12 13:34:04 GMT 43.240814 11.479435 22,125 316 477 832
2019-10-12 13:33:59 GMT 43.227905 11.496809 22,025 316 476 896
2019-10-12 13:33:56 GMT 43.227905 11.496809 22,000 316 476 896
2019-10-12 13:33:51 GMT 43.220539 11.506740 21,950 316 475 896
2019-10-12 13:33:47 GMT 43.213326 11.516418 21,850 316 475 960
2019-10-12 13:33:44 GMT 43.207809 11.523764 21,825 316 475 960
2019-10-12 13:33:41 GMT 43.203922 11.529040 21,775 316 474 896
2019-10-12 13:33:37 GMT 43.197144 11.538072 21,700 316 474 896
2019-10-12 13:33:33 GMT 43.191833 11.545226 21,675 316 474 896
2019-10-12 13:33:30 GMT 43.186798 11.551932 21,625 316 473 896
2019-10-12 13:33:27 GMT 43.182083 11.558192 21,575 316 473 960
2019-10-12 13:33:19 GMT 43.170822 11.573266 21,400 316 472 1024
2019-10-12 13:33:15 GMT 43.157833 11.590576 21,375 316 472 960
2019-10-12 13:33:12 GMT 43.157833 11.590576 21,325 316 472 960
2019-10-12 13:33:08 GMT 43.153133 11.596789 21,275 316 471 960
2019-10-12 13:33:04 GMT 43.146290 11.605944 21,225 316 470 960
2019-10-12 13:33:01 GMT 43.142239 11.611372 21,175 316 470 1024
2019-10-12 13:32:58 GMT 43.136932 11.618434 21,125 316 470 1024
2019-10-12 13:32:53 GMT 43.129303 11.628581 20,975 316 469 1024
2019-10-12 13:32:50 GMT 43.123528 11.636287 20,975 316 470 960
2019-10-12 13:32:45 GMT 43.116356 11.645835 20,925 316 470 960
2019-10-12 13:32:42 GMT 43.111862 11.651831 20,875 316 469 960
2019-10-12 13:32:38 GMT 43.100784 11.666842 20,750 316 468 1024
2019-10-12 13:32:35 GMT 43.100784 11.666842 20,725 316 468 1088
2019-10-12 13:32:32 GMT 43.097672 11.670994 20,700 316 468 1088
2019-10-12 13:32:29 GMT 43.091766 11.678786 20,625 317 468 1024
2019-10-12 13:32:26 GMT 43.087051 11.684854 20,575 318 467 1024
2019-10-12 13:32:20 GMT 43.075974 11.698140 20,475 320 468 1024
2019-10-12 13:32:13 GMT 43.058865 11.716723 20,350 323 468 960
2019-10-12 13:32:09 GMT 43.058865 11.716723 20,300 324 468 960
2019-10-12 13:32:05 GMT 43.051510 11.724047 20,250 325 467 1024
2019-10-12 13:32:00 GMT 43.041367 11.733590 20,150 327 467 1024
2019-10-12 13:31:56 GMT 43.034866 11.739403 20,075 329 468 1024
2019-10-12 13:31:51 GMT 43.026234 11.746739 20,000 330 467 1088
2019-10-12 13:31:48 GMT 43.021763 11.750336 19,925 331 467 1088
2019-10-12 13:31:44 GMT 43.012360 11.757595 19,875 332 467 1152
2019-10-12 13:31:41 GMT 43.007751 11.760930 19,750 333 467 1152
2019-10-12 13:31:38 GMT 43.002026 11.765115 19,775 333 467 1088
2019-10-12 13:31:30 GMT 42.986755 11.776101 19,625 333 466 1088
2019-10-12 13:31:26 GMT 42.980072 11.780921 19,575 333 466 1088
2019-10-12 13:31:23 GMT 42.973022 11.786041 19,500 333 465 1088
2019-10-12 13:31:18 GMT 42.962410 11.793758 19,400 332 464 1088
2019-10-12 13:31:09 GMT 42.946861 11.805006 19,250 332 463 1088
2019-10-12 13:31:06 GMT 42.941925 11.808602 19,200 332 463 1088
2019-10-12 13:31:02 GMT 42.933594 11.814684 19,125 332 463 1088
2019-10-12 13:30:56 GMT 42.922279 11.822924 19,050 332 462 1088
2019-10-12 13:30:51 GMT 42.912830 11.829725 18,950 332 462 1088
2019-10-12 13:30:45 GMT 42.902634 11.837115 18,850 332 461 1088
2019-10-12 13:30:40 GMT 42.892487 11.844439 18,750 332 460 1088
2019-10-12 13:30:37 GMT 42.881424 11.852523 18,675 332 459 1088
2019-10-12 13:30:29 GMT 42.870377 11.860526 18,500 334 458 1088
2019-10-12 13:30:24 GMT 42.863205 11.865431 18,500 334 458 1088
2019-10-12 13:30:19 GMT 42.853195 11.871774 18,375 337 458 1152
2019-10-12 13:30:15 GMT 42.844849 11.876732 18,300 338 458 1152
2019-10-12 13:30:12 GMT 42.836563 11.881267 18,200 339 458 1152
2019-10-12 13:30:09 GMT 42.833771 11.882672 18,200 340 458 1152
2019-10-12 13:30:04 GMT 42.823215 11.887796 18,100 342 458 1152
2019-10-12 13:29:58 GMT 42.810696 11.893289 17,975 344 458 1152
2019-10-12 13:29:54 GMT 42.801708 11.896788 17,900 346 458 1152
2019-10-12 13:29:47 GMT 42.789001 11.901132 17,825 349 457 1152
2019-10-12 13:29:43 GMT 42.780075 11.903811 17,725 349 457 1152
2019-10-12 13:29:38 GMT 42.768448 11.906808 17,600 351 457 1152
2019-10-12 13:29:32 GMT 42.758423 11.909117 17,525 351 456 1152
2019-10-12 13:29:26 GMT 42.744499 11.912246 17,400 351 455 1024
2019-10-12 13:29:22 GMT 42.736404 11.914111 17,325 351 455 1024
2019-10-12 13:29:16 GMT 42.723953 11.916920 17,250 351 453 896
2019-10-12 13:29:12 GMT 42.715496 11.918825 17,125 351 451 960
2019-10-12 13:29:06 GMT 42.701294 11.922039 17,050 351 450 1024
2019-10-12 13:29:01 GMT 42.693710 11.923743 17,000 351 449 1152
2019-10-12 13:28:58 GMT 42.684036 11.925971 16,925 351 448 1152
2019-10-12 13:28:55 GMT 42.680161 11.926809 16,850 351 447 1216
2019-10-12 13:28:50 GMT 42.669968 11.929172 16,775 351 447 1216
2019-10-12 13:28:47 GMT 42.665497 11.930194 16,750 351 447 1216
2019-10-12 13:28:44 GMT 42.659592 11.931527 16,675 351 446 1216
2019-10-12 13:28:41 GMT 42.644318 11.934985 16,550 351 445 1152
2019-10-12 13:28:34 GMT 42.637619 11.936521 16,475 351 444 1152
2019-10-12 13:28:31 GMT 42.629929 11.938268 16,400 351 443 1216
2019-10-12 13:28:27 GMT 42.623276 11.939775 16,350 351 443 1280
2019-10-12 13:28:23 GMT 42.616608 11.941265 16,275 351 442 1344
2019-10-12 13:28:19 GMT 42.608334 11.943161 16,175 351 442 1344
2019-10-12 13:28:16 GMT 42.601273 11.944760 16,100 351 442 1408
2019-10-12 13:28:12 GMT 42.594406 11.946321 16,025 351 441 1408
2019-10-12 13:28:07 GMT 42.583145 11.948880 15,900 351 440 1344
2019-10-12 13:28:02 GMT 42.574535 11.950889 15,800 351 439 1280
2019-10-12 13:27:56 GMT 42.561859 11.953749 15,700 351 439 1280
2019-10-12 13:27:52 GMT 42.552658 11.955872 15,600 351 438 1280
2019-10-12 13:27:49 GMT 42.547256 11.957085 15,525 351 438 1280
2019-10-12 13:27:46 GMT 42.541489 11.958368 15,475 351 437 1280
2019-10-12 13:27:42 GMT 42.531509 11.960678 15,375 351 436 1344
2019-10-12 13:27:38 GMT 42.524490 11.962259 15,300 351 436 1344
2019-10-12 13:27:35 GMT 42.519928 11.963300 15,250 351 435 1344
2019-10-12 13:27:30 GMT 42.510406 11.965422 15,150 351 435 1280
2019-10-12 13:27:27 GMT 42.504242 11.966858 15,100 351 435 1344
2019-10-12 13:27:23 GMT 42.495117 11.968902 14,975 351 434 1344
2019-10-12 13:27:18 GMT 42.483990 11.971393 14,875 351 434 1408
2019-10-12 13:27:12 GMT 42.472321 11.974099 14,800 351 433 1408
2019-10-12 13:27:07 GMT 42.464035 11.975972 14,650 351 432 1280
2019-10-12 13:27:04 GMT 42.452801 11.978483 14,525 351 430 1280
2019-10-12 13:26:57 GMT 42.442795 11.980716 14,425 351 429 1280
2019-10-12 13:26:53 GMT 42.436111 11.982214 14,200 351 429 1408
2019-10-12 13:26:46 GMT 42.422588 11.985254 14,175 351 425 1472
2019-10-12 13:26:42 GMT 42.414768 11.986978 13,975 351 427 1536
2019-10-12 13:26:35 GMT 42.401733 11.989954 13,925 351 426 1472
2019-10-12 13:26:31 GMT 42.394520 11.991577 13,750 351 422 1472
2019-10-12 13:26:28 GMT 42.386124 11.993512 13,725 351 425 1472
2019-10-12 13:26:25 GMT 42.382462 11.994324 13,375 351 424 1408
2019-10-12 13:26:20 GMT 42.372940 11.996446 13,575 351 424 1408
2019-10-12 13:26:17 GMT 42.365158 11.998194 13,325 351 422 1408
2019-10-12 13:26:14 GMT 42.361511 11.999050 13,450 351 423 1408
2019-10-12 13:26:10 GMT 42.352993 12.000967 13,350 351 422 1408
2019-10-12 13:26:05 GMT 42.341995 12.003437 13,225 351 421 1472
2019-10-12 13:25:59 GMT 42.332794 12.005497 12,725 351 414 960
2019-10-12 13:25:53 GMT 42.320847 12.008119 12,950 351 419 1408
2019-10-12 13:25:49 GMT 42.312260 12.010101 12,850 351 418 1280
2019-10-12 13:25:43 GMT 42.300980 12.012613 12,775 351 417 1152
2019-10-12 13:25:38 GMT 42.292236 12.014549 12,675 351 414 960
2019-10-12 13:25:34 GMT 42.284683 12.016234 12,625 351 412 832
2019-10-12 13:25:27 GMT 42.271545 12.019230 12,525 351 409 832
2019-10-12 13:25:23 GMT 42.262775 12.021215 12,475 351 406 832
2019-10-12 13:25:17 GMT 42.251862 12.023662 12,400 351 403 896
2019-10-12 13:25:12 GMT 42.232655 12.028049 12,150 351 398 832
2019-10-12 13:25:06 GMT 42.232655 12.028049 12,250 351 397 832
2019-10-12 13:25:02 GMT 42.224487 12.029967 12,200 351 394 832
2019-10-12 13:24:59 GMT 42.219620 12.031051 12,150 351 393 832
2019-10-12 13:24:55 GMT 42.212997 12.032526 12,125 352 390 768
2019-10-12 13:24:50 GMT 42.202286 12.034773 12,050 352 386 832
2019-10-12 13:24:42 GMT 42.189240 12.037145 11,925 354 381 832
2019-10-12 13:24:39 GMT 42.183449 12.038141 11,900 354 380 832
2019-10-12 13:24:32 GMT 42.170231 12.040121 11,800 355 375 896
2019-10-12 13:24:29 GMT 42.165714 12.040696 11,775 355 373 896
2019-10-12 13:24:23 GMT 42.156281 12.041827 11,700 356 371 896
2019-10-12 13:24:18 GMT 42.148407 12.042639 11,650 356 368 832
2019-10-12 13:24:12 GMT 42.137455 12.043698 11,550 356 363 832
2019-10-12 13:24:09 GMT 42.131081 12.044337 11,500 356 360 768
2019-10-12 13:24:00 GMT 42.117207 12.045678 11,400 356 353 768
2019-10-12 13:23:57 GMT 42.113480 12.046009 11,375 356 352 768
2019-10-12 13:23:50 GMT 42.102448 12.047071 11,300 356 347 768
2019-10-12 13:23:47 GMT 42.097191 12.047595 11,250 356 344 832
2019-10-12 13:23:38 GMT 42.081360 12.049064 11,100 356 337 1280
2019-10-12 13:23:30 GMT 42.069630 12.050213 10,925 356 328 1216
2019-10-12 13:23:19 GMT 42.052219 12.051874 10,700 356 317 1152
2019-10-12 13:23:06 GMT 42.034149 12.053687 10,525 356 308 1088
2019-10-12 13:22:58 GMT 42.022659 12.054873 10,325 356 298 1536
2019-10-12 13:22:55 GMT 42.020054 12.055132 10,325 356 298 1536
2019-10-12 13:22:47 GMT 42.008423 12.056372 9,975 356 295 2432
2019-10-12 13:22:44 GMT 42.005173 12.056684 9,975 356 295 2432
2019-10-12 13:22:37 GMT 41.993843 12.057814 9,600 356 293 1920
2019-10-12 13:22:33 GMT 41.990204 12.058182 9,550 356 293 1920
2019-10-12 13:22:26 GMT 41.980064 12.059156 9,275 356 292 1856
2019-10-12 13:22:23 GMT 41.976013 12.059539 9,275 356 292 1856
2019-10-12 13:22:15 GMT 41.964798 12.060616 8,925 356 290 2112
2019-10-12 13:22:12 GMT 41.961208 12.061008 8,875 356 290 2176
2019-10-12 13:22:05 GMT 41.947243 12.062350 8,500 357 290 2240
2019-10-12 13:21:54 GMT 41.932720 12.063691 8,125 357 290 1728
2019-10-12 13:21:44 GMT 41.922291 12.064649 7,950 357 288 768
2019-10-12 13:21:40 GMT 41.918011 12.065032 7,925 357 288 768
2019-10-12 13:21:33 GMT 41.908699 12.065863 7,800 357 287 1216
2019-10-12 13:21:29 GMT 41.903671 12.066310 7,725 356 288 1408
2019-10-12 13:21:22 GMT 41.894943 12.067171 7,575 356 290 1856
2019-10-12 13:21:18 GMT 41.889038 12.067732 7,425 356 290 2240
2019-10-12 13:21:12 GMT 41.881142 12.068545 7,225 357 289 2048
2019-10-12 13:21:07 GMT 41.874069 12.069168 7,075 356 288 1792
2019-10-12 13:21:01 GMT 41.866608 12.070292 6,925 351 286 1792
2019-10-12 13:20:55 GMT 41.858982 12.072378 6,725 347 284 2048
2019-10-12 13:20:52 GMT 41.853333 12.074599 6,575 342 283 2240
2019-10-12 13:20:45 GMT 41.846512 12.078219 6,375 335 281 2304
2019-10-12 13:20:41 GMT 41.841244 12.081767 6,200 330 281 2432
2019-10-12 13:20:34 GMT 41.834061 12.087645 5,950 328 281 2368
2019-10-12 13:20:31 GMT 41.829254 12.091827 5,800 328 280 2240
2019-10-12 13:20:24 GMT 41.822346 12.097736 5,575 328 280 2112
2019-10-12 13:20:20 GMT 41.818085 12.101378 5,425 328 278 2112
2019-10-12 13:20:13 GMT 41.810669 12.107683 5,200 328 278 2176
2019-10-12 13:20:08 GMT 41.805450 12.112115 5,025 328 277 2176
2019-10-12 13:20:02 GMT 41.798836 12.117664 4,800 328 276 2176
2019-10-12 13:19:59 GMT 41.795471 12.120479 4,700 329 275 2112
2019-10-12 13:19:51 GMT 41.786686 12.127693 4,425 330 273 2432
2019-10-12 13:19:48 GMT 41.783524 12.130217 4,300 330 273 2688
2019-10-12 13:19:43 GMT 41.777931 12.134527 4,075 331 274 2816
2019-10-12 13:19:40 GMT 41.775047 12.136635 3,950 332 274 2752
2019-10-12 13:19:37 GMT 41.771694 12.139062 3,825 333 275 2624
2019-10-12 13:19:30 GMT 41.763268 12.144875 3,475 334 275 2368
2019-10-12 13:19:27 GMT 41.760571 12.146727 3,475 334 275 2368
2019-10-12 13:19:17 GMT 41.748371 12.155222 2,975 331 275 2688
2019-10-12 13:19:08 GMT 41.738068 12.163863 2,600 325 276 2176
2019-10-12 13:18:57 GMT 41.727951 12.175224 2,100 296 267 1152
2019-10-12 13:18:47 GMT 41.720993 12.190892 2,025 288 263 1216
2019-10-12 13:18:36 GMT 41.719025 12.206310 1,525 249 245 1408
2019-10-12 13:18:25 GMT 41.720905 12.222673 1,500 249 245 1408
2019-10-12 13:18:15 GMT 41.726448 12.236215 1,300 229 233 1024
2019-10-12 13:18:05 GMT 41.734638 12.245540 1,200 208 220 192
2019-10-12 13:17:53 GMT 41.745068 12.250267 1,175 189 205 448
2019-10-12 13:17:42 GMT 41.755096 12.250380 925 174 196 2112
2019-10-12 13:17:32 GMT 41.764435 12.247946 600 163 199 2176
2019-10-12 13:17:21 GMT 41.773911 12.244013 225 162 197 1984
2019-10-12 13:17:11 GMT 41.782654 12.240205 -50 161 191 1472
2019-10-12 13:16:59 GMT 41.792450 12.236023 -275 162 178 64
2019-10-12 13:16:49 GMT 41.799767 12.233021 -275 162 150 0
2019-10-12 13:16:35 GMT 41.808014 12.229531 -275 162 116 0
2019-10-12 13:16:27 GMT 41.811333 12.228142 0 160 78
2019-10-12 13:16:15 GMT 41.814209 12.226937 0 160 29
2019-10-12 13:16:04 GMT 41.814869 12.226675 0 165 4
2019-10-12 13:15:53 GMT 41.814972 12.226644 0 165 2
2019-10-12 13:15:41 GMT 41.815063 12.226613 0 168 2
2019-10-12 13:15:30 GMT 41.815132 12.226597 0 168 2
2019-10-12 13:15:19 GMT 41.815186 12.226538 0 182 2
2019-10-12 13:15:08 GMT 41.815281 12.226457 0 216 4
2019-10-12 13:14:57 GMT 41.815464 12.226613 0 250 7
2019-10-12 13:14:46 GMT 41.815594 12.227144 0 253 9
2019-10-12 13:14:36 GMT 41.815701 12.227655 0 272 9
2019-10-12 13:14:26 GMT 41.815636 12.228158 0 295 7
2019-10-12 13:14:15 GMT 41.815521 12.228454 0 295 3
2019-10-12 13:14:04 GMT 41.815491 12.228550 0 295 0
2019-10-12 13:13:54 GMT 41.815475 12.228563 0 295 0
2019-10-12 13:13:43 GMT 41.815475 12.228579 0 295 0
2019-10-12 13:13:33 GMT 41.815456 12.228614 0 295 2
2019-10-12 13:13:21 GMT 41.815384 12.228821 0 295 6
2019-10-12 13:13:11 GMT 41.815247 12.229172 0 295 8
2019-10-12 13:13:00 GMT 41.815052 12.229687 0 315 9
2019-10-12 13:12:49 GMT 41.814663 12.230030 0 340 11
2019-10-12 13:12:38 GMT 41.814056 12.230258 0 340 15
2019-10-12 13:12:28 GMT 41.813347 12.230562 0 340 16
2019-10-12 13:12:17 GMT 41.812557 12.230889 0 340 18
2019-10-12 13:12:05 GMT 41.811626 12.231280 0 340 19
2019-10-12 13:11:57 GMT 41.810986 12.231552 0 340 19
2019-10-12 13:11:54 GMT 41.810669 12.231685 0 340 19
2019-10-12 13:11:44 GMT 41.809879 12.232015 0 340 18
2019-10-12 13:11:32 GMT 41.808998 12.232387 0 340 18
2019-10-12 13:11:21 GMT 41.808098 12.232749 0 340 17
2019-10-12 13:11:10 GMT 41.807293 12.233089 0 340 17
2019-10-12 13:10:58 GMT 41.806446 12.233452 0 340 17
2019-10-12 13:10:47 GMT 41.805668 12.233776 0 340 16
2019-10-12 13:10:36 GMT 41.804878 12.234103 0 340 16
2019-10-12 13:10:25 GMT 41.804131 12.234410 0 340 15
2019-10-12 13:10:13 GMT 41.803387 12.234730 0 340 15
2019-10-12 13:10:02 GMT 41.802681 12.235024 0 340 14
2019-10-12 13:09:51 GMT 41.802006 12.235305 0 340 14
2019-10-12 13:09:41 GMT 41.801388 12.235570 0 340 14
2019-10-12 13:09:30 GMT 41.800800 12.235815 0 340 12
2019-10-12 13:09:19 GMT 41.800289 12.236039 0 340 9
2019-10-12 13:09:08 GMT 41.799885 12.236199 0 340 8
2019-10-12 13:08:58 GMT 41.799557 12.236342 0 340 6
2019-10-12 13:08:39 GMT 41.799328 12.236429 0 340 0
2019-10-12 13:08:34 GMT 41.799313 12.236438 0 340 0
2019-10-12 13:08:14 GMT 41.799305 12.236444 0 340 0
2019-10-12 13:08:04 GMT 41.799301 12.236438 0 340 0
2019-10-12 13:07:53 GMT 41.799305 12.236444 0 340 0
2019-10-12 13:07:42 GMT 41.799282 12.236460 0 340 2
2019-10-12 13:07:31 GMT 41.799160 12.236502 0 340 4
2019-10-12 13:07:21 GMT 41.798988 12.236582 0 340 6
2019-10-12 13:07:10 GMT 41.798630 12.236725 0 340 11
2019-10-12 13:06:59 GMT 41.798046 12.236975 0 340 13
2019-10-12 13:06:49 GMT 41.797485 12.237209 0 340 13
2019-10-12 13:06:38 GMT 41.796799 12.237490 0 340 16
2019-10-12 13:06:27 GMT 41.796043 12.237818 0 340 16
2019-10-12 13:06:15 GMT 41.795231 12.238145 0 340 16
2019-10-12 13:06:07 GMT 41.794647 12.238386 0 340 15
2019-10-12 13:05:56 GMT 41.793972 12.238674 0 340 15
2019-10-12 13:05:45 GMT 41.793262 12.238977 0 340 14
2019-10-12 13:05:34 GMT 41.792633 12.239233 0 340 14
2019-10-12 13:05:24 GMT 41.792015 12.239503 0 340 13
2019-10-12 13:05:13 GMT 41.791431 12.239737 0 340 13
2019-10-12 13:05:03 GMT 41.790863 12.239983 0 340 12
2019-10-12 13:04:52 GMT 41.790318 12.240207 0 340 12
2019-10-12 13:04:42 GMT 41.789818 12.240408 0 340 11
2019-10-12 13:04:31 GMT 41.789314 12.240622 0 340 10
2019-10-12 13:04:20 GMT 41.788895 12.240798 0 340 7
2019-10-12 13:04:10 GMT 41.788628 12.240923 0 340 6
2019-10-12 13:03:59 GMT 41.788364 12.241032 0 340 6
2019-10-12 13:03:49 GMT 41.788136 12.241126 0 340 5
2019-10-12 13:03:38 GMT 41.787941 12.241204 0 340 5
2019-10-12 13:03:28 GMT 41.787640 12.241340 0 337 9
2019-10-12 13:03:17 GMT 41.787243 12.241532 0 317 9
2019-10-12 13:03:07 GMT 41.786945 12.241922 0 264 9
2019-10-12 13:02:56 GMT 41.787033 12.242522 0 250 10
2019-10-12 13:02:45 GMT 41.787163 12.243081 0 250 10
2019-10-12 13:02:35 GMT 41.787289 12.243607 0 250 8
2019-10-12 13:02:21 GMT 41.787392 12.244029 0 250 2
2019-10-12 13:02:11 GMT 41.787395 12.244055 0 250 0
2019-10-12 13:02:01 GMT 41.787403 12.244060 0 250 0
2019-10-12 13:01:52 GMT 41.787407 12.244055 0 250 0
2019-10-12 13:01:31 GMT 41.787403 12.244060 0 250 0
2019-10-12 13:01:17 GMT 41.787395 12.244055 0 250 0
2019-10-12 13:01:07 GMT 41.787403 12.244060 0 250 0
2019-10-12 13:00:57 GMT 41.787395 12.244055 0 250 0
2019-10-12 13:00:47 GMT 41.787403 12.244060 0 250 0
2019-10-12 13:00:37 GMT 41.787395 12.244055 0 250 0
2019-10-12 13:00:06 GMT 41.787403 12.244060 0 250 0
2019-10-12 12:59:51 GMT 41.787395 12.244055 0 250 0
2019-10-12 12:59:36 GMT 41.787403 12.244060 0 250 0
2019-10-12 12:59:21 GMT 41.787395 12.244055 0 250 0
2019-10-12 12:59:06 GMT 41.787403 12.244060 0 250 0
2019-10-12 12:58:56 GMT 41.787395 12.244055 0 250 0
2019-10-12 12:58:36 GMT 41.787403 12.244060 0 250 0
2019-10-12 12:58:26 GMT 41.787395 12.244055 0 250 0
2019-10-12 12:58:06 GMT 41.787403 12.244060 0 250 0
2019-10-12 12:57:55 GMT 41.787407 12.244087 0 250 0
2019-10-12 12:57:43 GMT 41.787418 12.244151 0 250 0
2019-10-12 12:57:32 GMT 41.787426 12.244200 0 247 0
2019-10-12 12:57:21 GMT 41.787453 12.244295 0 250 3
2019-10-12 12:57:10 GMT 41.787495 12.244434 0 250 3
2019-10-12 12:56:58 GMT 41.787540 12.244575 0 253 2
2019-10-12 12:56:44 GMT 41.787582 12.244710 0 258 1
2019-10-12 12:56:34 GMT 41.787575 12.244793 0 253 0
2019-10-12 12:56:26 GMT 41.787571 12.244822 0 253 0
2019-10-12 12:56:15 GMT 41.787575 12.244778 0 255 2
2019-10-12 12:56:05 GMT 41.787582 12.244678 0 264 2
2019-10-12 12:55:54 GMT 41.787651 12.244614 0 281 2
2019-10-12 12:55:43 GMT 41.787720 12.244566 0 300 2
2019-10-12 12:55:32 GMT 41.787792 12.244550 0 315 2
2019-10-12 12:55:22 GMT 41.787884 12.244518 0 326 2
2019-10-12 12:55:11 GMT 41.787975 12.244470 0 331 2
2019-10-12 12:55:00 GMT 41.788055 12.244434 0 334 2
2019-10-12 12:54:49 GMT 41.788136 12.244403 0 337 2
2019-10-12 12:54:38 GMT 41.788219 12.244374 0 337 2
2019-10-12 12:54:26 GMT 41.788296 12.244341 0 340 2
2019-10-12 12:53:57 GMT 41.788361 12.244311 0 340 0
2019-10-12 12:53:42 GMT 41.788364 12.244310 0 340 0
2019-10-12 12:53:27 GMT 41.788364 12.244325 0 340 0
2019-10-12 12:53:17 GMT 41.788361 12.244311 0 340 0
2019-10-12 12:52:47 GMT 41.788364 12.244325 0 340 0
2019-10-12 12:52:06 GMT 41.788361 12.244327 0 340 0

Making use of Plane Finder data

You are free to use the raw flight data, aircraft information and images provided in this report for your own purposes provided the data is correctly attributed to Plane Finder. We ask that you please credit Plane Finder and link to planefinder.net in close proximity to the content.

Optionally one of the following logos (no smaller then 150x24px) can be used and must link to planefinder.net

Embedding the Plane Finder map

You are welcome to embed the Plane Finder playback map on your website to offer visitors a more interactive experience. We suggest using the following HTML code:

<iframe src="//planefinder.net/data/report/DY7077-LN-LNV-7700-squawk-2019-10-12/map" width="800" height="600" seamless="seamless"></iframe>

Where our data comes from

Plane Finder has a global network of data feeds and antenna radars that receive data broadcast directly from aircraft. The primary technologies used are ADS-B and MLAT. We also show feeds from the FAA and a FLARM glider feed.

Click here to find out more about the Plane Finder network.

How we collect our data